<?xml version="1.0" encoding="UTF-8" standalone="no" ?>
<gpx xmlns="http://www.topografix.com/GPX/1/1" xmlns:xsi="http://www.w3.org/2001/XMLSchema-instance" xsi:schemaLocation="http://www.topografix.com/GPX/1/1 http://www.topografix.com/GPX/1/1/gpx.xsd" version="1.1" creator="VisuGPX - https://www.visugpx.com">
  <metadata>
    <name>La lame de Facibelle par Tanaron</name>
    <desc><![CDATA[Un site géologique superbe.
De bonnes montées, les points de vue se méritent !
Ne pas hésiter à remonter le cours d'eau en arrivant au pied de la lame sur la gauche, puis revenir sur ses pas pou la contourner et poursuivre. La hauteur est impressionnante.
]]></desc>
  </metadata>
  <trk>
    <name><![CDATA[Facibelle 1]]></name>
    <extensions>
      <line xmlns="http://www.topografix.com/GPX/gpx_style/0/2">
        <color>0000FF</color>
        <width>4</width>
      </line>
    </extensions>
    <trkseg>
      <trkpt lat="44.194" lon="6.27582">
        <ele>759.8</ele>
        <time>2021-09-18T07:40:00.000Z</time>
      </trkpt>
      <trkpt lat="44.19392" lon="6.27567">
        <ele>764.8</ele>
        <time>2021-09-18T07:41:04.962Z</time>
      </trkpt>
      <trkpt lat="44.19392" lon="6.27563">
        <ele>766.1</ele>
        <time>2021-09-18T07:41:18.861Z</time>
      </trkpt>
      <trkpt lat="44.19402" lon="6.27551">
        <ele>769.4</ele>
        <time>2021-09-18T07:42:22.795Z</time>
      </trkpt>
      <trkpt lat="44.19401" lon="6.27544">
        <ele>771.6</ele>
        <time>2021-09-18T07:42:47.597Z</time>
      </trkpt>
      <trkpt lat="44.19398" lon="6.27543">
        <ele>772.1</ele>
        <time>2021-09-18T07:43:02.546Z</time>
      </trkpt>
      <trkpt lat="44.19394" lon="6.27542">
        <ele>772.6</ele>
        <time>2021-09-18T07:43:19.668Z</time>
      </trkpt>
      <trkpt lat="44.19392" lon="6.27541">
        <ele>773</ele>
        <time>2021-09-18T07:43:29.965Z</time>
      </trkpt>
      <trkpt lat="44.19388" lon="6.2753">
        <ele>776.8</ele>
        <time>2021-09-18T07:44:12.824Z</time>
      </trkpt>
      <trkpt lat="44.19393" lon="6.27525">
        <ele>778.1</ele>
        <time>2021-09-18T07:44:42.641Z</time>
      </trkpt>
      <trkpt lat="44.19402" lon="6.27515">
        <ele>780.6</ele>
        <time>2021-09-18T07:45:38.408Z</time>
      </trkpt>
      <trkpt lat="44.19404" lon="6.27509">
        <ele>782.3</ele>
        <time>2021-09-18T07:46:01.401Z</time>
      </trkpt>
      <trkpt lat="44.19412" lon="6.27493">
        <ele>786.3</ele>
        <time>2021-09-18T07:47:09.182Z</time>
      </trkpt>
      <trkpt lat="44.19417" lon="6.27473">
        <ele>791.4</ele>
        <time>2021-09-18T07:48:22.782Z</time>
      </trkpt>
      <trkpt lat="44.19424" lon="6.27463">
        <ele>793.6</ele>
        <time>2021-09-18T07:49:11.345Z</time>
      </trkpt>
      <trkpt lat="44.19425" lon="6.2746">
        <ele>794.3</ele>
        <time>2021-09-18T07:49:22.841Z</time>
      </trkpt>
      <trkpt lat="44.19424" lon="6.27454">
        <ele>796.1</ele>
        <time>2021-09-18T07:49:44.246Z</time>
      </trkpt>
      <trkpt lat="44.19414" lon="6.27449">
        <ele>798.3</ele>
        <time>2021-09-18T07:50:35.731Z</time>
      </trkpt>
      <trkpt lat="44.19414" lon="6.27444">
        <ele>799.7</ele>
        <time>2021-09-18T07:50:53.105Z</time>
      </trkpt>
      <trkpt lat="44.19417" lon="6.27442">
        <ele>800</ele>
        <time>2021-09-18T07:51:03.025Z</time>
      </trkpt>
      <trkpt lat="44.19409" lon="6.27433">
        <ele>803.1</ele>
        <time>2021-09-18T07:51:52.837Z</time>
      </trkpt>
      <trkpt lat="44.1939" lon="6.27418">
        <ele>808.6</ele>
        <time>2021-09-18T07:53:38.649Z</time>
      </trkpt>
      <trkpt lat="44.1939" lon="6.27412">
        <ele>810</ele>
        <time>2021-09-18T07:53:59.498Z</time>
      </trkpt>
      <trkpt lat="44.19389" lon="6.27413">
        <ele>809.8</ele>
        <time>2021-09-18T07:53:59.798Z</time>
      </trkpt>
      <trkpt lat="44.19384" lon="6.27417">
        <ele>809.3</ele>
        <time>2021-09-18T07:54:01.207Z</time>
      </trkpt>
      <trkpt lat="44.19378" lon="6.27419">
        <ele>809.2</ele>
        <time>2021-09-18T07:54:03.444Z</time>
      </trkpt>
      <trkpt lat="44.19366" lon="6.27426">
        <ele>808.1</ele>
        <time>2021-09-18T07:54:06.623Z</time>
      </trkpt>
      <trkpt lat="44.19365" lon="6.27429">
        <ele>807.4</ele>
        <time>2021-09-18T07:54:07.202Z</time>
      </trkpt>
      <trkpt lat="44.19364" lon="6.27431">
        <ele>806.9</ele>
        <time>2021-09-18T07:54:07.630Z</time>
      </trkpt>
      <trkpt lat="44.19354" lon="6.27445">
        <ele>803.9</ele>
        <time>2021-09-18T07:54:11.093Z</time>
      </trkpt>
      <trkpt lat="44.19348" lon="6.27455">
        <ele>801.7</ele>
        <time>2021-09-18T07:54:13.378Z</time>
      </trkpt>
      <trkpt lat="44.19347" lon="6.27458">
        <ele>801</ele>
        <time>2021-09-18T07:54:13.957Z</time>
      </trkpt>
      <trkpt lat="44.19343" lon="6.27459">
        <ele>801.1</ele>
        <time>2021-09-18T07:54:20.549Z</time>
      </trkpt>
      <trkpt lat="44.19346" lon="6.2744">
        <ele>805.9</ele>
        <time>2021-09-18T07:55:28.154Z</time>
      </trkpt>
      <trkpt lat="44.19345" lon="6.27432">
        <ele>808.1</ele>
        <time>2021-09-18T07:55:56.372Z</time>
      </trkpt>
      <trkpt lat="44.19346" lon="6.27417">
        <ele>812</ele>
        <time>2021-09-18T07:56:48.720Z</time>
      </trkpt>
      <trkpt lat="44.19347" lon="6.27413">
        <ele>812.6</ele>
        <time>2021-09-18T07:57:03.440Z</time>
      </trkpt>
      <trkpt lat="44.19349" lon="6.27398">
        <ele>815</ele>
        <time>2021-09-18T07:57:56.457Z</time>
      </trkpt>
      <trkpt lat="44.19349" lon="6.27394">
        <ele>815.7</ele>
        <time>2021-09-18T07:58:10.356Z</time>
      </trkpt>
      <trkpt lat="44.1935" lon="6.27385">
        <ele>817.2</ele>
        <time>2021-09-18T07:58:42.004Z</time>
      </trkpt>
      <trkpt lat="44.1935" lon="6.27379">
        <ele>818.2</ele>
        <time>2021-09-18T07:59:02.853Z</time>
      </trkpt>
      <trkpt lat="44.1935" lon="6.27366">
        <ele>820.4</ele>
        <time>2021-09-18T07:59:48.026Z</time>
      </trkpt>
      <trkpt lat="44.19349" lon="6.27346">
        <ele>823.8</ele>
        <time>2021-09-18T08:00:57.692Z</time>
      </trkpt>
      <trkpt lat="44.19349" lon="6.27344">
        <ele>824.1</ele>
        <time>2021-09-18T08:01:04.642Z</time>
      </trkpt>
      <trkpt lat="44.19351" lon="6.27337">
        <ele>825.4</ele>
        <time>2021-09-18T08:01:30.826Z</time>
      </trkpt>
      <trkpt lat="44.19355" lon="6.27339">
        <ele>825.3</ele>
        <time>2021-09-18T08:01:32.240Z</time>
      </trkpt>
      <trkpt lat="44.19358" lon="6.27339">
        <ele>825.4</ele>
        <time>2021-09-18T08:01:37.666Z</time>
      </trkpt>
      <trkpt lat="44.19363" lon="6.27331">
        <ele>827.2</ele>
        <time>2021-09-18T08:02:14.544Z</time>
      </trkpt>
      <trkpt lat="44.19367" lon="6.27321">
        <ele>829.4</ele>
        <time>2021-09-18T08:02:54.334Z</time>
      </trkpt>
      <trkpt lat="44.19367" lon="6.27317">
        <ele>830.2</ele>
        <time>2021-09-18T08:03:08.234Z</time>
      </trkpt>
      <trkpt lat="44.19375" lon="6.27306">
        <ele>832.9</ele>
        <time>2021-09-18T08:04:02.679Z</time>
      </trkpt>
      <trkpt lat="44.19367" lon="6.27292">
        <ele>835</ele>
        <time>2021-09-18T08:05:04.888Z</time>
      </trkpt>
      <trkpt lat="44.19367" lon="6.27289">
        <ele>835.5</ele>
        <time>2021-09-18T08:05:15.312Z</time>
      </trkpt>
      <trkpt lat="44.19366" lon="6.2728">
        <ele>837.2</ele>
        <time>2021-09-18T08:05:46.959Z</time>
      </trkpt>
      <trkpt lat="44.19365" lon="6.2727">
        <ele>839</ele>
        <time>2021-09-18T08:06:22.044Z</time>
      </trkpt>
      <trkpt lat="44.19369" lon="6.27265">
        <ele>840.4</ele>
        <time>2021-09-18T08:06:48.076Z</time>
      </trkpt>
      <trkpt lat="44.19373" lon="6.27269">
        <ele>840</ele>
        <time>2021-09-18T08:06:49.279Z</time>
      </trkpt>
      <trkpt lat="44.19381" lon="6.27267">
        <ele>841.3</ele>
        <time>2021-09-18T08:07:28.669Z</time>
      </trkpt>
      <trkpt lat="44.19385" lon="6.27261">
        <ele>842.9</ele>
        <time>2021-09-18T08:07:57.138Z</time>
      </trkpt>
      <trkpt lat="44.19385" lon="6.2726">
        <ele>843.1</ele>
        <time>2021-09-18T08:08:00.613Z</time>
      </trkpt>
      <trkpt lat="44.19391" lon="6.2725">
        <ele>845.9</ele>
        <time>2021-09-18T08:08:45.924Z</time>
      </trkpt>
      <trkpt lat="44.19395" lon="6.27233">
        <ele>850.7</ele>
        <time>2021-09-18T08:09:48.096Z</time>
      </trkpt>
      <trkpt lat="44.19399" lon="6.27217">
        <ele>855.3</ele>
        <time>2021-09-18T08:10:46.976Z</time>
      </trkpt>
      <trkpt lat="44.194" lon="6.27212">
        <ele>856.7</ele>
        <time>2021-09-18T08:11:05.013Z</time>
      </trkpt>
      <trkpt lat="44.19403" lon="6.27207">
        <ele>858.4</ele>
        <time>2021-09-18T08:11:27.669Z</time>
      </trkpt>
      <trkpt lat="44.19404" lon="6.27205">
        <ele>859</ele>
        <time>2021-09-18T08:11:36.141Z</time>
      </trkpt>
      <trkpt lat="44.19401" lon="6.27203">
        <ele>859.1</ele>
        <time>2021-09-18T08:11:41.908Z</time>
      </trkpt>
      <trkpt lat="44.19391" lon="6.27208">
        <ele>856.4</ele>
        <time>2021-09-18T08:11:44.504Z</time>
      </trkpt>
      <trkpt lat="44.19388" lon="6.27208">
        <ele>856</ele>
        <time>2021-09-18T08:11:45.237Z</time>
      </trkpt>
      <trkpt lat="44.19377" lon="6.27203">
        <ele>855.6</ele>
        <time>2021-09-18T08:11:48.660Z</time>
      </trkpt>
      <trkpt lat="44.19371" lon="6.27199">
        <ele>855.6</ele>
        <time>2021-09-18T08:11:57.016Z</time>
      </trkpt>
      <trkpt lat="44.19365" lon="6.27185">
        <ele>858</ele>
        <time>2021-09-18T08:12:53.693Z</time>
      </trkpt>
      <trkpt lat="44.19363" lon="6.27173">
        <ele>860.5</ele>
        <time>2021-09-18T08:13:36.503Z</time>
      </trkpt>
      <trkpt lat="44.19355" lon="6.27151">
        <ele>865</ele>
        <time>2021-09-18T08:15:02.220Z</time>
      </trkpt>
      <trkpt lat="44.19352" lon="6.27141">
        <ele>867.3</ele>
        <time>2021-09-18T08:15:39.887Z</time>
      </trkpt>
      <trkpt lat="44.19349" lon="6.27123">
        <ele>871.9</ele>
        <time>2021-09-18T08:16:44.103Z</time>
      </trkpt>
      <trkpt lat="44.19342" lon="6.27105">
        <ele>876</ele>
        <time>2021-09-18T08:17:55.259Z</time>
      </trkpt>
      <trkpt lat="44.19341" lon="6.27096">
        <ele>878.4</ele>
        <time>2021-09-18T08:18:26.906Z</time>
      </trkpt>
      <trkpt lat="44.19344" lon="6.27098">
        <ele>878.3</ele>
        <time>2021-09-18T08:18:27.936Z</time>
      </trkpt>
      <trkpt lat="44.19346" lon="6.27102">
        <ele>877.4</ele>
        <time>2021-09-18T08:18:28.790Z</time>
      </trkpt>
      <trkpt lat="44.19361" lon="6.27112">
        <ele>876.7</ele>
        <time>2021-09-18T08:18:33.364Z</time>
      </trkpt>
      <trkpt lat="44.19369" lon="6.27116">
        <ele>876.8</ele>
        <time>2021-09-18T08:18:45.333Z</time>
      </trkpt>
      <trkpt lat="44.19375" lon="6.27121">
        <ele>876.3</ele>
        <time>2021-09-18T08:18:47.041Z</time>
      </trkpt>
      <trkpt lat="44.19382" lon="6.2712">
        <ele>877.6</ele>
        <time>2021-09-18T08:19:21.144Z</time>
      </trkpt>
      <trkpt lat="44.19388" lon="6.27117">
        <ele>879.3</ele>
        <time>2021-09-18T08:19:52.035Z</time>
      </trkpt>
      <trkpt lat="44.19386" lon="6.27113">
        <ele>880.1</ele>
        <time>2021-09-18T08:20:08.980Z</time>
      </trkpt>
      <trkpt lat="44.1938" lon="6.27112">
        <ele>879.5</ele>
        <time>2021-09-18T08:20:10.457Z</time>
      </trkpt>
      <trkpt lat="44.1937" lon="6.27092">
        <ele>883.5</ele>
        <time>2021-09-18T08:21:35.184Z</time>
      </trkpt>
      <trkpt lat="44.19365" lon="6.27079">
        <ele>886.2</ele>
        <time>2021-09-18T08:22:26.446Z</time>
      </trkpt>
      <trkpt lat="44.1936" lon="6.27059">
        <ele>890.6</ele>
        <time>2021-09-18T08:23:40.047Z</time>
      </trkpt>
      <trkpt lat="44.19355" lon="6.27046">
        <ele>893.3</ele>
        <time>2021-09-18T08:24:31.309Z</time>
      </trkpt>
      <trkpt lat="44.19352" lon="6.27023">
        <ele>899</ele>
        <time>2021-09-18T08:25:52.543Z</time>
      </trkpt>
      <trkpt lat="44.19345" lon="6.27005">
        <ele>903.2</ele>
        <time>2021-09-18T08:27:03.699Z</time>
      </trkpt>
      <trkpt lat="44.19342" lon="6.26994">
        <ele>906.3</ele>
        <time>2021-09-18T08:27:44.594Z</time>
      </trkpt>
      <trkpt lat="44.19341" lon="6.26991">
        <ele>907.3</ele>
        <time>2021-09-18T08:27:56.091Z</time>
      </trkpt>
      <trkpt lat="44.19335" lon="6.26972">
        <ele>913.4</ele>
        <time>2021-09-18T08:29:08.233Z</time>
      </trkpt>
      <trkpt lat="44.19332" lon="6.26967">
        <ele>914.3</ele>
        <time>2021-09-18T08:29:30.889Z</time>
      </trkpt>
      <trkpt lat="44.19331" lon="6.26953">
        <ele>918.4</ele>
        <time>2021-09-18T08:30:19.778Z</time>
      </trkpt>
      <trkpt lat="44.19327" lon="6.26941">
        <ele>919.9</ele>
        <time>2021-09-18T08:31:05.762Z</time>
      </trkpt>
      <trkpt lat="44.19325" lon="6.26933">
        <ele>921.4</ele>
        <time>2021-09-18T08:31:35.203Z</time>
      </trkpt>
      <trkpt lat="44.19327" lon="6.26935">
        <ele>921.9</ele>
        <time>2021-09-18T08:31:47.130Z</time>
      </trkpt>
      <trkpt lat="44.19337" lon="6.26946">
        <ele>922</ele>
        <time>2021-09-18T08:32:04.373Z</time>
      </trkpt>
      <trkpt lat="44.19345" lon="6.26954">
        <ele>919.1</ele>
        <time>2021-09-18T08:32:06.778Z</time>
      </trkpt>
      <trkpt lat="44.19356" lon="6.26963">
        <ele>916.1</ele>
        <time>2021-09-18T08:32:09.895Z</time>
      </trkpt>
      <trkpt lat="44.1936" lon="6.26972">
        <ele>913.4</ele>
        <time>2021-09-18T08:32:11.751Z</time>
      </trkpt>
      <trkpt lat="44.19363" lon="6.26978">
        <ele>911.7</ele>
        <time>2021-09-18T08:32:13.033Z</time>
      </trkpt>
      <trkpt lat="44.19368" lon="6.26986">
        <ele>909.5</ele>
        <time>2021-09-18T08:32:14.892Z</time>
      </trkpt>
      <trkpt lat="44.19369" lon="6.26989">
        <ele>908.7</ele>
        <time>2021-09-18T08:32:15.472Z</time>
      </trkpt>
      <trkpt lat="44.19371" lon="6.26991">
        <ele>908.2</ele>
        <time>2021-09-18T08:32:16.073Z</time>
      </trkpt>
      <trkpt lat="44.19374" lon="6.26989">
        <ele>908.9</ele>
        <time>2021-09-18T08:32:32.188Z</time>
      </trkpt>
      <trkpt lat="44.19373" lon="6.26986">
        <ele>909.6</ele>
        <time>2021-09-18T08:32:43.684Z</time>
      </trkpt>
      <trkpt lat="44.19368" lon="6.26973">
        <ele>913.1</ele>
        <time>2021-09-18T08:33:34.947Z</time>
      </trkpt>
      <trkpt lat="44.19366" lon="6.26967">
        <ele>914.8</ele>
        <time>2021-09-18T08:33:57.939Z</time>
      </trkpt>
      <trkpt lat="44.19359" lon="6.26943">
        <ele>921.9</ele>
        <time>2021-09-18T08:35:27.972Z</time>
      </trkpt>
      <trkpt lat="44.19353" lon="6.26923">
        <ele>928.2</ele>
        <time>2021-09-18T08:36:43.308Z</time>
      </trkpt>
      <trkpt lat="44.19351" lon="6.26913">
        <ele>931.5</ele>
        <time>2021-09-18T08:37:19.383Z</time>
      </trkpt>
      <trkpt lat="44.1935" lon="6.2691">
        <ele>932.6</ele>
        <time>2021-09-18T08:37:30.879Z</time>
      </trkpt>
      <trkpt lat="44.19346" lon="6.26888">
        <ele>940</ele>
        <time>2021-09-18T08:38:49.746Z</time>
      </trkpt>
      <trkpt lat="44.19345" lon="6.26887">
        <ele>940.3</ele>
        <time>2021-09-18T08:38:55.709Z</time>
      </trkpt>
      <trkpt lat="44.19345" lon="6.26886">
        <ele>940.6</ele>
        <time>2021-09-18T08:38:59.184Z</time>
      </trkpt>
      <trkpt lat="44.19345" lon="6.26885">
        <ele>941</ele>
        <time>2021-09-18T08:39:02.659Z</time>
      </trkpt>
      <trkpt lat="44.19345" lon="6.26883">
        <ele>941.6</ele>
        <time>2021-09-18T08:39:09.609Z</time>
      </trkpt>
      <trkpt lat="44.19344" lon="6.26882">
        <ele>942</ele>
        <time>2021-09-18T08:39:15.572Z</time>
      </trkpt>
      <trkpt lat="44.19344" lon="6.2688">
        <ele>942.6</ele>
        <time>2021-09-18T08:39:22.522Z</time>
      </trkpt>
      <trkpt lat="44.19343" lon="6.26879">
        <ele>942.9</ele>
        <time>2021-09-18T08:39:28.486Z</time>
      </trkpt>
      <trkpt lat="44.19343" lon="6.26878">
        <ele>943.3</ele>
        <time>2021-09-18T08:39:31.960Z</time>
      </trkpt>
      <trkpt lat="44.19343" lon="6.26876">
        <ele>943.9</ele>
        <time>2021-09-18T08:39:38.910Z</time>
      </trkpt>
      <trkpt lat="44.19341" lon="6.2686">
        <ele>949</ele>
        <time>2021-09-18T08:40:35.347Z</time>
      </trkpt>
      <trkpt lat="44.1934" lon="6.26857">
        <ele>949.9</ele>
        <time>2021-09-18T08:40:46.843Z</time>
      </trkpt>
      <trkpt lat="44.19348" lon="6.26867">
        <ele>946.6</ele>
        <time>2021-09-18T08:40:49.469Z</time>
      </trkpt>
      <trkpt lat="44.19352" lon="6.26875">
        <ele>943.9</ele>
        <time>2021-09-18T08:40:51.178Z</time>
      </trkpt>
      <trkpt lat="44.19356" lon="6.26879">
        <ele>942.5</ele>
        <time>2021-09-18T08:40:52.380Z</time>
      </trkpt>
      <trkpt lat="44.19358" lon="6.26885">
        <ele>940.4</ele>
        <time>2021-09-18T08:40:53.540Z</time>
      </trkpt>
      <trkpt lat="44.19359" lon="6.26887">
        <ele>939.6</ele>
        <time>2021-09-18T08:40:53.967Z</time>
      </trkpt>
      <trkpt lat="44.19362" lon="6.26892">
        <ele>937.8</ele>
        <time>2021-09-18T08:40:55.110Z</time>
      </trkpt>
      <trkpt lat="44.19363" lon="6.26893">
        <ele>937.4</ele>
        <time>2021-09-18T08:40:55.410Z</time>
      </trkpt>
      <trkpt lat="44.19365" lon="6.26897">
        <ele>935.8</ele>
        <time>2021-09-18T08:40:56.265Z</time>
      </trkpt>
      <trkpt lat="44.19374" lon="6.26902">
        <ele>933.4</ele>
        <time>2021-09-18T08:40:58.633Z</time>
      </trkpt>
      <trkpt lat="44.19374" lon="6.26901">
        <ele>933.8</ele>
        <time>2021-09-18T08:41:02.107Z</time>
      </trkpt>
      <trkpt lat="44.19366" lon="6.26881">
        <ele>941.4</ele>
        <time>2021-09-18T08:42:21.688Z</time>
      </trkpt>
      <trkpt lat="44.19362" lon="6.26862">
        <ele>948.1</ele>
        <time>2021-09-18T08:43:30.498Z</time>
      </trkpt>
      <trkpt lat="44.19358" lon="6.26843">
        <ele>954.6</ele>
        <time>2021-09-18T08:44:39.308Z</time>
      </trkpt>
      <trkpt lat="44.19356" lon="6.2684">
        <ele>955.6</ele>
        <time>2021-09-18T08:44:53.542Z</time>
      </trkpt>
      <trkpt lat="44.19357" lon="6.26839">
        <ele>955.9</ele>
        <time>2021-09-18T08:44:59.506Z</time>
      </trkpt>
      <trkpt lat="44.19359" lon="6.2684">
        <ele>955.7</ele>
        <time>2021-09-18T08:45:00.025Z</time>
      </trkpt>
      <trkpt lat="44.19361" lon="6.26844">
        <ele>954.3</ele>
        <time>2021-09-18T08:45:00.880Z</time>
      </trkpt>
      <trkpt lat="44.19363" lon="6.26846">
        <ele>953.7</ele>
        <time>2021-09-18T08:45:01.481Z</time>
      </trkpt>
      <trkpt lat="44.19371" lon="6.26858">
        <ele>949.5</ele>
        <time>2021-09-18T08:45:04.352Z</time>
      </trkpt>
      <trkpt lat="44.19382" lon="6.2687">
        <ele>944.9</ele>
        <time>2021-09-18T08:45:07.765Z</time>
      </trkpt>
      <trkpt lat="44.19388" lon="6.26866">
        <ele>946.3</ele>
        <time>2021-09-18T08:45:39.995Z</time>
      </trkpt>
      <trkpt lat="44.19389" lon="6.2686">
        <ele>948.7</ele>
        <time>2021-09-18T08:46:01.400Z</time>
      </trkpt>
      <trkpt lat="44.19388" lon="6.26856">
        <ele>950.2</ele>
        <time>2021-09-18T08:46:16.121Z</time>
      </trkpt>
      <trkpt lat="44.19388" lon="6.26854">
        <ele>951</ele>
        <time>2021-09-18T08:46:23.070Z</time>
      </trkpt>
      <trkpt lat="44.19389" lon="6.26848">
        <ele>953.3</ele>
        <time>2021-09-18T08:46:44.475Z</time>
      </trkpt>
      <trkpt lat="44.19384" lon="6.26836">
        <ele>957.8</ele>
        <time>2021-09-18T08:47:32.703Z</time>
      </trkpt>
      <trkpt lat="44.19379" lon="6.26825">
        <ele>961.2</ele>
        <time>2021-09-18T08:48:17.961Z</time>
      </trkpt>
      <trkpt lat="44.19376" lon="6.26818">
        <ele>963.2</ele>
        <time>2021-09-18T08:48:46.299Z</time>
      </trkpt>
      <trkpt lat="44.19376" lon="6.26813">
        <ele>964.8</ele>
        <time>2021-09-18T08:49:03.673Z</time>
      </trkpt>
      <trkpt lat="44.19377" lon="6.26813">
        <ele>964.8</ele>
        <time>2021-09-18T08:49:04.930Z</time>
      </trkpt>
      <trkpt lat="44.19389" lon="6.26817">
        <ele>964.1</ele>
        <time>2021-09-18T08:49:07.917Z</time>
      </trkpt>
      <trkpt lat="44.19386" lon="6.2681">
        <ele>966.1</ele>
        <time>2021-09-18T08:49:36.255Z</time>
      </trkpt>
      <trkpt lat="44.19379" lon="6.26795">
        <ele>970.4</ele>
        <time>2021-09-18T08:50:38.446Z</time>
      </trkpt>
      <trkpt lat="44.19372" lon="6.26778">
        <ele>975.3</ele>
        <time>2021-09-18T08:51:46.567Z</time>
      </trkpt>
      <trkpt lat="44.19368" lon="6.26767">
        <ele>978.3</ele>
        <time>2021-09-18T08:52:29.425Z</time>
      </trkpt>
      <trkpt lat="44.19368" lon="6.26766">
        <ele>978.6</ele>
        <time>2021-09-18T08:52:32.900Z</time>
      </trkpt>
      <trkpt lat="44.19378" lon="6.26773">
        <ele>977.1</ele>
        <time>2021-09-18T08:52:35.635Z</time>
      </trkpt>
      <trkpt lat="44.19385" lon="6.26774">
        <ele>977.3</ele>
        <time>2021-09-18T08:52:47.588Z</time>
      </trkpt>
      <trkpt lat="44.19381" lon="6.26767">
        <ele>979.2</ele>
        <time>2021-09-18T08:53:18.693Z</time>
      </trkpt>
      <trkpt lat="44.19392" lon="6.26763">
        <ele>981.1</ele>
        <time>2021-09-18T08:54:13.786Z</time>
      </trkpt>
      <trkpt lat="44.19393" lon="6.26762">
        <ele>981.5</ele>
        <time>2021-09-18T08:54:19.749Z</time>
      </trkpt>
      <trkpt lat="44.19391" lon="6.26758">
        <ele>982.6</ele>
        <time>2021-09-18T08:54:36.695Z</time>
      </trkpt>
      <trkpt lat="44.19391" lon="6.26748">
        <ele>985.6</ele>
        <time>2021-09-18T08:55:11.443Z</time>
      </trkpt>
      <trkpt lat="44.19394" lon="6.26746">
        <ele>986.3</ele>
        <time>2021-09-18T08:55:27.558Z</time>
      </trkpt>
      <trkpt lat="44.19395" lon="6.26745">
        <ele>986.5</ele>
        <time>2021-09-18T08:55:33.522Z</time>
      </trkpt>
      <trkpt lat="44.19396" lon="6.26745">
        <ele>986.6</ele>
        <time>2021-09-18T08:55:36.789Z</time>
      </trkpt>
      <trkpt lat="44.19398" lon="6.26745">
        <ele>986.8</ele>
        <time>2021-09-18T08:55:43.324Z</time>
      </trkpt>
      <trkpt lat="44.19398" lon="6.26744">
        <ele>987</ele>
        <time>2021-09-18T08:55:46.799Z</time>
      </trkpt>
      <trkpt lat="44.19394" lon="6.26739">
        <ele>987.8</ele>
        <time>2021-09-18T08:56:12.831Z</time>
      </trkpt>
      <trkpt lat="44.19391" lon="6.26732">
        <ele>989.1</ele>
        <time>2021-09-18T08:56:41.169Z</time>
      </trkpt>
      <trkpt lat="44.19389" lon="6.26728">
        <ele>989.8</ele>
        <time>2021-09-18T08:56:58.115Z</time>
      </trkpt>
      <trkpt lat="44.19392" lon="6.26723">
        <ele>991.1</ele>
        <time>2021-09-18T08:57:20.770Z</time>
      </trkpt>
      <trkpt lat="44.19393" lon="6.2672">
        <ele>991.9</ele>
        <time>2021-09-18T08:57:32.266Z</time>
      </trkpt>
      <trkpt lat="44.19394" lon="6.2671">
        <ele>994.2</ele>
        <time>2021-09-18T08:58:07.351Z</time>
      </trkpt>
      <trkpt lat="44.19389" lon="6.26688">
        <ele>998.4</ele>
        <time>2021-09-18T08:59:27.546Z</time>
      </trkpt>
      <trkpt lat="44.1939" lon="6.26681">
        <ele>1000</ele>
        <time>2021-09-18T08:59:52.348Z</time>
      </trkpt>
      <trkpt lat="44.19391" lon="6.26672">
        <ele>1002.1</ele>
        <time>2021-09-18T09:00:23.995Z</time>
      </trkpt>
      <trkpt lat="44.19393" lon="6.26657">
        <ele>1005.8</ele>
        <time>2021-09-18T09:01:17.011Z</time>
      </trkpt>
      <trkpt lat="44.19395" lon="6.26651">
        <ele>1007.4</ele>
        <time>2021-09-18T09:01:40.004Z</time>
      </trkpt>
      <trkpt lat="44.19394" lon="6.26647">
        <ele>1008.2</ele>
        <time>2021-09-18T09:01:54.724Z</time>
      </trkpt>
      <trkpt lat="44.19391" lon="6.26632">
        <ele>1011</ele>
        <time>2021-09-18T09:02:48.836Z</time>
      </trkpt>
      <trkpt lat="44.19391" lon="6.26628">
        <ele>1011.9</ele>
        <time>2021-09-18T09:03:02.736Z</time>
      </trkpt>
      <trkpt lat="44.19391" lon="6.26597">
        <ele>1018.8</ele>
        <time>2021-09-18T09:04:50.456Z</time>
      </trkpt>
      <trkpt lat="44.19393" lon="6.26591">
        <ele>1020.6</ele>
        <time>2021-09-18T09:05:13.448Z</time>
      </trkpt>
      <trkpt lat="44.19393" lon="6.26589">
        <ele>1021</ele>
        <time>2021-09-18T09:05:20.398Z</time>
      </trkpt>
      <trkpt lat="44.19404" lon="6.26574">
        <ele>1027.2</ele>
        <time>2021-09-18T09:06:34.955Z</time>
      </trkpt>
      <trkpt lat="44.19408" lon="6.26551">
        <ele>1033.9</ele>
        <time>2021-09-18T09:07:57.194Z</time>
      </trkpt>
      <trkpt lat="44.19409" lon="6.26531">
        <ele>1039.1</ele>
        <time>2021-09-18T09:09:06.860Z</time>
      </trkpt>
      <trkpt lat="44.19408" lon="6.2652">
        <ele>1041.6</ele>
        <time>2021-09-18T09:09:45.389Z</time>
      </trkpt>
      <trkpt lat="44.1941" lon="6.26511">
        <ele>1044.3</ele>
        <time>2021-09-18T09:10:18.130Z</time>
      </trkpt>
      <trkpt lat="44.19405" lon="6.26491">
        <ele>1045.7</ele>
        <time>2021-09-18T09:11:04.242Z</time>
      </trkpt>
      <trkpt lat="44.19417" lon="6.26456">
        <ele>1048.1</ele>
        <time>2021-09-18T09:12:24.413Z</time>
      </trkpt>
      <trkpt lat="44.19435" lon="6.26435">
        <ele>1052</ele>
        <time>2021-09-18T09:14:18.145Z</time>
      </trkpt>
      <trkpt lat="44.19448" lon="6.26417">
        <ele>1055.6</ele>
        <time>2021-09-18T09:15:46.924Z</time>
      </trkpt>
      <trkpt lat="44.19459" lon="6.26406">
        <ele>1055.9</ele>
        <time>2021-09-18T09:16:08.263Z</time>
      </trkpt>
      <trkpt lat="44.19478" lon="6.26392">
        <ele>1057.1</ele>
        <time>2021-09-18T09:16:57.354Z</time>
      </trkpt>
      <trkpt lat="44.19495" lon="6.26377">
        <ele>1057.2</ele>
        <time>2021-09-18T09:17:23.835Z</time>
      </trkpt>
      <trkpt lat="44.19501" lon="6.26358">
        <ele>1053.5</ele>
        <time>2021-09-18T09:17:27.473Z</time>
      </trkpt>
      <trkpt lat="44.19509" lon="6.26354">
        <ele>1054.2</ele>
        <time>2021-09-18T09:17:51.171Z</time>
      </trkpt>
      <trkpt lat="44.19513" lon="6.26351">
        <ele>1054.5</ele>
        <time>2021-09-18T09:18:02.322Z</time>
      </trkpt>
      <trkpt lat="44.19516" lon="6.26351">
        <ele>1055.3</ele>
        <time>2021-09-18T09:18:16.861Z</time>
      </trkpt>
      <trkpt lat="44.19519" lon="6.26352">
        <ele>1056.3</ele>
        <time>2021-09-18T09:18:31.810Z</time>
      </trkpt>
      <trkpt lat="44.19518" lon="6.26355">
        <ele>1056.8</ele>
        <time>2021-09-18T09:18:43.306Z</time>
      </trkpt>
      <trkpt lat="44.19517" lon="6.26359">
        <ele>1057.3</ele>
        <time>2021-09-18T09:18:58.026Z</time>
      </trkpt>
      <trkpt lat="44.1952" lon="6.26361">
        <ele>1058.4</ele>
        <time>2021-09-18T09:19:14.141Z</time>
      </trkpt>
      <trkpt lat="44.19524" lon="6.26359">
        <ele>1059.1</ele>
        <time>2021-09-18T09:19:34.735Z</time>
      </trkpt>
      <trkpt lat="44.19527" lon="6.26357">
        <ele>1059.4</ele>
        <time>2021-09-18T09:19:44.654Z</time>
      </trkpt>
      <trkpt lat="44.19531" lon="6.26355">
        <ele>1059.8</ele>
        <time>2021-09-18T09:19:57.788Z</time>
      </trkpt>
      <trkpt lat="44.19532" lon="6.26366">
        <ele>1062.2</ele>
        <time>2021-09-18T09:20:36.317Z</time>
      </trkpt>
      <trkpt lat="44.19529" lon="6.26368">
        <ele>1062</ele>
        <time>2021-09-18T09:20:37.100Z</time>
      </trkpt>
      <trkpt lat="44.19529" lon="6.26371">
        <ele>1062.6</ele>
        <time>2021-09-18T09:20:47.524Z</time>
      </trkpt>
      <trkpt lat="44.19534" lon="6.2637">
        <ele>1063.4</ele>
        <time>2021-09-18T09:21:12.004Z</time>
      </trkpt>
      <trkpt lat="44.19535" lon="6.2637">
        <ele>1063.6</ele>
        <time>2021-09-18T09:21:16.851Z</time>
      </trkpt>
      <trkpt lat="44.19541" lon="6.26366">
        <ele>1064.1</ele>
        <time>2021-09-18T09:21:34.349Z</time>
      </trkpt>
      <trkpt lat="44.19544" lon="6.26364">
        <ele>1064.5</ele>
        <time>2021-09-18T09:21:47.893Z</time>
      </trkpt>
      <trkpt lat="44.19546" lon="6.26365">
        <ele>1065.1</ele>
        <time>2021-09-18T09:21:58.190Z</time>
      </trkpt>
      <trkpt lat="44.19542" lon="6.26371">
        <ele>1065.2</ele>
        <time>2021-09-18T09:22:06.934Z</time>
      </trkpt>
      <trkpt lat="44.19546" lon="6.26371">
        <ele>1066</ele>
        <time>2021-09-18T09:22:26.320Z</time>
      </trkpt>
      <trkpt lat="44.19549" lon="6.26374">
        <ele>1067</ele>
        <time>2021-09-18T09:22:44.210Z</time>
      </trkpt>
      <trkpt lat="44.19553" lon="6.26374">
        <ele>1067.7</ele>
        <time>2021-09-18T09:23:03.596Z</time>
      </trkpt>
      <trkpt lat="44.19555" lon="6.26376">
        <ele>1068.4</ele>
        <time>2021-09-18T09:23:15.523Z</time>
      </trkpt>
      <trkpt lat="44.19558" lon="6.26378">
        <ele>1069.1</ele>
        <time>2021-09-18T09:23:31.638Z</time>
      </trkpt>
      <trkpt lat="44.19563" lon="6.2638">
        <ele>1070.2</ele>
        <time>2021-09-18T09:23:56.847Z</time>
      </trkpt>
      <trkpt lat="44.19565" lon="6.2638">
        <ele>1070.5</ele>
        <time>2021-09-18T09:24:06.540Z</time>
      </trkpt>
      <trkpt lat="44.19571" lon="6.26376">
        <ele>1071.3</ele>
        <time>2021-09-18T09:24:33.627Z</time>
      </trkpt>
      <trkpt lat="44.19572" lon="6.26376">
        <ele>1071.5</ele>
        <time>2021-09-18T09:24:38.473Z</time>
      </trkpt>
      <trkpt lat="44.19574" lon="6.26376">
        <ele>1071.8</ele>
        <time>2021-09-18T09:24:48.166Z</time>
      </trkpt>
      <trkpt lat="44.19575" lon="6.26377">
        <ele>1072.1</ele>
        <time>2021-09-18T09:24:54.130Z</time>
      </trkpt>
      <trkpt lat="44.19576" lon="6.26377">
        <ele>1072.3</ele>
        <time>2021-09-18T09:24:58.976Z</time>
      </trkpt>
      <trkpt lat="44.19578" lon="6.26378">
        <ele>1072.7</ele>
        <time>2021-09-18T09:25:09.273Z</time>
      </trkpt>
      <trkpt lat="44.19579" lon="6.26379">
        <ele>1072.9</ele>
        <time>2021-09-18T09:25:15.236Z</time>
      </trkpt>
      <trkpt lat="44.19581" lon="6.2638">
        <ele>1073.3</ele>
        <time>2021-09-18T09:25:25.533Z</time>
      </trkpt>
      <trkpt lat="44.19582" lon="6.26379">
        <ele>1073.4</ele>
        <time>2021-09-18T09:25:28.933Z</time>
      </trkpt>
      <trkpt lat="44.19584" lon="6.26379">
        <ele>1073.7</ele>
        <time>2021-09-18T09:25:38.626Z</time>
      </trkpt>
      <trkpt lat="44.19586" lon="6.26377">
        <ele>1073.7</ele>
        <time>2021-09-18T09:25:41.718Z</time>
      </trkpt>
      <trkpt lat="44.19603" lon="6.26383">
        <ele>1074.6</ele>
        <time>2021-09-18T09:26:20.582Z</time>
      </trkpt>
      <trkpt lat="44.19603" lon="6.26385">
        <ele>1074.6</ele>
        <time>2021-09-18T09:26:22.384Z</time>
      </trkpt>
      <trkpt lat="44.19592" lon="6.26393">
        <ele>1074.2</ele>
        <time>2021-09-18T09:26:26.142Z</time>
      </trkpt>
      <trkpt lat="44.19589" lon="6.26393">
        <ele>1074.2</ele>
        <time>2021-09-18T09:26:29.912Z</time>
      </trkpt>
      <trkpt lat="44.19578" lon="6.26392">
        <ele>1073.4</ele>
        <time>2021-09-18T09:26:32.606Z</time>
      </trkpt>
      <trkpt lat="44.19573" lon="6.26392">
        <ele>1072.7</ele>
        <time>2021-09-18T09:26:33.828Z</time>
      </trkpt>
      <trkpt lat="44.19572" lon="6.26392">
        <ele>1072.6</ele>
        <time>2021-09-18T09:26:34.072Z</time>
      </trkpt>
      <trkpt lat="44.19568" lon="6.26395">
        <ele>1072.3</ele>
        <time>2021-09-18T09:26:35.094Z</time>
      </trkpt>
      <trkpt lat="44.19563" lon="6.26398">
        <ele>1072</ele>
        <time>2021-09-18T09:26:36.429Z</time>
      </trkpt>
      <trkpt lat="44.19561" lon="6.26404">
        <ele>1072.3</ele>
        <time>2021-09-18T09:26:47.842Z</time>
      </trkpt>
      <trkpt lat="44.19553" lon="6.26406">
        <ele>1071.8</ele>
        <time>2021-09-18T09:26:49.736Z</time>
      </trkpt>
      <trkpt lat="44.19547" lon="6.26405">
        <ele>1071.1</ele>
        <time>2021-09-18T09:26:51.212Z</time>
      </trkpt>
      <trkpt lat="44.19546" lon="6.26406">
        <ele>1071.2</ele>
        <time>2021-09-18T09:26:54.612Z</time>
      </trkpt>
      <trkpt lat="44.19543" lon="6.26408">
        <ele>1071.2</ele>
        <time>2021-09-18T09:26:58.790Z</time>
      </trkpt>
      <trkpt lat="44.19541" lon="6.26412">
        <ele>1071.7</ele>
        <time>2021-09-18T09:27:15.735Z</time>
      </trkpt>
      <trkpt lat="44.19541" lon="6.26419">
        <ele>1072.2</ele>
        <time>2021-09-18T09:27:32.075Z</time>
      </trkpt>
      <trkpt lat="44.19535" lon="6.26426">
        <ele>1071</ele>
        <time>2021-09-18T09:27:33.987Z</time>
      </trkpt>
      <trkpt lat="44.19534" lon="6.26426">
        <ele>1071</ele>
        <time>2021-09-18T09:27:35.243Z</time>
      </trkpt>
      <trkpt lat="44.19533" lon="6.26427">
        <ele>1070.8</ele>
        <time>2021-09-18T09:27:35.544Z</time>
      </trkpt>
      <trkpt lat="44.19534" lon="6.26428">
        <ele>1070.7</ele>
        <time>2021-09-18T09:27:35.844Z</time>
      </trkpt>
      <trkpt lat="44.19532" lon="6.26427">
        <ele>1070.7</ele>
        <time>2021-09-18T09:27:38.514Z</time>
      </trkpt>
      <trkpt lat="44.1953" lon="6.2643">
        <ele>1070.3</ele>
        <time>2021-09-18T09:27:39.232Z</time>
      </trkpt>
      <trkpt lat="44.19527" lon="6.26441">
        <ele>1069</ele>
        <time>2021-09-18T09:27:41.294Z</time>
      </trkpt>
      <trkpt lat="44.19528" lon="6.26447">
        <ele>1068.4</ele>
        <time>2021-09-18T09:27:42.373Z</time>
      </trkpt>
      <trkpt lat="44.19528" lon="6.26442">
        <ele>1068.9</ele>
        <time>2021-09-18T09:27:59.747Z</time>
      </trkpt>
      <trkpt lat="44.19529" lon="6.26436">
        <ele>1069.6</ele>
        <time>2021-09-18T09:28:21.152Z</time>
      </trkpt>
      <trkpt lat="44.1953" lon="6.26434">
        <ele>1069.9</ele>
        <time>2021-09-18T09:28:29.624Z</time>
      </trkpt>
      <trkpt lat="44.195" lon="6.26478">
        <ele>1065.6</ele>
        <time>2021-09-18T09:28:40.264Z</time>
      </trkpt>
      <trkpt lat="44.19495" lon="6.26442">
        <ele>1066.9</ele>
        <time>2021-09-18T09:29:37.818Z</time>
      </trkpt>
      <trkpt lat="44.19494" lon="6.26443">
        <ele>1066.6</ele>
        <time>2021-09-18T09:29:38.118Z</time>
      </trkpt>
      <trkpt lat="44.19498" lon="6.26442">
        <ele>1067.7</ele>
        <time>2021-09-18T09:29:57.813Z</time>
      </trkpt>
      <trkpt lat="44.19499" lon="6.26446">
        <ele>1067.6</ele>
        <time>2021-09-18T09:29:58.727Z</time>
      </trkpt>
      <trkpt lat="44.19502" lon="6.26447">
        <ele>1067.9</ele>
        <time>2021-09-18T09:30:08.543Z</time>
      </trkpt>
      <trkpt lat="44.19511" lon="6.26446">
        <ele>1068.1</ele>
        <time>2021-09-18T09:30:22.776Z</time>
      </trkpt>
      <trkpt lat="44.19512" lon="6.26446">
        <ele>1068.2</ele>
        <time>2021-09-18T09:30:26.043Z</time>
      </trkpt>
      <trkpt lat="44.19514" lon="6.26446">
        <ele>1068.2</ele>
        <time>2021-09-18T09:30:28.556Z</time>
      </trkpt>
      <trkpt lat="44.19516" lon="6.26442">
        <ele>1068.6</ele>
        <time>2021-09-18T09:30:41.846Z</time>
      </trkpt>
      <trkpt lat="44.19519" lon="6.26438">
        <ele>1069.1</ele>
        <time>2021-09-18T09:30:58.787Z</time>
      </trkpt>
      <trkpt lat="44.19528" lon="6.26428">
        <ele>1070.5</ele>
        <time>2021-09-18T09:31:46.449Z</time>
      </trkpt>
      <trkpt lat="44.1954" lon="6.26421">
        <ele>1071.9</ele>
        <time>2021-09-18T09:32:32.365Z</time>
      </trkpt>
      <trkpt lat="44.19541" lon="6.26418">
        <ele>1072.3</ele>
        <time>2021-09-18T09:32:43.861Z</time>
      </trkpt>
      <trkpt lat="44.19543" lon="6.26416">
        <ele>1072.5</ele>
        <time>2021-09-18T09:32:50.661Z</time>
      </trkpt>
      <trkpt lat="44.19551" lon="6.26409">
        <ele>1072</ele>
        <time>2021-09-18T09:32:53.020Z</time>
      </trkpt>
      <trkpt lat="44.19556" lon="6.26408">
        <ele>1072.3</ele>
        <time>2021-09-18T09:33:04.846Z</time>
      </trkpt>
      <trkpt lat="44.19563" lon="6.26399">
        <ele>1072.1</ele>
        <time>2021-09-18T09:33:08.105Z</time>
      </trkpt>
      <trkpt lat="44.19565" lon="6.26401">
        <ele>1072.5</ele>
        <time>2021-09-18T09:33:20.032Z</time>
      </trkpt>
      <trkpt lat="44.19568" lon="6.26402">
        <ele>1072.9</ele>
        <time>2021-09-18T09:33:34.212Z</time>
      </trkpt>
      <trkpt lat="44.19575" lon="6.26398">
        <ele>1073.4</ele>
        <time>2021-09-18T09:33:52.792Z</time>
      </trkpt>
      <trkpt lat="44.19584" lon="6.26399">
        <ele>1074.4</ele>
        <time>2021-09-18T09:34:25.748Z</time>
      </trkpt>
      <trkpt lat="44.19588" lon="6.26398">
        <ele>1074.3</ele>
        <time>2021-09-18T09:34:27.083Z</time>
      </trkpt>
      <trkpt lat="44.19595" lon="6.26395">
        <ele>1074.3</ele>
        <time>2021-09-18T09:34:36.285Z</time>
      </trkpt>
      <trkpt lat="44.19604" lon="6.26389">
        <ele>1074.5</ele>
        <time>2021-09-18T09:34:51.638Z</time>
      </trkpt>
      <trkpt lat="44.19605" lon="6.26387">
        <ele>1074.6</ele>
        <time>2021-09-18T09:34:55.669Z</time>
      </trkpt>
      <trkpt lat="44.19603" lon="6.26385">
        <ele>1074.6</ele>
        <time>2021-09-18T09:34:58.761Z</time>
      </trkpt>
      <trkpt lat="44.19608" lon="6.26382">
        <ele>1074.9</ele>
        <time>2021-09-18T09:35:11.135Z</time>
      </trkpt>
      <trkpt lat="44.19618" lon="6.26381">
        <ele>1075.4</ele>
        <time>2021-09-18T09:35:33.143Z</time>
      </trkpt>
      <trkpt lat="44.19627" lon="6.26374">
        <ele>1076.5</ele>
        <time>2021-09-18T09:36:09.183Z</time>
      </trkpt>
      <trkpt lat="44.19632" lon="6.2637">
        <ele>1077.3</ele>
        <time>2021-09-18T09:36:37.119Z</time>
      </trkpt>
      <trkpt lat="44.19641" lon="6.2637">
        <ele>1078</ele>
        <time>2021-09-18T09:37:01.292Z</time>
      </trkpt>
      <trkpt lat="44.19642" lon="6.26369">
        <ele>1078.2</ele>
        <time>2021-09-18T09:37:07.255Z</time>
      </trkpt>
      <trkpt lat="44.19643" lon="6.26369">
        <ele>1078.3</ele>
        <time>2021-09-18T09:37:10.523Z</time>
      </trkpt>
      <trkpt lat="44.19646" lon="6.26369">
        <ele>1078.6</ele>
        <time>2021-09-18T09:37:20.325Z</time>
      </trkpt>
      <trkpt lat="44.19649" lon="6.26369">
        <ele>1078.8</ele>
        <time>2021-09-18T09:37:27.724Z</time>
      </trkpt>
      <trkpt lat="44.19651" lon="6.26368">
        <ele>1079.1</ele>
        <time>2021-09-18T09:37:38.021Z</time>
      </trkpt>
      <trkpt lat="44.19652" lon="6.26368">
        <ele>1079.2</ele>
        <time>2021-09-18T09:37:41.289Z</time>
      </trkpt>
      <trkpt lat="44.19654" lon="6.26368">
        <ele>1079.4</ele>
        <time>2021-09-18T09:37:47.824Z</time>
      </trkpt>
      <trkpt lat="44.19657" lon="6.26368">
        <ele>1079.7</ele>
        <time>2021-09-18T09:37:57.626Z</time>
      </trkpt>
      <trkpt lat="44.19659" lon="6.26367">
        <ele>1080</ele>
        <time>2021-09-18T09:38:07.923Z</time>
      </trkpt>
      <trkpt lat="44.19662" lon="6.26367">
        <ele>1080.3</ele>
        <time>2021-09-18T09:38:17.726Z</time>
      </trkpt>
      <trkpt lat="44.19664" lon="6.26367">
        <ele>1080.5</ele>
        <time>2021-09-18T09:38:24.261Z</time>
      </trkpt>
      <trkpt lat="44.19667" lon="6.26367">
        <ele>1080.8</ele>
        <time>2021-09-18T09:38:34.063Z</time>
      </trkpt>
      <trkpt lat="44.19669" lon="6.26367">
        <ele>1080.9</ele>
        <time>2021-09-18T09:38:38.457Z</time>
      </trkpt>
      <trkpt lat="44.1967" lon="6.26368">
        <ele>1080.8</ele>
        <time>2021-09-18T09:38:38.758Z</time>
      </trkpt>
      <trkpt lat="44.19672" lon="6.26368">
        <ele>1080.9</ele>
        <time>2021-09-18T09:38:43.152Z</time>
      </trkpt>
      <trkpt lat="44.19674" lon="6.26367">
        <ele>1081.3</ele>
        <time>2021-09-18T09:38:53.449Z</time>
      </trkpt>
      <trkpt lat="44.19677" lon="6.26367">
        <ele>1081.5</ele>
        <time>2021-09-18T09:39:00.848Z</time>
      </trkpt>
      <trkpt lat="44.19679" lon="6.26367">
        <ele>1081.6</ele>
        <time>2021-09-18T09:39:05.242Z</time>
      </trkpt>
      <trkpt lat="44.19681" lon="6.26367">
        <ele>1081.8</ele>
        <time>2021-09-18T09:39:11.777Z</time>
      </trkpt>
      <trkpt lat="44.19683" lon="6.26367">
        <ele>1081.9</ele>
        <time>2021-09-18T09:39:16.172Z</time>
      </trkpt>
      <trkpt lat="44.19684" lon="6.26368">
        <ele>1081.8</ele>
        <time>2021-09-18T09:39:16.472Z</time>
      </trkpt>
      <trkpt lat="44.19687" lon="6.26369">
        <ele>1081.8</ele>
        <time>2021-09-18T09:39:20.348Z</time>
      </trkpt>
      <trkpt lat="44.1969" lon="6.2637">
        <ele>1081.8</ele>
        <time>2021-09-18T09:39:24.224Z</time>
      </trkpt>
      <trkpt lat="44.19692" lon="6.2637">
        <ele>1081.9</ele>
        <time>2021-09-18T09:39:28.618Z</time>
      </trkpt>
      <trkpt lat="44.19694" lon="6.26371">
        <ele>1081.8</ele>
        <time>2021-09-18T09:39:29.176Z</time>
      </trkpt>
      <trkpt lat="44.19695" lon="6.26371">
        <ele>1081.9</ele>
        <time>2021-09-18T09:39:32.444Z</time>
      </trkpt>
      <trkpt lat="44.19698" lon="6.26372">
        <ele>1081.9</ele>
        <time>2021-09-18T09:39:36.319Z</time>
      </trkpt>
      <trkpt lat="44.19699" lon="6.26373">
        <ele>1081.8</ele>
        <time>2021-09-18T09:39:36.620Z</time>
      </trkpt>
      <trkpt lat="44.197" lon="6.26374">
        <ele>1081.6</ele>
        <time>2021-09-18T09:39:36.921Z</time>
      </trkpt>
      <trkpt lat="44.19702" lon="6.26376">
        <ele>1081.3</ele>
        <time>2021-09-18T09:39:37.522Z</time>
      </trkpt>
      <trkpt lat="44.19705" lon="6.26376">
        <ele>1081.5</ele>
        <time>2021-09-18T09:39:44.921Z</time>
      </trkpt>
      <trkpt lat="44.19706" lon="6.26376">
        <ele>1081.6</ele>
        <time>2021-09-18T09:39:48.189Z</time>
      </trkpt>
      <trkpt lat="44.19707" lon="6.26376">
        <ele>1081.7</ele>
        <time>2021-09-18T09:39:51.456Z</time>
      </trkpt>
      <trkpt lat="44.19708" lon="6.26376">
        <ele>1081.8</ele>
        <time>2021-09-18T09:39:54.724Z</time>
      </trkpt>
      <trkpt lat="44.1971" lon="6.26377">
        <ele>1081.7</ele>
        <time>2021-09-18T09:39:55.283Z</time>
      </trkpt>
      <trkpt lat="44.19711" lon="6.26377">
        <ele>1081.8</ele>
        <time>2021-09-18T09:39:58.550Z</time>
      </trkpt>
      <trkpt lat="44.19714" lon="6.26377">
        <ele>1082</ele>
        <time>2021-09-18T09:40:05.949Z</time>
      </trkpt>
      <trkpt lat="44.19715" lon="6.26378">
        <ele>1081.8</ele>
        <time>2021-09-18T09:40:06.250Z</time>
      </trkpt>
      <trkpt lat="44.19718" lon="6.26379">
        <ele>1081.8</ele>
        <time>2021-09-18T09:40:10.126Z</time>
      </trkpt>
      <trkpt lat="44.1972" lon="6.2638">
        <ele>1081.8</ele>
        <time>2021-09-18T09:40:12.795Z</time>
      </trkpt>
      <trkpt lat="44.19722" lon="6.2638">
        <ele>1081.9</ele>
        <time>2021-09-18T09:40:17.189Z</time>
      </trkpt>
      <trkpt lat="44.19724" lon="6.2638">
        <ele>1082</ele>
        <time>2021-09-18T09:40:21.583Z</time>
      </trkpt>
      <trkpt lat="44.19725" lon="6.2638">
        <ele>1082.1</ele>
        <time>2021-09-18T09:40:24.851Z</time>
      </trkpt>
      <trkpt lat="44.19727" lon="6.26381">
        <ele>1082</ele>
        <time>2021-09-18T09:40:25.410Z</time>
      </trkpt>
      <trkpt lat="44.19729" lon="6.26381">
        <ele>1082.2</ele>
        <time>2021-09-18T09:40:31.945Z</time>
      </trkpt>
      <trkpt lat="44.19732" lon="6.26382">
        <ele>1082.2</ele>
        <time>2021-09-18T09:40:35.820Z</time>
      </trkpt>
      <trkpt lat="44.19734" lon="6.26383">
        <ele>1082.1</ele>
        <time>2021-09-18T09:40:36.379Z</time>
      </trkpt>
      <trkpt lat="44.19735" lon="6.26383">
        <ele>1082.2</ele>
        <time>2021-09-18T09:40:39.646Z</time>
      </trkpt>
      <trkpt lat="44.19737" lon="6.26384">
        <ele>1082.1</ele>
        <time>2021-09-18T09:40:40.205Z</time>
      </trkpt>
      <trkpt lat="44.19738" lon="6.26384">
        <ele>1082.2</ele>
        <time>2021-09-18T09:40:43.473Z</time>
      </trkpt>
      <trkpt lat="44.1974" lon="6.26384">
        <ele>1082.3</ele>
        <time>2021-09-18T09:40:47.867Z</time>
      </trkpt>
      <trkpt lat="44.19742" lon="6.26385">
        <ele>1082.3</ele>
        <time>2021-09-18T09:40:50.536Z</time>
      </trkpt>
      <trkpt lat="44.19744" lon="6.26386">
        <ele>1082.2</ele>
        <time>2021-09-18T09:40:51.095Z</time>
      </trkpt>
      <trkpt lat="44.19746" lon="6.26387">
        <ele>1082.1</ele>
        <time>2021-09-18T09:40:51.654Z</time>
      </trkpt>
      <trkpt lat="44.19748" lon="6.26387">
        <ele>1082.3</ele>
        <time>2021-09-18T09:40:58.189Z</time>
      </trkpt>
      <trkpt lat="44.19751" lon="6.26387">
        <ele>1082.4</ele>
        <time>2021-09-18T09:41:03.615Z</time>
      </trkpt>
      <trkpt lat="44.19753" lon="6.26387">
        <ele>1082.3</ele>
        <time>2021-09-18T09:41:04.127Z</time>
      </trkpt>
      <trkpt lat="44.19754" lon="6.26388">
        <ele>1082</ele>
        <time>2021-09-18T09:41:04.428Z</time>
      </trkpt>
      <trkpt lat="44.19756" lon="6.26389">
        <ele>1081.7</ele>
        <time>2021-09-18T09:41:04.947Z</time>
      </trkpt>
      <trkpt lat="44.19757" lon="6.26391">
        <ele>1081.2</ele>
        <time>2021-09-18T09:41:05.375Z</time>
      </trkpt>
      <trkpt lat="44.19759" lon="6.26392">
        <ele>1080.9</ele>
        <time>2021-09-18T09:41:05.894Z</time>
      </trkpt>
      <trkpt lat="44.1976" lon="6.26395">
        <ele>1080.2</ele>
        <time>2021-09-18T09:41:06.474Z</time>
      </trkpt>
      <trkpt lat="44.19762" lon="6.26396">
        <ele>1079.9</ele>
        <time>2021-09-18T09:41:06.993Z</time>
      </trkpt>
      <trkpt lat="44.19763" lon="6.26399">
        <ele>1079.2</ele>
        <time>2021-09-18T09:41:07.573Z</time>
      </trkpt>
      <trkpt lat="44.19764" lon="6.26402">
        <ele>1078.4</ele>
        <time>2021-09-18T09:41:08.152Z</time>
      </trkpt>
      <trkpt lat="44.19764" lon="6.26405">
        <ele>1077.8</ele>
        <time>2021-09-18T09:41:08.678Z</time>
      </trkpt>
      <trkpt lat="44.19765" lon="6.26407">
        <ele>1077.3</ele>
        <time>2021-09-18T09:41:09.105Z</time>
      </trkpt>
      <trkpt lat="44.19767" lon="6.26409">
        <ele>1076.7</ele>
        <time>2021-09-18T09:41:09.707Z</time>
      </trkpt>
      <trkpt lat="44.19769" lon="6.2641">
        <ele>1076.4</ele>
        <time>2021-09-18T09:41:10.226Z</time>
      </trkpt>
      <trkpt lat="44.1977" lon="6.2641">
        <ele>1076.3</ele>
        <time>2021-09-18T09:41:10.470Z</time>
      </trkpt>
      <trkpt lat="44.19772" lon="6.26412">
        <ele>1075.7</ele>
        <time>2021-09-18T09:41:11.072Z</time>
      </trkpt>
      <trkpt lat="44.19775" lon="6.26413">
        <ele>1075.3</ele>
        <time>2021-09-18T09:41:11.826Z</time>
      </trkpt>
      <trkpt lat="44.19777" lon="6.26412">
        <ele>1075.5</ele>
        <time>2021-09-18T09:41:18.392Z</time>
      </trkpt>
      <trkpt lat="44.19779" lon="6.26412">
        <ele>1075.3</ele>
        <time>2021-09-18T09:41:18.881Z</time>
      </trkpt>
      <trkpt lat="44.19781" lon="6.26411">
        <ele>1075.5</ele>
        <time>2021-09-18T09:41:25.448Z</time>
      </trkpt>
      <trkpt lat="44.19782" lon="6.2641">
        <ele>1075.6</ele>
        <time>2021-09-18T09:41:28.848Z</time>
      </trkpt>
      <trkpt lat="44.19783" lon="6.2641">
        <ele>1075.6</ele>
        <time>2021-09-18T09:41:30.105Z</time>
      </trkpt>
      <trkpt lat="44.19786" lon="6.26409">
        <ele>1075.7</ele>
        <time>2021-09-18T09:41:35.617Z</time>
      </trkpt>
      <trkpt lat="44.19787" lon="6.26409">
        <ele>1075.6</ele>
        <time>2021-09-18T09:41:35.862Z</time>
      </trkpt>
      <trkpt lat="44.19788" lon="6.26409">
        <ele>1075.5</ele>
        <time>2021-09-18T09:41:36.106Z</time>
      </trkpt>
      <trkpt lat="44.19791" lon="6.26408">
        <ele>1075.6</ele>
        <time>2021-09-18T09:41:41.619Z</time>
      </trkpt>
      <trkpt lat="44.19793" lon="6.26408">
        <ele>1075.5</ele>
        <time>2021-09-18T09:41:42.131Z</time>
      </trkpt>
      <trkpt lat="44.19796" lon="6.26407">
        <ele>1075.6</ele>
        <time>2021-09-18T09:41:47.644Z</time>
      </trkpt>
      <trkpt lat="44.19798" lon="6.26405">
        <ele>1076</ele>
        <time>2021-09-18T09:41:59.571Z</time>
      </trkpt>
      <trkpt lat="44.198" lon="6.26405">
        <ele>1075.9</ele>
        <time>2021-09-18T09:42:00.083Z</time>
      </trkpt>
      <trkpt lat="44.19801" lon="6.26405">
        <ele>1075.8</ele>
        <time>2021-09-18T09:42:00.328Z</time>
      </trkpt>
      <trkpt lat="44.19803" lon="6.26404">
        <ele>1075.9</ele>
        <time>2021-09-18T09:42:04.907Z</time>
      </trkpt>
      <trkpt lat="44.19805" lon="6.26402">
        <ele>1076.3</ele>
        <time>2021-09-18T09:42:16.834Z</time>
      </trkpt>
      <trkpt lat="44.19806" lon="6.26402">
        <ele>1076.3</ele>
        <time>2021-09-18T09:42:18.091Z</time>
      </trkpt>
      <trkpt lat="44.19807" lon="6.26401">
        <ele>1076.5</ele>
        <time>2021-09-18T09:42:24.054Z</time>
      </trkpt>
      <trkpt lat="44.19809" lon="6.26399">
        <ele>1076.9</ele>
        <time>2021-09-18T09:42:35.981Z</time>
      </trkpt>
      <trkpt lat="44.1981" lon="6.26398">
        <ele>1077.1</ele>
        <time>2021-09-18T09:42:41.944Z</time>
      </trkpt>
      <trkpt lat="44.19811" lon="6.26398">
        <ele>1077</ele>
        <time>2021-09-18T09:42:42.188Z</time>
      </trkpt>
      <trkpt lat="44.19813" lon="6.26396">
        <ele>1077.4</ele>
        <time>2021-09-18T09:42:54.115Z</time>
      </trkpt>
      <trkpt lat="44.19814" lon="6.26393">
        <ele>1078.1</ele>
        <time>2021-09-18T09:43:05.610Z</time>
      </trkpt>
      <trkpt lat="44.19815" lon="6.26392">
        <ele>1078.4</ele>
        <time>2021-09-18T09:43:11.574Z</time>
      </trkpt>
      <trkpt lat="44.19817" lon="6.2639">
        <ele>1078.8</ele>
        <time>2021-09-18T09:43:23.500Z</time>
      </trkpt>
      <trkpt lat="44.19819" lon="6.26387">
        <ele>1079.4</ele>
        <time>2021-09-18T09:43:37.734Z</time>
      </trkpt>
      <trkpt lat="44.19821" lon="6.26384">
        <ele>1080.1</ele>
        <time>2021-09-18T09:43:51.968Z</time>
      </trkpt>
      <trkpt lat="44.19823" lon="6.26381">
        <ele>1080.8</ele>
        <time>2021-09-18T09:44:06.202Z</time>
      </trkpt>
      <trkpt lat="44.19825" lon="6.26379">
        <ele>1081.3</ele>
        <time>2021-09-18T09:44:18.129Z</time>
      </trkpt>
      <trkpt lat="44.19826" lon="6.26377">
        <ele>1081.7</ele>
        <time>2021-09-18T09:44:26.601Z</time>
      </trkpt>
      <trkpt lat="44.19826" lon="6.26375">
        <ele>1082.3</ele>
        <time>2021-09-18T09:44:33.550Z</time>
      </trkpt>
      <trkpt lat="44.19828" lon="6.26373">
        <ele>1082.7</ele>
        <time>2021-09-18T09:44:45.477Z</time>
      </trkpt>
      <trkpt lat="44.19829" lon="6.26371">
        <ele>1083.2</ele>
        <time>2021-09-18T09:44:53.949Z</time>
      </trkpt>
      <trkpt lat="44.19831" lon="6.26369">
        <ele>1083.7</ele>
        <time>2021-09-18T09:45:05.876Z</time>
      </trkpt>
      <trkpt lat="44.19832" lon="6.26366">
        <ele>1084.4</ele>
        <time>2021-09-18T09:45:17.371Z</time>
      </trkpt>
      <trkpt lat="44.19834" lon="6.26364">
        <ele>1084.9</ele>
        <time>2021-09-18T09:45:29.298Z</time>
      </trkpt>
      <trkpt lat="44.19835" lon="6.26361">
        <ele>1085.8</ele>
        <time>2021-09-18T09:45:40.793Z</time>
      </trkpt>
      <trkpt lat="44.19836" lon="6.2636">
        <ele>1086.1</ele>
        <time>2021-09-18T09:45:46.757Z</time>
      </trkpt>
      <trkpt lat="44.19839" lon="6.26359">
        <ele>1086.5</ele>
        <time>2021-09-18T09:46:00.936Z</time>
      </trkpt>
      <trkpt lat="44.1984" lon="6.26358">
        <ele>1086.8</ele>
        <time>2021-09-18T09:46:06.900Z</time>
      </trkpt>
      <trkpt lat="44.19842" lon="6.26356">
        <ele>1087.4</ele>
        <time>2021-09-18T09:46:18.826Z</time>
      </trkpt>
      <trkpt lat="44.19843" lon="6.26356">
        <ele>1087.5</ele>
        <time>2021-09-18T09:46:22.094Z</time>
      </trkpt>
      <trkpt lat="44.19845" lon="6.26356">
        <ele>1087.6</ele>
        <time>2021-09-18T09:46:26.488Z</time>
      </trkpt>
      <trkpt lat="44.19848" lon="6.26356">
        <ele>1087.7</ele>
        <time>2021-09-18T09:46:31.914Z</time>
      </trkpt>
      <trkpt lat="44.19851" lon="6.26356">
        <ele>1087.9</ele>
        <time>2021-09-18T09:46:39.313Z</time>
      </trkpt>
      <trkpt lat="44.19852" lon="6.26356">
        <ele>1087.9</ele>
        <time>2021-09-18T09:46:40.570Z</time>
      </trkpt>
      <trkpt lat="44.19854" lon="6.26356">
        <ele>1088</ele>
        <time>2021-09-18T09:46:44.964Z</time>
      </trkpt>
      <trkpt lat="44.19855" lon="6.26355">
        <ele>1088.4</ele>
        <time>2021-09-18T09:46:50.927Z</time>
      </trkpt>
      <trkpt lat="44.19856" lon="6.26354">
        <ele>1088.7</ele>
        <time>2021-09-18T09:46:56.891Z</time>
      </trkpt>
      <trkpt lat="44.19857" lon="6.26353">
        <ele>1089.1</ele>
        <time>2021-09-18T09:47:02.854Z</time>
      </trkpt>
      <trkpt lat="44.19859" lon="6.26352">
        <ele>1089.5</ele>
        <time>2021-09-18T09:47:13.151Z</time>
      </trkpt>
      <trkpt lat="44.19861" lon="6.26351">
        <ele>1089.9</ele>
        <time>2021-09-18T09:47:23.448Z</time>
      </trkpt>
      <trkpt lat="44.19862" lon="6.26351">
        <ele>1089.9</ele>
        <time>2021-09-18T09:47:24.704Z</time>
      </trkpt>
      <trkpt lat="44.19865" lon="6.26351">
        <ele>1090.1</ele>
        <time>2021-09-18T09:47:32.103Z</time>
      </trkpt>
      <trkpt lat="44.19867" lon="6.2635">
        <ele>1090.5</ele>
        <time>2021-09-18T09:47:42.400Z</time>
      </trkpt>
      <trkpt lat="44.19869" lon="6.2635">
        <ele>1090.7</ele>
        <time>2021-09-18T09:47:48.935Z</time>
      </trkpt>
      <trkpt lat="44.1987" lon="6.2635">
        <ele>1090.7</ele>
        <time>2021-09-18T09:47:50.192Z</time>
      </trkpt>
      <trkpt lat="44.19871" lon="6.2635">
        <ele>1090.8</ele>
        <time>2021-09-18T09:47:53.459Z</time>
      </trkpt>
      <trkpt lat="44.19872" lon="6.26348">
        <ele>1091.5</ele>
        <time>2021-09-18T09:48:01.931Z</time>
      </trkpt>
      <trkpt lat="44.19875" lon="6.26347">
        <ele>1092</ele>
        <time>2021-09-18T09:48:16.880Z</time>
      </trkpt>
      <trkpt lat="44.19878" lon="6.26345">
        <ele>1092.8</ele>
        <time>2021-09-18T09:48:32.995Z</time>
      </trkpt>
      <trkpt lat="44.19879" lon="6.26345">
        <ele>1092.9</ele>
        <time>2021-09-18T09:48:36.262Z</time>
      </trkpt>
      <trkpt lat="44.19882" lon="6.26345">
        <ele>1093.1</ele>
        <time>2021-09-18T09:48:43.662Z</time>
      </trkpt>
      <trkpt lat="44.19884" lon="6.26345">
        <ele>1093.2</ele>
        <time>2021-09-18T09:48:48.056Z</time>
      </trkpt>
      <trkpt lat="44.19886" lon="6.26346">
        <ele>1093</ele>
        <time>2021-09-18T09:48:48.575Z</time>
      </trkpt>
      <trkpt lat="44.19889" lon="6.26346">
        <ele>1093.2</ele>
        <time>2021-09-18T09:48:55.974Z</time>
      </trkpt>
      <trkpt lat="44.19891" lon="6.26348">
        <ele>1092.6</ele>
        <time>2021-09-18T09:48:56.576Z</time>
      </trkpt>
      <trkpt lat="44.19893" lon="6.26351">
        <ele>1091.7</ele>
        <time>2021-09-18T09:48:57.293Z</time>
      </trkpt>
      <trkpt lat="44.19895" lon="6.26352">
        <ele>1091.4</ele>
        <time>2021-09-18T09:48:57.813Z</time>
      </trkpt>
      <trkpt lat="44.19898" lon="6.26354">
        <ele>1090.9</ele>
        <time>2021-09-18T09:48:58.625Z</time>
      </trkpt>
      <trkpt lat="44.199" lon="6.26354">
        <ele>1091</ele>
        <time>2021-09-18T09:49:03.019Z</time>
      </trkpt>
      <trkpt lat="44.19902" lon="6.26354">
        <ele>1091.1</ele>
        <time>2021-09-18T09:49:07.413Z</time>
      </trkpt>
      <trkpt lat="44.19903" lon="6.26354">
        <ele>1091.1</ele>
        <time>2021-09-18T09:49:08.670Z</time>
      </trkpt>
      <trkpt lat="44.19904" lon="6.26355">
        <ele>1090.8</ele>
        <time>2021-09-18T09:49:08.971Z</time>
      </trkpt>
      <trkpt lat="44.19906" lon="6.26354">
        <ele>1091.3</ele>
        <time>2021-09-18T09:49:19.267Z</time>
      </trkpt>
      <trkpt lat="44.19908" lon="6.26355">
        <ele>1091</ele>
        <time>2021-09-18T09:49:19.787Z</time>
      </trkpt>
      <trkpt lat="44.19909" lon="6.26358">
        <ele>1089.9</ele>
        <time>2021-09-18T09:49:20.366Z</time>
      </trkpt>
      <trkpt lat="44.1991" lon="6.2636">
        <ele>1089.2</ele>
        <time>2021-09-18T09:49:20.794Z</time>
      </trkpt>
      <trkpt lat="44.19911" lon="6.26363">
        <ele>1088</ele>
        <time>2021-09-18T09:49:21.373Z</time>
      </trkpt>
      <trkpt lat="44.19912" lon="6.26366">
        <ele>1086.9</ele>
        <time>2021-09-18T09:49:21.953Z</time>
      </trkpt>
      <trkpt lat="44.19913" lon="6.26368">
        <ele>1086.2</ele>
        <time>2021-09-18T09:49:22.380Z</time>
      </trkpt>
      <trkpt lat="44.19914" lon="6.2637">
        <ele>1085.4</ele>
        <time>2021-09-18T09:49:22.808Z</time>
      </trkpt>
      <trkpt lat="44.19916" lon="6.26373">
        <ele>1084.3</ele>
        <time>2021-09-18T09:49:23.525Z</time>
      </trkpt>
      <trkpt lat="44.19917" lon="6.26374">
        <ele>1083.9</ele>
        <time>2021-09-18T09:49:23.826Z</time>
      </trkpt>
      <trkpt lat="44.19918" lon="6.26376">
        <ele>1083.3</ele>
        <time>2021-09-18T09:49:24.253Z</time>
      </trkpt>
      <trkpt lat="44.1992" lon="6.26377">
        <ele>1083.1</ele>
        <time>2021-09-18T09:49:24.773Z</time>
      </trkpt>
      <trkpt lat="44.19921" lon="6.26379">
        <ele>1082.5</ele>
        <time>2021-09-18T09:49:25.200Z</time>
      </trkpt>
      <trkpt lat="44.19922" lon="6.26379">
        <ele>1082.6</ele>
        <time>2021-09-18T09:49:28.467Z</time>
      </trkpt>
      <trkpt lat="44.19925" lon="6.2638">
        <ele>1082.6</ele>
        <time>2021-09-18T09:49:32.343Z</time>
      </trkpt>
      <trkpt lat="44.19927" lon="6.26381">
        <ele>1082.5</ele>
        <time>2021-09-18T09:49:32.902Z</time>
      </trkpt>
      <trkpt lat="44.19929" lon="6.26381">
        <ele>1082.8</ele>
        <time>2021-09-18T09:49:42.594Z</time>
      </trkpt>
      <trkpt lat="44.1993" lon="6.26381">
        <ele>1082.9</ele>
        <time>2021-09-18T09:49:45.862Z</time>
      </trkpt>
      <trkpt lat="44.19932" lon="6.26382">
        <ele>1082.8</ele>
        <time>2021-09-18T09:49:46.421Z</time>
      </trkpt>
      <trkpt lat="44.19934" lon="6.26384">
        <ele>1082.4</ele>
        <time>2021-09-18T09:49:47.022Z</time>
      </trkpt>
      <trkpt lat="44.19935" lon="6.26385">
        <ele>1082.2</ele>
        <time>2021-09-18T09:49:47.323Z</time>
      </trkpt>
      <trkpt lat="44.19937" lon="6.26386">
        <ele>1082.1</ele>
        <time>2021-09-18T09:49:47.882Z</time>
      </trkpt>
      <trkpt lat="44.19938" lon="6.26386">
        <ele>1082.3</ele>
        <time>2021-09-18T09:49:52.728Z</time>
      </trkpt>
      <trkpt lat="44.1994" lon="6.26386">
        <ele>1082.6</ele>
        <time>2021-09-18T09:50:02.421Z</time>
      </trkpt>
      <trkpt lat="44.19942" lon="6.26387">
        <ele>1082.6</ele>
        <time>2021-09-18T09:50:05.090Z</time>
      </trkpt>
      <trkpt lat="44.19944" lon="6.26387">
        <ele>1082.9</ele>
        <time>2021-09-18T09:50:14.783Z</time>
      </trkpt>
      <trkpt lat="44.19946" lon="6.26388">
        <ele>1082.9</ele>
        <time>2021-09-18T09:50:17.453Z</time>
      </trkpt>
      <trkpt lat="44.19948" lon="6.26388">
        <ele>1083.2</ele>
        <time>2021-09-18T09:50:27.146Z</time>
      </trkpt>
      <trkpt lat="44.19949" lon="6.26388">
        <ele>1083.3</ele>
        <time>2021-09-18T09:50:30.413Z</time>
      </trkpt>
      <trkpt lat="44.19951" lon="6.26388">
        <ele>1083.6</ele>
        <time>2021-09-18T09:50:40.106Z</time>
      </trkpt>
      <trkpt lat="44.19953" lon="6.26388">
        <ele>1083.9</ele>
        <time>2021-09-18T09:50:49.799Z</time>
      </trkpt>
      <trkpt lat="44.19954" lon="6.26388">
        <ele>1084.1</ele>
        <time>2021-09-18T09:50:54.646Z</time>
      </trkpt>
      <trkpt lat="44.19956" lon="6.26389">
        <ele>1084.1</ele>
        <time>2021-09-18T09:50:57.315Z</time>
      </trkpt>
      <trkpt lat="44.19958" lon="6.26389">
        <ele>1084.4</ele>
        <time>2021-09-18T09:51:07.008Z</time>
      </trkpt>
      <trkpt lat="44.19959" lon="6.2639">
        <ele>1084.3</ele>
        <time>2021-09-18T09:51:07.309Z</time>
      </trkpt>
      <trkpt lat="44.19961" lon="6.2639">
        <ele>1084.6</ele>
        <time>2021-09-18T09:51:17.002Z</time>
      </trkpt>
      <trkpt lat="44.19962" lon="6.26393">
        <ele>1084</ele>
        <time>2021-09-18T09:51:17.582Z</time>
      </trkpt>
      <trkpt lat="44.19963" lon="6.26394">
        <ele>1083.9</ele>
        <time>2021-09-18T09:51:17.882Z</time>
      </trkpt>
      <trkpt lat="44.19964" lon="6.26396">
        <ele>1083.6</ele>
        <time>2021-09-18T09:51:18.310Z</time>
      </trkpt>
      <trkpt lat="44.19965" lon="6.26398">
        <ele>1083.3</ele>
        <time>2021-09-18T09:51:18.737Z</time>
      </trkpt>
      <trkpt lat="44.19965" lon="6.26401">
        <ele>1082.5</ele>
        <time>2021-09-18T09:51:19.262Z</time>
      </trkpt>
      <trkpt lat="44.19966" lon="6.26403">
        <ele>1082.2</ele>
        <time>2021-09-18T09:51:19.690Z</time>
      </trkpt>
      <trkpt lat="44.19967" lon="6.26405">
        <ele>1081.9</ele>
        <time>2021-09-18T09:51:20.117Z</time>
      </trkpt>
      <trkpt lat="44.19969" lon="6.26407">
        <ele>1081.9</ele>
        <time>2021-09-18T09:51:23.209Z</time>
      </trkpt>
      <trkpt lat="44.1997" lon="6.26408">
        <ele>1081.8</ele>
        <time>2021-09-18T09:51:23.510Z</time>
      </trkpt>
      <trkpt lat="44.19972" lon="6.2641">
        <ele>1081.8</ele>
        <time>2021-09-18T09:51:26.602Z</time>
      </trkpt>
      <trkpt lat="44.19974" lon="6.2641">
        <ele>1082.2</ele>
        <time>2021-09-18T09:51:36.295Z</time>
      </trkpt>
      <trkpt lat="44.19975" lon="6.2641">
        <ele>1082.5</ele>
        <time>2021-09-18T09:51:41.141Z</time>
      </trkpt>
      <trkpt lat="44.19977" lon="6.26412">
        <ele>1082.5</ele>
        <time>2021-09-18T09:51:44.233Z</time>
      </trkpt>
      <trkpt lat="44.19978" lon="6.26413">
        <ele>1082.5</ele>
        <time>2021-09-18T09:51:45.779Z</time>
      </trkpt>
      <trkpt lat="44.19979" lon="6.26415">
        <ele>1082.3</ele>
        <time>2021-09-18T09:51:46.207Z</time>
      </trkpt>
      <trkpt lat="44.1998" lon="6.26419">
        <ele>1081.6</ele>
        <time>2021-09-18T09:51:46.949Z</time>
      </trkpt>
      <trkpt lat="44.19981" lon="6.26422">
        <ele>1081.2</ele>
        <time>2021-09-18T09:51:47.528Z</time>
      </trkpt>
      <trkpt lat="44.19982" lon="6.26423">
        <ele>1081.2</ele>
        <time>2021-09-18T09:51:49.074Z</time>
      </trkpt>
      <trkpt lat="44.19984" lon="6.26425">
        <ele>1081.2</ele>
        <time>2021-09-18T09:51:52.167Z</time>
      </trkpt>
      <trkpt lat="44.19986" lon="6.26426">
        <ele>1081.4</ele>
        <time>2021-09-18T09:51:58.733Z</time>
      </trkpt>
      <trkpt lat="44.19986" lon="6.26428">
        <ele>1081</ele>
        <time>2021-09-18T09:51:59.084Z</time>
      </trkpt>
      <trkpt lat="44.19988" lon="6.26431">
        <ele>1080.8</ele>
        <time>2021-09-18T09:51:59.802Z</time>
      </trkpt>
      <trkpt lat="44.19989" lon="6.26434">
        <ele>1080.3</ele>
        <time>2021-09-18T09:52:00.381Z</time>
      </trkpt>
      <trkpt lat="44.19989" lon="6.26436">
        <ele>1079.8</ele>
        <time>2021-09-18T09:52:00.732Z</time>
      </trkpt>
      <trkpt lat="44.1999" lon="6.26439">
        <ele>1079.4</ele>
        <time>2021-09-18T09:52:01.311Z</time>
      </trkpt>
      <trkpt lat="44.19991" lon="6.26441">
        <ele>1079.2</ele>
        <time>2021-09-18T09:52:01.739Z</time>
      </trkpt>
      <trkpt lat="44.19991" lon="6.26444">
        <ele>1078.5</ele>
        <time>2021-09-18T09:52:02.264Z</time>
      </trkpt>
      <trkpt lat="44.19991" lon="6.26446">
        <ele>1078</ele>
        <time>2021-09-18T09:52:02.615Z</time>
      </trkpt>
      <trkpt lat="44.19992" lon="6.2645">
        <ele>1077.3</ele>
        <time>2021-09-18T09:52:03.357Z</time>
      </trkpt>
      <trkpt lat="44.19993" lon="6.26451">
        <ele>1077.4</ele>
        <time>2021-09-18T09:52:06.757Z</time>
      </trkpt>
      <trkpt lat="44.19994" lon="6.26454">
        <ele>1076.9</ele>
        <time>2021-09-18T09:52:07.337Z</time>
      </trkpt>
      <trkpt lat="44.19996" lon="6.26455">
        <ele>1077.2</ele>
        <time>2021-09-18T09:52:17.633Z</time>
      </trkpt>
      <trkpt lat="44.19998" lon="6.26457">
        <ele>1077.3</ele>
        <time>2021-09-18T09:52:22.559Z</time>
      </trkpt>
      <trkpt lat="44.19999" lon="6.26458">
        <ele>1077.3</ele>
        <time>2021-09-18T09:52:24.105Z</time>
      </trkpt>
      <trkpt lat="44.2" lon="6.26458">
        <ele>1077.6</ele>
        <time>2021-09-18T09:52:28.951Z</time>
      </trkpt>
      <trkpt lat="44.20001" lon="6.26461">
        <ele>1076.7</ele>
        <time>2021-09-18T09:52:29.531Z</time>
      </trkpt>
      <trkpt lat="44.20003" lon="6.26463">
        <ele>1075.8</ele>
        <time>2021-09-18T09:52:30.132Z</time>
      </trkpt>
      <trkpt lat="44.20004" lon="6.26465">
        <ele>1075.2</ele>
        <time>2021-09-18T09:52:30.560Z</time>
      </trkpt>
      <trkpt lat="44.20005" lon="6.26466">
        <ele>1074.8</ele>
        <time>2021-09-18T09:52:30.860Z</time>
      </trkpt>
      <trkpt lat="44.20007" lon="6.26468">
        <ele>1074</ele>
        <time>2021-09-18T09:52:31.462Z</time>
      </trkpt>
      <trkpt lat="44.20008" lon="6.26469">
        <ele>1073.6</ele>
        <time>2021-09-18T09:52:31.763Z</time>
      </trkpt>
      <trkpt lat="44.2001" lon="6.2647">
        <ele>1073.1</ele>
        <time>2021-09-18T09:52:32.282Z</time>
      </trkpt>
      <trkpt lat="44.20013" lon="6.26471">
        <ele>1072.3</ele>
        <time>2021-09-18T09:52:33.036Z</time>
      </trkpt>
      <trkpt lat="44.20015" lon="6.26472">
        <ele>1071.8</ele>
        <time>2021-09-18T09:52:33.555Z</time>
      </trkpt>
      <trkpt lat="44.20016" lon="6.26472">
        <ele>1071.6</ele>
        <time>2021-09-18T09:52:33.799Z</time>
      </trkpt>
      <trkpt lat="44.20018" lon="6.26473">
        <ele>1071.1</ele>
        <time>2021-09-18T09:52:34.319Z</time>
      </trkpt>
      <trkpt lat="44.2002" lon="6.26475">
        <ele>1070.4</ele>
        <time>2021-09-18T09:52:34.920Z</time>
      </trkpt>
      <trkpt lat="44.20022" lon="6.26477">
        <ele>1069.8</ele>
        <time>2021-09-18T09:52:35.521Z</time>
      </trkpt>
      <trkpt lat="44.20024" lon="6.26477">
        <ele>1069.5</ele>
        <time>2021-09-18T09:52:36.010Z</time>
      </trkpt>
      <trkpt lat="44.20026" lon="6.26479">
        <ele>1068.9</ele>
        <time>2021-09-18T09:52:36.612Z</time>
      </trkpt>
      <trkpt lat="44.20029" lon="6.2648">
        <ele>1068.3</ele>
        <time>2021-09-18T09:52:37.365Z</time>
      </trkpt>
      <trkpt lat="44.2003" lon="6.26481">
        <ele>1068</ele>
        <time>2021-09-18T09:52:37.666Z</time>
      </trkpt>
      <trkpt lat="44.20032" lon="6.26482">
        <ele>1067.6</ele>
        <time>2021-09-18T09:52:38.185Z</time>
      </trkpt>
      <trkpt lat="44.20033" lon="6.26483">
        <ele>1067.3</ele>
        <time>2021-09-18T09:52:38.486Z</time>
      </trkpt>
      <trkpt lat="44.20034" lon="6.26484">
        <ele>1067.1</ele>
        <time>2021-09-18T09:52:38.787Z</time>
      </trkpt>
      <trkpt lat="44.20036" lon="6.26485">
        <ele>1066.7</ele>
        <time>2021-09-18T09:52:39.306Z</time>
      </trkpt>
      <trkpt lat="44.20037" lon="6.26486">
        <ele>1066.4</ele>
        <time>2021-09-18T09:52:39.607Z</time>
      </trkpt>
      <trkpt lat="44.20038" lon="6.26484">
        <ele>1066.5</ele>
        <time>2021-09-18T09:52:43.638Z</time>
      </trkpt>
      <trkpt lat="44.20038" lon="6.26483">
        <ele>1066.6</ele>
        <time>2021-09-18T09:52:47.112Z</time>
      </trkpt>
      <trkpt lat="44.20039" lon="6.26481">
        <ele>1066.7</ele>
        <time>2021-09-18T09:52:51.143Z</time>
      </trkpt>
      <trkpt lat="44.20042" lon="6.2648">
        <ele>1066.4</ele>
        <time>2021-09-18T09:52:51.897Z</time>
      </trkpt>
      <trkpt lat="44.20044" lon="6.26479">
        <ele>1066.2</ele>
        <time>2021-09-18T09:52:52.416Z</time>
      </trkpt>
      <trkpt lat="44.20044" lon="6.26476">
        <ele>1066.4</ele>
        <time>2021-09-18T09:52:58.995Z</time>
      </trkpt>
      <trkpt lat="44.20045" lon="6.26474">
        <ele>1066.4</ele>
        <time>2021-09-18T09:53:01.191Z</time>
      </trkpt>
      <trkpt lat="44.20047" lon="6.26472">
        <ele>1066.3</ele>
        <time>2021-09-18T09:53:01.877Z</time>
      </trkpt>
      <trkpt lat="44.20047" lon="6.2647">
        <ele>1066.4</ele>
        <time>2021-09-18T09:53:05.496Z</time>
      </trkpt>
      <trkpt lat="44.20048" lon="6.26468">
        <ele>1066.4</ele>
        <time>2021-09-18T09:53:07.692Z</time>
      </trkpt>
      <trkpt lat="44.2005" lon="6.26466">
        <ele>1066.2</ele>
        <time>2021-09-18T09:53:08.294Z</time>
      </trkpt>
      <trkpt lat="44.2005" lon="6.26464">
        <ele>1066.3</ele>
        <time>2021-09-18T09:53:11.912Z</time>
      </trkpt>
      <trkpt lat="44.20051" lon="6.26463">
        <ele>1066.2</ele>
        <time>2021-09-18T09:53:12.212Z</time>
      </trkpt>
      <trkpt lat="44.20054" lon="6.26463">
        <ele>1065.6</ele>
        <time>2021-09-18T09:53:12.946Z</time>
      </trkpt>
      <trkpt lat="44.20054" lon="6.26465">
        <ele>1065.5</ele>
        <time>2021-09-18T09:53:13.296Z</time>
      </trkpt>
      <trkpt lat="44.20054" lon="6.26467">
        <ele>1065.3</ele>
        <time>2021-09-18T09:53:13.647Z</time>
      </trkpt>
      <trkpt lat="44.20055" lon="6.26468">
        <ele>1065.1</ele>
        <time>2021-09-18T09:53:13.947Z</time>
      </trkpt>
      <trkpt lat="44.20056" lon="6.26469">
        <ele>1064.9</ele>
        <time>2021-09-18T09:53:14.248Z</time>
      </trkpt>
      <trkpt lat="44.20056" lon="6.26471">
        <ele>1064.8</ele>
        <time>2021-09-18T09:53:14.598Z</time>
      </trkpt>
      <trkpt lat="44.20057" lon="6.26473">
        <ele>1064.5</ele>
        <time>2021-09-18T09:53:15.026Z</time>
      </trkpt>
      <trkpt lat="44.20058" lon="6.26475">
        <ele>1064.2</ele>
        <time>2021-09-18T09:53:15.453Z</time>
      </trkpt>
      <trkpt lat="44.20059" lon="6.26476">
        <ele>1064</ele>
        <time>2021-09-18T09:53:15.754Z</time>
      </trkpt>
      <trkpt lat="44.20061" lon="6.26478">
        <ele>1063.6</ele>
        <time>2021-09-18T09:53:16.355Z</time>
      </trkpt>
      <trkpt lat="44.20062" lon="6.26479">
        <ele>1063.5</ele>
        <time>2021-09-18T09:53:16.656Z</time>
      </trkpt>
      <trkpt lat="44.20064" lon="6.26481">
        <ele>1063.1</ele>
        <time>2021-09-18T09:53:17.257Z</time>
      </trkpt>
      <trkpt lat="44.20065" lon="6.26482">
        <ele>1062.9</ele>
        <time>2021-09-18T09:53:17.558Z</time>
      </trkpt>
      <trkpt lat="44.20065" lon="6.26484">
        <ele>1062.9</ele>
        <time>2021-09-18T09:53:19.359Z</time>
      </trkpt>
      <trkpt lat="44.20066" lon="6.26485">
        <ele>1062.7</ele>
        <time>2021-09-18T09:53:19.660Z</time>
      </trkpt>
      <trkpt lat="44.20067" lon="6.26485">
        <ele>1062.6</ele>
        <time>2021-09-18T09:53:19.905Z</time>
      </trkpt>
      <trkpt lat="44.20067" lon="6.26483">
        <ele>1062.6</ele>
        <time>2021-09-18T09:53:21.706Z</time>
      </trkpt>
      <trkpt lat="44.20068" lon="6.26481">
        <ele>1062.5</ele>
        <time>2021-09-18T09:53:22.128Z</time>
      </trkpt>
      <trkpt lat="44.20068" lon="6.2648">
        <ele>1062.5</ele>
        <time>2021-09-18T09:53:23.028Z</time>
      </trkpt>
      <trkpt lat="44.2007" lon="6.26477">
        <ele>1062.3</ele>
        <time>2021-09-18T09:53:23.746Z</time>
      </trkpt>
      <trkpt lat="44.20071" lon="6.26474">
        <ele>1062.1</ele>
        <time>2021-09-18T09:53:24.326Z</time>
      </trkpt>
      <trkpt lat="44.20072" lon="6.26473">
        <ele>1061.9</ele>
        <time>2021-09-18T09:53:24.627Z</time>
      </trkpt>
      <trkpt lat="44.20073" lon="6.26472">
        <ele>1061.8</ele>
        <time>2021-09-18T09:53:24.927Z</time>
      </trkpt>
      <trkpt lat="44.20073" lon="6.26469">
        <ele>1061.8</ele>
        <time>2021-09-18T09:53:27.630Z</time>
      </trkpt>
      <trkpt lat="44.20073" lon="6.26468">
        <ele>1061.8</ele>
        <time>2021-09-18T09:53:28.530Z</time>
      </trkpt>
      <trkpt lat="44.20073" lon="6.26466">
        <ele>1061.8</ele>
        <time>2021-09-18T09:53:30.332Z</time>
      </trkpt>
      <trkpt lat="44.20074" lon="6.26464">
        <ele>1061.6</ele>
        <time>2021-09-18T09:53:30.759Z</time>
      </trkpt>
      <trkpt lat="44.20076" lon="6.26461">
        <ele>1061.1</ele>
        <time>2021-09-18T09:53:31.477Z</time>
      </trkpt>
      <trkpt lat="44.20077" lon="6.2646">
        <ele>1060.9</ele>
        <time>2021-09-18T09:53:31.778Z</time>
      </trkpt>
      <trkpt lat="44.20079" lon="6.26461">
        <ele>1060.5</ele>
        <time>2021-09-18T09:53:32.297Z</time>
      </trkpt>
      <trkpt lat="44.2008" lon="6.26464">
        <ele>1060.4</ele>
        <time>2021-09-18T09:53:32.949Z</time>
      </trkpt>
      <trkpt lat="44.20081" lon="6.26468">
        <ele>1060.3</ele>
        <time>2021-09-18T09:53:33.863Z</time>
      </trkpt>
      <trkpt lat="44.20081" lon="6.26469">
        <ele>1060.3</ele>
        <time>2021-09-18T09:53:34.764Z</time>
      </trkpt>
      <trkpt lat="44.20082" lon="6.26472">
        <ele>1060.2</ele>
        <time>2021-09-18T09:53:35.416Z</time>
      </trkpt>
      <trkpt lat="44.20082" lon="6.26474">
        <ele>1060.3</ele>
        <time>2021-09-18T09:53:39.034Z</time>
      </trkpt>
      <trkpt lat="44.20083" lon="6.26476">
        <ele>1060.2</ele>
        <time>2021-09-18T09:53:39.456Z</time>
      </trkpt>
      <trkpt lat="44.20084" lon="6.26478">
        <ele>1059.9</ele>
        <time>2021-09-18T09:53:39.883Z</time>
      </trkpt>
      <trkpt lat="44.20084" lon="6.2648">
        <ele>1060</ele>
        <time>2021-09-18T09:53:43.501Z</time>
      </trkpt>
      <trkpt lat="44.20085" lon="6.26481">
        <ele>1059.6</ele>
        <time>2021-09-18T09:53:43.802Z</time>
      </trkpt>
      <trkpt lat="44.20087" lon="6.26481">
        <ele>1058.7</ele>
        <time>2021-09-18T09:53:44.291Z</time>
      </trkpt>
      <trkpt lat="44.20088" lon="6.26482">
        <ele>1058.3</ele>
        <time>2021-09-18T09:53:44.591Z</time>
      </trkpt>
      <trkpt lat="44.2009" lon="6.26483">
        <ele>1057.5</ele>
        <time>2021-09-18T09:53:45.110Z</time>
      </trkpt>
      <trkpt lat="44.20091" lon="6.26482">
        <ele>1057</ele>
        <time>2021-09-18T09:53:45.411Z</time>
      </trkpt>
      <trkpt lat="44.20092" lon="6.26481">
        <ele>1056.5</ele>
        <time>2021-09-18T09:53:45.712Z</time>
      </trkpt>
      <trkpt lat="44.20093" lon="6.26481">
        <ele>1056.1</ele>
        <time>2021-09-18T09:53:45.956Z</time>
      </trkpt>
      <trkpt lat="44.20095" lon="6.26481">
        <ele>1055.2</ele>
        <time>2021-09-18T09:53:46.445Z</time>
      </trkpt>
      <trkpt lat="44.20097" lon="6.26483">
        <ele>1054.4</ele>
        <time>2021-09-18T09:53:47.047Z</time>
      </trkpt>
      <trkpt lat="44.20098" lon="6.26481">
        <ele>1053.9</ele>
        <time>2021-09-18T09:53:47.474Z</time>
      </trkpt>
      <trkpt lat="44.20099" lon="6.26481">
        <ele>1053.5</ele>
        <time>2021-09-18T09:53:47.718Z</time>
      </trkpt>
      <trkpt lat="44.201" lon="6.26482">
        <ele>1053.1</ele>
        <time>2021-09-18T09:53:48.019Z</time>
      </trkpt>
      <trkpt lat="44.20102" lon="6.26481">
        <ele>1052.2</ele>
        <time>2021-09-18T09:53:48.538Z</time>
      </trkpt>
      <trkpt lat="44.20104" lon="6.26481">
        <ele>1051.3</ele>
        <time>2021-09-18T09:53:49.027Z</time>
      </trkpt>
      <trkpt lat="44.20105" lon="6.26482">
        <ele>1050.9</ele>
        <time>2021-09-18T09:53:49.328Z</time>
      </trkpt>
      <trkpt lat="44.20106" lon="6.26482">
        <ele>1050.5</ele>
        <time>2021-09-18T09:53:49.572Z</time>
      </trkpt>
      <trkpt lat="44.20108" lon="6.26481">
        <ele>1049.6</ele>
        <time>2021-09-18T09:53:50.091Z</time>
      </trkpt>
      <trkpt lat="44.2011" lon="6.26482">
        <ele>1048.7</ele>
        <time>2021-09-18T09:53:50.611Z</time>
      </trkpt>
      <trkpt lat="44.20112" lon="6.26484">
        <ele>1047.9</ele>
        <time>2021-09-18T09:53:51.212Z</time>
      </trkpt>
      <trkpt lat="44.20113" lon="6.26484">
        <ele>1047.5</ele>
        <time>2021-09-18T09:53:51.456Z</time>
      </trkpt>
      <trkpt lat="44.20114" lon="6.26485">
        <ele>1047</ele>
        <time>2021-09-18T09:53:51.757Z</time>
      </trkpt>
      <trkpt lat="44.20116" lon="6.26486">
        <ele>1046.2</ele>
        <time>2021-09-18T09:53:52.276Z</time>
      </trkpt>
      <trkpt lat="44.20118" lon="6.26489">
        <ele>1045.4</ele>
        <time>2021-09-18T09:53:52.994Z</time>
      </trkpt>
      <trkpt lat="44.20119" lon="6.2649">
        <ele>1045</ele>
        <time>2021-09-18T09:53:53.295Z</time>
      </trkpt>
      <trkpt lat="44.2012" lon="6.2649">
        <ele>1044.5</ele>
        <time>2021-09-18T09:53:53.539Z</time>
      </trkpt>
      <trkpt lat="44.20122" lon="6.26492">
        <ele>1043.7</ele>
        <time>2021-09-18T09:53:54.141Z</time>
      </trkpt>
      <trkpt lat="44.20123" lon="6.26492">
        <ele>1043.2</ele>
        <time>2021-09-18T09:53:54.385Z</time>
      </trkpt>
      <trkpt lat="44.20125" lon="6.26493">
        <ele>1042.4</ele>
        <time>2021-09-18T09:53:54.904Z</time>
      </trkpt>
      <trkpt lat="44.20127" lon="6.26493">
        <ele>1041.5</ele>
        <time>2021-09-18T09:53:55.393Z</time>
      </trkpt>
      <trkpt lat="44.20128" lon="6.26494">
        <ele>1041.1</ele>
        <time>2021-09-18T09:53:55.694Z</time>
      </trkpt>
      <trkpt lat="44.2013" lon="6.26496">
        <ele>1040.2</ele>
        <time>2021-09-18T09:53:56.295Z</time>
      </trkpt>
      <trkpt lat="44.20131" lon="6.26498">
        <ele>1039.8</ele>
        <time>2021-09-18T09:53:56.722Z</time>
      </trkpt>
      <trkpt lat="44.20133" lon="6.26499">
        <ele>1038.9</ele>
        <time>2021-09-18T09:53:57.242Z</time>
      </trkpt>
      <trkpt lat="44.20134" lon="6.26499">
        <ele>1038.5</ele>
        <time>2021-09-18T09:53:57.486Z</time>
      </trkpt>
      <trkpt lat="44.20135" lon="6.26497">
        <ele>1038</ele>
        <time>2021-09-18T09:53:57.913Z</time>
      </trkpt>
      <trkpt lat="44.20136" lon="6.26496">
        <ele>1037.6</ele>
        <time>2021-09-18T09:53:58.214Z</time>
      </trkpt>
      <trkpt lat="44.20136" lon="6.26494">
        <ele>1037.5</ele>
        <time>2021-09-18T09:53:58.565Z</time>
      </trkpt>
      <trkpt lat="44.20135" lon="6.26493">
        <ele>1038</ele>
        <time>2021-09-18T09:54:04.528Z</time>
      </trkpt>
      <trkpt lat="44.20134" lon="6.26492">
        <ele>1038.4</ele>
        <time>2021-09-18T09:54:10.491Z</time>
      </trkpt>
      <trkpt lat="44.20133" lon="6.26489">
        <ele>1038.8</ele>
        <time>2021-09-18T09:54:21.986Z</time>
      </trkpt>
      <trkpt lat="44.20133" lon="6.26487">
        <ele>1038.8</ele>
        <time>2021-09-18T09:54:23.787Z</time>
      </trkpt>
      <trkpt lat="44.20133" lon="6.26485">
        <ele>1038.7</ele>
        <time>2021-09-18T09:54:24.138Z</time>
      </trkpt>
      <trkpt lat="44.20134" lon="6.26483">
        <ele>1038.3</ele>
        <time>2021-09-18T09:54:24.565Z</time>
      </trkpt>
      <trkpt lat="44.20135" lon="6.26481">
        <ele>1037.8</ele>
        <time>2021-09-18T09:54:24.992Z</time>
      </trkpt>
      <trkpt lat="44.20134" lon="6.2648">
        <ele>1038.2</ele>
        <time>2021-09-18T09:54:30.955Z</time>
      </trkpt>
      <trkpt lat="44.20133" lon="6.26478">
        <ele>1038.6</ele>
        <time>2021-09-18T09:54:39.427Z</time>
      </trkpt>
      <trkpt lat="44.20134" lon="6.26477">
        <ele>1038.2</ele>
        <time>2021-09-18T09:54:39.728Z</time>
      </trkpt>
      <trkpt lat="44.20135" lon="6.26476">
        <ele>1037.7</ele>
        <time>2021-09-18T09:54:40.029Z</time>
      </trkpt>
      <trkpt lat="44.20136" lon="6.26475">
        <ele>1037.3</ele>
        <time>2021-09-18T09:54:40.330Z</time>
      </trkpt>
      <trkpt lat="44.20136" lon="6.26473">
        <ele>1037.3</ele>
        <time>2021-09-18T09:54:42.131Z</time>
      </trkpt>
      <trkpt lat="44.20137" lon="6.26472">
        <ele>1036.8</ele>
        <time>2021-09-18T09:54:42.432Z</time>
      </trkpt>
      <trkpt lat="44.20138" lon="6.26471">
        <ele>1036.4</ele>
        <time>2021-09-18T09:54:42.732Z</time>
      </trkpt>
      <trkpt lat="44.20138" lon="6.26469">
        <ele>1036.3</ele>
        <time>2021-09-18T09:54:43.083Z</time>
      </trkpt>
      <trkpt lat="44.20138" lon="6.26467">
        <ele>1036.3</ele>
        <time>2021-09-18T09:54:44.884Z</time>
      </trkpt>
      <trkpt lat="44.20137" lon="6.26465">
        <ele>1036.7</ele>
        <time>2021-09-18T09:54:53.356Z</time>
      </trkpt>
      <trkpt lat="44.20138" lon="6.26463">
        <ele>1036.3</ele>
        <time>2021-09-18T09:54:53.784Z</time>
      </trkpt>
      <trkpt lat="44.2014" lon="6.2646">
        <ele>1035.4</ele>
        <time>2021-09-18T09:54:54.501Z</time>
      </trkpt>
      <trkpt lat="44.20142" lon="6.26458">
        <ele>1034.5</ele>
        <time>2021-09-18T09:54:55.103Z</time>
      </trkpt>
      <trkpt lat="44.20143" lon="6.26458">
        <ele>1034.1</ele>
        <time>2021-09-18T09:54:55.347Z</time>
      </trkpt>
      <trkpt lat="44.20144" lon="6.26456">
        <ele>1033.6</ele>
        <time>2021-09-18T09:54:55.774Z</time>
      </trkpt>
      <trkpt lat="44.20145" lon="6.26455">
        <ele>1033.2</ele>
        <time>2021-09-18T09:54:56.075Z</time>
      </trkpt>
      <trkpt lat="44.20145" lon="6.26454">
        <ele>1033.2</ele>
        <time>2021-09-18T09:54:56.976Z</time>
      </trkpt>
      <trkpt lat="44.20144" lon="6.26452">
        <ele>1033.6</ele>
        <time>2021-09-18T09:55:05.448Z</time>
      </trkpt>
      <trkpt lat="44.20145" lon="6.2645">
        <ele>1033.2</ele>
        <time>2021-09-18T09:55:05.875Z</time>
      </trkpt>
      <trkpt lat="44.20146" lon="6.26447">
        <ele>1032.7</ele>
        <time>2021-09-18T09:55:06.455Z</time>
      </trkpt>
      <trkpt lat="44.20147" lon="6.26446">
        <ele>1032.3</ele>
        <time>2021-09-18T09:55:06.756Z</time>
      </trkpt>
      <trkpt lat="44.20149" lon="6.26446">
        <ele>1031.4</ele>
        <time>2021-09-18T09:55:07.244Z</time>
      </trkpt>
      <trkpt lat="44.2015" lon="6.26445">
        <ele>1031</ele>
        <time>2021-09-18T09:55:07.545Z</time>
      </trkpt>
      <trkpt lat="44.20151" lon="6.26443">
        <ele>1030.6</ele>
        <time>2021-09-18T09:55:07.972Z</time>
      </trkpt>
      <trkpt lat="44.20152" lon="6.26442">
        <ele>1030.1</ele>
        <time>2021-09-18T09:55:08.273Z</time>
      </trkpt>
      <trkpt lat="44.20152" lon="6.2644">
        <ele>1030.1</ele>
        <time>2021-09-18T09:55:10.075Z</time>
      </trkpt>
      <trkpt lat="44.20153" lon="6.26437">
        <ele>1029.7</ele>
        <time>2021-09-18T09:55:10.654Z</time>
      </trkpt>
      <trkpt lat="44.20154" lon="6.26435">
        <ele>1029.3</ele>
        <time>2021-09-18T09:55:11.081Z</time>
      </trkpt>
      <trkpt lat="44.20155" lon="6.26432">
        <ele>1028.8</ele>
        <time>2021-09-18T09:55:11.661Z</time>
      </trkpt>
      <trkpt lat="44.20156" lon="6.26429">
        <ele>1028.4</ele>
        <time>2021-09-18T09:55:12.241Z</time>
      </trkpt>
      <trkpt lat="44.20157" lon="6.26427">
        <ele>1028</ele>
        <time>2021-09-18T09:55:12.668Z</time>
      </trkpt>
      <trkpt lat="44.20159" lon="6.26425">
        <ele>1027.2</ele>
        <time>2021-09-18T09:55:13.269Z</time>
      </trkpt>
      <trkpt lat="44.2016" lon="6.26424">
        <ele>1026.7</ele>
        <time>2021-09-18T09:55:13.570Z</time>
      </trkpt>
      <trkpt lat="44.20161" lon="6.26422">
        <ele>1026.3</ele>
        <time>2021-09-18T09:55:13.997Z</time>
      </trkpt>
      <trkpt lat="44.20163" lon="6.26421">
        <ele>1025.5</ele>
        <time>2021-09-18T09:55:14.517Z</time>
      </trkpt>
      <trkpt lat="44.20163" lon="6.2642">
        <ele>1025.5</ele>
        <time>2021-09-18T09:55:15.417Z</time>
      </trkpt>
      <trkpt lat="44.20165" lon="6.26418">
        <ele>1024.7</ele>
        <time>2021-09-18T09:55:16.019Z</time>
      </trkpt>
      <trkpt lat="44.20166" lon="6.26416">
        <ele>1024.2</ele>
        <time>2021-09-18T09:55:16.446Z</time>
      </trkpt>
      <trkpt lat="44.20165" lon="6.26413">
        <ele>1024.5</ele>
        <time>2021-09-18T09:55:26.892Z</time>
      </trkpt>
      <trkpt lat="44.20165" lon="6.26411">
        <ele>1024.4</ele>
        <time>2021-09-18T09:55:27.242Z</time>
      </trkpt>
      <trkpt lat="44.20166" lon="6.26409">
        <ele>1023.9</ele>
        <time>2021-09-18T09:55:27.670Z</time>
      </trkpt>
      <trkpt lat="44.20165" lon="6.26407">
        <ele>1024.2</ele>
        <time>2021-09-18T09:55:36.142Z</time>
      </trkpt>
      <trkpt lat="44.20166" lon="6.26405">
        <ele>1023.7</ele>
        <time>2021-09-18T09:55:36.569Z</time>
      </trkpt>
      <trkpt lat="44.20167" lon="6.26404">
        <ele>1023.3</ele>
        <time>2021-09-18T09:55:36.869Z</time>
      </trkpt>
      <trkpt lat="44.20168" lon="6.26401">
        <ele>1022.7</ele>
        <time>2021-09-18T09:55:37.449Z</time>
      </trkpt>
      <trkpt lat="44.20168" lon="6.264">
        <ele>1022.6</ele>
        <time>2021-09-18T09:55:37.624Z</time>
      </trkpt>
      <trkpt lat="44.2017" lon="6.26398">
        <ele>1021.7</ele>
        <time>2021-09-18T09:55:38.226Z</time>
      </trkpt>
      <trkpt lat="44.20172" lon="6.26397">
        <ele>1020.9</ele>
        <time>2021-09-18T09:55:38.745Z</time>
      </trkpt>
      <trkpt lat="44.20173" lon="6.26396">
        <ele>1020.4</ele>
        <time>2021-09-18T09:55:39.046Z</time>
      </trkpt>
      <trkpt lat="44.20175" lon="6.26394">
        <ele>1019.6</ele>
        <time>2021-09-18T09:55:39.647Z</time>
      </trkpt>
      <trkpt lat="44.20175" lon="6.26392">
        <ele>1019.5</ele>
        <time>2021-09-18T09:55:39.998Z</time>
      </trkpt>
      <trkpt lat="44.20176" lon="6.2639">
        <ele>1019.1</ele>
        <time>2021-09-18T09:55:40.425Z</time>
      </trkpt>
      <trkpt lat="44.20178" lon="6.26389">
        <ele>1018.3</ele>
        <time>2021-09-18T09:55:40.944Z</time>
      </trkpt>
      <trkpt lat="44.20179" lon="6.26388">
        <ele>1017.9</ele>
        <time>2021-09-18T09:55:41.245Z</time>
      </trkpt>
      <trkpt lat="44.2018" lon="6.26387">
        <ele>1017.5</ele>
        <time>2021-09-18T09:55:41.545Z</time>
      </trkpt>
      <trkpt lat="44.20182" lon="6.26385">
        <ele>1016.7</ele>
        <time>2021-09-18T09:55:42.147Z</time>
      </trkpt>
      <trkpt lat="44.20181" lon="6.26384">
        <ele>1017</ele>
        <time>2021-09-18T09:55:48.110Z</time>
      </trkpt>
      <trkpt lat="44.20181" lon="6.26382">
        <ele>1017</ele>
        <time>2021-09-18T09:55:49.912Z</time>
      </trkpt>
      <trkpt lat="44.2018" lon="6.26381">
        <ele>1017.4</ele>
        <time>2021-09-18T09:55:55.875Z</time>
      </trkpt>
      <trkpt lat="44.2018" lon="6.26377">
        <ele>1017.3</ele>
        <time>2021-09-18T09:55:56.721Z</time>
      </trkpt>
      <trkpt lat="44.20181" lon="6.26376">
        <ele>1016.9</ele>
        <time>2021-09-18T09:55:57.021Z</time>
      </trkpt>
      <trkpt lat="44.20182" lon="6.26374">
        <ele>1016.6</ele>
        <time>2021-09-18T09:55:57.449Z</time>
      </trkpt>
      <trkpt lat="44.20182" lon="6.26372">
        <ele>1016.5</ele>
        <time>2021-09-18T09:55:57.799Z</time>
      </trkpt>
      <trkpt lat="44.20183" lon="6.2637">
        <ele>1016.2</ele>
        <time>2021-09-18T09:55:58.226Z</time>
      </trkpt>
      <trkpt lat="44.20184" lon="6.26369">
        <ele>1015.8</ele>
        <time>2021-09-18T09:55:58.527Z</time>
      </trkpt>
      <trkpt lat="44.20186" lon="6.26368">
        <ele>1015.2</ele>
        <time>2021-09-18T09:55:59.046Z</time>
      </trkpt>
      <trkpt lat="44.20188" lon="6.26366">
        <ele>1014.5</ele>
        <time>2021-09-18T09:55:59.648Z</time>
      </trkpt>
      <trkpt lat="44.20189" lon="6.26366">
        <ele>1014.2</ele>
        <time>2021-09-18T09:55:59.892Z</time>
      </trkpt>
      <trkpt lat="44.2019" lon="6.26366">
        <ele>1013.8</ele>
        <time>2021-09-18T09:56:00.136Z</time>
      </trkpt>
      <trkpt lat="44.20191" lon="6.26364">
        <ele>1013.5</ele>
        <time>2021-09-18T09:56:00.564Z</time>
      </trkpt>
      <trkpt lat="44.20192" lon="6.26365">
        <ele>1013.2</ele>
        <time>2021-09-18T09:56:00.864Z</time>
      </trkpt>
      <trkpt lat="44.20193" lon="6.26366">
        <ele>1012.8</ele>
        <time>2021-09-18T09:56:01.165Z</time>
      </trkpt>
      <trkpt lat="44.20194" lon="6.26366">
        <ele>1012.5</ele>
        <time>2021-09-18T09:56:01.410Z</time>
      </trkpt>
      <trkpt lat="44.20195" lon="6.26364">
        <ele>1012.2</ele>
        <time>2021-09-18T09:56:01.837Z</time>
      </trkpt>
      <trkpt lat="44.20196" lon="6.26363">
        <ele>1011.9</ele>
        <time>2021-09-18T09:56:02.137Z</time>
      </trkpt>
      <trkpt lat="44.20196" lon="6.26361">
        <ele>1011.9</ele>
        <time>2021-09-18T09:56:03.939Z</time>
      </trkpt>
      <trkpt lat="44.20195" lon="6.2636">
        <ele>1012.3</ele>
        <time>2021-09-18T09:56:09.902Z</time>
      </trkpt>
      <trkpt lat="44.20193" lon="6.26358">
        <ele>1013</ele>
        <time>2021-09-18T09:56:21.829Z</time>
      </trkpt>
      <trkpt lat="44.20193" lon="6.26356">
        <ele>1013</ele>
        <time>2021-09-18T09:56:23.630Z</time>
      </trkpt>
      <trkpt lat="44.20194" lon="6.26355">
        <ele>1012.7</ele>
        <time>2021-09-18T09:56:23.931Z</time>
      </trkpt>
      <trkpt lat="44.20194" lon="6.26353">
        <ele>1012.7</ele>
        <time>2021-09-18T09:56:25.732Z</time>
      </trkpt>
      <trkpt lat="44.20195" lon="6.2635">
        <ele>1012.5</ele>
        <time>2021-09-18T09:56:26.312Z</time>
      </trkpt>
      <trkpt lat="44.20196" lon="6.26349">
        <ele>1012.2</ele>
        <time>2021-09-18T09:56:26.613Z</time>
      </trkpt>
      <trkpt lat="44.20196" lon="6.26347">
        <ele>1012.3</ele>
        <time>2021-09-18T09:56:30.231Z</time>
      </trkpt>
      <trkpt lat="44.20196" lon="6.26345">
        <ele>1012.3</ele>
        <time>2021-09-18T09:56:32.032Z</time>
      </trkpt>
      <trkpt lat="44.20198" lon="6.26342">
        <ele>1011.9</ele>
        <time>2021-09-18T09:56:32.750Z</time>
      </trkpt>
      <trkpt lat="44.202" lon="6.26341">
        <ele>1011.3</ele>
        <time>2021-09-18T09:56:33.269Z</time>
      </trkpt>
      <trkpt lat="44.20201" lon="6.26339">
        <ele>1011.1</ele>
        <time>2021-09-18T09:56:33.697Z</time>
      </trkpt>
      <trkpt lat="44.20201" lon="6.26338">
        <ele>1011.2</ele>
        <time>2021-09-18T09:56:37.171Z</time>
      </trkpt>
      <trkpt lat="44.20202" lon="6.26336">
        <ele>1011</ele>
        <time>2021-09-18T09:56:37.598Z</time>
      </trkpt>
      <trkpt lat="44.20203" lon="6.26335">
        <ele>1010.8</ele>
        <time>2021-09-18T09:56:37.899Z</time>
      </trkpt>
      <trkpt lat="44.20206" lon="6.26333">
        <ele>1010.1</ele>
        <time>2021-09-18T09:56:38.712Z</time>
      </trkpt>
      <trkpt lat="44.20207" lon="6.26331">
        <ele>1010</ele>
        <time>2021-09-18T09:56:39.133Z</time>
      </trkpt>
      <trkpt lat="44.20208" lon="6.26329">
        <ele>1010</ele>
        <time>2021-09-18T09:56:41.330Z</time>
      </trkpt>
      <trkpt lat="44.20209" lon="6.26327">
        <ele>1009.9</ele>
        <time>2021-09-18T09:56:41.751Z</time>
      </trkpt>
      <trkpt lat="44.2021" lon="6.26322">
        <ele>1010.1</ele>
        <time>2021-09-18T09:56:50.133Z</time>
      </trkpt>
      <trkpt lat="44.20211" lon="6.26321">
        <ele>1009.9</ele>
        <time>2021-09-18T09:56:50.433Z</time>
      </trkpt>
      <trkpt lat="44.2021" lon="6.26318">
        <ele>1010.5</ele>
        <time>2021-09-18T09:57:01.928Z</time>
      </trkpt>
      <trkpt lat="44.2021" lon="6.26315">
        <ele>1010.7</ele>
        <time>2021-09-18T09:57:08.506Z</time>
      </trkpt>
      <trkpt lat="44.2021" lon="6.26312">
        <ele>1011</ele>
        <time>2021-09-18T09:57:18.930Z</time>
      </trkpt>
      <trkpt lat="44.20211" lon="6.2631">
        <ele>1010.9</ele>
        <time>2021-09-18T09:57:19.351Z</time>
      </trkpt>
      <trkpt lat="44.20211" lon="6.26306">
        <ele>1011.3</ele>
        <time>2021-09-18T09:57:33.249Z</time>
      </trkpt>
      <trkpt lat="44.20213" lon="6.26304">
        <ele>1010.9</ele>
        <time>2021-09-18T09:57:33.850Z</time>
      </trkpt>
      <trkpt lat="44.20215" lon="6.26303">
        <ele>1010.5</ele>
        <time>2021-09-18T09:57:34.369Z</time>
      </trkpt>
      <trkpt lat="44.20217" lon="6.26302">
        <ele>1010.1</ele>
        <time>2021-09-18T09:57:34.889Z</time>
      </trkpt>
      <trkpt lat="44.20217" lon="6.263">
        <ele>1010.3</ele>
        <time>2021-09-18T09:57:41.837Z</time>
      </trkpt>
      <trkpt lat="44.20218" lon="6.26298">
        <ele>1010.2</ele>
        <time>2021-09-18T09:57:42.259Z</time>
      </trkpt>
      <trkpt lat="44.20218" lon="6.26296">
        <ele>1010.4</ele>
        <time>2021-09-18T09:57:49.208Z</time>
      </trkpt>
      <trkpt lat="44.20219" lon="6.26293">
        <ele>1010.4</ele>
        <time>2021-09-18T09:57:52.188Z</time>
      </trkpt>
      <trkpt lat="44.20218" lon="6.26291">
        <ele>1010.8</ele>
        <time>2021-09-18T09:58:00.660Z</time>
      </trkpt>
      <trkpt lat="44.20218" lon="6.26289">
        <ele>1011</ele>
        <time>2021-09-18T09:58:07.608Z</time>
      </trkpt>
      <trkpt lat="44.20218" lon="6.26288">
        <ele>1011.1</ele>
        <time>2021-09-18T09:58:11.083Z</time>
      </trkpt>
      <trkpt lat="44.2022" lon="6.26286">
        <ele>1010.7</ele>
        <time>2021-09-18T09:58:11.684Z</time>
      </trkpt>
      <trkpt lat="44.20222" lon="6.26284">
        <ele>1010.4</ele>
        <time>2021-09-18T09:58:12.285Z</time>
      </trkpt>
      <trkpt lat="44.20223" lon="6.26283">
        <ele>1010.2</ele>
        <time>2021-09-18T09:58:12.586Z</time>
      </trkpt>
      <trkpt lat="44.20226" lon="6.26282">
        <ele>1009.5</ele>
        <time>2021-09-18T09:58:13.340Z</time>
      </trkpt>
      <trkpt lat="44.20228" lon="6.2628">
        <ele>1009.2</ele>
        <time>2021-09-18T09:58:13.941Z</time>
      </trkpt>
      <trkpt lat="44.20231" lon="6.26279">
        <ele>1008.5</ele>
        <time>2021-09-18T09:58:14.695Z</time>
      </trkpt>
      <trkpt lat="44.20233" lon="6.26279">
        <ele>1008</ele>
        <time>2021-09-18T09:58:15.184Z</time>
      </trkpt>
      <trkpt lat="44.20237" lon="6.26278">
        <ele>1007</ele>
        <time>2021-09-18T09:58:16.177Z</time>
      </trkpt>
      <trkpt lat="44.20239" lon="6.26276">
        <ele>1006.7</ele>
        <time>2021-09-18T09:58:16.779Z</time>
      </trkpt>
      <trkpt lat="44.20241" lon="6.26278">
        <ele>1006</ele>
        <time>2021-09-18T09:58:17.380Z</time>
      </trkpt>
      <trkpt lat="44.20241" lon="6.2628">
        <ele>1005.8</ele>
        <time>2021-09-18T09:58:17.731Z</time>
      </trkpt>
      <trkpt lat="44.20241" lon="6.26282">
        <ele>1005.6</ele>
        <time>2021-09-18T09:58:18.081Z</time>
      </trkpt>
      <trkpt lat="44.20242" lon="6.26285">
        <ele>1005.1</ele>
        <time>2021-09-18T09:58:18.661Z</time>
      </trkpt>
      <trkpt lat="44.20243" lon="6.26286">
        <ele>1004.8</ele>
        <time>2021-09-18T09:58:18.961Z</time>
      </trkpt>
      <trkpt lat="44.20244" lon="6.26287">
        <ele>1004.4</ele>
        <time>2021-09-18T09:58:19.262Z</time>
      </trkpt>
      <trkpt lat="44.20245" lon="6.26289">
        <ele>1004</ele>
        <time>2021-09-18T09:58:19.689Z</time>
      </trkpt>
      <trkpt lat="44.20244" lon="6.26291">
        <ele>1004.1</ele>
        <time>2021-09-18T09:58:23.720Z</time>
      </trkpt>
      <trkpt lat="44.20244" lon="6.26292">
        <ele>1004</ele>
        <time>2021-09-18T09:58:23.895Z</time>
      </trkpt>
      <trkpt lat="44.20245" lon="6.26295">
        <ele>1003.5</ele>
        <time>2021-09-18T09:58:24.475Z</time>
      </trkpt>
      <trkpt lat="44.20246" lon="6.26296">
        <ele>1003.2</ele>
        <time>2021-09-18T09:58:24.776Z</time>
      </trkpt>
      <trkpt lat="44.20247" lon="6.26298">
        <ele>1002.7</ele>
        <time>2021-09-18T09:58:25.203Z</time>
      </trkpt>
      <trkpt lat="44.20248" lon="6.263">
        <ele>1002.3</ele>
        <time>2021-09-18T09:58:25.630Z</time>
      </trkpt>
      <trkpt lat="44.20249" lon="6.26302">
        <ele>1001.9</ele>
        <time>2021-09-18T09:58:26.057Z</time>
      </trkpt>
      <trkpt lat="44.2025" lon="6.26305">
        <ele>1001.4</ele>
        <time>2021-09-18T09:58:26.637Z</time>
      </trkpt>
      <trkpt lat="44.20251" lon="6.26308">
        <ele>1001.3</ele>
        <time>2021-09-18T09:58:27.289Z</time>
      </trkpt>
      <trkpt lat="44.20251" lon="6.2631">
        <ele>1001.2</ele>
        <time>2021-09-18T09:58:27.640Z</time>
      </trkpt>
      <trkpt lat="44.20252" lon="6.26312">
        <ele>1001.2</ele>
        <time>2021-09-18T09:58:29.836Z</time>
      </trkpt>
      <trkpt lat="44.20251" lon="6.26314">
        <ele>1000.8</ele>
        <time>2021-09-18T09:58:30.263Z</time>
      </trkpt>
      <trkpt lat="44.20251" lon="6.26318">
        <ele>1000.5</ele>
        <time>2021-09-18T09:58:30.964Z</time>
      </trkpt>
      <trkpt lat="44.20252" lon="6.2632">
        <ele>1000.6</ele>
        <time>2021-09-18T09:58:34.995Z</time>
      </trkpt>
      <trkpt lat="44.20252" lon="6.26322">
        <ele>1000.4</ele>
        <time>2021-09-18T09:58:35.345Z</time>
      </trkpt>
      <trkpt lat="44.20252" lon="6.26324">
        <ele>1000.2</ele>
        <time>2021-09-18T09:58:35.696Z</time>
      </trkpt>
      <trkpt lat="44.20252" lon="6.26326">
        <ele>1000.1</ele>
        <time>2021-09-18T09:58:36.046Z</time>
      </trkpt>
      <trkpt lat="44.20253" lon="6.26328">
        <ele>1000.1</ele>
        <time>2021-09-18T09:58:38.243Z</time>
      </trkpt>
      <trkpt lat="44.20253" lon="6.26329">
        <ele>1000</ele>
        <time>2021-09-18T09:58:38.418Z</time>
      </trkpt>
      <trkpt lat="44.20253" lon="6.2633">
        <ele>999.9</ele>
        <time>2021-09-18T09:58:38.593Z</time>
      </trkpt>
      <trkpt lat="44.20253" lon="6.26332">
        <ele>999.8</ele>
        <time>2021-09-18T09:58:38.943Z</time>
      </trkpt>
      <trkpt lat="44.20252" lon="6.26334">
        <ele>999.3</ele>
        <time>2021-09-18T09:58:39.371Z</time>
      </trkpt>
      <trkpt lat="44.20253" lon="6.26338">
        <ele>998.9</ele>
        <time>2021-09-18T09:58:40.113Z</time>
      </trkpt>
      <trkpt lat="44.20254" lon="6.26341">
        <ele>998.6</ele>
        <time>2021-09-18T09:58:40.692Z</time>
      </trkpt>
      <trkpt lat="44.20255" lon="6.26342">
        <ele>998.6</ele>
        <time>2021-09-18T09:58:42.238Z</time>
      </trkpt>
      <trkpt lat="44.20256" lon="6.26345">
        <ele>998.3</ele>
        <time>2021-09-18T09:58:42.818Z</time>
      </trkpt>
      <trkpt lat="44.20256" lon="6.26346">
        <ele>998.1</ele>
        <time>2021-09-18T09:58:42.993Z</time>
      </trkpt>
      <trkpt lat="44.20258" lon="6.26348">
        <ele>998.2</ele>
        <time>2021-09-18T09:58:47.919Z</time>
      </trkpt>
      <trkpt lat="44.2026" lon="6.26349">
        <ele>998.4</ele>
        <time>2021-09-18T09:58:54.486Z</time>
      </trkpt>
      <trkpt lat="44.20262" lon="6.26349">
        <ele>998.7</ele>
        <time>2021-09-18T09:59:04.178Z</time>
      </trkpt>
      <trkpt lat="44.20263" lon="6.2635">
        <ele>998.7</ele>
        <time>2021-09-18T09:59:05.724Z</time>
      </trkpt>
      <trkpt lat="44.20265" lon="6.26352">
        <ele>998.7</ele>
        <time>2021-09-18T09:59:08.816Z</time>
      </trkpt>
      <trkpt lat="44.20267" lon="6.26354">
        <ele>998.6</ele>
        <time>2021-09-18T09:59:09.503Z</time>
      </trkpt>
      <trkpt lat="44.20268" lon="6.26356">
        <ele>998.4</ele>
        <time>2021-09-18T09:59:09.930Z</time>
      </trkpt>
      <trkpt lat="44.2027" lon="6.26358">
        <ele>998.3</ele>
        <time>2021-09-18T09:59:10.616Z</time>
      </trkpt>
      <trkpt lat="44.20272" lon="6.2636">
        <ele>998.2</ele>
        <time>2021-09-18T09:59:11.303Z</time>
      </trkpt>
      <trkpt lat="44.20272" lon="6.26361">
        <ele>998</ele>
        <time>2021-09-18T09:59:11.478Z</time>
      </trkpt>
      <trkpt lat="44.20273" lon="6.26363">
        <ele>997.8</ele>
        <time>2021-09-18T09:59:11.905Z</time>
      </trkpt>
      <trkpt lat="44.20275" lon="6.26364">
        <ele>997.8</ele>
        <time>2021-09-18T09:59:14.575Z</time>
      </trkpt>
      <trkpt lat="44.20276" lon="6.26365">
        <ele>997.8</ele>
        <time>2021-09-18T09:59:16.121Z</time>
      </trkpt>
      <trkpt lat="44.20278" lon="6.26367">
        <ele>997.6</ele>
        <time>2021-09-18T09:59:16.722Z</time>
      </trkpt>
      <trkpt lat="44.2028" lon="6.26369">
        <ele>997.5</ele>
        <time>2021-09-18T09:59:17.409Z</time>
      </trkpt>
      <trkpt lat="44.20282" lon="6.26371">
        <ele>997.3</ele>
        <time>2021-09-18T09:59:18.010Z</time>
      </trkpt>
      <trkpt lat="44.20283" lon="6.26374">
        <ele>996.7</ele>
        <time>2021-09-18T09:59:18.590Z</time>
      </trkpt>
      <trkpt lat="44.20285" lon="6.26376">
        <ele>996.5</ele>
        <time>2021-09-18T09:59:19.191Z</time>
      </trkpt>
      <trkpt lat="44.20286" lon="6.26378">
        <ele>996.1</ele>
        <time>2021-09-18T09:59:19.618Z</time>
      </trkpt>
      <trkpt lat="44.20287" lon="6.26379">
        <ele>996</ele>
        <time>2021-09-18T09:59:19.919Z</time>
      </trkpt>
      <trkpt lat="44.20288" lon="6.2638">
        <ele>995.8</ele>
        <time>2021-09-18T09:59:20.220Z</time>
      </trkpt>
      <trkpt lat="44.2029" lon="6.26382">
        <ele>995.6</ele>
        <time>2021-09-18T09:59:20.821Z</time>
      </trkpt>
      <trkpt lat="44.20291" lon="6.26382">
        <ele>995.7</ele>
        <time>2021-09-18T09:59:24.089Z</time>
      </trkpt>
      <trkpt lat="44.20293" lon="6.26383">
        <ele>995.6</ele>
        <time>2021-09-18T09:59:24.647Z</time>
      </trkpt>
      <trkpt lat="44.20294" lon="6.26385">
        <ele>995.2</ele>
        <time>2021-09-18T09:59:25.075Z</time>
      </trkpt>
      <trkpt lat="44.20294" lon="6.26387">
        <ele>994.7</ele>
        <time>2021-09-18T09:59:25.425Z</time>
      </trkpt>
      <trkpt lat="44.20295" lon="6.26389">
        <ele>994.3</ele>
        <time>2021-09-18T09:59:25.852Z</time>
      </trkpt>
      <trkpt lat="44.20296" lon="6.2639">
        <ele>994.1</ele>
        <time>2021-09-18T09:59:26.153Z</time>
      </trkpt>
      <trkpt lat="44.20298" lon="6.26392">
        <ele>993.7</ele>
        <time>2021-09-18T09:59:26.754Z</time>
      </trkpt>
      <trkpt lat="44.20302" lon="6.26392">
        <ele>994</ele>
        <time>2021-09-18T09:59:37.264Z</time>
      </trkpt>
      <trkpt lat="44.20304" lon="6.26392">
        <ele>994.2</ele>
        <time>2021-09-18T09:59:43.799Z</time>
      </trkpt>
      <trkpt lat="44.20305" lon="6.26392">
        <ele>994.3</ele>
        <time>2021-09-18T09:59:47.067Z</time>
      </trkpt>
      <trkpt lat="44.20306" lon="6.26393">
        <ele>994.1</ele>
        <time>2021-09-18T09:59:47.367Z</time>
      </trkpt>
      <trkpt lat="44.20308" lon="6.26394">
        <ele>994</ele>
        <time>2021-09-18T09:59:47.926Z</time>
      </trkpt>
      <trkpt lat="44.2031" lon="6.26395">
        <ele>993.8</ele>
        <time>2021-09-18T09:59:48.445Z</time>
      </trkpt>
      <trkpt lat="44.20312" lon="6.26396">
        <ele>993.7</ele>
        <time>2021-09-18T09:59:49.004Z</time>
      </trkpt>
      <trkpt lat="44.20314" lon="6.26397">
        <ele>993.5</ele>
        <time>2021-09-18T09:59:49.523Z</time>
      </trkpt>
      <trkpt lat="44.20316" lon="6.26399">
        <ele>993</ele>
        <time>2021-09-18T09:59:50.125Z</time>
      </trkpt>
      <trkpt lat="44.20318" lon="6.26401">
        <ele>992.5</ele>
        <time>2021-09-18T09:59:50.726Z</time>
      </trkpt>
      <trkpt lat="44.20319" lon="6.26401">
        <ele>992.6</ele>
        <time>2021-09-18T09:59:53.994Z</time>
      </trkpt>
      <trkpt lat="44.2032" lon="6.26402">
        <ele>992.3</ele>
        <time>2021-09-18T09:59:54.294Z</time>
      </trkpt>
      <trkpt lat="44.20323" lon="6.26402">
        <ele>992.5</ele>
        <time>2021-09-18T10:00:01.693Z</time>
      </trkpt>
      <trkpt lat="44.20324" lon="6.26402">
        <ele>992.6</ele>
        <time>2021-09-18T10:00:04.961Z</time>
      </trkpt>
      <trkpt lat="44.20326" lon="6.26402">
        <ele>992.7</ele>
        <time>2021-09-18T10:00:09.355Z</time>
      </trkpt>
      <trkpt lat="44.20327" lon="6.26403">
        <ele>992.4</ele>
        <time>2021-09-18T10:00:09.656Z</time>
      </trkpt>
      <trkpt lat="44.20329" lon="6.26404">
        <ele>992.2</ele>
        <time>2021-09-18T10:00:10.175Z</time>
      </trkpt>
      <trkpt lat="44.20331" lon="6.26403">
        <ele>992.6</ele>
        <time>2021-09-18T10:00:20.472Z</time>
      </trkpt>
      <trkpt lat="44.20333" lon="6.26403">
        <ele>992.7</ele>
        <time>2021-09-18T10:00:24.866Z</time>
      </trkpt>
      <trkpt lat="44.20335" lon="6.26403">
        <ele>993.4</ele>
        <time>2021-09-18T10:00:34.559Z</time>
      </trkpt>
      <trkpt lat="44.20336" lon="6.26405">
        <ele>993.1</ele>
        <time>2021-09-18T10:00:34.986Z</time>
      </trkpt>
      <trkpt lat="44.20336" lon="6.26407">
        <ele>992.4</ele>
        <time>2021-09-18T10:00:35.336Z</time>
      </trkpt>
      <trkpt lat="44.20338" lon="6.26408">
        <ele>992.9</ele>
        <time>2021-09-18T10:00:45.633Z</time>
      </trkpt>
      <trkpt lat="44.2034" lon="6.2641">
        <ele>993</ele>
        <time>2021-09-18T10:00:50.558Z</time>
      </trkpt>
      <trkpt lat="44.20342" lon="6.2641">
        <ele>993.8</ele>
        <time>2021-09-18T10:01:00.251Z</time>
      </trkpt>
      <trkpt lat="44.20344" lon="6.26411">
        <ele>994.3</ele>
        <time>2021-09-18T10:01:10.548Z</time>
      </trkpt>
      <trkpt lat="44.20345" lon="6.26413">
        <ele>994</ele>
        <time>2021-09-18T10:01:10.975Z</time>
      </trkpt>
      <trkpt lat="44.20347" lon="6.26414">
        <ele>994.5</ele>
        <time>2021-09-18T10:01:21.272Z</time>
      </trkpt>
      <trkpt lat="44.20349" lon="6.26415">
        <ele>994.9</ele>
        <time>2021-09-18T10:01:31.569Z</time>
      </trkpt>
      <trkpt lat="44.20351" lon="6.26415">
        <ele>995.8</ele>
        <time>2021-09-18T10:01:41.262Z</time>
      </trkpt>
      <trkpt lat="44.20353" lon="6.26416">
        <ele>996.2</ele>
        <time>2021-09-18T10:01:51.559Z</time>
      </trkpt>
      <trkpt lat="44.20355" lon="6.26417">
        <ele>996.7</ele>
        <time>2021-09-18T10:02:01.856Z</time>
      </trkpt>
      <trkpt lat="44.20357" lon="6.26419">
        <ele>996.9</ele>
        <time>2021-09-18T10:02:08.655Z</time>
      </trkpt>
      <trkpt lat="44.20358" lon="6.2642">
        <ele>997</ele>
        <time>2021-09-18T10:02:12.055Z</time>
      </trkpt>
      <trkpt lat="44.20359" lon="6.2642">
        <ele>997.4</ele>
        <time>2021-09-18T10:02:16.902Z</time>
      </trkpt>
      <trkpt lat="44.20362" lon="6.2642">
        <ele>998.6</ele>
        <time>2021-09-18T10:02:31.441Z</time>
      </trkpt>
      <trkpt lat="44.20364" lon="6.2642">
        <ele>999.4</ele>
        <time>2021-09-18T10:02:41.134Z</time>
      </trkpt>
      <trkpt lat="44.20365" lon="6.26421">
        <ele>999.5</ele>
        <time>2021-09-18T10:02:44.534Z</time>
      </trkpt>
      <trkpt lat="44.20366" lon="6.26422">
        <ele>999.5</ele>
        <time>2021-09-18T10:02:46.080Z</time>
      </trkpt>
      <trkpt lat="44.20366" lon="6.26424">
        <ele>998.9</ele>
        <time>2021-09-18T10:02:46.431Z</time>
      </trkpt>
      <trkpt lat="44.20367" lon="6.26426">
        <ele>998.6</ele>
        <time>2021-09-18T10:02:46.858Z</time>
      </trkpt>
      <trkpt lat="44.20369" lon="6.26427">
        <ele>999</ele>
        <time>2021-09-18T10:02:57.155Z</time>
      </trkpt>
      <trkpt lat="44.20369" lon="6.26428">
        <ele>998.7</ele>
        <time>2021-09-18T10:02:57.330Z</time>
      </trkpt>
      <trkpt lat="44.20371" lon="6.2643">
        <ele>998.8</ele>
        <time>2021-09-18T10:03:02.255Z</time>
      </trkpt>
      <trkpt lat="44.20373" lon="6.26433">
        <ele>998.5</ele>
        <time>2021-09-18T10:03:02.973Z</time>
      </trkpt>
      <trkpt lat="44.20375" lon="6.26434">
        <ele>999</ele>
        <time>2021-09-18T10:03:13.270Z</time>
      </trkpt>
      <trkpt lat="44.20377" lon="6.26435">
        <ele>999.4</ele>
        <time>2021-09-18T10:03:23.566Z</time>
      </trkpt>
      <trkpt lat="44.20378" lon="6.26436">
        <ele>999.4</ele>
        <time>2021-09-18T10:03:25.112Z</time>
      </trkpt>
      <trkpt lat="44.2038" lon="6.26437">
        <ele>999.8</ele>
        <time>2021-09-18T10:03:35.409Z</time>
      </trkpt>
      <trkpt lat="44.20381" lon="6.26438">
        <ele>999.9</ele>
        <time>2021-09-18T10:03:38.809Z</time>
      </trkpt>
      <trkpt lat="44.20382" lon="6.2644">
        <ele>999.5</ele>
        <time>2021-09-18T10:03:39.236Z</time>
      </trkpt>
      <trkpt lat="44.20383" lon="6.26441">
        <ele>999.6</ele>
        <time>2021-09-18T10:03:42.636Z</time>
      </trkpt>
      <trkpt lat="44.20384" lon="6.26443">
        <ele>999.2</ele>
        <time>2021-09-18T10:03:43.064Z</time>
      </trkpt>
      <trkpt lat="44.20384" lon="6.26445">
        <ele>998.5</ele>
        <time>2021-09-18T10:03:43.414Z</time>
      </trkpt>
      <trkpt lat="44.20385" lon="6.26448">
        <ele>997.8</ele>
        <time>2021-09-18T10:03:43.994Z</time>
      </trkpt>
      <trkpt lat="44.20386" lon="6.26451">
        <ele>997.1</ele>
        <time>2021-09-18T10:03:44.573Z</time>
      </trkpt>
      <trkpt lat="44.20388" lon="6.26453">
        <ele>997.1</ele>
        <time>2021-09-18T10:03:47.665Z</time>
      </trkpt>
      <trkpt lat="44.2039" lon="6.26454">
        <ele>997.5</ele>
        <time>2021-09-18T10:03:57.962Z</time>
      </trkpt>
      <trkpt lat="44.20391" lon="6.26456">
        <ele>997.1</ele>
        <time>2021-09-18T10:03:58.389Z</time>
      </trkpt>
      <trkpt lat="44.20393" lon="6.26457">
        <ele>997.5</ele>
        <time>2021-09-18T10:04:08.686Z</time>
      </trkpt>
      <trkpt lat="44.20394" lon="6.26461">
        <ele>996.4</ele>
        <time>2021-09-18T10:04:09.428Z</time>
      </trkpt>
      <trkpt lat="44.20395" lon="6.26464">
        <ele>995.6</ele>
        <time>2021-09-18T10:04:10.008Z</time>
      </trkpt>
      <trkpt lat="44.20396" lon="6.26466">
        <ele>995.2</ele>
        <time>2021-09-18T10:04:10.435Z</time>
      </trkpt>
      <trkpt lat="44.20396" lon="6.26467">
        <ele>994.8</ele>
        <time>2021-09-18T10:04:10.610Z</time>
      </trkpt>
      <trkpt lat="44.20397" lon="6.26468">
        <ele>994.8</ele>
        <time>2021-09-18T10:04:12.156Z</time>
      </trkpt>
      <trkpt lat="44.204" lon="6.2647">
        <ele>995.1</ele>
        <time>2021-09-18T10:04:22.076Z</time>
      </trkpt>
      <trkpt lat="44.20402" lon="6.2647">
        <ele>995.8</ele>
        <time>2021-09-18T10:04:31.769Z</time>
      </trkpt>
      <trkpt lat="44.20404" lon="6.26472">
        <ele>995.7</ele>
        <time>2021-09-18T10:04:32.455Z</time>
      </trkpt>
      <trkpt lat="44.20405" lon="6.26474">
        <ele>995.3</ele>
        <time>2021-09-18T10:04:32.882Z</time>
      </trkpt>
      <trkpt lat="44.20406" lon="6.26477">
        <ele>994.5</ele>
        <time>2021-09-18T10:04:33.462Z</time>
      </trkpt>
      <trkpt lat="44.20407" lon="6.26477">
        <ele>994.8</ele>
        <time>2021-09-18T10:04:38.309Z</time>
      </trkpt>
      <trkpt lat="44.20409" lon="6.26478">
        <ele>995.1</ele>
        <time>2021-09-18T10:04:48.605Z</time>
      </trkpt>
      <trkpt lat="44.2041" lon="6.2648">
        <ele>994.7</ele>
        <time>2021-09-18T10:04:49.033Z</time>
      </trkpt>
      <trkpt lat="44.20411" lon="6.26481">
        <ele>994.6</ele>
        <time>2021-09-18T10:04:49.333Z</time>
      </trkpt>
      <trkpt lat="44.20413" lon="6.26482">
        <ele>994.9</ele>
        <time>2021-09-18T10:04:59.630Z</time>
      </trkpt>
      <trkpt lat="44.20415" lon="6.26484">
        <ele>994.8</ele>
        <time>2021-09-18T10:05:00.316Z</time>
      </trkpt>
      <trkpt lat="44.20416" lon="6.26485">
        <ele>994.7</ele>
        <time>2021-09-18T10:05:00.617Z</time>
      </trkpt>
      <trkpt lat="44.20419" lon="6.26486">
        <ele>995.5</ele>
        <time>2021-09-18T10:05:15.566Z</time>
      </trkpt>
      <trkpt lat="44.20419" lon="6.26489">
        <ele>994.4</ele>
        <time>2021-09-18T10:05:16.091Z</time>
      </trkpt>
      <trkpt lat="44.2042" lon="6.2649">
        <ele>994.4</ele>
        <time>2021-09-18T10:05:17.637Z</time>
      </trkpt>
      <trkpt lat="44.20421" lon="6.26491">
        <ele>994.4</ele>
        <time>2021-09-18T10:05:19.183Z</time>
      </trkpt>
      <trkpt lat="44.20422" lon="6.26495">
        <ele>993.3</ele>
        <time>2021-09-18T10:05:19.926Z</time>
      </trkpt>
      <trkpt lat="44.20423" lon="6.26496">
        <ele>993.3</ele>
        <time>2021-09-18T10:05:21.472Z</time>
      </trkpt>
      <trkpt lat="44.20424" lon="6.26498">
        <ele>993</ele>
        <time>2021-09-18T10:05:21.899Z</time>
      </trkpt>
      <trkpt lat="44.20424" lon="6.265">
        <ele>992.2</ele>
        <time>2021-09-18T10:05:22.249Z</time>
      </trkpt>
      <trkpt lat="44.20424" lon="6.26503">
        <ele>991.3</ele>
        <time>2021-09-18T10:05:22.775Z</time>
      </trkpt>
      <trkpt lat="44.20425" lon="6.26505">
        <ele>991.2</ele>
        <time>2021-09-18T10:05:23.196Z</time>
      </trkpt>
      <trkpt lat="44.20426" lon="6.26506">
        <ele>991.3</ele>
        <time>2021-09-18T10:05:26.596Z</time>
      </trkpt>
      <trkpt lat="44.20428" lon="6.26508">
        <ele>991.6</ele>
        <time>2021-09-18T10:05:36.820Z</time>
      </trkpt>
      <trkpt lat="44.2043" lon="6.26508">
        <ele>992.4</ele>
        <time>2021-09-18T10:05:46.513Z</time>
      </trkpt>
      <trkpt lat="44.20432" lon="6.2651">
        <ele>992.7</ele>
        <time>2021-09-18T10:05:56.736Z</time>
      </trkpt>
      <trkpt lat="44.20433" lon="6.26511">
        <ele>992.8</ele>
        <time>2021-09-18T10:06:00.136Z</time>
      </trkpt>
      <trkpt lat="44.20435" lon="6.26512">
        <ele>993.4</ele>
        <time>2021-09-18T10:06:10.433Z</time>
      </trkpt>
      <trkpt lat="44.20436" lon="6.26513">
        <ele>993.5</ele>
        <time>2021-09-18T10:06:13.833Z</time>
      </trkpt>
      <trkpt lat="44.20438" lon="6.26514">
        <ele>994</ele>
        <time>2021-09-18T10:06:24.130Z</time>
      </trkpt>
      <trkpt lat="44.20439" lon="6.26515">
        <ele>994.1</ele>
        <time>2021-09-18T10:06:27.530Z</time>
      </trkpt>
      <trkpt lat="44.2044" lon="6.26517">
        <ele>993.9</ele>
        <time>2021-09-18T10:06:27.957Z</time>
      </trkpt>
      <trkpt lat="44.20442" lon="6.26518">
        <ele>994.5</ele>
        <time>2021-09-18T10:06:38.254Z</time>
      </trkpt>
      <trkpt lat="44.20444" lon="6.2652">
        <ele>994.7</ele>
        <time>2021-09-18T10:06:45.054Z</time>
      </trkpt>
      <trkpt lat="44.20445" lon="6.26521">
        <ele>994.8</ele>
        <time>2021-09-18T10:06:48.454Z</time>
      </trkpt>
      <trkpt lat="44.20446" lon="6.26523">
        <ele>994.5</ele>
        <time>2021-09-18T10:06:48.881Z</time>
      </trkpt>
      <trkpt lat="44.20446" lon="6.26525">
        <ele>993.9</ele>
        <time>2021-09-18T10:06:49.231Z</time>
      </trkpt>
      <trkpt lat="44.20448" lon="6.26527">
        <ele>994.1</ele>
        <time>2021-09-18T10:06:56.031Z</time>
      </trkpt>
      <trkpt lat="44.20449" lon="6.26528">
        <ele>994.2</ele>
        <time>2021-09-18T10:06:59.431Z</time>
      </trkpt>
      <trkpt lat="44.2045" lon="6.2653">
        <ele>994</ele>
        <time>2021-09-18T10:06:59.858Z</time>
      </trkpt>
      <trkpt lat="44.20451" lon="6.26531">
        <ele>994.1</ele>
        <time>2021-09-18T10:07:03.258Z</time>
      </trkpt>
      <trkpt lat="44.20453" lon="6.26533">
        <ele>994.2</ele>
        <time>2021-09-18T10:07:08.184Z</time>
      </trkpt>
      <trkpt lat="44.20454" lon="6.26535">
        <ele>994</ele>
        <time>2021-09-18T10:07:08.611Z</time>
      </trkpt>
      <trkpt lat="44.20454" lon="6.26537">
        <ele>993.3</ele>
        <time>2021-09-18T10:07:08.961Z</time>
      </trkpt>
      <trkpt lat="44.20455" lon="6.26539">
        <ele>993.1</ele>
        <time>2021-09-18T10:07:09.388Z</time>
      </trkpt>
      <trkpt lat="44.20456" lon="6.2654">
        <ele>993.1</ele>
        <time>2021-09-18T10:07:10.934Z</time>
      </trkpt>
      <trkpt lat="44.20457" lon="6.26542">
        <ele>992.9</ele>
        <time>2021-09-18T10:07:11.362Z</time>
      </trkpt>
      <trkpt lat="44.20458" lon="6.26546">
        <ele>992</ele>
        <time>2021-09-18T10:07:12.104Z</time>
      </trkpt>
      <trkpt lat="44.20458" lon="6.26549">
        <ele>991</ele>
        <time>2021-09-18T10:07:12.629Z</time>
      </trkpt>
      <trkpt lat="44.20459" lon="6.2655">
        <ele>991</ele>
        <time>2021-09-18T10:07:14.175Z</time>
      </trkpt>
      <trkpt lat="44.20461" lon="6.26552">
        <ele>991.1</ele>
        <time>2021-09-18T10:07:19.101Z</time>
      </trkpt>
      <trkpt lat="44.20462" lon="6.26553">
        <ele>991.2</ele>
        <time>2021-09-18T10:07:22.501Z</time>
      </trkpt>
      <trkpt lat="44.20462" lon="6.26557">
        <ele>989.9</ele>
        <time>2021-09-18T10:07:23.201Z</time>
      </trkpt>
      <trkpt lat="44.20461" lon="6.26559">
        <ele>988.9</ele>
        <time>2021-09-18T10:07:23.629Z</time>
      </trkpt>
      <trkpt lat="44.20461" lon="6.26561">
        <ele>988.2</ele>
        <time>2021-09-18T10:07:23.979Z</time>
      </trkpt>
      <trkpt lat="44.20463" lon="6.26563">
        <ele>988.3</ele>
        <time>2021-09-18T10:07:28.904Z</time>
      </trkpt>
      <trkpt lat="44.20464" lon="6.26564">
        <ele>988.3</ele>
        <time>2021-09-18T10:07:30.450Z</time>
      </trkpt>
      <trkpt lat="44.20465" lon="6.26567">
        <ele>987.7</ele>
        <time>2021-09-18T10:07:31.030Z</time>
      </trkpt>
      <trkpt lat="44.20466" lon="6.26568">
        <ele>987.7</ele>
        <time>2021-09-18T10:07:32.576Z</time>
      </trkpt>
      <trkpt lat="44.20468" lon="6.26569">
        <ele>988.1</ele>
        <time>2021-09-18T10:07:42.873Z</time>
      </trkpt>
      <trkpt lat="44.2047" lon="6.2657">
        <ele>988.4</ele>
        <time>2021-09-18T10:07:53.169Z</time>
      </trkpt>
      <trkpt lat="44.20471" lon="6.26573">
        <ele>987.8</ele>
        <time>2021-09-18T10:07:53.749Z</time>
      </trkpt>
      <trkpt lat="44.20471" lon="6.26575">
        <ele>987.1</ele>
        <time>2021-09-18T10:07:54.100Z</time>
      </trkpt>
      <trkpt lat="44.20472" lon="6.26576">
        <ele>987.1</ele>
        <time>2021-09-18T10:07:55.645Z</time>
      </trkpt>
      <trkpt lat="44.20473" lon="6.26577">
        <ele>987.1</ele>
        <time>2021-09-18T10:07:57.191Z</time>
      </trkpt>
      <trkpt lat="44.20473" lon="6.26578">
        <ele>986.7</ele>
        <time>2021-09-18T10:07:57.367Z</time>
      </trkpt>
      <trkpt lat="44.20475" lon="6.2658">
        <ele>986.7</ele>
        <time>2021-09-18T10:08:00.459Z</time>
      </trkpt>
      <trkpt lat="44.20477" lon="6.26581">
        <ele>987.1</ele>
        <time>2021-09-18T10:08:10.755Z</time>
      </trkpt>
      <trkpt lat="44.20479" lon="6.26582">
        <ele>987.4</ele>
        <time>2021-09-18T10:08:21.052Z</time>
      </trkpt>
      <trkpt lat="44.2048" lon="6.26583">
        <ele>987.4</ele>
        <time>2021-09-18T10:08:22.598Z</time>
      </trkpt>
      <trkpt lat="44.20483" lon="6.26584">
        <ele>988.1</ele>
        <time>2021-09-18T10:08:37.547Z</time>
      </trkpt>
      <trkpt lat="44.20485" lon="6.26586">
        <ele>988.2</ele>
        <time>2021-09-18T10:08:42.472Z</time>
      </trkpt>
      <trkpt lat="44.20487" lon="6.26587">
        <ele>988.5</ele>
        <time>2021-09-18T10:08:52.769Z</time>
      </trkpt>
      <trkpt lat="44.20487" lon="6.26588">
        <ele>988.2</ele>
        <time>2021-09-18T10:08:52.944Z</time>
      </trkpt>
      <trkpt lat="44.20489" lon="6.2659">
        <ele>988.3</ele>
        <time>2021-09-18T10:08:57.869Z</time>
      </trkpt>
      <trkpt lat="44.20491" lon="6.2659">
        <ele>989</ele>
        <time>2021-09-18T10:09:07.562Z</time>
      </trkpt>
      <trkpt lat="44.20492" lon="6.26592">
        <ele>988.7</ele>
        <time>2021-09-18T10:09:07.990Z</time>
      </trkpt>
      <trkpt lat="44.20493" lon="6.26593">
        <ele>988.8</ele>
        <time>2021-09-18T10:09:11.390Z</time>
      </trkpt>
      <trkpt lat="44.20495" lon="6.26593">
        <ele>989.4</ele>
        <time>2021-09-18T10:09:21.083Z</time>
      </trkpt>
      <trkpt lat="44.20497" lon="6.26594">
        <ele>989.8</ele>
        <time>2021-09-18T10:09:31.379Z</time>
      </trkpt>
      <trkpt lat="44.20498" lon="6.26595">
        <ele>989.8</ele>
        <time>2021-09-18T10:09:32.925Z</time>
      </trkpt>
      <trkpt lat="44.205" lon="6.26596">
        <ele>990.2</ele>
        <time>2021-09-18T10:09:43.222Z</time>
      </trkpt>
      <trkpt lat="44.20502" lon="6.26596">
        <ele>990.8</ele>
        <time>2021-09-18T10:09:52.915Z</time>
      </trkpt>
      <trkpt lat="44.20503" lon="6.26596">
        <ele>991.1</ele>
        <time>2021-09-18T10:09:57.761Z</time>
      </trkpt>
      <trkpt lat="44.20505" lon="6.26596">
        <ele>991.7</ele>
        <time>2021-09-18T10:10:07.454Z</time>
      </trkpt>
      <trkpt lat="44.20507" lon="6.26597">
        <ele>992.1</ele>
        <time>2021-09-18T10:10:17.751Z</time>
      </trkpt>
      <trkpt lat="44.20508" lon="6.26599">
        <ele>991.7</ele>
        <time>2021-09-18T10:10:18.178Z</time>
      </trkpt>
      <trkpt lat="44.2051" lon="6.266">
        <ele>992</ele>
        <time>2021-09-18T10:10:28.475Z</time>
      </trkpt>
      <trkpt lat="44.20512" lon="6.26602">
        <ele>992</ele>
        <time>2021-09-18T10:10:31.567Z</time>
      </trkpt>
      <trkpt lat="44.20514" lon="6.26601">
        <ele>993</ele>
        <time>2021-09-18T10:10:41.864Z</time>
      </trkpt>
      <trkpt lat="44.20516" lon="6.26602">
        <ele>993.2</ele>
        <time>2021-09-18T10:10:48.431Z</time>
      </trkpt>
      <trkpt lat="44.20518" lon="6.26602">
        <ele>993.8</ele>
        <time>2021-09-18T10:10:58.124Z</time>
      </trkpt>
      <trkpt lat="44.20519" lon="6.26604">
        <ele>993.5</ele>
        <time>2021-09-18T10:10:58.551Z</time>
      </trkpt>
      <trkpt lat="44.20521" lon="6.26605">
        <ele>993.8</ele>
        <time>2021-09-18T10:11:08.848Z</time>
      </trkpt>
      <trkpt lat="44.20522" lon="6.26605">
        <ele>994.1</ele>
        <time>2021-09-18T10:11:13.694Z</time>
      </trkpt>
      <trkpt lat="44.20524" lon="6.26607">
        <ele>994</ele>
        <time>2021-09-18T10:11:14.380Z</time>
      </trkpt>
      <trkpt lat="44.20526" lon="6.26608">
        <ele>994.3</ele>
        <time>2021-09-18T10:11:24.677Z</time>
      </trkpt>
      <trkpt lat="44.20527" lon="6.26609">
        <ele>994.2</ele>
        <time>2021-09-18T10:11:24.978Z</time>
      </trkpt>
      <trkpt lat="44.20529" lon="6.26611">
        <ele>994.2</ele>
        <time>2021-09-18T10:11:28.070Z</time>
      </trkpt>
      <trkpt lat="44.2053" lon="6.26611">
        <ele>994.5</ele>
        <time>2021-09-18T10:11:32.916Z</time>
      </trkpt>
      <trkpt lat="44.20531" lon="6.26612">
        <ele>994.4</ele>
        <time>2021-09-18T10:11:33.217Z</time>
      </trkpt>
      <trkpt lat="44.20532" lon="6.26614">
        <ele>994</ele>
        <time>2021-09-18T10:11:33.644Z</time>
      </trkpt>
      <trkpt lat="44.20534" lon="6.26615">
        <ele>994.3</ele>
        <time>2021-09-18T10:11:43.941Z</time>
      </trkpt>
      <trkpt lat="44.20535" lon="6.26616">
        <ele>994.2</ele>
        <time>2021-09-18T10:11:44.242Z</time>
      </trkpt>
      <trkpt lat="44.20536" lon="6.26617">
        <ele>994.2</ele>
        <time>2021-09-18T10:11:45.788Z</time>
      </trkpt>
      <trkpt lat="44.20537" lon="6.26618">
        <ele>994.1</ele>
        <time>2021-09-18T10:11:46.088Z</time>
      </trkpt>
      <trkpt lat="44.20539" lon="6.26619">
        <ele>994.3</ele>
        <time>2021-09-18T10:11:52.655Z</time>
      </trkpt>
      <trkpt lat="44.2054" lon="6.26621">
        <ele>993.9</ele>
        <time>2021-09-18T10:11:53.082Z</time>
      </trkpt>
      <trkpt lat="44.20541" lon="6.26623">
        <ele>993.5</ele>
        <time>2021-09-18T10:11:53.510Z</time>
      </trkpt>
      <trkpt lat="44.20542" lon="6.26626">
        <ele>992.7</ele>
        <time>2021-09-18T10:11:54.089Z</time>
      </trkpt>
      <trkpt lat="44.20543" lon="6.26627">
        <ele>992.7</ele>
        <time>2021-09-18T10:11:55.635Z</time>
      </trkpt>
      <trkpt lat="44.20545" lon="6.26629">
        <ele>992.5</ele>
        <time>2021-09-18T10:11:56.237Z</time>
      </trkpt>
      <trkpt lat="44.20547" lon="6.26631">
        <ele>992.3</ele>
        <time>2021-09-18T10:11:56.838Z</time>
      </trkpt>
      <trkpt lat="44.20548" lon="6.26632">
        <ele>992.3</ele>
        <time>2021-09-18T10:11:58.384Z</time>
      </trkpt>
      <trkpt lat="44.20549" lon="6.26634">
        <ele>991.8</ele>
        <time>2021-09-18T10:11:58.811Z</time>
      </trkpt>
      <trkpt lat="44.20551" lon="6.26636">
        <ele>991.6</ele>
        <time>2021-09-18T10:11:59.413Z</time>
      </trkpt>
      <trkpt lat="44.20554" lon="6.26638">
        <ele>991.7</ele>
        <time>2021-09-18T10:12:05.179Z</time>
      </trkpt>
      <trkpt lat="44.20555" lon="6.2664">
        <ele>991.2</ele>
        <time>2021-09-18T10:12:05.606Z</time>
      </trkpt>
      <trkpt lat="44.20555" lon="6.26642">
        <ele>990.5</ele>
        <time>2021-09-18T10:12:05.957Z</time>
      </trkpt>
      <trkpt lat="44.20556" lon="6.26645">
        <ele>989.7</ele>
        <time>2021-09-18T10:12:06.536Z</time>
      </trkpt>
      <trkpt lat="44.20556" lon="6.26648">
        <ele>988.6</ele>
        <time>2021-09-18T10:12:07.062Z</time>
      </trkpt>
      <trkpt lat="44.20557" lon="6.26649">
        <ele>988.5</ele>
        <time>2021-09-18T10:12:07.363Z</time>
      </trkpt>
      <trkpt lat="44.20557" lon="6.26652">
        <ele>987.4</ele>
        <time>2021-09-18T10:12:07.888Z</time>
      </trkpt>
      <trkpt lat="44.20557" lon="6.26655">
        <ele>986.3</ele>
        <time>2021-09-18T10:12:08.414Z</time>
      </trkpt>
      <trkpt lat="44.20558" lon="6.26657">
        <ele>985.8</ele>
        <time>2021-09-18T10:12:08.841Z</time>
      </trkpt>
      <trkpt lat="44.20558" lon="6.26661">
        <ele>984.3</ele>
        <time>2021-09-18T10:12:09.542Z</time>
      </trkpt>
      <trkpt lat="44.20558" lon="6.26662">
        <ele>983.9</ele>
        <time>2021-09-18T10:12:09.717Z</time>
      </trkpt>
      <trkpt lat="44.20558" lon="6.26665">
        <ele>982.8</ele>
        <time>2021-09-18T10:12:10.242Z</time>
      </trkpt>
      <trkpt lat="44.20559" lon="6.26667">
        <ele>982.4</ele>
        <time>2021-09-18T10:12:10.670Z</time>
      </trkpt>
      <trkpt lat="44.2056" lon="6.26668">
        <ele>982.4</ele>
        <time>2021-09-18T10:12:12.216Z</time>
      </trkpt>
      <trkpt lat="44.2056" lon="6.26669">
        <ele>982.1</ele>
        <time>2021-09-18T10:12:12.391Z</time>
      </trkpt>
      <trkpt lat="44.20561" lon="6.2667">
        <ele>982.1</ele>
        <time>2021-09-18T10:12:13.937Z</time>
      </trkpt>
      <trkpt lat="44.20562" lon="6.26671">
        <ele>982.1</ele>
        <time>2021-09-18T10:12:15.483Z</time>
      </trkpt>
      <trkpt lat="44.20563" lon="6.26672">
        <ele>982.1</ele>
        <time>2021-09-18T10:12:17.029Z</time>
      </trkpt>
      <trkpt lat="44.20566" lon="6.26672">
        <ele>982.8</ele>
        <time>2021-09-18T10:12:31.568Z</time>
      </trkpt>
      <trkpt lat="44.20568" lon="6.26672">
        <ele>983.2</ele>
        <time>2021-09-18T10:12:41.261Z</time>
      </trkpt>
      <trkpt lat="44.20567" lon="6.26672">
        <ele>983</ele>
        <time>2021-09-18T10:12:41.506Z</time>
      </trkpt>
      <trkpt lat="44.20569" lon="6.26672">
        <ele>983.5</ele>
        <time>2021-09-18T10:12:51.199Z</time>
      </trkpt>
      <trkpt lat="44.20571" lon="6.26673">
        <ele>983.7</ele>
        <time>2021-09-18T10:12:57.765Z</time>
      </trkpt>
      <trkpt lat="44.20572" lon="6.26673">
        <ele>983.9</ele>
        <time>2021-09-18T10:13:02.612Z</time>
      </trkpt>
      <trkpt lat="44.20574" lon="6.26672">
        <ele>984.6</ele>
        <time>2021-09-18T10:13:12.909Z</time>
      </trkpt>
      <trkpt lat="44.20576" lon="6.26672">
        <ele>985.1</ele>
        <time>2021-09-18T10:13:22.602Z</time>
      </trkpt>
      <trkpt lat="44.20578" lon="6.26672">
        <ele>985.5</ele>
        <time>2021-09-18T10:13:32.294Z</time>
      </trkpt>
      <trkpt lat="44.20579" lon="6.26672">
        <ele>985.7</ele>
        <time>2021-09-18T10:13:37.141Z</time>
      </trkpt>
      <trkpt lat="44.20581" lon="6.26672">
        <ele>986.2</ele>
        <time>2021-09-18T10:13:46.834Z</time>
      </trkpt>
      <trkpt lat="44.20583" lon="6.26672">
        <ele>986.6</ele>
        <time>2021-09-18T10:13:56.527Z</time>
      </trkpt>
      <trkpt lat="44.20585" lon="6.26672">
        <ele>986.7</ele>
        <time>2021-09-18T10:14:00.921Z</time>
      </trkpt>
      <trkpt lat="44.20587" lon="6.26672">
        <ele>986.7</ele>
        <time>2021-09-18T10:14:03.434Z</time>
      </trkpt>
      <trkpt lat="44.20588" lon="6.26672">
        <ele>986.6</ele>
        <time>2021-09-18T10:14:03.678Z</time>
      </trkpt>
      <trkpt lat="44.20591" lon="6.26671">
        <ele>986.8</ele>
        <time>2021-09-18T10:14:11.185Z</time>
      </trkpt>
      <trkpt lat="44.20592" lon="6.26671">
        <ele>986.8</ele>
        <time>2021-09-18T10:14:12.441Z</time>
      </trkpt>
      <trkpt lat="44.20595" lon="6.2667">
        <ele>987</ele>
        <time>2021-09-18T10:14:19.948Z</time>
      </trkpt>
      <trkpt lat="44.20597" lon="6.2667">
        <ele>987</ele>
        <time>2021-09-18T10:14:22.461Z</time>
      </trkpt>
      <trkpt lat="44.206" lon="6.26669">
        <ele>987.2</ele>
        <time>2021-09-18T10:14:29.968Z</time>
      </trkpt>
      <trkpt lat="44.20601" lon="6.26669">
        <ele>987.2</ele>
        <time>2021-09-18T10:14:31.224Z</time>
      </trkpt>
      <trkpt lat="44.20603" lon="6.26669">
        <ele>987.2</ele>
        <time>2021-09-18T10:14:33.737Z</time>
      </trkpt>
      <trkpt lat="44.20605" lon="6.26669">
        <ele>987.1</ele>
        <time>2021-09-18T10:14:34.250Z</time>
      </trkpt>
      <trkpt lat="44.20608" lon="6.26668">
        <ele>987.4</ele>
        <time>2021-09-18T10:14:44.066Z</time>
      </trkpt>
      <trkpt lat="44.2061" lon="6.26667">
        <ele>987.6</ele>
        <time>2021-09-18T10:14:50.633Z</time>
      </trkpt>
      <trkpt lat="44.20612" lon="6.26668">
        <ele>987.3</ele>
        <time>2021-09-18T10:14:51.152Z</time>
      </trkpt>
      <trkpt lat="44.20614" lon="6.26667">
        <ele>987.5</ele>
        <time>2021-09-18T10:14:57.719Z</time>
      </trkpt>
      <trkpt lat="44.20616" lon="6.26666">
        <ele>987.9</ele>
        <time>2021-09-18T10:15:08.016Z</time>
      </trkpt>
      <trkpt lat="44.20618" lon="6.26666">
        <ele>987.9</ele>
        <time>2021-09-18T10:15:10.529Z</time>
      </trkpt>
      <trkpt lat="44.2062" lon="6.26666">
        <ele>987.8</ele>
        <time>2021-09-18T10:15:11.042Z</time>
      </trkpt>
      <trkpt lat="44.20623" lon="6.26666">
        <ele>987.8</ele>
        <time>2021-09-18T10:15:14.811Z</time>
      </trkpt>
      <trkpt lat="44.20625" lon="6.26665">
        <ele>988.2</ele>
        <time>2021-09-18T10:15:25.108Z</time>
      </trkpt>
      <trkpt lat="44.20628" lon="6.26664">
        <ele>988.6</ele>
        <time>2021-09-18T10:15:39.288Z</time>
      </trkpt>
      <trkpt lat="44.20631" lon="6.26664">
        <ele>988.6</ele>
        <time>2021-09-18T10:15:43.057Z</time>
      </trkpt>
      <trkpt lat="44.20632" lon="6.26664">
        <ele>988.6</ele>
        <time>2021-09-18T10:15:44.314Z</time>
      </trkpt>
      <trkpt lat="44.20634" lon="6.26664">
        <ele>988.5</ele>
        <time>2021-09-18T10:15:44.826Z</time>
      </trkpt>
      <trkpt lat="44.20636" lon="6.26663">
        <ele>989</ele>
        <time>2021-09-18T10:15:55.123Z</time>
      </trkpt>
      <trkpt lat="44.20637" lon="6.26663">
        <ele>988.9</ele>
        <time>2021-09-18T10:15:55.367Z</time>
      </trkpt>
      <trkpt lat="44.20639" lon="6.26662">
        <ele>989.4</ele>
        <time>2021-09-18T10:16:05.664Z</time>
      </trkpt>
      <trkpt lat="44.20641" lon="6.26661">
        <ele>989.8</ele>
        <time>2021-09-18T10:16:15.961Z</time>
      </trkpt>
      <trkpt lat="44.20643" lon="6.2666">
        <ele>990.2</ele>
        <time>2021-09-18T10:16:26.258Z</time>
      </trkpt>
      <trkpt lat="44.20644" lon="6.26659">
        <ele>990.6</ele>
        <time>2021-09-18T10:16:32.221Z</time>
      </trkpt>
      <trkpt lat="44.20646" lon="6.26657">
        <ele>991.5</ele>
        <time>2021-09-18T10:16:44.147Z</time>
      </trkpt>
      <trkpt lat="44.20649" lon="6.26655">
        <ele>992.4</ele>
        <time>2021-09-18T10:17:00.261Z</time>
      </trkpt>
      <trkpt lat="44.20651" lon="6.26654">
        <ele>992.8</ele>
        <time>2021-09-18T10:17:10.558Z</time>
      </trkpt>
      <trkpt lat="44.20653" lon="6.26653">
        <ele>993.3</ele>
        <time>2021-09-18T10:17:20.854Z</time>
      </trkpt>
      <trkpt lat="44.20655" lon="6.26652">
        <ele>993.7</ele>
        <time>2021-09-18T10:17:31.151Z</time>
      </trkpt>
      <trkpt lat="44.20656" lon="6.2665">
        <ele>994.6</ele>
        <time>2021-09-18T10:17:39.623Z</time>
      </trkpt>
      <trkpt lat="44.20659" lon="6.26648">
        <ele>995.5</ele>
        <time>2021-09-18T10:17:55.737Z</time>
      </trkpt>
      <trkpt lat="44.2066" lon="6.26647">
        <ele>996</ele>
        <time>2021-09-18T10:18:01.700Z</time>
      </trkpt>
      <trkpt lat="44.20662" lon="6.26647">
        <ele>996</ele>
        <time>2021-09-18T10:18:04.213Z</time>
      </trkpt>
      <trkpt lat="44.20663" lon="6.26647">
        <ele>996</ele>
        <time>2021-09-18T10:18:05.469Z</time>
      </trkpt>
      <trkpt lat="44.20665" lon="6.26647">
        <ele>996</ele>
        <time>2021-09-18T10:18:07.982Z</time>
      </trkpt>
      <trkpt lat="44.20668" lon="6.26647">
        <ele>995.6</ele>
        <time>2021-09-18T10:18:08.716Z</time>
      </trkpt>
      <trkpt lat="44.20669" lon="6.26647">
        <ele>995.4</ele>
        <time>2021-09-18T10:18:08.960Z</time>
      </trkpt>
      <trkpt lat="44.20671" lon="6.26647">
        <ele>994.9</ele>
        <time>2021-09-18T10:18:09.449Z</time>
      </trkpt>
      <trkpt lat="44.20672" lon="6.26647">
        <ele>994.7</ele>
        <time>2021-09-18T10:18:09.693Z</time>
      </trkpt>
      <trkpt lat="44.20675" lon="6.26647">
        <ele>993.9</ele>
        <time>2021-09-18T10:18:10.426Z</time>
      </trkpt>
      <trkpt lat="44.20676" lon="6.26647">
        <ele>993.7</ele>
        <time>2021-09-18T10:18:10.671Z</time>
      </trkpt>
      <trkpt lat="44.20677" lon="6.26647">
        <ele>993.5</ele>
        <time>2021-09-18T10:18:10.915Z</time>
      </trkpt>
      <trkpt lat="44.20679" lon="6.26646">
        <ele>993.4</ele>
        <time>2021-09-18T10:18:11.474Z</time>
      </trkpt>
      <trkpt lat="44.20682" lon="6.26645">
        <ele>993.1</ele>
        <time>2021-09-18T10:18:12.228Z</time>
      </trkpt>
      <trkpt lat="44.20685" lon="6.26644">
        <ele>992.8</ele>
        <time>2021-09-18T10:18:12.982Z</time>
      </trkpt>
      <trkpt lat="44.20686" lon="6.26643">
        <ele>992.9</ele>
        <time>2021-09-18T10:18:16.382Z</time>
      </trkpt>
      <trkpt lat="44.20688" lon="6.26643">
        <ele>992.4</ele>
        <time>2021-09-18T10:18:16.870Z</time>
      </trkpt>
      <trkpt lat="44.20689" lon="6.26641">
        <ele>993</ele>
        <time>2021-09-18T10:18:25.342Z</time>
      </trkpt>
      <trkpt lat="44.20691" lon="6.2664">
        <ele>992.9</ele>
        <time>2021-09-18T10:18:25.900Z</time>
      </trkpt>
      <trkpt lat="44.20692" lon="6.26639">
        <ele>993</ele>
        <time>2021-09-18T10:18:29.300Z</time>
      </trkpt>
      <trkpt lat="44.20694" lon="6.26639">
        <ele>992.5</ele>
        <time>2021-09-18T10:18:29.789Z</time>
      </trkpt>
      <trkpt lat="44.20696" lon="6.26639">
        <ele>992</ele>
        <time>2021-09-18T10:18:30.278Z</time>
      </trkpt>
      <trkpt lat="44.20697" lon="6.26638">
        <ele>992.1</ele>
        <time>2021-09-18T10:18:33.678Z</time>
      </trkpt>
      <trkpt lat="44.207" lon="6.26638">
        <ele>991.3</ele>
        <time>2021-09-18T10:18:34.411Z</time>
      </trkpt>
      <trkpt lat="44.20703" lon="6.26637">
        <ele>990.9</ele>
        <time>2021-09-18T10:18:35.165Z</time>
      </trkpt>
      <trkpt lat="44.20705" lon="6.26637">
        <ele>990.4</ele>
        <time>2021-09-18T10:18:35.654Z</time>
      </trkpt>
      <trkpt lat="44.20706" lon="6.26638">
        <ele>989.8</ele>
        <time>2021-09-18T10:18:35.954Z</time>
      </trkpt>
      <trkpt lat="44.20707" lon="6.26638">
        <ele>989.5</ele>
        <time>2021-09-18T10:18:36.199Z</time>
      </trkpt>
      <trkpt lat="44.20708" lon="6.26639">
        <ele>988.9</ele>
        <time>2021-09-18T10:18:36.500Z</time>
      </trkpt>
      <trkpt lat="44.20711" lon="6.26639">
        <ele>988.1</ele>
        <time>2021-09-18T10:18:37.233Z</time>
      </trkpt>
      <trkpt lat="44.20712" lon="6.26639">
        <ele>987.8</ele>
        <time>2021-09-18T10:18:37.477Z</time>
      </trkpt>
      <trkpt lat="44.20714" lon="6.2664">
        <ele>987</ele>
        <time>2021-09-18T10:18:37.996Z</time>
      </trkpt>
      <trkpt lat="44.20716" lon="6.26641">
        <ele>986.1</ele>
        <time>2021-09-18T10:18:38.516Z</time>
      </trkpt>
      <trkpt lat="44.20718" lon="6.26641">
        <ele>985.6</ele>
        <time>2021-09-18T10:18:39.004Z</time>
      </trkpt>
      <trkpt lat="44.20719" lon="6.26641">
        <ele>985.3</ele>
        <time>2021-09-18T10:18:39.249Z</time>
      </trkpt>
      <trkpt lat="44.20721" lon="6.26641">
        <ele>984.8</ele>
        <time>2021-09-18T10:18:39.738Z</time>
      </trkpt>
      <trkpt lat="44.20723" lon="6.26641">
        <ele>984.3</ele>
        <time>2021-09-18T10:18:40.226Z</time>
      </trkpt>
      <trkpt lat="44.20724" lon="6.26641">
        <ele>984</ele>
        <time>2021-09-18T10:18:40.471Z</time>
      </trkpt>
      <trkpt lat="44.20725" lon="6.26641">
        <ele>983.8</ele>
        <time>2021-09-18T10:18:40.715Z</time>
      </trkpt>
      <trkpt lat="44.20727" lon="6.26641">
        <ele>983.3</ele>
        <time>2021-09-18T10:18:41.204Z</time>
      </trkpt>
      <trkpt lat="44.2073" lon="6.26642">
        <ele>982.2</ele>
        <time>2021-09-18T10:18:41.958Z</time>
      </trkpt>
      <trkpt lat="44.20731" lon="6.26642">
        <ele>981.9</ele>
        <time>2021-09-18T10:18:42.202Z</time>
      </trkpt>
      <trkpt lat="44.20733" lon="6.26643">
        <ele>981.1</ele>
        <time>2021-09-18T10:18:42.721Z</time>
      </trkpt>
      <trkpt lat="44.20734" lon="6.26642">
        <ele>981.2</ele>
        <time>2021-09-18T10:18:46.121Z</time>
      </trkpt>
      <trkpt lat="44.20736" lon="6.26642">
        <ele>980.7</ele>
        <time>2021-09-18T10:18:46.610Z</time>
      </trkpt>
      <trkpt lat="44.20738" lon="6.26643">
        <ele>979.8</ele>
        <time>2021-09-18T10:18:47.129Z</time>
      </trkpt>
      <trkpt lat="44.2074" lon="6.26642">
        <ele>979.6</ele>
        <time>2021-09-18T10:18:47.649Z</time>
      </trkpt>
      <trkpt lat="44.20742" lon="6.26642">
        <ele>979.1</ele>
        <time>2021-09-18T10:18:48.137Z</time>
      </trkpt>
      <trkpt lat="44.20743" lon="6.2664">
        <ele>979.5</ele>
        <time>2021-09-18T10:18:56.609Z</time>
      </trkpt>
      <trkpt lat="44.20744" lon="6.26639">
        <ele>979.5</ele>
        <time>2021-09-18T10:18:58.155Z</time>
      </trkpt>
      <trkpt lat="44.20745" lon="6.26637">
        <ele>979.9</ele>
        <time>2021-09-18T10:19:06.626Z</time>
      </trkpt>
      <trkpt lat="44.20746" lon="6.26636">
        <ele>979.9</ele>
        <time>2021-09-18T10:19:08.172Z</time>
      </trkpt>
      <trkpt lat="44.20746" lon="6.26634">
        <ele>980.5</ele>
        <time>2021-09-18T10:19:15.120Z</time>
      </trkpt>
      <trkpt lat="44.20746" lon="6.26631">
        <ele>981.4</ele>
        <time>2021-09-18T10:19:25.542Z</time>
      </trkpt>
      <trkpt lat="44.20746" lon="6.26628">
        <ele>982.3</ele>
        <time>2021-09-18T10:19:35.965Z</time>
      </trkpt>
      <trkpt lat="44.20746" lon="6.26627">
        <ele>982.6</ele>
        <time>2021-09-18T10:19:39.439Z</time>
      </trkpt>
      <trkpt lat="44.20747" lon="6.26624">
        <ele>983.2</ele>
        <time>2021-09-18T10:19:50.932Z</time>
      </trkpt>
      <trkpt lat="44.20748" lon="6.26621">
        <ele>983.7</ele>
        <time>2021-09-18T10:20:02.426Z</time>
      </trkpt>
      <trkpt lat="44.20749" lon="6.26618">
        <ele>984.3</ele>
        <time>2021-09-18T10:20:13.920Z</time>
      </trkpt>
      <trkpt lat="44.2075" lon="6.26616">
        <ele>984.6</ele>
        <time>2021-09-18T10:20:22.392Z</time>
      </trkpt>
      <trkpt lat="44.2075" lon="6.26614">
        <ele>985.2</ele>
        <time>2021-09-18T10:20:29.340Z</time>
      </trkpt>
      <trkpt lat="44.2075" lon="6.26611">
        <ele>986</ele>
        <time>2021-09-18T10:20:39.762Z</time>
      </trkpt>
      <trkpt lat="44.2075" lon="6.2661">
        <ele>986.3</ele>
        <time>2021-09-18T10:20:43.236Z</time>
      </trkpt>
      <trkpt lat="44.20751" lon="6.26608">
        <ele>986.5</ele>
        <time>2021-09-18T10:20:49.881Z</time>
      </trkpt>
      <trkpt lat="44.20751" lon="6.26606">
        <ele>987.1</ele>
        <time>2021-09-18T10:20:56.829Z</time>
      </trkpt>
      <trkpt lat="44.2075" lon="6.26603">
        <ele>988.3</ele>
        <time>2021-09-18T10:21:08.323Z</time>
      </trkpt>
      <trkpt lat="44.2075" lon="6.26602">
        <ele>988.6</ele>
        <time>2021-09-18T10:21:11.797Z</time>
      </trkpt>
      <trkpt lat="44.20749" lon="6.266">
        <ele>989.5</ele>
        <time>2021-09-18T10:21:20.268Z</time>
      </trkpt>
      <trkpt lat="44.2075" lon="6.26597">
        <ele>990.1</ele>
        <time>2021-09-18T10:21:31.762Z</time>
      </trkpt>
      <trkpt lat="44.20751" lon="6.26594">
        <ele>990.5</ele>
        <time>2021-09-18T10:21:43.256Z</time>
      </trkpt>
      <trkpt lat="44.20751" lon="6.26593">
        <ele>990.8</ele>
        <time>2021-09-18T10:21:46.730Z</time>
      </trkpt>
      <trkpt lat="44.20752" lon="6.2659">
        <ele>991.2</ele>
        <time>2021-09-18T10:21:58.224Z</time>
      </trkpt>
      <trkpt lat="44.20753" lon="6.26589">
        <ele>991.1</ele>
        <time>2021-09-18T10:21:58.525Z</time>
      </trkpt>
      <trkpt lat="44.20754" lon="6.26586">
        <ele>991.5</ele>
        <time>2021-09-18T10:22:10.019Z</time>
      </trkpt>
      <trkpt lat="44.20754" lon="6.26585">
        <ele>991.8</ele>
        <time>2021-09-18T10:22:13.493Z</time>
      </trkpt>
      <trkpt lat="44.20755" lon="6.26582">
        <ele>992</ele>
        <time>2021-09-18T10:22:20.216Z</time>
      </trkpt>
      <trkpt lat="44.20757" lon="6.2658">
        <ele>991.4</ele>
        <time>2021-09-18T10:22:20.817Z</time>
      </trkpt>
      <trkpt lat="44.20758" lon="6.26579">
        <ele>991</ele>
        <time>2021-09-18T10:22:21.118Z</time>
      </trkpt>
      <trkpt lat="44.20759" lon="6.26578">
        <ele>990.7</ele>
        <time>2021-09-18T10:22:21.418Z</time>
      </trkpt>
      <trkpt lat="44.20759" lon="6.26577">
        <ele>990.9</ele>
        <time>2021-09-18T10:22:24.892Z</time>
      </trkpt>
      <trkpt lat="44.2076" lon="6.26575">
        <ele>990.7</ele>
        <time>2021-09-18T10:22:25.320Z</time>
      </trkpt>
      <trkpt lat="44.20761" lon="6.26571">
        <ele>990.8</ele>
        <time>2021-09-18T10:22:30.783Z</time>
      </trkpt>
      <trkpt lat="44.2076" lon="6.26569">
        <ele>991.5</ele>
        <time>2021-09-18T10:22:39.255Z</time>
      </trkpt>
      <trkpt lat="44.2076" lon="6.26567">
        <ele>991.8</ele>
        <time>2021-09-18T10:22:46.203Z</time>
      </trkpt>
      <trkpt lat="44.2076" lon="6.26564">
        <ele>992.2</ele>
        <time>2021-09-18T10:22:56.625Z</time>
      </trkpt>
      <trkpt lat="44.20761" lon="6.26563">
        <ele>991.9</ele>
        <time>2021-09-18T10:22:56.925Z</time>
      </trkpt>
      <trkpt lat="44.20761" lon="6.26561">
        <ele>992.2</ele>
        <time>2021-09-18T10:23:03.873Z</time>
      </trkpt>
      <trkpt lat="44.20762" lon="6.26558">
        <ele>992.1</ele>
        <time>2021-09-18T10:23:04.526Z</time>
      </trkpt>
      <trkpt lat="44.20763" lon="6.26555">
        <ele>992</ele>
        <time>2021-09-18T10:23:05.178Z</time>
      </trkpt>
      <trkpt lat="44.20763" lon="6.26553">
        <ele>992.3</ele>
        <time>2021-09-18T10:23:12.126Z</time>
      </trkpt>
      <trkpt lat="44.20763" lon="6.26551">
        <ele>992.6</ele>
        <time>2021-09-18T10:23:19.074Z</time>
      </trkpt>
      <trkpt lat="44.20764" lon="6.26549">
        <ele>992.4</ele>
        <time>2021-09-18T10:23:19.501Z</time>
      </trkpt>
      <trkpt lat="44.20764" lon="6.26547">
        <ele>992.6</ele>
        <time>2021-09-18T10:23:26.449Z</time>
      </trkpt>
      <trkpt lat="44.20764" lon="6.26545">
        <ele>992.9</ele>
        <time>2021-09-18T10:23:33.397Z</time>
      </trkpt>
      <trkpt lat="44.20765" lon="6.26543">
        <ele>992.7</ele>
        <time>2021-09-18T10:23:33.824Z</time>
      </trkpt>
      <trkpt lat="44.20766" lon="6.26543">
        <ele>992.2</ele>
        <time>2021-09-18T10:23:34.069Z</time>
      </trkpt>
      <trkpt lat="44.20769" lon="6.2654">
        <ele>991.2</ele>
        <time>2021-09-18T10:23:34.971Z</time>
      </trkpt>
      <trkpt lat="44.2077" lon="6.26539">
        <ele>990.9</ele>
        <time>2021-09-18T10:23:35.272Z</time>
      </trkpt>
      <trkpt lat="44.20771" lon="6.26537">
        <ele>990.6</ele>
        <time>2021-09-18T10:23:35.699Z</time>
      </trkpt>
      <trkpt lat="44.20773" lon="6.26535">
        <ele>989.9</ele>
        <time>2021-09-18T10:23:36.300Z</time>
      </trkpt>
      <trkpt lat="44.20773" lon="6.26533">
        <ele>990.2</ele>
        <time>2021-09-18T10:23:43.248Z</time>
      </trkpt>
      <trkpt lat="44.20774" lon="6.26531">
        <ele>990</ele>
        <time>2021-09-18T10:23:43.675Z</time>
      </trkpt>
      <trkpt lat="44.20774" lon="6.26529">
        <ele>990.2</ele>
        <time>2021-09-18T10:23:50.623Z</time>
      </trkpt>
      <trkpt lat="44.20775" lon="6.26528">
        <ele>989.9</ele>
        <time>2021-09-18T10:23:50.924Z</time>
      </trkpt>
      <trkpt lat="44.20777" lon="6.26525">
        <ele>989.3</ele>
        <time>2021-09-18T10:23:51.642Z</time>
      </trkpt>
      <trkpt lat="44.20777" lon="6.26524">
        <ele>989.4</ele>
        <time>2021-09-18T10:23:55.116Z</time>
      </trkpt>
      <trkpt lat="44.20779" lon="6.26521">
        <ele>988.8</ele>
        <time>2021-09-18T10:23:55.834Z</time>
      </trkpt>
      <trkpt lat="44.2078" lon="6.2652">
        <ele>988.4</ele>
        <time>2021-09-18T10:23:56.134Z</time>
      </trkpt>
      <trkpt lat="44.20781" lon="6.26519">
        <ele>988.1</ele>
        <time>2021-09-18T10:23:56.435Z</time>
      </trkpt>
      <trkpt lat="44.20781" lon="6.26517">
        <ele>988.3</ele>
        <time>2021-09-18T10:24:03.383Z</time>
      </trkpt>
      <trkpt lat="44.20783" lon="6.26514">
        <ele>987.7</ele>
        <time>2021-09-18T10:24:04.101Z</time>
      </trkpt>
      <trkpt lat="44.20784" lon="6.26511">
        <ele>987.5</ele>
        <time>2021-09-18T10:24:04.680Z</time>
      </trkpt>
      <trkpt lat="44.20783" lon="6.26508">
        <ele>988.4</ele>
        <time>2021-09-18T10:24:16.174Z</time>
      </trkpt>
      <trkpt lat="44.20784" lon="6.26507">
        <ele>988</ele>
        <time>2021-09-18T10:24:16.475Z</time>
      </trkpt>
      <trkpt lat="44.20785" lon="6.26503">
        <ele>988</ele>
        <time>2021-09-18T10:24:20.291Z</time>
      </trkpt>
      <trkpt lat="44.20785" lon="6.26501">
        <ele>988.2</ele>
        <time>2021-09-18T10:24:27.239Z</time>
      </trkpt>
      <trkpt lat="44.20785" lon="6.265">
        <ele>988.4</ele>
        <time>2021-09-18T10:24:30.713Z</time>
      </trkpt>
      <trkpt lat="44.20786" lon="6.26498">
        <ele>988.1</ele>
        <time>2021-09-18T10:24:31.140Z</time>
      </trkpt>
      <trkpt lat="44.20785" lon="6.26497">
        <ele>988.8</ele>
        <time>2021-09-18T10:24:37.103Z</time>
      </trkpt>
      <trkpt lat="44.20784" lon="6.26495">
        <ele>989.6</ele>
        <time>2021-09-18T10:24:45.574Z</time>
      </trkpt>
      <trkpt lat="44.20784" lon="6.26493">
        <ele>989.9</ele>
        <time>2021-09-18T10:24:52.522Z</time>
      </trkpt>
      <trkpt lat="44.20784" lon="6.26492">
        <ele>990</ele>
        <time>2021-09-18T10:24:55.996Z</time>
      </trkpt>
      <trkpt lat="44.20786" lon="6.26489">
        <ele>989.4</ele>
        <time>2021-09-18T10:24:56.714Z</time>
      </trkpt>
      <trkpt lat="44.20788" lon="6.26487">
        <ele>988.7</ele>
        <time>2021-09-18T10:24:57.315Z</time>
      </trkpt>
      <trkpt lat="44.2079" lon="6.26485">
        <ele>987.9</ele>
        <time>2021-09-18T10:24:57.917Z</time>
      </trkpt>
      <trkpt lat="44.20791" lon="6.26482">
        <ele>987.8</ele>
        <time>2021-09-18T10:24:58.569Z</time>
      </trkpt>
      <trkpt lat="44.20793" lon="6.2648">
        <ele>987.1</ele>
        <time>2021-09-18T10:24:59.170Z</time>
      </trkpt>
      <trkpt lat="44.20794" lon="6.26481">
        <ele>986.4</ele>
        <time>2021-09-18T10:24:59.471Z</time>
      </trkpt>
      <trkpt lat="44.20794" lon="6.26482">
        <ele>986.3</ele>
        <time>2021-09-18T10:24:59.646Z</time>
      </trkpt>
      <trkpt lat="44.20796" lon="6.26482">
        <ele>985.2</ele>
        <time>2021-09-18T10:25:00.135Z</time>
      </trkpt>
      <trkpt lat="44.20796" lon="6.26481">
        <ele>985.4</ele>
        <time>2021-09-18T10:25:03.609Z</time>
      </trkpt>
      <trkpt lat="44.20797" lon="6.26479">
        <ele>985.1</ele>
        <time>2021-09-18T10:25:04.036Z</time>
      </trkpt>
      <trkpt lat="44.20798" lon="6.26478">
        <ele>984.7</ele>
        <time>2021-09-18T10:25:04.337Z</time>
      </trkpt>
      <trkpt lat="44.20799" lon="6.26475">
        <ele>984.6</ele>
        <time>2021-09-18T10:25:04.989Z</time>
      </trkpt>
      <trkpt lat="44.20799" lon="6.26473">
        <ele>984.9</ele>
        <time>2021-09-18T10:25:11.937Z</time>
      </trkpt>
      <trkpt lat="44.208" lon="6.2647">
        <ele>984.8</ele>
        <time>2021-09-18T10:25:12.589Z</time>
      </trkpt>
      <trkpt lat="44.208" lon="6.26469">
        <ele>984.9</ele>
        <time>2021-09-18T10:25:16.063Z</time>
      </trkpt>
      <trkpt lat="44.20802" lon="6.26468">
        <ele>984</ele>
        <time>2021-09-18T10:25:16.582Z</time>
      </trkpt>
      <trkpt lat="44.20805" lon="6.26467">
        <ele>982.5</ele>
        <time>2021-09-18T10:25:17.336Z</time>
      </trkpt>
      <trkpt lat="44.20806" lon="6.26465">
        <ele>982.2</ele>
        <time>2021-09-18T10:25:17.763Z</time>
      </trkpt>
      <trkpt lat="44.20808" lon="6.26463">
        <ele>981.4</ele>
        <time>2021-09-18T10:25:18.365Z</time>
      </trkpt>
      <trkpt lat="44.2081" lon="6.2646">
        <ele>980.8</ele>
        <time>2021-09-18T10:25:19.082Z</time>
      </trkpt>
      <trkpt lat="44.2081" lon="6.26458">
        <ele>981</ele>
        <time>2021-09-18T10:25:26.030Z</time>
      </trkpt>
      <trkpt lat="44.20811" lon="6.26456">
        <ele>980.7</ele>
        <time>2021-09-18T10:25:26.458Z</time>
      </trkpt>
      <trkpt lat="44.20812" lon="6.26453">
        <ele>980.5</ele>
        <time>2021-09-18T10:25:27.037Z</time>
      </trkpt>
      <trkpt lat="44.20814" lon="6.2645">
        <ele>979.8</ele>
        <time>2021-09-18T10:25:27.755Z</time>
      </trkpt>
      <trkpt lat="44.20816" lon="6.26448">
        <ele>979</ele>
        <time>2021-09-18T10:25:28.356Z</time>
      </trkpt>
      <trkpt lat="44.20816" lon="6.26445">
        <ele>979.4</ele>
        <time>2021-09-18T10:25:38.778Z</time>
      </trkpt>
      <trkpt lat="44.20817" lon="6.2644">
        <ele>979.4</ele>
        <time>2021-09-18T10:25:43.454Z</time>
      </trkpt>
      <trkpt lat="44.20816" lon="6.26436">
        <ele>980.4</ele>
        <time>2021-09-18T10:25:58.171Z</time>
      </trkpt>
      <trkpt lat="44.20816" lon="6.26435">
        <ele>980.6</ele>
        <time>2021-09-18T10:26:01.645Z</time>
      </trkpt>
      <trkpt lat="44.20817" lon="6.26432">
        <ele>980.4</ele>
        <time>2021-09-18T10:26:02.224Z</time>
      </trkpt>
      <trkpt lat="44.20817" lon="6.26429">
        <ele>980.7</ele>
        <time>2021-09-18T10:26:12.646Z</time>
      </trkpt>
      <trkpt lat="44.20816" lon="6.26428">
        <ele>981.4</ele>
        <time>2021-09-18T10:26:18.609Z</time>
      </trkpt>
      <trkpt lat="44.20817" lon="6.26424">
        <ele>981.3</ele>
        <time>2021-09-18T10:26:19.523Z</time>
      </trkpt>
      <trkpt lat="44.20819" lon="6.26422">
        <ele>980.5</ele>
        <time>2021-09-18T10:26:20.124Z</time>
      </trkpt>
      <trkpt lat="44.20821" lon="6.26419">
        <ele>979.7</ele>
        <time>2021-09-18T10:26:20.842Z</time>
      </trkpt>
      <trkpt lat="44.20822" lon="6.26415">
        <ele>979.6</ele>
        <time>2021-09-18T10:26:21.755Z</time>
      </trkpt>
      <trkpt lat="44.20823" lon="6.26412">
        <ele>979.3</ele>
        <time>2021-09-18T10:26:22.335Z</time>
      </trkpt>
      <trkpt lat="44.20826" lon="6.26409">
        <ele>977.9</ele>
        <time>2021-09-18T10:26:23.237Z</time>
      </trkpt>
      <trkpt lat="44.20828" lon="6.26407">
        <ele>977</ele>
        <time>2021-09-18T10:26:23.838Z</time>
      </trkpt>
      <trkpt lat="44.2083" lon="6.26403">
        <ele>976.2</ele>
        <time>2021-09-18T10:26:24.693Z</time>
      </trkpt>
      <trkpt lat="44.20831" lon="6.264">
        <ele>975.9</ele>
        <time>2021-09-18T10:26:25.272Z</time>
      </trkpt>
      <trkpt lat="44.20832" lon="6.26397">
        <ele>975.6</ele>
        <time>2021-09-18T10:26:25.852Z</time>
      </trkpt>
      <trkpt lat="44.20833" lon="6.26396">
        <ele>975.2</ele>
        <time>2021-09-18T10:26:26.153Z</time>
      </trkpt>
      <trkpt lat="44.20834" lon="6.26392">
        <ele>975</ele>
        <time>2021-09-18T10:26:26.837Z</time>
      </trkpt>
      <trkpt lat="44.20835" lon="6.2639">
        <ele>974.5</ele>
        <time>2021-09-18T10:26:27.264Z</time>
      </trkpt>
      <trkpt lat="44.20836" lon="6.26388">
        <ele>974.1</ele>
        <time>2021-09-18T10:26:27.691Z</time>
      </trkpt>
      <trkpt lat="44.20838" lon="6.26385">
        <ele>973.1</ele>
        <time>2021-09-18T10:26:28.409Z</time>
      </trkpt>
      <trkpt lat="44.20839" lon="6.26383">
        <ele>972.7</ele>
        <time>2021-09-18T10:26:28.836Z</time>
      </trkpt>
      <trkpt lat="44.20841" lon="6.2638">
        <ele>971.7</ele>
        <time>2021-09-18T10:26:29.554Z</time>
      </trkpt>
      <trkpt lat="44.20842" lon="6.26379">
        <ele>971.2</ele>
        <time>2021-09-18T10:26:29.855Z</time>
      </trkpt>
      <trkpt lat="44.20843" lon="6.26377">
        <ele>970.8</ele>
        <time>2021-09-18T10:26:30.282Z</time>
      </trkpt>
      <trkpt lat="44.20845" lon="6.26374">
        <ele>969.8</ele>
        <time>2021-09-18T10:26:31.000Z</time>
      </trkpt>
      <trkpt lat="44.20846" lon="6.26373">
        <ele>969.3</ele>
        <time>2021-09-18T10:26:31.300Z</time>
      </trkpt>
      <trkpt lat="44.20847" lon="6.26369">
        <ele>969</ele>
        <time>2021-09-18T10:26:32.042Z</time>
      </trkpt>
      <trkpt lat="44.20849" lon="6.26367">
        <ele>968</ele>
        <time>2021-09-18T10:26:32.644Z</time>
      </trkpt>
      <trkpt lat="44.20852" lon="6.26364">
        <ele>966.3</ele>
        <time>2021-09-18T10:26:33.546Z</time>
      </trkpt>
      <trkpt lat="44.20853" lon="6.26361">
        <ele>966</ele>
        <time>2021-09-18T10:26:34.125Z</time>
      </trkpt>
      <trkpt lat="44.20854" lon="6.26359">
        <ele>965.5</ele>
        <time>2021-09-18T10:26:34.553Z</time>
      </trkpt>
      <trkpt lat="44.20855" lon="6.26357">
        <ele>965.1</ele>
        <time>2021-09-18T10:26:34.980Z</time>
      </trkpt>
      <trkpt lat="44.20856" lon="6.26355">
        <ele>964.6</ele>
        <time>2021-09-18T10:26:35.407Z</time>
      </trkpt>
      <trkpt lat="44.20857" lon="6.26352">
        <ele>964.3</ele>
        <time>2021-09-18T10:26:35.987Z</time>
      </trkpt>
      <trkpt lat="44.20857" lon="6.2635">
        <ele>964.5</ele>
        <time>2021-09-18T10:26:42.935Z</time>
      </trkpt>
      <trkpt lat="44.20858" lon="6.26347">
        <ele>964.1</ele>
        <time>2021-09-18T10:26:43.514Z</time>
      </trkpt>
      <trkpt lat="44.20859" lon="6.26344">
        <ele>963.7</ele>
        <time>2021-09-18T10:26:44.094Z</time>
      </trkpt>
      <trkpt lat="44.20861" lon="6.2634">
        <ele>962.8</ele>
        <time>2021-09-18T10:26:44.948Z</time>
      </trkpt>
      <trkpt lat="44.20863" lon="6.26336">
        <ele>961.9</ele>
        <time>2021-09-18T10:26:45.803Z</time>
      </trkpt>
      <trkpt lat="44.20863" lon="6.26334">
        <ele>962.1</ele>
        <time>2021-09-18T10:26:52.751Z</time>
      </trkpt>
      <trkpt lat="44.20864" lon="6.26331">
        <ele>961.5</ele>
        <time>2021-09-18T10:26:53.330Z</time>
      </trkpt>
      <trkpt lat="44.20864" lon="6.2633">
        <ele>961.5</ele>
        <time>2021-09-18T10:26:54.231Z</time>
      </trkpt>
      <trkpt lat="44.20864" lon="6.26328">
        <ele>961.5</ele>
        <time>2021-09-18T10:26:56.032Z</time>
      </trkpt>
      <trkpt lat="44.20865" lon="6.26325">
        <ele>960.9</ele>
        <time>2021-09-18T10:26:56.612Z</time>
      </trkpt>
      <trkpt lat="44.20866" lon="6.26322">
        <ele>960.3</ele>
        <time>2021-09-18T10:26:57.191Z</time>
      </trkpt>
      <trkpt lat="44.20867" lon="6.2632">
        <ele>959.7</ele>
        <time>2021-09-18T10:26:57.619Z</time>
      </trkpt>
      <trkpt lat="44.20868" lon="6.26318">
        <ele>959</ele>
        <time>2021-09-18T10:26:58.046Z</time>
      </trkpt>
      <trkpt lat="44.20868" lon="6.26316">
        <ele>959.1</ele>
        <time>2021-09-18T10:27:01.664Z</time>
      </trkpt>
      <trkpt lat="44.20868" lon="6.26314">
        <ele>959.1</ele>
        <time>2021-09-18T10:27:03.465Z</time>
      </trkpt>
      <trkpt lat="44.2087" lon="6.26311">
        <ele>957.9</ele>
        <time>2021-09-18T10:27:04.183Z</time>
      </trkpt>
      <trkpt lat="44.20871" lon="6.2631">
        <ele>957.2</ele>
        <time>2021-09-18T10:27:04.483Z</time>
      </trkpt>
      <trkpt lat="44.20873" lon="6.26308">
        <ele>956</ele>
        <time>2021-09-18T10:27:05.085Z</time>
      </trkpt>
      <trkpt lat="44.20875" lon="6.26306">
        <ele>954.8</ele>
        <time>2021-09-18T10:27:05.686Z</time>
      </trkpt>
      <trkpt lat="44.20876" lon="6.26302">
        <ele>954.3</ele>
        <time>2021-09-18T10:27:06.428Z</time>
      </trkpt>
      <trkpt lat="44.20876" lon="6.26301">
        <ele>954.3</ele>
        <time>2021-09-18T10:27:07.329Z</time>
      </trkpt>
      <trkpt lat="44.20877" lon="6.26297">
        <ele>953.7</ele>
        <time>2021-09-18T10:27:08.071Z</time>
      </trkpt>
      <trkpt lat="44.20877" lon="6.26294">
        <ele>953.8</ele>
        <time>2021-09-18T10:27:12.690Z</time>
      </trkpt>
      <trkpt lat="44.20877" lon="6.26292">
        <ele>953.8</ele>
        <time>2021-09-18T10:27:14.491Z</time>
      </trkpt>
      <trkpt lat="44.20877" lon="6.2629">
        <ele>953.8</ele>
        <time>2021-09-18T10:27:16.293Z</time>
      </trkpt>
      <trkpt lat="44.20878" lon="6.26287">
        <ele>953.3</ele>
        <time>2021-09-18T10:27:16.872Z</time>
      </trkpt>
      <trkpt lat="44.20879" lon="6.26283">
        <ele>952.7</ele>
        <time>2021-09-18T10:27:17.614Z</time>
      </trkpt>
      <trkpt lat="44.20879" lon="6.2628">
        <ele>952.8</ele>
        <time>2021-09-18T10:27:22.233Z</time>
      </trkpt>
      <trkpt lat="44.2088" lon="6.26279">
        <ele>952.2</ele>
        <time>2021-09-18T10:27:22.534Z</time>
      </trkpt>
      <trkpt lat="44.20881" lon="6.26277">
        <ele>951.7</ele>
        <time>2021-09-18T10:27:22.961Z</time>
      </trkpt>
      <trkpt lat="44.20882" lon="6.26276">
        <ele>951.1</ele>
        <time>2021-09-18T10:27:23.262Z</time>
      </trkpt>
      <trkpt lat="44.20882" lon="6.26274">
        <ele>951.1</ele>
        <time>2021-09-18T10:27:25.063Z</time>
      </trkpt>
      <trkpt lat="44.20882" lon="6.26273">
        <ele>951.1</ele>
        <time>2021-09-18T10:27:25.964Z</time>
      </trkpt>
      <trkpt lat="44.20882" lon="6.26269">
        <ele>951.2</ele>
        <time>2021-09-18T10:27:31.257Z</time>
      </trkpt>
      <trkpt lat="44.20885" lon="6.26268">
        <ele>949.5</ele>
        <time>2021-09-18T10:27:32.011Z</time>
      </trkpt>
      <trkpt lat="44.20886" lon="6.26268">
        <ele>948.9</ele>
        <time>2021-09-18T10:27:32.256Z</time>
      </trkpt>
      <trkpt lat="44.20887" lon="6.26265">
        <ele>948.4</ele>
        <time>2021-09-18T10:27:32.835Z</time>
      </trkpt>
      <trkpt lat="44.20886" lon="6.26263">
        <ele>949</ele>
        <time>2021-09-18T10:27:41.307Z</time>
      </trkpt>
      <trkpt lat="44.20887" lon="6.26261">
        <ele>948.5</ele>
        <time>2021-09-18T10:27:41.734Z</time>
      </trkpt>
      <trkpt lat="44.20886" lon="6.2626">
        <ele>949.1</ele>
        <time>2021-09-18T10:27:47.697Z</time>
      </trkpt>
      <trkpt lat="44.20884" lon="6.26257">
        <ele>950.3</ele>
        <time>2021-09-18T10:28:01.929Z</time>
      </trkpt>
      <trkpt lat="44.20885" lon="6.26256">
        <ele>949.7</ele>
        <time>2021-09-18T10:28:02.230Z</time>
      </trkpt>
      <trkpt lat="44.20884" lon="6.26255">
        <ele>950.3</ele>
        <time>2021-09-18T10:28:08.193Z</time>
      </trkpt>
      <trkpt lat="44.20883" lon="6.26254">
        <ele>950.9</ele>
        <time>2021-09-18T10:28:14.156Z</time>
      </trkpt>
      <trkpt lat="44.20883" lon="6.26252">
        <ele>951</ele>
        <time>2021-09-18T10:28:17.774Z</time>
      </trkpt>
      <trkpt lat="44.20882" lon="6.2625">
        <ele>951.6</ele>
        <time>2021-09-18T10:28:26.245Z</time>
      </trkpt>
      <trkpt lat="44.20881" lon="6.26248">
        <ele>952</ele>
        <time>2021-09-18T10:28:34.716Z</time>
      </trkpt>
      <trkpt lat="44.20879" lon="6.26247">
        <ele>953.1</ele>
        <time>2021-09-18T10:28:45.013Z</time>
      </trkpt>
      <trkpt lat="44.20877" lon="6.26244">
        <ele>954.2</ele>
        <time>2021-09-18T10:28:59.246Z</time>
      </trkpt>
      <trkpt lat="44.20877" lon="6.26242">
        <ele>954.1</ele>
        <time>2021-09-18T10:28:59.596Z</time>
      </trkpt>
      <trkpt lat="44.20877" lon="6.26239">
        <ele>954</ele>
        <time>2021-09-18T10:29:00.165Z</time>
      </trkpt>
      <trkpt lat="44.20876" lon="6.26237">
        <ele>954.5</ele>
        <time>2021-09-18T10:29:08.636Z</time>
      </trkpt>
      <trkpt lat="44.20876" lon="6.26235">
        <ele>954.4</ele>
        <time>2021-09-18T10:29:08.986Z</time>
      </trkpt>
      <trkpt lat="44.20875" lon="6.26233">
        <ele>954.9</ele>
        <time>2021-09-18T10:29:17.457Z</time>
      </trkpt>
      <trkpt lat="44.20876" lon="6.26229">
        <ele>954.2</ele>
        <time>2021-09-18T10:29:18.200Z</time>
      </trkpt>
      <trkpt lat="44.20877" lon="6.26228">
        <ele>953.6</ele>
        <time>2021-09-18T10:29:18.500Z</time>
      </trkpt>
      <trkpt lat="44.20878" lon="6.26225">
        <ele>952.9</ele>
        <time>2021-09-18T10:29:19.080Z</time>
      </trkpt>
      <trkpt lat="44.20878" lon="6.26223">
        <ele>952.9</ele>
        <time>2021-09-18T10:29:20.881Z</time>
      </trkpt>
      <trkpt lat="44.20879" lon="6.26219">
        <ele>952.2</ele>
        <time>2021-09-18T10:29:21.623Z</time>
      </trkpt>
      <trkpt lat="44.20879" lon="6.26217">
        <ele>952.1</ele>
        <time>2021-09-18T10:29:21.974Z</time>
      </trkpt>
      <trkpt lat="44.20879" lon="6.26216">
        <ele>952.1</ele>
        <time>2021-09-18T10:29:22.874Z</time>
      </trkpt>
      <trkpt lat="44.20878" lon="6.26214">
        <ele>952.5</ele>
        <time>2021-09-18T10:29:31.346Z</time>
      </trkpt>
      <trkpt lat="44.20878" lon="6.26212">
        <ele>952.5</ele>
        <time>2021-09-18T10:29:33.147Z</time>
      </trkpt>
      <trkpt lat="44.20878" lon="6.26208">
        <ele>952.3</ele>
        <time>2021-09-18T10:29:33.848Z</time>
      </trkpt>
      <trkpt lat="44.20878" lon="6.26207">
        <ele>952.3</ele>
        <time>2021-09-18T10:29:34.748Z</time>
      </trkpt>
      <trkpt lat="44.20879" lon="6.26206">
        <ele>951.7</ele>
        <time>2021-09-18T10:29:35.049Z</time>
      </trkpt>
      <trkpt lat="44.20882" lon="6.26204">
        <ele>950</ele>
        <time>2021-09-18T10:29:35.862Z</time>
      </trkpt>
      <trkpt lat="44.20881" lon="6.26202">
        <ele>950.5</ele>
        <time>2021-09-18T10:29:44.333Z</time>
      </trkpt>
      <trkpt lat="44.20882" lon="6.262">
        <ele>949.9</ele>
        <time>2021-09-18T10:29:44.760Z</time>
      </trkpt>
      <trkpt lat="44.20882" lon="6.26199">
        <ele>949.8</ele>
        <time>2021-09-18T10:29:44.935Z</time>
      </trkpt>
      <trkpt lat="44.2088" lon="6.26196">
        <ele>950.8</ele>
        <time>2021-09-18T10:29:59.168Z</time>
      </trkpt>
      <trkpt lat="44.2088" lon="6.26193">
        <ele>950.7</ele>
        <time>2021-09-18T10:29:59.736Z</time>
      </trkpt>
      <trkpt lat="44.20879" lon="6.26191">
        <ele>951.2</ele>
        <time>2021-09-18T10:30:08.208Z</time>
      </trkpt>
      <trkpt lat="44.20879" lon="6.26189">
        <ele>951.1</ele>
        <time>2021-09-18T10:30:08.558Z</time>
      </trkpt>
      <trkpt lat="44.2088" lon="6.26185">
        <ele>950.4</ele>
        <time>2021-09-18T10:30:09.300Z</time>
      </trkpt>
      <trkpt lat="44.20879" lon="6.26183">
        <ele>950.9</ele>
        <time>2021-09-18T10:30:17.771Z</time>
      </trkpt>
      <trkpt lat="44.2088" lon="6.2618">
        <ele>950.3</ele>
        <time>2021-09-18T10:30:18.351Z</time>
      </trkpt>
      <trkpt lat="44.20879" lon="6.26177">
        <ele>950.7</ele>
        <time>2021-09-18T10:30:29.845Z</time>
      </trkpt>
      <trkpt lat="44.20878" lon="6.26174">
        <ele>951.1</ele>
        <time>2021-09-18T10:30:41.338Z</time>
      </trkpt>
      <trkpt lat="44.20877" lon="6.26172">
        <ele>951.6</ele>
        <time>2021-09-18T10:30:49.809Z</time>
      </trkpt>
      <trkpt lat="44.20877" lon="6.26171">
        <ele>951.6</ele>
        <time>2021-09-18T10:30:50.710Z</time>
      </trkpt>
      <trkpt lat="44.20875" lon="6.26168">
        <ele>952.5</ele>
        <time>2021-09-18T10:31:04.943Z</time>
      </trkpt>
      <trkpt lat="44.20874" lon="6.26167">
        <ele>953.1</ele>
        <time>2021-09-18T10:31:10.906Z</time>
      </trkpt>
      <trkpt lat="44.20874" lon="6.26165">
        <ele>953.1</ele>
        <time>2021-09-18T10:31:12.707Z</time>
      </trkpt>
      <trkpt lat="44.20873" lon="6.26162">
        <ele>953.8</ele>
        <time>2021-09-18T10:31:24.201Z</time>
      </trkpt>
      <trkpt lat="44.20875" lon="6.26161">
        <ele>952.8</ele>
        <time>2021-09-18T10:31:24.720Z</time>
      </trkpt>
      <trkpt lat="44.20876" lon="6.26159">
        <ele>952.4</ele>
        <time>2021-09-18T10:31:25.147Z</time>
      </trkpt>
      <trkpt lat="44.20877" lon="6.26159">
        <ele>951.9</ele>
        <time>2021-09-18T10:31:25.392Z</time>
      </trkpt>
      <trkpt lat="44.20879" lon="6.26161">
        <ele>950.7</ele>
        <time>2021-09-18T10:31:25.993Z</time>
      </trkpt>
      <trkpt lat="44.20879" lon="6.26162">
        <ele>950.7</ele>
        <time>2021-09-18T10:31:26.894Z</time>
      </trkpt>
      <trkpt lat="44.2088" lon="6.26161">
        <ele>950.2</ele>
        <time>2021-09-18T10:31:27.194Z</time>
      </trkpt>
      <trkpt lat="44.20881" lon="6.26159">
        <ele>949.8</ele>
        <time>2021-09-18T10:31:27.622Z</time>
      </trkpt>
      <trkpt lat="44.20882" lon="6.26159">
        <ele>949.3</ele>
        <time>2021-09-18T10:31:27.866Z</time>
      </trkpt>
      <trkpt lat="44.20885" lon="6.26162">
        <ele>947.5</ele>
        <time>2021-09-18T10:31:28.768Z</time>
      </trkpt>
      <trkpt lat="44.20887" lon="6.26161">
        <ele>946.5</ele>
        <time>2021-09-18T10:31:29.287Z</time>
      </trkpt>
      <trkpt lat="44.20886" lon="6.2616">
        <ele>947.1</ele>
        <time>2021-09-18T10:31:35.250Z</time>
      </trkpt>
      <trkpt lat="44.20885" lon="6.26159">
        <ele>947.7</ele>
        <time>2021-09-18T10:31:41.213Z</time>
      </trkpt>
      <trkpt lat="44.20885" lon="6.26157">
        <ele>947.8</ele>
        <time>2021-09-18T10:31:44.831Z</time>
      </trkpt>
      <trkpt lat="44.20885" lon="6.26155">
        <ele>948</ele>
        <time>2021-09-18T10:31:51.779Z</time>
      </trkpt>
      <trkpt lat="44.20886" lon="6.26152">
        <ele>947.7</ele>
        <time>2021-09-18T10:31:52.359Z</time>
      </trkpt>
      <trkpt lat="44.20887" lon="6.2615">
        <ele>947.4</ele>
        <time>2021-09-18T10:31:52.786Z</time>
      </trkpt>
      <trkpt lat="44.20887" lon="6.26149">
        <ele>947.4</ele>
        <time>2021-09-18T10:31:53.687Z</time>
      </trkpt>
      <trkpt lat="44.20888" lon="6.26147">
        <ele>947.1</ele>
        <time>2021-09-18T10:31:54.114Z</time>
      </trkpt>
      <trkpt lat="44.20888" lon="6.26145">
        <ele>947.3</ele>
        <time>2021-09-18T10:32:01.062Z</time>
      </trkpt>
      <trkpt lat="44.20889" lon="6.26143">
        <ele>946.9</ele>
        <time>2021-09-18T10:32:01.489Z</time>
      </trkpt>
      <trkpt lat="44.20891" lon="6.26141">
        <ele>946.1</ele>
        <time>2021-09-18T10:32:02.090Z</time>
      </trkpt>
      <trkpt lat="44.20892" lon="6.26139">
        <ele>945.8</ele>
        <time>2021-09-18T10:32:02.517Z</time>
      </trkpt>
      <trkpt lat="44.20894" lon="6.26136">
        <ele>945.1</ele>
        <time>2021-09-18T10:32:03.235Z</time>
      </trkpt>
      <trkpt lat="44.20894" lon="6.26135">
        <ele>945.2</ele>
        <time>2021-09-18T10:32:06.709Z</time>
      </trkpt>
      <trkpt lat="44.20896" lon="6.26133">
        <ele>944.4</ele>
        <time>2021-09-18T10:32:07.311Z</time>
      </trkpt>
      <trkpt lat="44.20898" lon="6.26132">
        <ele>943.5</ele>
        <time>2021-09-18T10:32:07.830Z</time>
      </trkpt>
      <trkpt lat="44.20899" lon="6.26131">
        <ele>943.2</ele>
        <time>2021-09-18T10:32:08.131Z</time>
      </trkpt>
      <trkpt lat="44.209" lon="6.26133">
        <ele>942.5</ele>
        <time>2021-09-18T10:32:08.558Z</time>
      </trkpt>
      <trkpt lat="44.20901" lon="6.26137">
        <ele>941.6</ele>
        <time>2021-09-18T10:32:09.300Z</time>
      </trkpt>
      <trkpt lat="44.20902" lon="6.26139">
        <ele>940.9</ele>
        <time>2021-09-18T10:32:09.727Z</time>
      </trkpt>
      <trkpt lat="44.20904" lon="6.2614">
        <ele>939.8</ele>
        <time>2021-09-18T10:32:10.246Z</time>
      </trkpt>
      <trkpt lat="44.20905" lon="6.26145">
        <ele>938.7</ele>
        <time>2021-09-18T10:32:11.156Z</time>
      </trkpt>
      <trkpt lat="44.20905" lon="6.26148">
        <ele>938.4</ele>
        <time>2021-09-18T10:32:11.681Z</time>
      </trkpt>
      <trkpt lat="44.20906" lon="6.26149">
        <ele>937.8</ele>
        <time>2021-09-18T10:32:11.982Z</time>
      </trkpt>
      <trkpt lat="44.20906" lon="6.26152">
        <ele>937.4</ele>
        <time>2021-09-18T10:32:12.507Z</time>
      </trkpt>
      <trkpt lat="44.20905" lon="6.26153">
        <ele>937.8</ele>
        <time>2021-09-18T10:32:18.470Z</time>
      </trkpt>
      <trkpt lat="44.20904" lon="6.26159">
        <ele>937.7</ele>
        <time>2021-09-18T10:32:19.954Z</time>
      </trkpt>
      <trkpt lat="44.20905" lon="6.26161">
        <ele>936.9</ele>
        <time>2021-09-18T10:32:20.381Z</time>
      </trkpt>
      <trkpt lat="44.20905" lon="6.26163">
        <ele>936.7</ele>
        <time>2021-09-18T10:32:20.732Z</time>
      </trkpt>
      <trkpt lat="44.20903" lon="6.26162">
        <ele>937.9</ele>
        <time>2021-09-18T10:32:31.028Z</time>
      </trkpt>
      <trkpt lat="44.20906" lon="6.26153">
        <ele>937.3</ele>
        <time>2021-09-18T10:32:32.767Z</time>
      </trkpt>
      <trkpt lat="44.20905" lon="6.26152">
        <ele>937.9</ele>
        <time>2021-09-18T10:32:38.730Z</time>
      </trkpt>
      <trkpt lat="44.20903" lon="6.26147">
        <ele>939.5</ele>
        <time>2021-09-18T10:32:58.621Z</time>
      </trkpt>
      <trkpt lat="44.20904" lon="6.2615">
        <ele>938.7</ele>
        <time>2021-09-18T10:32:59.201Z</time>
      </trkpt>
      <trkpt lat="44.20905" lon="6.26147">
        <ele>938.5</ele>
        <time>2021-09-18T10:32:59.781Z</time>
      </trkpt>
      <trkpt lat="44.20907" lon="6.26144">
        <ele>937.8</ele>
        <time>2021-09-18T10:33:00.498Z</time>
      </trkpt>
      <trkpt lat="44.20908" lon="6.26142">
        <ele>937.6</ele>
        <time>2021-09-18T10:33:00.925Z</time>
      </trkpt>
      <trkpt lat="44.20909" lon="6.26141">
        <ele>937.2</ele>
        <time>2021-09-18T10:33:01.226Z</time>
      </trkpt>
      <trkpt lat="44.20913" lon="6.26138">
        <ele>935.6</ele>
        <time>2021-09-18T10:33:02.336Z</time>
      </trkpt>
      <trkpt lat="44.20915" lon="6.26136">
        <ele>934.9</ele>
        <time>2021-09-18T10:33:02.937Z</time>
      </trkpt>
      <trkpt lat="44.20916" lon="6.26135">
        <ele>934.5</ele>
        <time>2021-09-18T10:33:03.238Z</time>
      </trkpt>
      <trkpt lat="44.20916" lon="6.26133">
        <ele>934.8</ele>
        <time>2021-09-18T10:33:10.186Z</time>
      </trkpt>
      <trkpt lat="44.20917" lon="6.26131">
        <ele>934.6</ele>
        <time>2021-09-18T10:33:10.613Z</time>
      </trkpt>
      <trkpt lat="44.20918" lon="6.2613">
        <ele>934.6</ele>
        <time>2021-09-18T10:33:12.159Z</time>
      </trkpt>
      <trkpt lat="44.20918" lon="6.26128">
        <ele>934.8</ele>
        <time>2021-09-18T10:33:19.107Z</time>
      </trkpt>
      <trkpt lat="44.20917" lon="6.26126">
        <ele>935.3</ele>
        <time>2021-09-18T10:33:27.578Z</time>
      </trkpt>
      <trkpt lat="44.20918" lon="6.26125">
        <ele>935.2</ele>
        <time>2021-09-18T10:33:27.879Z</time>
      </trkpt>
      <trkpt lat="44.2092" lon="6.26124">
        <ele>935</ele>
        <time>2021-09-18T10:33:28.398Z</time>
      </trkpt>
      <trkpt lat="44.2092" lon="6.26121">
        <ele>935.4</ele>
        <time>2021-09-18T10:33:38.820Z</time>
      </trkpt>
      <trkpt lat="44.20922" lon="6.26122">
        <ele>934.9</ele>
        <time>2021-09-18T10:33:39.339Z</time>
      </trkpt>
      <trkpt lat="44.20921" lon="6.26116">
        <ele>935.9</ele>
        <time>2021-09-18T10:34:00.739Z</time>
      </trkpt>
      <trkpt lat="44.2092" lon="6.26115">
        <ele>936.3</ele>
        <time>2021-09-18T10:34:06.702Z</time>
      </trkpt>
      <trkpt lat="44.2092" lon="6.26112">
        <ele>936.7</ele>
        <time>2021-09-18T10:34:17.124Z</time>
      </trkpt>
      <trkpt lat="44.20923" lon="6.26107">
        <ele>936.9</ele>
        <time>2021-09-18T10:34:26.782Z</time>
      </trkpt>
      <trkpt lat="44.20925" lon="6.26108">
        <ele>936.5</ele>
        <time>2021-09-18T10:34:27.301Z</time>
      </trkpt>
      <trkpt lat="44.20926" lon="6.26105">
        <ele>936.8</ele>
        <time>2021-09-18T10:34:37.748Z</time>
      </trkpt>
      <trkpt lat="44.20927" lon="6.26103">
        <ele>936.9</ele>
        <time>2021-09-18T10:34:41.779Z</time>
      </trkpt>
      <trkpt lat="44.20928" lon="6.26103">
        <ele>936.8</ele>
        <time>2021-09-18T10:34:42.023Z</time>
      </trkpt>
      <trkpt lat="44.20925" lon="6.26104">
        <ele>937.1</ele>
        <time>2021-09-18T10:34:51.840Z</time>
      </trkpt>
      <trkpt lat="44.2093" lon="6.26104">
        <ele>936.4</ele>
        <time>2021-09-18T10:34:53.062Z</time>
      </trkpt>
      <trkpt lat="44.20931" lon="6.26104">
        <ele>936.2</ele>
        <time>2021-09-18T10:34:53.306Z</time>
      </trkpt>
      <trkpt lat="44.20928" lon="6.26119">
        <ele>934.3</ele>
        <time>2021-09-18T10:34:56.034Z</time>
      </trkpt>
      <trkpt lat="44.20932" lon="6.26107">
        <ele>935.6</ele>
        <time>2021-09-18T10:35:42.009Z</time>
      </trkpt>
      <trkpt lat="44.2093" lon="6.26105">
        <ele>936.2</ele>
        <time>2021-09-18T10:35:53.934Z</time>
      </trkpt>
      <trkpt lat="44.20934" lon="6.26109">
        <ele>934.9</ele>
        <time>2021-09-18T10:35:55.137Z</time>
      </trkpt>
      <trkpt lat="44.20933" lon="6.26111">
        <ele>934.7</ele>
        <time>2021-09-18T10:35:55.564Z</time>
      </trkpt>
      <trkpt lat="44.20934" lon="6.26114">
        <ele>934.1</ele>
        <time>2021-09-18T10:35:56.144Z</time>
      </trkpt>
      <trkpt lat="44.20933" lon="6.26115">
        <ele>934.1</ele>
        <time>2021-09-18T10:35:57.690Z</time>
      </trkpt>
      <trkpt lat="44.20932" lon="6.26116">
        <ele>934.1</ele>
        <time>2021-09-18T10:35:59.236Z</time>
      </trkpt>
      <trkpt lat="44.20931" lon="6.26121">
        <ele>933.4</ele>
        <time>2021-09-18T10:36:00.145Z</time>
      </trkpt>
      <trkpt lat="44.20931" lon="6.2612">
        <ele>933.6</ele>
        <time>2021-09-18T10:36:03.619Z</time>
      </trkpt>
      <trkpt lat="44.20932" lon="6.26122">
        <ele>933.1</ele>
        <time>2021-09-18T10:36:04.046Z</time>
      </trkpt>
      <trkpt lat="44.20929" lon="6.26122">
        <ele>933.6</ele>
        <time>2021-09-18T10:36:18.586Z</time>
      </trkpt>
      <trkpt lat="44.20929" lon="6.26123">
        <ele>933.5</ele>
        <time>2021-09-18T10:36:18.761Z</time>
      </trkpt>
      <trkpt lat="44.20927" lon="6.26123">
        <ele>933.8</ele>
        <time>2021-09-18T10:36:28.454Z</time>
      </trkpt>
      <trkpt lat="44.20926" lon="6.26122">
        <ele>934.2</ele>
        <time>2021-09-18T10:36:34.417Z</time>
      </trkpt>
      <trkpt lat="44.20928" lon="6.26122">
        <ele>933.8</ele>
        <time>2021-09-18T10:36:34.906Z</time>
      </trkpt>
      <trkpt lat="44.20924" lon="6.26118">
        <ele>935.1</ele>
        <time>2021-09-18T10:36:58.757Z</time>
      </trkpt>
      <trkpt lat="44.20923" lon="6.26126">
        <ele>934.1</ele>
        <time>2021-09-18T10:37:00.180Z</time>
      </trkpt>
      <trkpt lat="44.20924" lon="6.26128">
        <ele>933.6</ele>
        <time>2021-09-18T10:37:00.607Z</time>
      </trkpt>
      <trkpt lat="44.20925" lon="6.26129">
        <ele>933.3</ele>
        <time>2021-09-18T10:37:00.908Z</time>
      </trkpt>
      <trkpt lat="44.20926" lon="6.26131">
        <ele>932.8</ele>
        <time>2021-09-18T10:37:01.335Z</time>
      </trkpt>
      <trkpt lat="44.20927" lon="6.26131">
        <ele>932.6</ele>
        <time>2021-09-18T10:37:01.580Z</time>
      </trkpt>
      <trkpt lat="44.20927" lon="6.26132">
        <ele>932.4</ele>
        <time>2021-09-18T10:37:01.755Z</time>
      </trkpt>
      <trkpt lat="44.20926" lon="6.26134">
        <ele>932.3</ele>
        <time>2021-09-18T10:37:02.176Z</time>
      </trkpt>
      <trkpt lat="44.20925" lon="6.26136">
        <ele>932.2</ele>
        <time>2021-09-18T10:37:02.598Z</time>
      </trkpt>
      <trkpt lat="44.20925" lon="6.26138">
        <ele>931.9</ele>
        <time>2021-09-18T10:37:02.948Z</time>
      </trkpt>
      <trkpt lat="44.20922" lon="6.26138">
        <ele>932.6</ele>
        <time>2021-09-18T10:37:17.488Z</time>
      </trkpt>
      <trkpt lat="44.20921" lon="6.26139">
        <ele>932.7</ele>
        <time>2021-09-18T10:37:20.888Z</time>
      </trkpt>
      <trkpt lat="44.20923" lon="6.26141">
        <ele>931.9</ele>
        <time>2021-09-18T10:37:21.489Z</time>
      </trkpt>
      <trkpt lat="44.20923" lon="6.26143">
        <ele>931.6</ele>
        <time>2021-09-18T10:37:21.839Z</time>
      </trkpt>
      <trkpt lat="44.20923" lon="6.26145">
        <ele>931.4</ele>
        <time>2021-09-18T10:37:22.190Z</time>
      </trkpt>
      <trkpt lat="44.20922" lon="6.26147">
        <ele>931.3</ele>
        <time>2021-09-18T10:37:22.611Z</time>
      </trkpt>
      <trkpt lat="44.2092" lon="6.26148">
        <ele>931.6</ele>
        <time>2021-09-18T10:37:32.908Z</time>
      </trkpt>
      <trkpt lat="44.20922" lon="6.26148">
        <ele>931.2</ele>
        <time>2021-09-18T10:37:33.397Z</time>
      </trkpt>
      <trkpt lat="44.20923" lon="6.2615">
        <ele>930.6</ele>
        <time>2021-09-18T10:37:33.824Z</time>
      </trkpt>
      <trkpt lat="44.20922" lon="6.26151">
        <ele>930.7</ele>
        <time>2021-09-18T10:37:37.224Z</time>
      </trkpt>
      <trkpt lat="44.20919" lon="6.26151">
        <ele>931.5</ele>
        <time>2021-09-18T10:37:51.763Z</time>
      </trkpt>
      <trkpt lat="44.20917" lon="6.2615">
        <ele>932.1</ele>
        <time>2021-09-18T10:38:02.060Z</time>
      </trkpt>
      <trkpt lat="44.20915" lon="6.26152">
        <ele>932.8</ele>
        <time>2021-09-18T10:38:13.986Z</time>
      </trkpt>
      <trkpt lat="44.20913" lon="6.26153">
        <ele>933.7</ele>
        <time>2021-09-18T10:38:24.282Z</time>
      </trkpt>
      <trkpt lat="44.2091" lon="6.26156">
        <ele>934.9</ele>
        <time>2021-09-18T10:38:42.171Z</time>
      </trkpt>
      <trkpt lat="44.20911" lon="6.26157">
        <ele>934.2</ele>
        <time>2021-09-18T10:38:42.472Z</time>
      </trkpt>
      <trkpt lat="44.20911" lon="6.26158">
        <ele>934.1</ele>
        <time>2021-09-18T10:38:42.647Z</time>
      </trkpt>
      <trkpt lat="44.2091" lon="6.26159">
        <ele>934.5</ele>
        <time>2021-09-18T10:38:48.610Z</time>
      </trkpt>
      <trkpt lat="44.20908" lon="6.26159">
        <ele>935.6</ele>
        <time>2021-09-18T10:38:58.303Z</time>
      </trkpt>
      <trkpt lat="44.20907" lon="6.26161">
        <ele>935.9</ele>
        <time>2021-09-18T10:39:06.774Z</time>
      </trkpt>
      <trkpt lat="44.20907" lon="6.26164">
        <ele>935.5</ele>
        <time>2021-09-18T10:39:07.300Z</time>
      </trkpt>
      <trkpt lat="44.20906" lon="6.26166">
        <ele>935.8</ele>
        <time>2021-09-18T10:39:15.771Z</time>
      </trkpt>
      <trkpt lat="44.20907" lon="6.26167">
        <ele>935.2</ele>
        <time>2021-09-18T10:39:16.072Z</time>
      </trkpt>
      <trkpt lat="44.20907" lon="6.2617">
        <ele>935.3</ele>
        <time>2021-09-18T10:39:20.690Z</time>
      </trkpt>
      <trkpt lat="44.20908" lon="6.26172">
        <ele>934.8</ele>
        <time>2021-09-18T10:39:21.118Z</time>
      </trkpt>
      <trkpt lat="44.2091" lon="6.26173">
        <ele>933.8</ele>
        <time>2021-09-18T10:39:21.637Z</time>
      </trkpt>
      <trkpt lat="44.20911" lon="6.26172">
        <ele>933.2</ele>
        <time>2021-09-18T10:39:21.938Z</time>
      </trkpt>
      <trkpt lat="44.20913" lon="6.26173">
        <ele>932.1</ele>
        <time>2021-09-18T10:39:22.457Z</time>
      </trkpt>
      <trkpt lat="44.20913" lon="6.26174">
        <ele>932.2</ele>
        <time>2021-09-18T10:39:25.931Z</time>
      </trkpt>
      <trkpt lat="44.20915" lon="6.26175">
        <ele>931.1</ele>
        <time>2021-09-18T10:39:26.450Z</time>
      </trkpt>
      <trkpt lat="44.20916" lon="6.26176">
        <ele>930.6</ele>
        <time>2021-09-18T10:39:26.751Z</time>
      </trkpt>
      <trkpt lat="44.20918" lon="6.26176">
        <ele>929.8</ele>
        <time>2021-09-18T10:39:27.239Z</time>
      </trkpt>
      <trkpt lat="44.20919" lon="6.26175">
        <ele>929.5</ele>
        <time>2021-09-18T10:39:27.540Z</time>
      </trkpt>
      <trkpt lat="44.20921" lon="6.26176">
        <ele>928.9</ele>
        <time>2021-09-18T10:39:28.059Z</time>
      </trkpt>
      <trkpt lat="44.2092" lon="6.26177">
        <ele>929.2</ele>
        <time>2021-09-18T10:39:34.022Z</time>
      </trkpt>
      <trkpt lat="44.20921" lon="6.26176">
        <ele>928.9</ele>
        <time>2021-09-18T10:39:34.323Z</time>
      </trkpt>
      <trkpt lat="44.20921" lon="6.26178">
        <ele>928.9</ele>
        <time>2021-09-18T10:39:36.124Z</time>
      </trkpt>
      <trkpt lat="44.2092" lon="6.2618">
        <ele>929.3</ele>
        <time>2021-09-18T10:39:44.596Z</time>
      </trkpt>
      <trkpt lat="44.20917" lon="6.26183">
        <ele>930.3</ele>
        <time>2021-09-18T10:40:02.484Z</time>
      </trkpt>
      <trkpt lat="44.20918" lon="6.2618">
        <ele>929.9</ele>
        <time>2021-09-18T10:40:03.064Z</time>
      </trkpt>
      <trkpt lat="44.20916" lon="6.2618">
        <ele>930.7</ele>
        <time>2021-09-18T10:40:12.757Z</time>
      </trkpt>
      <trkpt lat="44.20918" lon="6.26183">
        <ele>930</ele>
        <time>2021-09-18T10:40:13.475Z</time>
      </trkpt>
      <trkpt lat="44.20919" lon="6.26184">
        <ele>929.7</ele>
        <time>2021-09-18T10:40:13.775Z</time>
      </trkpt>
      <trkpt lat="44.20919" lon="6.26185">
        <ele>929.7</ele>
        <time>2021-09-18T10:40:14.676Z</time>
      </trkpt>
      <trkpt lat="44.20921" lon="6.26184">
        <ele>929</ele>
        <time>2021-09-18T10:40:15.195Z</time>
      </trkpt>
      <trkpt lat="44.20924" lon="6.26183">
        <ele>928</ele>
        <time>2021-09-18T10:40:15.949Z</time>
      </trkpt>
      <trkpt lat="44.20924" lon="6.26184">
        <ele>928</ele>
        <time>2021-09-18T10:40:16.850Z</time>
      </trkpt>
      <trkpt lat="44.20924" lon="6.26183">
        <ele>928</ele>
        <time>2021-09-18T10:40:17.750Z</time>
      </trkpt>
      <trkpt lat="44.20927" lon="6.26183">
        <ele>927.1</ele>
        <time>2021-09-18T10:40:18.484Z</time>
      </trkpt>
      <trkpt lat="44.20926" lon="6.26184">
        <ele>927.4</ele>
        <time>2021-09-18T10:40:24.447Z</time>
      </trkpt>
      <trkpt lat="44.20925" lon="6.26187">
        <ele>927.7</ele>
        <time>2021-09-18T10:40:34.893Z</time>
      </trkpt>
      <trkpt lat="44.20927" lon="6.2619">
        <ele>927.1</ele>
        <time>2021-09-18T10:40:35.611Z</time>
      </trkpt>
      <trkpt lat="44.20929" lon="6.26191">
        <ele>926.4</ele>
        <time>2021-09-18T10:40:36.130Z</time>
      </trkpt>
      <trkpt lat="44.2093" lon="6.26191">
        <ele>926.1</ele>
        <time>2021-09-18T10:40:36.375Z</time>
      </trkpt>
      <trkpt lat="44.20932" lon="6.26192">
        <ele>925.4</ele>
        <time>2021-09-18T10:40:36.894Z</time>
      </trkpt>
      <trkpt lat="44.20933" lon="6.26193">
        <ele>925.1</ele>
        <time>2021-09-18T10:40:37.195Z</time>
      </trkpt>
      <trkpt lat="44.20933" lon="6.26196">
        <ele>925</ele>
        <time>2021-09-18T10:40:37.763Z</time>
      </trkpt>
      <trkpt lat="44.20935" lon="6.26197">
        <ele>924.3</ele>
        <time>2021-09-18T10:40:38.282Z</time>
      </trkpt>
      <trkpt lat="44.20937" lon="6.262">
        <ele>923.6</ele>
        <time>2021-09-18T10:40:39.000Z</time>
      </trkpt>
      <trkpt lat="44.20938" lon="6.26199">
        <ele>923.2</ele>
        <time>2021-09-18T10:40:39.301Z</time>
      </trkpt>
      <trkpt lat="44.21001" lon="6.26134">
        <ele>916.6</ele>
        <time>2021-09-18T10:40:58.451Z</time>
      </trkpt>
      <trkpt lat="44.21001" lon="6.26132">
        <ele>917.2</ele>
        <time>2021-09-18T10:41:05.399Z</time>
      </trkpt>
      <trkpt lat="44.21002" lon="6.26129">
        <ele>918.1</ele>
        <time>2021-09-18T10:41:16.892Z</time>
      </trkpt>
      <trkpt lat="44.21002" lon="6.26127">
        <ele>918.8</ele>
        <time>2021-09-18T10:41:23.840Z</time>
      </trkpt>
      <trkpt lat="44.21002" lon="6.26124">
        <ele>919.7</ele>
        <time>2021-09-18T10:41:34.262Z</time>
      </trkpt>
      <trkpt lat="44.21003" lon="6.26123">
        <ele>920</ele>
        <time>2021-09-18T10:41:40.224Z</time>
      </trkpt>
      <trkpt lat="44.21004" lon="6.2612">
        <ele>920.9</ele>
        <time>2021-09-18T10:41:51.718Z</time>
      </trkpt>
      <trkpt lat="44.21005" lon="6.26119">
        <ele>921.1</ele>
        <time>2021-09-18T10:41:57.681Z</time>
      </trkpt>
      <trkpt lat="44.21005" lon="6.26116">
        <ele>922</ele>
        <time>2021-09-18T10:42:08.103Z</time>
      </trkpt>
      <trkpt lat="44.21006" lon="6.26114">
        <ele>922.5</ele>
        <time>2021-09-18T10:42:16.574Z</time>
      </trkpt>
      <trkpt lat="44.21008" lon="6.26113">
        <ele>922.7</ele>
        <time>2021-09-18T10:42:23.141Z</time>
      </trkpt>
      <trkpt lat="44.2101" lon="6.26112">
        <ele>922.8</ele>
        <time>2021-09-18T10:42:27.720Z</time>
      </trkpt>
      <trkpt lat="44.2101" lon="6.2611">
        <ele>923.4</ele>
        <time>2021-09-18T10:42:34.668Z</time>
      </trkpt>
      <trkpt lat="44.21011" lon="6.26109">
        <ele>923.5</ele>
        <time>2021-09-18T10:42:38.068Z</time>
      </trkpt>
      <trkpt lat="44.21013" lon="6.26108">
        <ele>923.6</ele>
        <time>2021-09-18T10:42:42.648Z</time>
      </trkpt>
      <trkpt lat="44.21014" lon="6.26107">
        <ele>923.8</ele>
        <time>2021-09-18T10:42:48.611Z</time>
      </trkpt>
      <trkpt lat="44.21015" lon="6.26106">
        <ele>924</ele>
        <time>2021-09-18T10:42:54.574Z</time>
      </trkpt>
      <trkpt lat="44.21017" lon="6.26103">
        <ele>924.5</ele>
        <time>2021-09-18T10:43:08.806Z</time>
      </trkpt>
      <trkpt lat="44.21018" lon="6.26102">
        <ele>924.7</ele>
        <time>2021-09-18T10:43:14.769Z</time>
      </trkpt>
      <trkpt lat="44.21018" lon="6.261">
        <ele>925.2</ele>
        <time>2021-09-18T10:43:21.717Z</time>
      </trkpt>
      <trkpt lat="44.21019" lon="6.26099">
        <ele>925.3</ele>
        <time>2021-09-18T10:43:25.117Z</time>
      </trkpt>
      <trkpt lat="44.21022" lon="6.26098">
        <ele>925.1</ele>
        <time>2021-09-18T10:43:25.817Z</time>
      </trkpt>
      <trkpt lat="44.21023" lon="6.26096">
        <ele>925.5</ele>
        <time>2021-09-18T10:43:34.288Z</time>
      </trkpt>
      <trkpt lat="44.21024" lon="6.26094">
        <ele>925.8</ele>
        <time>2021-09-18T10:43:42.759Z</time>
      </trkpt>
      <trkpt lat="44.21025" lon="6.26092">
        <ele>926.1</ele>
        <time>2021-09-18T10:43:51.230Z</time>
      </trkpt>
      <trkpt lat="44.21026" lon="6.2609">
        <ele>926.4</ele>
        <time>2021-09-18T10:43:59.701Z</time>
      </trkpt>
      <trkpt lat="44.21027" lon="6.26087">
        <ele>927</ele>
        <time>2021-09-18T10:44:11.195Z</time>
      </trkpt>
      <trkpt lat="44.21028" lon="6.26086">
        <ele>927</ele>
        <time>2021-09-18T10:44:12.741Z</time>
      </trkpt>
      <trkpt lat="44.21029" lon="6.26085">
        <ele>927.1</ele>
        <time>2021-09-18T10:44:16.141Z</time>
      </trkpt>
      <trkpt lat="44.2103" lon="6.26084">
        <ele>927.1</ele>
        <time>2021-09-18T10:44:17.687Z</time>
      </trkpt>
      <trkpt lat="44.21031" lon="6.26084">
        <ele>926.9</ele>
        <time>2021-09-18T10:44:17.931Z</time>
      </trkpt>
      <trkpt lat="44.21032" lon="6.26081">
        <ele>927.6</ele>
        <time>2021-09-18T10:44:29.425Z</time>
      </trkpt>
      <trkpt lat="44.21034" lon="6.26081">
        <ele>927.2</ele>
        <time>2021-09-18T10:44:29.913Z</time>
      </trkpt>
      <trkpt lat="44.21037" lon="6.26078">
        <ele>927.6</ele>
        <time>2021-09-18T10:44:43.045Z</time>
      </trkpt>
      <trkpt lat="44.21041" lon="6.26075">
        <ele>927.7</ele>
        <time>2021-09-18T10:44:50.193Z</time>
      </trkpt>
      <trkpt lat="44.21041" lon="6.26074">
        <ele>928</ele>
        <time>2021-09-18T10:44:53.667Z</time>
      </trkpt>
      <trkpt lat="44.21043" lon="6.26072">
        <ele>928.2</ele>
        <time>2021-09-18T10:45:00.466Z</time>
      </trkpt>
      <trkpt lat="44.21045" lon="6.26071">
        <ele>928.1</ele>
        <time>2021-09-18T10:45:01.025Z</time>
      </trkpt>
      <trkpt lat="44.21046" lon="6.26069">
        <ele>928.5</ele>
        <time>2021-09-18T10:45:09.496Z</time>
      </trkpt>
      <trkpt lat="44.21048" lon="6.26067">
        <ele>928.6</ele>
        <time>2021-09-18T10:45:14.421Z</time>
      </trkpt>
      <trkpt lat="44.21049" lon="6.26065">
        <ele>929</ele>
        <time>2021-09-18T10:45:22.893Z</time>
      </trkpt>
      <trkpt lat="44.2105" lon="6.26062">
        <ele>929.6</ele>
        <time>2021-09-18T10:45:34.386Z</time>
      </trkpt>
      <trkpt lat="44.21051" lon="6.26062">
        <ele>929.4</ele>
        <time>2021-09-18T10:45:34.630Z</time>
      </trkpt>
      <trkpt lat="44.21053" lon="6.26062">
        <ele>929</ele>
        <time>2021-09-18T10:45:35.119Z</time>
      </trkpt>
      <trkpt lat="44.21054" lon="6.2606">
        <ele>929.3</ele>
        <time>2021-09-18T10:45:43.590Z</time>
      </trkpt>
      <trkpt lat="44.21053" lon="6.26059">
        <ele>929.8</ele>
        <time>2021-09-18T10:45:49.553Z</time>
      </trkpt>
      <trkpt lat="44.21056" lon="6.26056">
        <ele>930</ele>
        <time>2021-09-18T10:45:57.891Z</time>
      </trkpt>
      <trkpt lat="44.21058" lon="6.26054">
        <ele>930.1</ele>
        <time>2021-09-18T10:46:02.816Z</time>
      </trkpt>
      <trkpt lat="44.21059" lon="6.26053">
        <ele>930.1</ele>
        <time>2021-09-18T10:46:04.362Z</time>
      </trkpt>
      <trkpt lat="44.2106" lon="6.26052">
        <ele>930.2</ele>
        <time>2021-09-18T10:46:07.762Z</time>
      </trkpt>
      <trkpt lat="44.21061" lon="6.2605">
        <ele>930.5</ele>
        <time>2021-09-18T10:46:16.233Z</time>
      </trkpt>
      <trkpt lat="44.21062" lon="6.26047">
        <ele>931</ele>
        <time>2021-09-18T10:46:27.727Z</time>
      </trkpt>
      <trkpt lat="44.21062" lon="6.26045">
        <ele>931.6</ele>
        <time>2021-09-18T10:46:34.674Z</time>
      </trkpt>
      <trkpt lat="44.21063" lon="6.26044">
        <ele>931.6</ele>
        <time>2021-09-18T10:46:36.220Z</time>
      </trkpt>
      <trkpt lat="44.21064" lon="6.26042">
        <ele>931.9</ele>
        <time>2021-09-18T10:46:44.691Z</time>
      </trkpt>
      <trkpt lat="44.21065" lon="6.2604">
        <ele>932.2</ele>
        <time>2021-09-18T10:46:53.163Z</time>
      </trkpt>
      <trkpt lat="44.21066" lon="6.26039">
        <ele>932.2</ele>
        <time>2021-09-18T10:46:54.708Z</time>
      </trkpt>
      <trkpt lat="44.21067" lon="6.26038">
        <ele>932.2</ele>
        <time>2021-09-18T10:46:56.254Z</time>
      </trkpt>
      <trkpt lat="44.21067" lon="6.26035">
        <ele>933</ele>
        <time>2021-09-18T10:47:06.676Z</time>
      </trkpt>
      <trkpt lat="44.21068" lon="6.26033">
        <ele>933.2</ele>
        <time>2021-09-18T10:47:13.321Z</time>
      </trkpt>
      <trkpt lat="44.21069" lon="6.26029">
        <ele>934</ele>
        <time>2021-09-18T10:47:28.038Z</time>
      </trkpt>
      <trkpt lat="44.2107" lon="6.26026">
        <ele>934.5</ele>
        <time>2021-09-18T10:47:39.531Z</time>
      </trkpt>
      <trkpt lat="44.2107" lon="6.26024">
        <ele>935.1</ele>
        <time>2021-09-18T10:47:46.479Z</time>
      </trkpt>
      <trkpt lat="44.2107" lon="6.26022">
        <ele>935.6</ele>
        <time>2021-09-18T10:47:53.426Z</time>
      </trkpt>
      <trkpt lat="44.2107" lon="6.26019">
        <ele>936.4</ele>
        <time>2021-09-18T10:48:03.848Z</time>
      </trkpt>
      <trkpt lat="44.21071" lon="6.26018">
        <ele>936.3</ele>
        <time>2021-09-18T10:48:04.149Z</time>
      </trkpt>
      <trkpt lat="44.21072" lon="6.26016">
        <ele>936.5</ele>
        <time>2021-09-18T10:48:10.794Z</time>
      </trkpt>
      <trkpt lat="44.21072" lon="6.26013">
        <ele>937.3</ele>
        <time>2021-09-18T10:48:21.215Z</time>
      </trkpt>
      <trkpt lat="44.21073" lon="6.26011">
        <ele>937.5</ele>
        <time>2021-09-18T10:48:27.861Z</time>
      </trkpt>
      <trkpt lat="44.21073" lon="6.26009">
        <ele>938</ele>
        <time>2021-09-18T10:48:34.808Z</time>
      </trkpt>
      <trkpt lat="44.21073" lon="6.26006">
        <ele>938.8</ele>
        <time>2021-09-18T10:48:45.230Z</time>
      </trkpt>
      <trkpt lat="44.21074" lon="6.26005">
        <ele>938.8</ele>
        <time>2021-09-18T10:48:46.776Z</time>
      </trkpt>
      <trkpt lat="44.21074" lon="6.26003">
        <ele>939.3</ele>
        <time>2021-09-18T10:48:53.724Z</time>
      </trkpt>
      <trkpt lat="44.21075" lon="6.26001">
        <ele>939.4</ele>
        <time>2021-09-18T10:48:57.754Z</time>
      </trkpt>
      <trkpt lat="44.21076" lon="6.25999">
        <ele>939.7</ele>
        <time>2021-09-18T10:49:06.225Z</time>
      </trkpt>
      <trkpt lat="44.21076" lon="6.25996">
        <ele>940.6</ele>
        <time>2021-09-18T10:49:16.647Z</time>
      </trkpt>
      <trkpt lat="44.21075" lon="6.25995">
        <ele>941.2</ele>
        <time>2021-09-18T10:49:22.610Z</time>
      </trkpt>
      <trkpt lat="44.21076" lon="6.25994">
        <ele>941.1</ele>
        <time>2021-09-18T10:49:22.911Z</time>
      </trkpt>
      <trkpt lat="44.21076" lon="6.25992">
        <ele>941.7</ele>
        <time>2021-09-18T10:49:29.858Z</time>
      </trkpt>
      <trkpt lat="44.21077" lon="6.25989">
        <ele>942.3</ele>
        <time>2021-09-18T10:49:41.352Z</time>
      </trkpt>
      <trkpt lat="44.21078" lon="6.25986">
        <ele>942.8</ele>
        <time>2021-09-18T10:49:52.845Z</time>
      </trkpt>
      <trkpt lat="44.21078" lon="6.25985">
        <ele>943.1</ele>
        <time>2021-09-18T10:49:56.319Z</time>
      </trkpt>
      <trkpt lat="44.21079" lon="6.25984">
        <ele>943.1</ele>
        <time>2021-09-18T10:49:57.865Z</time>
      </trkpt>
      <trkpt lat="44.21079" lon="6.25982">
        <ele>943.7</ele>
        <time>2021-09-18T10:50:04.812Z</time>
      </trkpt>
      <trkpt lat="44.21079" lon="6.2598">
        <ele>944.2</ele>
        <time>2021-09-18T10:50:11.760Z</time>
      </trkpt>
      <trkpt lat="44.2108" lon="6.25977">
        <ele>944.8</ele>
        <time>2021-09-18T10:50:23.253Z</time>
      </trkpt>
      <trkpt lat="44.21082" lon="6.25974">
        <ele>944.9</ele>
        <time>2021-09-18T10:50:28.616Z</time>
      </trkpt>
      <trkpt lat="44.21083" lon="6.25969">
        <ele>946</ele>
        <time>2021-09-18T10:50:46.649Z</time>
      </trkpt>
      <trkpt lat="44.21084" lon="6.25967">
        <ele>946.5</ele>
        <time>2021-09-18T10:50:55.120Z</time>
      </trkpt>
      <trkpt lat="44.21086" lon="6.25964">
        <ele>947.2</ele>
        <time>2021-09-18T10:51:09.352Z</time>
      </trkpt>
      <trkpt lat="44.21086" lon="6.25962">
        <ele>947.8</ele>
        <time>2021-09-18T10:51:16.300Z</time>
      </trkpt>
      <trkpt lat="44.21085" lon="6.25959">
        <ele>948.7</ele>
        <time>2021-09-18T10:51:27.793Z</time>
      </trkpt>
      <trkpt lat="44.21086" lon="6.25952">
        <ele>950.6</ele>
        <time>2021-09-18T10:51:52.588Z</time>
      </trkpt>
      <trkpt lat="44.21086" lon="6.2595">
        <ele>951.1</ele>
        <time>2021-09-18T10:51:59.536Z</time>
      </trkpt>
      <trkpt lat="44.21086" lon="6.25952">
        <ele>950.6</ele>
        <time>2021-09-18T10:51:59.886Z</time>
      </trkpt>
      <trkpt lat="44.21084" lon="6.25958">
        <ele>949</ele>
        <time>2021-09-18T10:52:01.046Z</time>
      </trkpt>
      <trkpt lat="44.21081" lon="6.25959">
        <ele>949.6</ele>
        <time>2021-09-18T10:52:15.994Z</time>
      </trkpt>
      <trkpt lat="44.21082" lon="6.25964">
        <ele>947.8</ele>
        <time>2021-09-18T10:52:16.904Z</time>
      </trkpt>
      <trkpt lat="44.2108" lon="6.25967">
        <ele>947.7</ele>
        <time>2021-09-18T10:52:17.777Z</time>
      </trkpt>
      <trkpt lat="44.21079" lon="6.25964">
        <ele>948.9</ele>
        <time>2021-09-18T10:52:29.270Z</time>
      </trkpt>
      <trkpt lat="44.21079" lon="6.25962">
        <ele>949.5</ele>
        <time>2021-09-18T10:52:36.218Z</time>
      </trkpt>
      <trkpt lat="44.2108" lon="6.2596">
        <ele>949.7</ele>
        <time>2021-09-18T10:52:42.863Z</time>
      </trkpt>
      <trkpt lat="44.2108" lon="6.25958">
        <ele>950.3</ele>
        <time>2021-09-18T10:52:49.811Z</time>
      </trkpt>
      <trkpt lat="44.2108" lon="6.25955">
        <ele>951.2</ele>
        <time>2021-09-18T10:53:00.233Z</time>
      </trkpt>
      <trkpt lat="44.2108" lon="6.25953">
        <ele>951.8</ele>
        <time>2021-09-18T10:53:07.180Z</time>
      </trkpt>
      <trkpt lat="44.21081" lon="6.2595">
        <ele>952.3</ele>
        <time>2021-09-18T10:53:18.674Z</time>
      </trkpt>
      <trkpt lat="44.21081" lon="6.25948">
        <ele>952.8</ele>
        <time>2021-09-18T10:53:25.621Z</time>
      </trkpt>
      <trkpt lat="44.21081" lon="6.25946">
        <ele>953.4</ele>
        <time>2021-09-18T10:53:32.569Z</time>
      </trkpt>
      <trkpt lat="44.21081" lon="6.25944">
        <ele>954</ele>
        <time>2021-09-18T10:53:39.517Z</time>
      </trkpt>
      <trkpt lat="44.21082" lon="6.25941">
        <ele>954.5</ele>
        <time>2021-09-18T10:53:51.010Z</time>
      </trkpt>
      <trkpt lat="44.21083" lon="6.25939">
        <ele>954.7</ele>
        <time>2021-09-18T10:53:57.655Z</time>
      </trkpt>
      <trkpt lat="44.21083" lon="6.25937">
        <ele>955.3</ele>
        <time>2021-09-18T10:54:04.603Z</time>
      </trkpt>
      <trkpt lat="44.21083" lon="6.25934">
        <ele>956.1</ele>
        <time>2021-09-18T10:54:15.025Z</time>
      </trkpt>
      <trkpt lat="44.21084" lon="6.25932">
        <ele>956.5</ele>
        <time>2021-09-18T10:54:23.496Z</time>
      </trkpt>
      <trkpt lat="44.21084" lon="6.25931">
        <ele>956.8</ele>
        <time>2021-09-18T10:54:26.970Z</time>
      </trkpt>
      <trkpt lat="44.21083" lon="6.25926">
        <ele>958.4</ele>
        <time>2021-09-18T10:54:45.002Z</time>
      </trkpt>
      <trkpt lat="44.21084" lon="6.25926">
        <ele>958.2</ele>
        <time>2021-09-18T10:54:45.247Z</time>
      </trkpt>
      <trkpt lat="44.21084" lon="6.25925">
        <ele>958.5</ele>
        <time>2021-09-18T10:54:48.720Z</time>
      </trkpt>
      <trkpt lat="44.21084" lon="6.25921">
        <ele>959.6</ele>
        <time>2021-09-18T10:55:02.616Z</time>
      </trkpt>
      <trkpt lat="44.21084" lon="6.25919">
        <ele>960.2</ele>
        <time>2021-09-18T10:55:09.564Z</time>
      </trkpt>
      <trkpt lat="44.21085" lon="6.25916">
        <ele>960.8</ele>
        <time>2021-09-18T10:55:21.057Z</time>
      </trkpt>
      <trkpt lat="44.21084" lon="6.25914">
        <ele>961.4</ele>
        <time>2021-09-18T10:55:29.528Z</time>
      </trkpt>
      <trkpt lat="44.21083" lon="6.25913">
        <ele>961.9</ele>
        <time>2021-09-18T10:55:35.491Z</time>
      </trkpt>
      <trkpt lat="44.21083" lon="6.25911">
        <ele>962.4</ele>
        <time>2021-09-18T10:55:42.439Z</time>
      </trkpt>
      <trkpt lat="44.21083" lon="6.2591">
        <ele>962.6</ele>
        <time>2021-09-18T10:55:45.912Z</time>
      </trkpt>
      <trkpt lat="44.21081" lon="6.25906">
        <ele>964.3</ele>
        <time>2021-09-18T10:56:02.855Z</time>
      </trkpt>
      <trkpt lat="44.21081" lon="6.25904">
        <ele>964.7</ele>
        <time>2021-09-18T10:56:09.802Z</time>
      </trkpt>
      <trkpt lat="44.2108" lon="6.25902">
        <ele>965.5</ele>
        <time>2021-09-18T10:56:18.273Z</time>
      </trkpt>
      <trkpt lat="44.21081" lon="6.25898">
        <ele>966</ele>
        <time>2021-09-18T10:56:32.990Z</time>
      </trkpt>
      <trkpt lat="44.21081" lon="6.25896">
        <ele>966.4</ele>
        <time>2021-09-18T10:56:39.937Z</time>
      </trkpt>
      <trkpt lat="44.21081" lon="6.25894">
        <ele>966.9</ele>
        <time>2021-09-18T10:56:46.885Z</time>
      </trkpt>
      <trkpt lat="44.2108" lon="6.25894">
        <ele>967.3</ele>
        <time>2021-09-18T10:56:51.731Z</time>
      </trkpt>
      <trkpt lat="44.21082" lon="6.25891">
        <ele>967.1</ele>
        <time>2021-09-18T10:56:52.449Z</time>
      </trkpt>
      <trkpt lat="44.21082" lon="6.25889">
        <ele>967.5</ele>
        <time>2021-09-18T10:56:59.397Z</time>
      </trkpt>
      <trkpt lat="44.21083" lon="6.25887">
        <ele>967.5</ele>
        <time>2021-09-18T10:57:01.593Z</time>
      </trkpt>
      <trkpt lat="44.21083" lon="6.25886">
        <ele>967.8</ele>
        <time>2021-09-18T10:57:05.067Z</time>
      </trkpt>
      <trkpt lat="44.21085" lon="6.25886">
        <ele>967.2</ele>
        <time>2021-09-18T10:57:05.556Z</time>
      </trkpt>
      <trkpt lat="44.21084" lon="6.25883">
        <ele>968.1</ele>
        <time>2021-09-18T10:57:17.049Z</time>
      </trkpt>
      <trkpt lat="44.21084" lon="6.2588">
        <ele>968.7</ele>
        <time>2021-09-18T10:57:27.471Z</time>
      </trkpt>
      <trkpt lat="44.21085" lon="6.25879">
        <ele>968.7</ele>
        <time>2021-09-18T10:57:29.017Z</time>
      </trkpt>
      <trkpt lat="44.21084" lon="6.25877">
        <ele>969.4</ele>
        <time>2021-09-18T10:57:37.488Z</time>
      </trkpt>
      <trkpt lat="44.21085" lon="6.25875">
        <ele>969.5</ele>
        <time>2021-09-18T10:57:41.518Z</time>
      </trkpt>
      <trkpt lat="44.21084" lon="6.25873">
        <ele>970.3</ele>
        <time>2021-09-18T10:57:49.989Z</time>
      </trkpt>
      <trkpt lat="44.21084" lon="6.25871">
        <ele>970.7</ele>
        <time>2021-09-18T10:57:56.937Z</time>
      </trkpt>
      <trkpt lat="44.21084" lon="6.25869">
        <ele>971.1</ele>
        <time>2021-09-18T10:58:03.885Z</time>
      </trkpt>
      <trkpt lat="44.21085" lon="6.25867">
        <ele>971.3</ele>
        <time>2021-09-18T10:58:10.530Z</time>
      </trkpt>
      <trkpt lat="44.21084" lon="6.25865">
        <ele>972</ele>
        <time>2021-09-18T10:58:19.001Z</time>
      </trkpt>
      <trkpt lat="44.21084" lon="6.25864">
        <ele>972.2</ele>
        <time>2021-09-18T10:58:22.475Z</time>
      </trkpt>
      <trkpt lat="44.21085" lon="6.25862">
        <ele>972.3</ele>
        <time>2021-09-18T10:58:26.506Z</time>
      </trkpt>
      <trkpt lat="44.21085" lon="6.2586">
        <ele>972.7</ele>
        <time>2021-09-18T10:58:33.453Z</time>
      </trkpt>
      <trkpt lat="44.21085" lon="6.25858">
        <ele>973.2</ele>
        <time>2021-09-18T10:58:40.401Z</time>
      </trkpt>
      <trkpt lat="44.21085" lon="6.25856">
        <ele>973.6</ele>
        <time>2021-09-18T10:58:47.349Z</time>
      </trkpt>
      <trkpt lat="44.21086" lon="6.25855">
        <ele>973.5</ele>
        <time>2021-09-18T10:58:47.649Z</time>
      </trkpt>
      <trkpt lat="44.21086" lon="6.25853">
        <ele>973.9</ele>
        <time>2021-09-18T10:58:54.597Z</time>
      </trkpt>
      <trkpt lat="44.21085" lon="6.25851">
        <ele>974.7</ele>
        <time>2021-09-18T10:59:03.068Z</time>
      </trkpt>
      <trkpt lat="44.21085" lon="6.25849">
        <ele>975.1</ele>
        <time>2021-09-18T10:59:10.016Z</time>
      </trkpt>
      <trkpt lat="44.21086" lon="6.25847">
        <ele>975.2</ele>
        <time>2021-09-18T10:59:14.046Z</time>
      </trkpt>
      <trkpt lat="44.21087" lon="6.25845">
        <ele>975.3</ele>
        <time>2021-09-18T10:59:18.077Z</time>
      </trkpt>
      <trkpt lat="44.21086" lon="6.25843">
        <ele>976</ele>
        <time>2021-09-18T10:59:26.548Z</time>
      </trkpt>
      <trkpt lat="44.21087" lon="6.2584">
        <ele>976.3</ele>
        <time>2021-09-18T10:59:36.995Z</time>
      </trkpt>
      <trkpt lat="44.21088" lon="6.25838">
        <ele>976.4</ele>
        <time>2021-09-18T10:59:41.026Z</time>
      </trkpt>
      <trkpt lat="44.21088" lon="6.25837">
        <ele>976.6</ele>
        <time>2021-09-18T10:59:44.499Z</time>
      </trkpt>
      <trkpt lat="44.2109" lon="6.25834">
        <ele>976.5</ele>
        <time>2021-09-18T10:59:45.373Z</time>
      </trkpt>
      <trkpt lat="44.21089" lon="6.25833">
        <ele>977.1</ele>
        <time>2021-09-18T10:59:51.336Z</time>
      </trkpt>
      <trkpt lat="44.21089" lon="6.25831">
        <ele>977.6</ele>
        <time>2021-09-18T10:59:58.283Z</time>
      </trkpt>
      <trkpt lat="44.21089" lon="6.2583">
        <ele>977.8</ele>
        <time>2021-09-18T11:00:01.757Z</time>
      </trkpt>
      <trkpt lat="44.2109" lon="6.25829">
        <ele>977.7</ele>
        <time>2021-09-18T11:00:02.058Z</time>
      </trkpt>
      <trkpt lat="44.21091" lon="6.25828">
        <ele>977.6</ele>
        <time>2021-09-18T11:00:02.359Z</time>
      </trkpt>
      <trkpt lat="44.21091" lon="6.25826">
        <ele>978.1</ele>
        <time>2021-09-18T11:00:09.306Z</time>
      </trkpt>
      <trkpt lat="44.21091" lon="6.25825">
        <ele>978.3</ele>
        <time>2021-09-18T11:00:12.780Z</time>
      </trkpt>
      <trkpt lat="44.2109" lon="6.25824">
        <ele>979</ele>
        <time>2021-09-18T11:00:18.743Z</time>
      </trkpt>
      <trkpt lat="44.2109" lon="6.25822">
        <ele>979.4</ele>
        <time>2021-09-18T11:00:25.691Z</time>
      </trkpt>
      <trkpt lat="44.21089" lon="6.2582">
        <ele>980.3</ele>
        <time>2021-09-18T11:00:34.162Z</time>
      </trkpt>
      <trkpt lat="44.21089" lon="6.25819">
        <ele>980.5</ele>
        <time>2021-09-18T11:00:37.636Z</time>
      </trkpt>
      <trkpt lat="44.21089" lon="6.25817">
        <ele>981</ele>
        <time>2021-09-18T11:00:44.583Z</time>
      </trkpt>
      <trkpt lat="44.2109" lon="6.25814">
        <ele>981.4</ele>
        <time>2021-09-18T11:00:56.077Z</time>
      </trkpt>
      <trkpt lat="44.2109" lon="6.25812">
        <ele>981.9</ele>
        <time>2021-09-18T11:01:03.024Z</time>
      </trkpt>
      <trkpt lat="44.21091" lon="6.2581">
        <ele>982</ele>
        <time>2021-09-18T11:01:07.055Z</time>
      </trkpt>
      <trkpt lat="44.21091" lon="6.25809">
        <ele>982.2</ele>
        <time>2021-09-18T11:01:10.529Z</time>
      </trkpt>
      <trkpt lat="44.21091" lon="6.25807">
        <ele>982.7</ele>
        <time>2021-09-18T11:01:17.477Z</time>
      </trkpt>
      <trkpt lat="44.21091" lon="6.25805">
        <ele>983.2</ele>
        <time>2021-09-18T11:01:24.424Z</time>
      </trkpt>
      <trkpt lat="44.21092" lon="6.25803">
        <ele>983.3</ele>
        <time>2021-09-18T11:01:28.455Z</time>
      </trkpt>
      <trkpt lat="44.21091" lon="6.25801">
        <ele>984.2</ele>
        <time>2021-09-18T11:01:36.926Z</time>
      </trkpt>
      <trkpt lat="44.2109" lon="6.25798">
        <ele>985.3</ele>
        <time>2021-09-18T11:01:48.419Z</time>
      </trkpt>
      <trkpt lat="44.21091" lon="6.25796">
        <ele>985.4</ele>
        <time>2021-09-18T11:01:52.450Z</time>
      </trkpt>
      <trkpt lat="44.21091" lon="6.25793">
        <ele>986.1</ele>
        <time>2021-09-18T11:02:02.871Z</time>
      </trkpt>
      <trkpt lat="44.2109" lon="6.2579">
        <ele>987.2</ele>
        <time>2021-09-18T11:02:14.365Z</time>
      </trkpt>
      <trkpt lat="44.21091" lon="6.25788">
        <ele>987.3</ele>
        <time>2021-09-18T11:02:18.395Z</time>
      </trkpt>
      <trkpt lat="44.21092" lon="6.25785">
        <ele>987.6</ele>
        <time>2021-09-18T11:02:28.842Z</time>
      </trkpt>
      <trkpt lat="44.21091" lon="6.25783">
        <ele>988.5</ele>
        <time>2021-09-18T11:02:37.313Z</time>
      </trkpt>
      <trkpt lat="44.21092" lon="6.25783">
        <ele>988.1</ele>
        <time>2021-09-18T11:02:37.558Z</time>
      </trkpt>
      <trkpt lat="44.21093" lon="6.25781">
        <ele>988.2</ele>
        <time>2021-09-18T11:02:41.588Z</time>
      </trkpt>
      <trkpt lat="44.21092" lon="6.25779">
        <ele>989.1</ele>
        <time>2021-09-18T11:02:50.059Z</time>
      </trkpt>
      <trkpt lat="44.21093" lon="6.25777">
        <ele>989.1</ele>
        <time>2021-09-18T11:02:52.256Z</time>
      </trkpt>
      <trkpt lat="44.21094" lon="6.25775">
        <ele>989.2</ele>
        <time>2021-09-18T11:02:56.286Z</time>
      </trkpt>
      <trkpt lat="44.21095" lon="6.25773">
        <ele>989.2</ele>
        <time>2021-09-18T11:02:58.482Z</time>
      </trkpt>
      <trkpt lat="44.21097" lon="6.25771">
        <ele>988.9</ele>
        <time>2021-09-18T11:02:59.084Z</time>
      </trkpt>
      <trkpt lat="44.21097" lon="6.25768">
        <ele>989.6</ele>
        <time>2021-09-18T11:03:09.505Z</time>
      </trkpt>
      <trkpt lat="44.21096" lon="6.25766">
        <ele>990.5</ele>
        <time>2021-09-18T11:03:17.976Z</time>
      </trkpt>
      <trkpt lat="44.21098" lon="6.25765">
        <ele>989.8</ele>
        <time>2021-09-18T11:03:18.496Z</time>
      </trkpt>
      <trkpt lat="44.21098" lon="6.25762">
        <ele>990.5</ele>
        <time>2021-09-18T11:03:28.917Z</time>
      </trkpt>
      <trkpt lat="44.21098" lon="6.2576">
        <ele>991</ele>
        <time>2021-09-18T11:03:35.865Z</time>
      </trkpt>
      <trkpt lat="44.21098" lon="6.25758">
        <ele>991.4</ele>
        <time>2021-09-18T11:03:42.812Z</time>
      </trkpt>
      <trkpt lat="44.21098" lon="6.25757">
        <ele>991.7</ele>
        <time>2021-09-18T11:03:46.286Z</time>
      </trkpt>
      <trkpt lat="44.21098" lon="6.25755">
        <ele>992.1</ele>
        <time>2021-09-18T11:03:53.234Z</time>
      </trkpt>
      <trkpt lat="44.21097" lon="6.25754">
        <ele>992.8</ele>
        <time>2021-09-18T11:03:59.197Z</time>
      </trkpt>
      <trkpt lat="44.21098" lon="6.25753">
        <ele>992.6</ele>
        <time>2021-09-18T11:03:59.498Z</time>
      </trkpt>
      <trkpt lat="44.21098" lon="6.25751">
        <ele>993.1</ele>
        <time>2021-09-18T11:04:06.445Z</time>
      </trkpt>
      <trkpt lat="44.211" lon="6.25749">
        <ele>992.6</ele>
        <time>2021-09-18T11:04:07.047Z</time>
      </trkpt>
      <trkpt lat="44.211" lon="6.25747">
        <ele>993.1</ele>
        <time>2021-09-18T11:04:13.994Z</time>
      </trkpt>
      <trkpt lat="44.21101" lon="6.25745">
        <ele>993.1</ele>
        <time>2021-09-18T11:04:16.191Z</time>
      </trkpt>
      <trkpt lat="44.211" lon="6.25744">
        <ele>993.8</ele>
        <time>2021-09-18T11:04:22.153Z</time>
      </trkpt>
      <trkpt lat="44.21101" lon="6.25743">
        <ele>993.5</ele>
        <time>2021-09-18T11:04:22.454Z</time>
      </trkpt>
      <trkpt lat="44.21101" lon="6.2574">
        <ele>994.2</ele>
        <time>2021-09-18T11:04:32.876Z</time>
      </trkpt>
      <trkpt lat="44.211" lon="6.25739">
        <ele>994.9</ele>
        <time>2021-09-18T11:04:38.838Z</time>
      </trkpt>
      <trkpt lat="44.21101" lon="6.25737">
        <ele>994.9</ele>
        <time>2021-09-18T11:04:41.035Z</time>
      </trkpt>
      <trkpt lat="44.21102" lon="6.25736">
        <ele>994.6</ele>
        <time>2021-09-18T11:04:41.335Z</time>
      </trkpt>
      <trkpt lat="44.21102" lon="6.25734">
        <ele>995.1</ele>
        <time>2021-09-18T11:04:48.283Z</time>
      </trkpt>
      <trkpt lat="44.21102" lon="6.25732">
        <ele>995.5</ele>
        <time>2021-09-18T11:04:55.231Z</time>
      </trkpt>
      <trkpt lat="44.21103" lon="6.2573">
        <ele>995.5</ele>
        <time>2021-09-18T11:04:57.427Z</time>
      </trkpt>
      <trkpt lat="44.21102" lon="6.25729">
        <ele>996.2</ele>
        <time>2021-09-18T11:05:03.390Z</time>
      </trkpt>
      <trkpt lat="44.21102" lon="6.25727">
        <ele>996.6</ele>
        <time>2021-09-18T11:05:10.337Z</time>
      </trkpt>
      <trkpt lat="44.21102" lon="6.25725">
        <ele>997.1</ele>
        <time>2021-09-18T11:05:17.285Z</time>
      </trkpt>
      <trkpt lat="44.21103" lon="6.25722">
        <ele>997.3</ele>
        <time>2021-09-18T11:05:24.008Z</time>
      </trkpt>
      <trkpt lat="44.21103" lon="6.25721">
        <ele>997.5</ele>
        <time>2021-09-18T11:05:27.482Z</time>
      </trkpt>
      <trkpt lat="44.21102" lon="6.25718">
        <ele>998.7</ele>
        <time>2021-09-18T11:05:38.975Z</time>
      </trkpt>
      <trkpt lat="44.21102" lon="6.25716">
        <ele>999.1</ele>
        <time>2021-09-18T11:05:45.923Z</time>
      </trkpt>
      <trkpt lat="44.21103" lon="6.25712">
        <ele>999.5</ele>
        <time>2021-09-18T11:06:00.285Z</time>
      </trkpt>
      <trkpt lat="44.21102" lon="6.25711">
        <ele>1000.2</ele>
        <time>2021-09-18T11:06:06.248Z</time>
      </trkpt>
      <trkpt lat="44.21102" lon="6.25709">
        <ele>1000.7</ele>
        <time>2021-09-18T11:06:13.196Z</time>
      </trkpt>
      <trkpt lat="44.21102" lon="6.25707">
        <ele>1001.1</ele>
        <time>2021-09-18T11:06:20.144Z</time>
      </trkpt>
      <trkpt lat="44.21101" lon="6.25706">
        <ele>1001.8</ele>
        <time>2021-09-18T11:06:26.106Z</time>
      </trkpt>
      <trkpt lat="44.21102" lon="6.25704">
        <ele>1001.8</ele>
        <time>2021-09-18T11:06:28.303Z</time>
      </trkpt>
      <trkpt lat="44.21102" lon="6.25703">
        <ele>1002</ele>
        <time>2021-09-18T11:06:31.777Z</time>
      </trkpt>
      <trkpt lat="44.21102" lon="6.25701">
        <ele>1002.5</ele>
        <time>2021-09-18T11:06:38.724Z</time>
      </trkpt>
      <trkpt lat="44.21102" lon="6.25698">
        <ele>1003.1</ele>
        <time>2021-09-18T11:06:49.146Z</time>
      </trkpt>
      <trkpt lat="44.211" lon="6.25694">
        <ele>1005</ele>
        <time>2021-09-18T11:07:06.088Z</time>
      </trkpt>
      <trkpt lat="44.21099" lon="6.25692">
        <ele>1006</ele>
        <time>2021-09-18T11:07:14.559Z</time>
      </trkpt>
      <trkpt lat="44.21096" lon="6.25693">
        <ele>1007.3</ele>
        <time>2021-09-18T11:07:29.507Z</time>
      </trkpt>
      <trkpt lat="44.21095" lon="6.25692">
        <ele>1008</ele>
        <time>2021-09-18T11:07:35.470Z</time>
      </trkpt>
      <trkpt lat="44.21093" lon="6.25692">
        <ele>1009</ele>
        <time>2021-09-18T11:07:45.163Z</time>
      </trkpt>
      <trkpt lat="44.21092" lon="6.25691">
        <ele>1009.8</ele>
        <time>2021-09-18T11:07:51.126Z</time>
      </trkpt>
      <trkpt lat="44.21092" lon="6.2569">
        <ele>1010</ele>
        <time>2021-09-18T11:07:54.600Z</time>
      </trkpt>
      <trkpt lat="44.21094" lon="6.25688">
        <ele>1009.4</ele>
        <time>2021-09-18T11:07:55.201Z</time>
      </trkpt>
      <trkpt lat="44.21093" lon="6.25686">
        <ele>1010.4</ele>
        <time>2021-09-18T11:08:03.672Z</time>
      </trkpt>
      <trkpt lat="44.21091" lon="6.25684">
        <ele>1011.9</ele>
        <time>2021-09-18T11:08:15.598Z</time>
      </trkpt>
      <trkpt lat="44.21089" lon="6.25683">
        <ele>1013.2</ele>
        <time>2021-09-18T11:08:25.895Z</time>
      </trkpt>
      <trkpt lat="44.21089" lon="6.2568">
        <ele>1013.9</ele>
        <time>2021-09-18T11:08:36.316Z</time>
      </trkpt>
      <trkpt lat="44.21089" lon="6.25678">
        <ele>1014.3</ele>
        <time>2021-09-18T11:08:43.264Z</time>
      </trkpt>
      <trkpt lat="44.21088" lon="6.25676">
        <ele>1015.3</ele>
        <time>2021-09-18T11:08:51.735Z</time>
      </trkpt>
      <trkpt lat="44.21088" lon="6.25674">
        <ele>1015.8</ele>
        <time>2021-09-18T11:08:58.683Z</time>
      </trkpt>
      <trkpt lat="44.21087" lon="6.25672">
        <ele>1016.8</ele>
        <time>2021-09-18T11:09:07.154Z</time>
      </trkpt>
      <trkpt lat="44.21088" lon="6.2567">
        <ele>1016.7</ele>
        <time>2021-09-18T11:09:07.575Z</time>
      </trkpt>
      <trkpt lat="44.21087" lon="6.25668">
        <ele>1017.7</ele>
        <time>2021-09-18T11:09:16.047Z</time>
      </trkpt>
      <trkpt lat="44.21088" lon="6.25667">
        <ele>1017.5</ele>
        <time>2021-09-18T11:09:16.347Z</time>
      </trkpt>
      <trkpt lat="44.21087" lon="6.25667">
        <ele>1018</ele>
        <time>2021-09-18T11:09:21.194Z</time>
      </trkpt>
      <trkpt lat="44.21086" lon="6.25667">
        <ele>1018.5</ele>
        <time>2021-09-18T11:09:26.040Z</time>
      </trkpt>
      <trkpt lat="44.21084" lon="6.25665">
        <ele>1020.1</ele>
        <time>2021-09-18T11:09:37.966Z</time>
      </trkpt>
      <trkpt lat="44.21083" lon="6.25663">
        <ele>1021.1</ele>
        <time>2021-09-18T11:09:46.437Z</time>
      </trkpt>
      <trkpt lat="44.21081" lon="6.25662">
        <ele>1022</ele>
        <time>2021-09-18T11:09:56.734Z</time>
      </trkpt>
      <trkpt lat="44.21083" lon="6.2566">
        <ele>1021.9</ele>
        <time>2021-09-18T11:09:57.420Z</time>
      </trkpt>
      <trkpt lat="44.21084" lon="6.25657">
        <ele>1022.3</ele>
        <time>2021-09-18T11:10:08.913Z</time>
      </trkpt>
      <trkpt lat="44.21084" lon="6.25655">
        <ele>1022.9</ele>
        <time>2021-09-18T11:10:15.861Z</time>
      </trkpt>
      <trkpt lat="44.21086" lon="6.25653">
        <ele>1022.3</ele>
        <time>2021-09-18T11:10:16.462Z</time>
      </trkpt>
      <trkpt lat="44.21087" lon="6.25652">
        <ele>1022</ele>
        <time>2021-09-18T11:10:16.763Z</time>
      </trkpt>
      <trkpt lat="44.21087" lon="6.2565">
        <ele>1022.6</ele>
        <time>2021-09-18T11:10:23.711Z</time>
      </trkpt>
      <trkpt lat="44.21088" lon="6.25649">
        <ele>1022.3</ele>
        <time>2021-09-18T11:10:24.011Z</time>
      </trkpt>
      <trkpt lat="44.21089" lon="6.25648">
        <ele>1022</ele>
        <time>2021-09-18T11:10:24.312Z</time>
      </trkpt>
      <trkpt lat="44.21089" lon="6.25644">
        <ele>1023.1</ele>
        <time>2021-09-18T11:10:38.208Z</time>
      </trkpt>
      <trkpt lat="44.21089" lon="6.25642">
        <ele>1023.6</ele>
        <time>2021-09-18T11:10:45.155Z</time>
      </trkpt>
      <trkpt lat="44.21088" lon="6.2564">
        <ele>1024.7</ele>
        <time>2021-09-18T11:10:53.626Z</time>
      </trkpt>
      <trkpt lat="44.21087" lon="6.25639">
        <ele>1025.6</ele>
        <time>2021-09-18T11:10:59.589Z</time>
      </trkpt>
      <trkpt lat="44.21087" lon="6.25636">
        <ele>1026.4</ele>
        <time>2021-09-18T11:11:10.011Z</time>
      </trkpt>
      <trkpt lat="44.21087" lon="6.25634">
        <ele>1026.9</ele>
        <time>2021-09-18T11:11:16.958Z</time>
      </trkpt>
      <trkpt lat="44.21088" lon="6.25632">
        <ele>1026.9</ele>
        <time>2021-09-18T11:11:19.155Z</time>
      </trkpt>
      <trkpt lat="44.21088" lon="6.25629">
        <ele>1027.7</ele>
        <time>2021-09-18T11:11:29.576Z</time>
      </trkpt>
      <trkpt lat="44.21088" lon="6.25628">
        <ele>1028</ele>
        <time>2021-09-18T11:11:33.050Z</time>
      </trkpt>
      <trkpt lat="44.21088" lon="6.25627">
        <ele>1028.2</ele>
        <time>2021-09-18T11:11:36.524Z</time>
      </trkpt>
      <trkpt lat="44.21088" lon="6.25624">
        <ele>1029.1</ele>
        <time>2021-09-18T11:11:46.945Z</time>
      </trkpt>
      <trkpt lat="44.21088" lon="6.25622">
        <ele>1029.6</ele>
        <time>2021-09-18T11:11:53.893Z</time>
      </trkpt>
      <trkpt lat="44.21088" lon="6.2562">
        <ele>1030.1</ele>
        <time>2021-09-18T11:12:00.841Z</time>
      </trkpt>
      <trkpt lat="44.21088" lon="6.25619">
        <ele>1030.4</ele>
        <time>2021-09-18T11:12:04.315Z</time>
      </trkpt>
      <trkpt lat="44.21088" lon="6.25617">
        <ele>1030.9</ele>
        <time>2021-09-18T11:12:11.262Z</time>
      </trkpt>
      <trkpt lat="44.21089" lon="6.25616">
        <ele>1030.6</ele>
        <time>2021-09-18T11:12:11.563Z</time>
      </trkpt>
      <trkpt lat="44.2109" lon="6.25614">
        <ele>1030.6</ele>
        <time>2021-09-18T11:12:13.759Z</time>
      </trkpt>
      <trkpt lat="44.21089" lon="6.25612">
        <ele>1031.7</ele>
        <time>2021-09-18T11:12:22.230Z</time>
      </trkpt>
      <trkpt lat="44.21087" lon="6.25611">
        <ele>1033.2</ele>
        <time>2021-09-18T11:12:32.527Z</time>
      </trkpt>
      <trkpt lat="44.21089" lon="6.2561">
        <ele>1032.2</ele>
        <time>2021-09-18T11:12:33.046Z</time>
      </trkpt>
      <trkpt lat="44.21088" lon="6.2561">
        <ele>1032.8</ele>
        <time>2021-09-18T11:12:37.893Z</time>
      </trkpt>
      <trkpt lat="44.21088" lon="6.25608">
        <ele>1033.4</ele>
        <time>2021-09-18T11:12:44.840Z</time>
      </trkpt>
      <trkpt lat="44.21089" lon="6.25607">
        <ele>1033</ele>
        <time>2021-09-18T11:12:45.141Z</time>
      </trkpt>
      <trkpt lat="44.2109" lon="6.25603">
        <ele>1033.5</ele>
        <time>2021-09-18T11:12:59.857Z</time>
      </trkpt>
      <trkpt lat="44.21091" lon="6.25602">
        <ele>1033.2</ele>
        <time>2021-09-18T11:13:00.158Z</time>
      </trkpt>
      <trkpt lat="44.21092" lon="6.25599">
        <ele>1033.3</ele>
        <time>2021-09-18T11:13:05.013Z</time>
      </trkpt>
      <trkpt lat="44.21093" lon="6.25598">
        <ele>1033</ele>
        <time>2021-09-18T11:13:05.314Z</time>
      </trkpt>
      <trkpt lat="44.21094" lon="6.25596">
        <ele>1032.9</ele>
        <time>2021-09-18T11:13:05.735Z</time>
      </trkpt>
      <trkpt lat="44.21095" lon="6.25594">
        <ele>1032.8</ele>
        <time>2021-09-18T11:13:06.157Z</time>
      </trkpt>
      <trkpt lat="44.21095" lon="6.25592">
        <ele>1033.3</ele>
        <time>2021-09-18T11:13:13.104Z</time>
      </trkpt>
      <trkpt lat="44.21097" lon="6.25592">
        <ele>1032.1</ele>
        <time>2021-09-18T11:13:13.593Z</time>
      </trkpt>
      <trkpt lat="44.21097" lon="6.2559">
        <ele>1032.6</ele>
        <time>2021-09-18T11:13:20.541Z</time>
      </trkpt>
      <trkpt lat="44.21097" lon="6.25589">
        <ele>1032.8</ele>
        <time>2021-09-18T11:13:24.015Z</time>
      </trkpt>
      <trkpt lat="44.21097" lon="6.25587">
        <ele>1033.4</ele>
        <time>2021-09-18T11:13:30.962Z</time>
      </trkpt>
      <trkpt lat="44.21097" lon="6.25586">
        <ele>1033.6</ele>
        <time>2021-09-18T11:13:34.436Z</time>
      </trkpt>
      <trkpt lat="44.21097" lon="6.25585">
        <ele>1033.9</ele>
        <time>2021-09-18T11:13:37.910Z</time>
      </trkpt>
      <trkpt lat="44.21098" lon="6.25583">
        <ele>1033.7</ele>
        <time>2021-09-18T11:13:38.337Z</time>
      </trkpt>
      <trkpt lat="44.21097" lon="6.25582">
        <ele>1034.5</ele>
        <time>2021-09-18T11:13:44.300Z</time>
      </trkpt>
      <trkpt lat="44.21098" lon="6.25579">
        <ele>1034.3</ele>
        <time>2021-09-18T11:13:44.880Z</time>
      </trkpt>
      <trkpt lat="44.21098" lon="6.25577">
        <ele>1034.6</ele>
        <time>2021-09-18T11:13:51.827Z</time>
      </trkpt>
      <trkpt lat="44.21097" lon="6.25575">
        <ele>1035.5</ele>
        <time>2021-09-18T11:14:00.298Z</time>
      </trkpt>
      <trkpt lat="44.21097" lon="6.25573">
        <ele>1035.8</ele>
        <time>2021-09-18T11:14:07.246Z</time>
      </trkpt>
      <trkpt lat="44.21096" lon="6.25573">
        <ele>1036.4</ele>
        <time>2021-09-18T11:14:12.093Z</time>
      </trkpt>
      <trkpt lat="44.21097" lon="6.25572">
        <ele>1035.9</ele>
        <time>2021-09-18T11:14:12.393Z</time>
      </trkpt>
      <trkpt lat="44.21098" lon="6.2557">
        <ele>1035.6</ele>
        <time>2021-09-18T11:14:12.821Z</time>
      </trkpt>
      <trkpt lat="44.21099" lon="6.25569">
        <ele>1035.1</ele>
        <time>2021-09-18T11:14:13.121Z</time>
      </trkpt>
      <trkpt lat="44.21099" lon="6.25568">
        <ele>1035.2</ele>
        <time>2021-09-18T11:14:16.595Z</time>
      </trkpt>
      <trkpt lat="44.21098" lon="6.25566">
        <ele>1036.2</ele>
        <time>2021-09-18T11:14:25.066Z</time>
      </trkpt>
      <trkpt lat="44.21098" lon="6.25565">
        <ele>1036.3</ele>
        <time>2021-09-18T11:14:28.540Z</time>
      </trkpt>
      <trkpt lat="44.21098" lon="6.25563">
        <ele>1036.6</ele>
        <time>2021-09-18T11:14:35.488Z</time>
      </trkpt>
      <trkpt lat="44.21097" lon="6.2556">
        <ele>1037.7</ele>
        <time>2021-09-18T11:14:46.981Z</time>
      </trkpt>
      <trkpt lat="44.21098" lon="6.25558">
        <ele>1037.3</ele>
        <time>2021-09-18T11:14:47.408Z</time>
      </trkpt>
      <trkpt lat="44.21098" lon="6.25556">
        <ele>1037.6</ele>
        <time>2021-09-18T11:14:54.356Z</time>
      </trkpt>
      <trkpt lat="44.21098" lon="6.25555">
        <ele>1037.8</ele>
        <time>2021-09-18T11:14:57.830Z</time>
      </trkpt>
      <trkpt lat="44.21098" lon="6.25554">
        <ele>1037.9</ele>
        <time>2021-09-18T11:15:01.303Z</time>
      </trkpt>
      <trkpt lat="44.21099" lon="6.25552">
        <ele>1037.5</ele>
        <time>2021-09-18T11:15:01.731Z</time>
      </trkpt>
      <trkpt lat="44.21099" lon="6.2555">
        <ele>1037.8</ele>
        <time>2021-09-18T11:15:08.678Z</time>
      </trkpt>
      <trkpt lat="44.211" lon="6.25548">
        <ele>1037.5</ele>
        <time>2021-09-18T11:15:09.106Z</time>
      </trkpt>
      <trkpt lat="44.211" lon="6.25545">
        <ele>1037.9</ele>
        <time>2021-09-18T11:15:19.527Z</time>
      </trkpt>
      <trkpt lat="44.211" lon="6.25544">
        <ele>1038.1</ele>
        <time>2021-09-18T11:15:23.001Z</time>
      </trkpt>
      <trkpt lat="44.21101" lon="6.25543">
        <ele>1037.6</ele>
        <time>2021-09-18T11:15:23.302Z</time>
      </trkpt>
      <trkpt lat="44.21101" lon="6.25541">
        <ele>1037.9</ele>
        <time>2021-09-18T11:15:30.249Z</time>
      </trkpt>
      <trkpt lat="44.21102" lon="6.25539">
        <ele>1037.5</ele>
        <time>2021-09-18T11:15:30.676Z</time>
      </trkpt>
      <trkpt lat="44.21103" lon="6.25537">
        <ele>1037.2</ele>
        <time>2021-09-18T11:15:31.104Z</time>
      </trkpt>
      <trkpt lat="44.21104" lon="6.25534">
        <ele>1037</ele>
        <time>2021-09-18T11:15:31.683Z</time>
      </trkpt>
      <trkpt lat="44.21104" lon="6.25532">
        <ele>1037.2</ele>
        <time>2021-09-18T11:15:38.631Z</time>
      </trkpt>
      <trkpt lat="44.21103" lon="6.25531">
        <ele>1038</ele>
        <time>2021-09-18T11:15:44.594Z</time>
      </trkpt>
      <trkpt lat="44.21103" lon="6.25528">
        <ele>1038.5</ele>
        <time>2021-09-18T11:15:55.015Z</time>
      </trkpt>
      <trkpt lat="44.21103" lon="6.25527">
        <ele>1038.6</ele>
        <time>2021-09-18T11:15:58.489Z</time>
      </trkpt>
      <trkpt lat="44.21102" lon="6.25525">
        <ele>1039.5</ele>
        <time>2021-09-18T11:16:06.960Z</time>
      </trkpt>
      <trkpt lat="44.21103" lon="6.25522">
        <ele>1039.3</ele>
        <time>2021-09-18T11:16:07.540Z</time>
      </trkpt>
      <trkpt lat="44.21104" lon="6.2552">
        <ele>1039</ele>
        <time>2021-09-18T11:16:07.967Z</time>
      </trkpt>
      <trkpt lat="44.21104" lon="6.25519">
        <ele>1039.1</ele>
        <time>2021-09-18T11:16:11.441Z</time>
      </trkpt>
      <trkpt lat="44.21105" lon="6.25518">
        <ele>1038.6</ele>
        <time>2021-09-18T11:16:11.741Z</time>
      </trkpt>
      <trkpt lat="44.21106" lon="6.25516">
        <ele>1038.3</ele>
        <time>2021-09-18T11:16:12.169Z</time>
      </trkpt>
      <trkpt lat="44.21106" lon="6.25515">
        <ele>1038.4</ele>
        <time>2021-09-18T11:16:15.642Z</time>
      </trkpt>
      <trkpt lat="44.21106" lon="6.25513">
        <ele>1038.7</ele>
        <time>2021-09-18T11:16:22.590Z</time>
      </trkpt>
      <trkpt lat="44.21106" lon="6.25511">
        <ele>1039</ele>
        <time>2021-09-18T11:16:29.538Z</time>
      </trkpt>
      <trkpt lat="44.21106" lon="6.25509">
        <ele>1039.3</ele>
        <time>2021-09-18T11:16:36.485Z</time>
      </trkpt>
      <trkpt lat="44.21107" lon="6.25508">
        <ele>1038.8</ele>
        <time>2021-09-18T11:16:36.786Z</time>
      </trkpt>
      <trkpt lat="44.21107" lon="6.25507">
        <ele>1038.9</ele>
        <time>2021-09-18T11:16:40.260Z</time>
      </trkpt>
      <trkpt lat="44.21107" lon="6.25504">
        <ele>1039.4</ele>
        <time>2021-09-18T11:16:50.682Z</time>
      </trkpt>
      <trkpt lat="44.21108" lon="6.25503">
        <ele>1038.9</ele>
        <time>2021-09-18T11:16:50.982Z</time>
      </trkpt>
      <trkpt lat="44.21109" lon="6.25501">
        <ele>1038.5</ele>
        <time>2021-09-18T11:16:51.409Z</time>
      </trkpt>
      <trkpt lat="44.21109" lon="6.255">
        <ele>1038.7</ele>
        <time>2021-09-18T11:16:54.883Z</time>
      </trkpt>
      <trkpt lat="44.21109" lon="6.25498">
        <ele>1038.9</ele>
        <time>2021-09-18T11:17:01.831Z</time>
      </trkpt>
      <trkpt lat="44.21108" lon="6.25497">
        <ele>1039.6</ele>
        <time>2021-09-18T11:17:07.794Z</time>
      </trkpt>
      <trkpt lat="44.21108" lon="6.25494">
        <ele>1039.9</ele>
        <time>2021-09-18T11:17:18.215Z</time>
      </trkpt>
      <trkpt lat="44.21108" lon="6.25493">
        <ele>1040</ele>
        <time>2021-09-18T11:17:21.689Z</time>
      </trkpt>
      <trkpt lat="44.21109" lon="6.25492">
        <ele>1039.5</ele>
        <time>2021-09-18T11:17:21.990Z</time>
      </trkpt>
      <trkpt lat="44.21109" lon="6.2549">
        <ele>1039.7</ele>
        <time>2021-09-18T11:17:28.937Z</time>
      </trkpt>
      <trkpt lat="44.2111" lon="6.25487">
        <ele>1039.4</ele>
        <time>2021-09-18T11:17:29.517Z</time>
      </trkpt>
      <trkpt lat="44.21111" lon="6.25486">
        <ele>1038.9</ele>
        <time>2021-09-18T11:17:29.818Z</time>
      </trkpt>
      <trkpt lat="44.21111" lon="6.25484">
        <ele>1039.1</ele>
        <time>2021-09-18T11:17:36.765Z</time>
      </trkpt>
      <trkpt lat="44.2111" lon="6.25483">
        <ele>1039.8</ele>
        <time>2021-09-18T11:17:42.728Z</time>
      </trkpt>
      <trkpt lat="44.2111" lon="6.2548">
        <ele>1040.1</ele>
        <time>2021-09-18T11:17:53.150Z</time>
      </trkpt>
      <trkpt lat="44.2111" lon="6.25478">
        <ele>1040.3</ele>
        <time>2021-09-18T11:18:00.097Z</time>
      </trkpt>
      <trkpt lat="44.21111" lon="6.25476">
        <ele>1039.9</ele>
        <time>2021-09-18T11:18:00.525Z</time>
      </trkpt>
      <trkpt lat="44.21111" lon="6.25474">
        <ele>1040.1</ele>
        <time>2021-09-18T11:18:07.472Z</time>
      </trkpt>
      <trkpt lat="44.21111" lon="6.25472">
        <ele>1040.3</ele>
        <time>2021-09-18T11:18:14.420Z</time>
      </trkpt>
      <trkpt lat="44.21111" lon="6.2547">
        <ele>1040.5</ele>
        <time>2021-09-18T11:18:21.368Z</time>
      </trkpt>
      <trkpt lat="44.21111" lon="6.25467">
        <ele>1040.8</ele>
        <time>2021-09-18T11:18:31.789Z</time>
      </trkpt>
      <trkpt lat="44.21111" lon="6.25466">
        <ele>1040.9</ele>
        <time>2021-09-18T11:18:35.263Z</time>
      </trkpt>
      <trkpt lat="44.21111" lon="6.25464">
        <ele>1041.1</ele>
        <time>2021-09-18T11:18:42.211Z</time>
      </trkpt>
      <trkpt lat="44.21111" lon="6.25462">
        <ele>1041.4</ele>
        <time>2021-09-18T11:18:49.158Z</time>
      </trkpt>
      <trkpt lat="44.21113" lon="6.25461">
        <ele>1040.2</ele>
        <time>2021-09-18T11:18:49.678Z</time>
      </trkpt>
      <trkpt lat="44.21113" lon="6.25458">
        <ele>1040.5</ele>
        <time>2021-09-18T11:19:00.099Z</time>
      </trkpt>
      <trkpt lat="44.21114" lon="6.25457">
        <ele>1040</ele>
        <time>2021-09-18T11:19:00.400Z</time>
      </trkpt>
      <trkpt lat="44.21114" lon="6.25455">
        <ele>1040.2</ele>
        <time>2021-09-18T11:19:07.347Z</time>
      </trkpt>
      <trkpt lat="44.21114" lon="6.25453">
        <ele>1040.4</ele>
        <time>2021-09-18T11:19:14.295Z</time>
      </trkpt>
      <trkpt lat="44.21114" lon="6.2545">
        <ele>1040.7</ele>
        <time>2021-09-18T11:19:24.717Z</time>
      </trkpt>
      <trkpt lat="44.21114" lon="6.25447">
        <ele>1041</ele>
        <time>2021-09-18T11:19:35.138Z</time>
      </trkpt>
      <trkpt lat="44.21115" lon="6.25445">
        <ele>1040.6</ele>
        <time>2021-09-18T11:19:35.565Z</time>
      </trkpt>
      <trkpt lat="44.21115" lon="6.25443">
        <ele>1040.9</ele>
        <time>2021-09-18T11:19:42.513Z</time>
      </trkpt>
      <trkpt lat="44.21114" lon="6.25442">
        <ele>1041.6</ele>
        <time>2021-09-18T11:19:48.476Z</time>
      </trkpt>
      <trkpt lat="44.21114" lon="6.2544">
        <ele>1041.8</ele>
        <time>2021-09-18T11:19:55.423Z</time>
      </trkpt>
      <trkpt lat="44.21114" lon="6.25438">
        <ele>1042</ele>
        <time>2021-09-18T11:20:02.371Z</time>
      </trkpt>
      <trkpt lat="44.21115" lon="6.25435">
        <ele>1041.7</ele>
        <time>2021-09-18T11:20:02.951Z</time>
      </trkpt>
      <trkpt lat="44.21116" lon="6.25432">
        <ele>1041.4</ele>
        <time>2021-09-18T11:20:03.530Z</time>
      </trkpt>
      <trkpt lat="44.21116" lon="6.2543">
        <ele>1041.6</ele>
        <time>2021-09-18T11:20:10.478Z</time>
      </trkpt>
      <trkpt lat="44.21116" lon="6.25429">
        <ele>1041.7</ele>
        <time>2021-09-18T11:20:13.952Z</time>
      </trkpt>
      <trkpt lat="44.21117" lon="6.25427">
        <ele>1041.3</ele>
        <time>2021-09-18T11:20:14.379Z</time>
      </trkpt>
      <trkpt lat="44.21117" lon="6.25424">
        <ele>1041.6</ele>
        <time>2021-09-18T11:20:24.800Z</time>
      </trkpt>
      <trkpt lat="44.21119" lon="6.25421">
        <ele>1040.7</ele>
        <time>2021-09-18T11:20:25.518Z</time>
      </trkpt>
      <trkpt lat="44.2112" lon="6.25418">
        <ele>1040.4</ele>
        <time>2021-09-18T11:20:26.098Z</time>
      </trkpt>
      <trkpt lat="44.2112" lon="6.25417">
        <ele>1040.5</ele>
        <time>2021-09-18T11:20:29.572Z</time>
      </trkpt>
      <trkpt lat="44.2112" lon="6.25415">
        <ele>1040.8</ele>
        <time>2021-09-18T11:20:36.519Z</time>
      </trkpt>
      <trkpt lat="44.21119" lon="6.25413">
        <ele>1041.7</ele>
        <time>2021-09-18T11:20:44.990Z</time>
      </trkpt>
      <trkpt lat="44.2112" lon="6.25411">
        <ele>1041.4</ele>
        <time>2021-09-18T11:20:45.417Z</time>
      </trkpt>
      <trkpt lat="44.2112" lon="6.25408">
        <ele>1041.8</ele>
        <time>2021-09-18T11:20:55.839Z</time>
      </trkpt>
      <trkpt lat="44.21119" lon="6.25406">
        <ele>1042.7</ele>
        <time>2021-09-18T11:21:04.310Z</time>
      </trkpt>
      <trkpt lat="44.21119" lon="6.25403">
        <ele>1043.1</ele>
        <time>2021-09-18T11:21:14.731Z</time>
      </trkpt>
      <trkpt lat="44.2112" lon="6.25401">
        <ele>1042.8</ele>
        <time>2021-09-18T11:21:15.159Z</time>
      </trkpt>
      <trkpt lat="44.2112" lon="6.25397">
        <ele>1043.4</ele>
        <time>2021-09-18T11:21:29.054Z</time>
      </trkpt>
      <trkpt lat="44.21121" lon="6.25396">
        <ele>1043</ele>
        <time>2021-09-18T11:21:29.355Z</time>
      </trkpt>
      <trkpt lat="44.2112" lon="6.25394">
        <ele>1043.8</ele>
        <time>2021-09-18T11:21:37.826Z</time>
      </trkpt>
      <trkpt lat="44.2112" lon="6.25391">
        <ele>1044.3</ele>
        <time>2021-09-18T11:21:48.247Z</time>
      </trkpt>
      <trkpt lat="44.21119" lon="6.25389">
        <ele>1045.2</ele>
        <time>2021-09-18T11:21:56.718Z</time>
      </trkpt>
      <trkpt lat="44.2112" lon="6.25385">
        <ele>1045.2</ele>
        <time>2021-09-18T11:22:00.533Z</time>
      </trkpt>
      <trkpt lat="44.21119" lon="6.25383">
        <ele>1046</ele>
        <time>2021-09-18T11:22:09.004Z</time>
      </trkpt>
      <trkpt lat="44.21118" lon="6.2538">
        <ele>1047</ele>
        <time>2021-09-18T11:22:20.498Z</time>
      </trkpt>
      <trkpt lat="44.21117" lon="6.25378">
        <ele>1047.9</ele>
        <time>2021-09-18T11:22:28.969Z</time>
      </trkpt>
      <trkpt lat="44.21116" lon="6.25375">
        <ele>1048.9</ele>
        <time>2021-09-18T11:22:40.462Z</time>
      </trkpt>
      <trkpt lat="44.21117" lon="6.25372">
        <ele>1048.7</ele>
        <time>2021-09-18T11:22:41.042Z</time>
      </trkpt>
      <trkpt lat="44.21118" lon="6.25369">
        <ele>1048.6</ele>
        <time>2021-09-18T11:22:41.694Z</time>
      </trkpt>
      <trkpt lat="44.21116" lon="6.25367">
        <ele>1050</ele>
        <time>2021-09-18T11:22:53.619Z</time>
      </trkpt>
      <trkpt lat="44.21116" lon="6.25366">
        <ele>1050.1</ele>
        <time>2021-09-18T11:22:57.093Z</time>
      </trkpt>
      <trkpt lat="44.21116" lon="6.25364">
        <ele>1050.4</ele>
        <time>2021-09-18T11:23:04.041Z</time>
      </trkpt>
      <trkpt lat="44.21116" lon="6.25363">
        <ele>1050.6</ele>
        <time>2021-09-18T11:23:07.515Z</time>
      </trkpt>
      <trkpt lat="44.21116" lon="6.2536">
        <ele>1051</ele>
        <time>2021-09-18T11:23:17.936Z</time>
      </trkpt>
      <trkpt lat="44.21116" lon="6.25359">
        <ele>1051.1</ele>
        <time>2021-09-18T11:23:21.410Z</time>
      </trkpt>
      <trkpt lat="44.21114" lon="6.25356">
        <ele>1052.7</ele>
        <time>2021-09-18T11:23:35.642Z</time>
      </trkpt>
      <trkpt lat="44.21115" lon="6.25353">
        <ele>1052.5</ele>
        <time>2021-09-18T11:23:36.222Z</time>
      </trkpt>
      <trkpt lat="44.21116" lon="6.25352">
        <ele>1052.1</ele>
        <time>2021-09-18T11:23:36.523Z</time>
      </trkpt>
      <trkpt lat="44.21114" lon="6.2535">
        <ele>1053.5</ele>
        <time>2021-09-18T11:23:48.448Z</time>
      </trkpt>
      <trkpt lat="44.21114" lon="6.25346">
        <ele>1054</ele>
        <time>2021-09-18T11:24:02.344Z</time>
      </trkpt>
      <trkpt lat="44.21114" lon="6.25344">
        <ele>1054.3</ele>
        <time>2021-09-18T11:24:09.291Z</time>
      </trkpt>
      <trkpt lat="44.21113" lon="6.25342">
        <ele>1055.1</ele>
        <time>2021-09-18T11:24:17.762Z</time>
      </trkpt>
      <trkpt lat="44.21113" lon="6.25339">
        <ele>1055.6</ele>
        <time>2021-09-18T11:24:28.184Z</time>
      </trkpt>
      <trkpt lat="44.21113" lon="6.25336">
        <ele>1056</ele>
        <time>2021-09-18T11:24:38.605Z</time>
      </trkpt>
      <trkpt lat="44.21113" lon="6.25333">
        <ele>1056.3</ele>
        <time>2021-09-18T11:24:49.027Z</time>
      </trkpt>
      <trkpt lat="44.21113" lon="6.25332">
        <ele>1056.4</ele>
        <time>2021-09-18T11:24:52.501Z</time>
      </trkpt>
      <trkpt lat="44.21113" lon="6.2533">
        <ele>1056.4</ele>
        <time>2021-09-18T11:24:54.302Z</time>
      </trkpt>
      <trkpt lat="44.21113" lon="6.25327">
        <ele>1056.5</ele>
        <time>2021-09-18T11:24:58.921Z</time>
      </trkpt>
      <trkpt lat="44.21112" lon="6.25324">
        <ele>1057.2</ele>
        <time>2021-09-18T11:25:10.414Z</time>
      </trkpt>
      <trkpt lat="44.21112" lon="6.25323">
        <ele>1057.2</ele>
        <time>2021-09-18T11:25:11.315Z</time>
      </trkpt>
      <trkpt lat="44.21112" lon="6.25322">
        <ele>1057.2</ele>
        <time>2021-09-18T11:25:12.215Z</time>
      </trkpt>
      <trkpt lat="44.21113" lon="6.2532">
        <ele>1056.7</ele>
        <time>2021-09-18T11:25:12.642Z</time>
      </trkpt>
      <trkpt lat="44.21113" lon="6.25318">
        <ele>1056.8</ele>
        <time>2021-09-18T11:25:16.260Z</time>
      </trkpt>
      <trkpt lat="44.21113" lon="6.25317">
        <ele>1056.8</ele>
        <time>2021-09-18T11:25:17.161Z</time>
      </trkpt>
      <trkpt lat="44.21112" lon="6.25313">
        <ele>1057.5</ele>
        <time>2021-09-18T11:25:31.877Z</time>
      </trkpt>
      <trkpt lat="44.21113" lon="6.25311">
        <ele>1057</ele>
        <time>2021-09-18T11:25:32.304Z</time>
      </trkpt>
      <trkpt lat="44.21113" lon="6.25309">
        <ele>1057.1</ele>
        <time>2021-09-18T11:25:35.922Z</time>
      </trkpt>
      <trkpt lat="44.21113" lon="6.25307">
        <ele>1057.2</ele>
        <time>2021-09-18T11:25:39.540Z</time>
      </trkpt>
      <trkpt lat="44.21113" lon="6.25306">
        <ele>1057.2</ele>
        <time>2021-09-18T11:25:40.441Z</time>
      </trkpt>
      <trkpt lat="44.21113" lon="6.25303">
        <ele>1057.3</ele>
        <time>2021-09-18T11:25:45.059Z</time>
      </trkpt>
      <trkpt lat="44.21113" lon="6.25301">
        <ele>1057.3</ele>
        <time>2021-09-18T11:25:46.861Z</time>
      </trkpt>
      <trkpt lat="44.21113" lon="6.25299">
        <ele>1057.4</ele>
        <time>2021-09-18T11:25:50.479Z</time>
      </trkpt>
      <trkpt lat="44.21113" lon="6.25296">
        <ele>1057.5</ele>
        <time>2021-09-18T11:25:55.097Z</time>
      </trkpt>
      <trkpt lat="44.21112" lon="6.25294">
        <ele>1058.1</ele>
        <time>2021-09-18T11:26:03.568Z</time>
      </trkpt>
      <trkpt lat="44.21113" lon="6.25292">
        <ele>1057.6</ele>
        <time>2021-09-18T11:26:03.995Z</time>
      </trkpt>
      <trkpt lat="44.21113" lon="6.2529">
        <ele>1057.7</ele>
        <time>2021-09-18T11:26:07.613Z</time>
      </trkpt>
      <trkpt lat="44.21113" lon="6.25286">
        <ele>1057.8</ele>
        <time>2021-09-18T11:26:12.907Z</time>
      </trkpt>
      <trkpt lat="44.21114" lon="6.25284">
        <ele>1057.3</ele>
        <time>2021-09-18T11:26:13.334Z</time>
      </trkpt>
      <trkpt lat="44.21113" lon="6.25282">
        <ele>1057.9</ele>
        <time>2021-09-18T11:26:21.805Z</time>
      </trkpt>
      <trkpt lat="44.21113" lon="6.25279">
        <ele>1058</ele>
        <time>2021-09-18T11:26:26.424Z</time>
      </trkpt>
      <trkpt lat="44.21114" lon="6.25276">
        <ele>1057.5</ele>
        <time>2021-09-18T11:26:27.003Z</time>
      </trkpt>
      <trkpt lat="44.21114" lon="6.25274">
        <ele>1057.6</ele>
        <time>2021-09-18T11:26:30.621Z</time>
      </trkpt>
      <trkpt lat="44.21115" lon="6.25271">
        <ele>1057.1</ele>
        <time>2021-09-18T11:26:31.201Z</time>
      </trkpt>
      <trkpt lat="44.21114" lon="6.2527">
        <ele>1057.7</ele>
        <time>2021-09-18T11:26:37.164Z</time>
      </trkpt>
      <trkpt lat="44.21114" lon="6.25269">
        <ele>1057.8</ele>
        <time>2021-09-18T11:26:40.638Z</time>
      </trkpt>
      <trkpt lat="44.21113" lon="6.25267">
        <ele>1058.4</ele>
        <time>2021-09-18T11:26:49.109Z</time>
      </trkpt>
      <trkpt lat="44.21113" lon="6.25266">
        <ele>1058.4</ele>
        <time>2021-09-18T11:26:50.009Z</time>
      </trkpt>
      <trkpt lat="44.21112" lon="6.25265">
        <ele>1059</ele>
        <time>2021-09-18T11:26:55.972Z</time>
      </trkpt>
      <trkpt lat="44.21111" lon="6.25265">
        <ele>1059.6</ele>
        <time>2021-09-18T11:27:00.819Z</time>
      </trkpt>
      <trkpt lat="44.2111" lon="6.25264">
        <ele>1060.2</ele>
        <time>2021-09-18T11:27:06.781Z</time>
      </trkpt>
      <trkpt lat="44.21109" lon="6.25261">
        <ele>1060.9</ele>
        <time>2021-09-18T11:27:18.275Z</time>
      </trkpt>
      <trkpt lat="44.21109" lon="6.2526">
        <ele>1060.9</ele>
        <time>2021-09-18T11:27:19.175Z</time>
      </trkpt>
      <trkpt lat="44.21109" lon="6.25257">
        <ele>1061</ele>
        <time>2021-09-18T11:27:23.794Z</time>
      </trkpt>
      <trkpt lat="44.21108" lon="6.25256">
        <ele>1061.6</ele>
        <time>2021-09-18T11:27:29.757Z</time>
      </trkpt>
      <trkpt lat="44.21108" lon="6.25255">
        <ele>1061.6</ele>
        <time>2021-09-18T11:27:30.657Z</time>
      </trkpt>
      <trkpt lat="44.21107" lon="6.25253">
        <ele>1062.3</ele>
        <time>2021-09-18T11:27:39.128Z</time>
      </trkpt>
      <trkpt lat="44.21107" lon="6.25251">
        <ele>1062.3</ele>
        <time>2021-09-18T11:27:40.930Z</time>
      </trkpt>
      <trkpt lat="44.21107" lon="6.25249">
        <ele>1062.5</ele>
        <time>2021-09-18T11:27:47.877Z</time>
      </trkpt>
      <trkpt lat="44.21106" lon="6.25248">
        <ele>1063.1</ele>
        <time>2021-09-18T11:27:53.840Z</time>
      </trkpt>
      <trkpt lat="44.21105" lon="6.25246">
        <ele>1063.9</ele>
        <time>2021-09-18T11:28:02.311Z</time>
      </trkpt>
      <trkpt lat="44.21105" lon="6.25244">
        <ele>1064.1</ele>
        <time>2021-09-18T11:28:09.259Z</time>
      </trkpt>
      <trkpt lat="44.21105" lon="6.25242">
        <ele>1064.3</ele>
        <time>2021-09-18T11:28:16.207Z</time>
      </trkpt>
      <trkpt lat="44.21104" lon="6.25239">
        <ele>1065.2</ele>
        <time>2021-09-18T11:28:27.700Z</time>
      </trkpt>
      <trkpt lat="44.21103" lon="6.25238">
        <ele>1065.8</ele>
        <time>2021-09-18T11:28:33.663Z</time>
      </trkpt>
      <trkpt lat="44.21102" lon="6.25235">
        <ele>1066.7</ele>
        <time>2021-09-18T11:28:45.156Z</time>
      </trkpt>
      <trkpt lat="44.21102" lon="6.25233">
        <ele>1066.9</ele>
        <time>2021-09-18T11:28:52.104Z</time>
      </trkpt>
      <trkpt lat="44.21101" lon="6.25231">
        <ele>1067.6</ele>
        <time>2021-09-18T11:29:00.575Z</time>
      </trkpt>
      <trkpt lat="44.211" lon="6.25229">
        <ele>1068.4</ele>
        <time>2021-09-18T11:29:09.046Z</time>
      </trkpt>
      <trkpt lat="44.21098" lon="6.25229">
        <ele>1069.6</ele>
        <time>2021-09-18T11:29:18.739Z</time>
      </trkpt>
      <trkpt lat="44.21097" lon="6.25227">
        <ele>1070.3</ele>
        <time>2021-09-18T11:29:27.210Z</time>
      </trkpt>
      <trkpt lat="44.21098" lon="6.25225">
        <ele>1070</ele>
        <time>2021-09-18T11:29:27.637Z</time>
      </trkpt>
      <trkpt lat="44.21098" lon="6.25224">
        <ele>1070</ele>
        <time>2021-09-18T11:29:28.538Z</time>
      </trkpt>
      <trkpt lat="44.21097" lon="6.25223">
        <ele>1070.7</ele>
        <time>2021-09-18T11:29:34.501Z</time>
      </trkpt>
      <trkpt lat="44.21096" lon="6.2522">
        <ele>1071.6</ele>
        <time>2021-09-18T11:29:45.994Z</time>
      </trkpt>
      <trkpt lat="44.21095" lon="6.25218">
        <ele>1072.4</ele>
        <time>2021-09-18T11:29:54.465Z</time>
      </trkpt>
      <trkpt lat="44.21095" lon="6.25216">
        <ele>1072.5</ele>
        <time>2021-09-18T11:29:58.083Z</time>
      </trkpt>
      <trkpt lat="44.21092" lon="6.25214">
        <ele>1074.5</ele>
        <time>2021-09-18T11:30:14.197Z</time>
      </trkpt>
      <trkpt lat="44.21092" lon="6.25213">
        <ele>1074.6</ele>
        <time>2021-09-18T11:30:17.671Z</time>
      </trkpt>
      <trkpt lat="44.21091" lon="6.25211">
        <ele>1075.3</ele>
        <time>2021-09-18T11:30:26.142Z</time>
      </trkpt>
      <trkpt lat="44.21091" lon="6.2521">
        <ele>1075.4</ele>
        <time>2021-09-18T11:30:29.616Z</time>
      </trkpt>
      <trkpt lat="44.21091" lon="6.25206">
        <ele>1075.8</ele>
        <time>2021-09-18T11:30:43.511Z</time>
      </trkpt>
      <trkpt lat="44.21091" lon="6.25204">
        <ele>1076</ele>
        <time>2021-09-18T11:30:50.459Z</time>
      </trkpt>
      <trkpt lat="44.21091" lon="6.25203">
        <ele>1076.1</ele>
        <time>2021-09-18T11:30:53.933Z</time>
      </trkpt>
      <trkpt lat="44.21091" lon="6.25201">
        <ele>1076.3</ele>
        <time>2021-09-18T11:31:00.880Z</time>
      </trkpt>
      <trkpt lat="44.2109" lon="6.25199">
        <ele>1077.1</ele>
        <time>2021-09-18T11:31:09.351Z</time>
      </trkpt>
      <trkpt lat="44.21089" lon="6.25197">
        <ele>1077.8</ele>
        <time>2021-09-18T11:31:17.822Z</time>
      </trkpt>
      <trkpt lat="44.21088" lon="6.25195">
        <ele>1078.6</ele>
        <time>2021-09-18T11:31:26.293Z</time>
      </trkpt>
      <trkpt lat="44.21089" lon="6.25193">
        <ele>1078.2</ele>
        <time>2021-09-18T11:31:26.721Z</time>
      </trkpt>
      <trkpt lat="44.21089" lon="6.25191">
        <ele>1078.4</ele>
        <time>2021-09-18T11:31:33.668Z</time>
      </trkpt>
      <trkpt lat="44.2109" lon="6.2519">
        <ele>1077.9</ele>
        <time>2021-09-18T11:31:33.969Z</time>
      </trkpt>
      <trkpt lat="44.2109" lon="6.25188">
        <ele>1078.1</ele>
        <time>2021-09-18T11:31:40.917Z</time>
      </trkpt>
      <trkpt lat="44.2109" lon="6.25184">
        <ele>1078.5</ele>
        <time>2021-09-18T11:31:54.812Z</time>
      </trkpt>
      <trkpt lat="44.21089" lon="6.25182">
        <ele>1079.3</ele>
        <time>2021-09-18T11:32:03.283Z</time>
      </trkpt>
      <trkpt lat="44.21088" lon="6.25181">
        <ele>1079.9</ele>
        <time>2021-09-18T11:32:09.246Z</time>
      </trkpt>
      <trkpt lat="44.21088" lon="6.25179">
        <ele>1080.1</ele>
        <time>2021-09-18T11:32:16.194Z</time>
      </trkpt>
      <trkpt lat="44.21088" lon="6.25178">
        <ele>1080.2</ele>
        <time>2021-09-18T11:32:19.668Z</time>
      </trkpt>
      <trkpt lat="44.21087" lon="6.25175">
        <ele>1081.1</ele>
        <time>2021-09-18T11:32:31.161Z</time>
      </trkpt>
      <trkpt lat="44.21088" lon="6.25173">
        <ele>1080.7</ele>
        <time>2021-09-18T11:32:31.588Z</time>
      </trkpt>
      <trkpt lat="44.21088" lon="6.25171">
        <ele>1080.9</ele>
        <time>2021-09-18T11:32:38.536Z</time>
      </trkpt>
      <trkpt lat="44.21087" lon="6.2517">
        <ele>1081.6</ele>
        <time>2021-09-18T11:32:44.499Z</time>
      </trkpt>
      <trkpt lat="44.21087" lon="6.25168">
        <ele>1081.8</ele>
        <time>2021-09-18T11:32:51.446Z</time>
      </trkpt>
      <trkpt lat="44.21087" lon="6.25167">
        <ele>1081.9</ele>
        <time>2021-09-18T11:32:54.920Z</time>
      </trkpt>
      <trkpt lat="44.21088" lon="6.25164">
        <ele>1081.5</ele>
        <time>2021-09-18T11:32:55.500Z</time>
      </trkpt>
      <trkpt lat="44.21088" lon="6.25161">
        <ele>1081.7</ele>
        <time>2021-09-18T11:33:02.078Z</time>
      </trkpt>
      <trkpt lat="44.21087" lon="6.2516">
        <ele>1082.3</ele>
        <time>2021-09-18T11:33:08.041Z</time>
      </trkpt>
      <trkpt lat="44.21086" lon="6.25159">
        <ele>1083</ele>
        <time>2021-09-18T11:33:14.004Z</time>
      </trkpt>
      <trkpt lat="44.21087" lon="6.25157">
        <ele>1082.5</ele>
        <time>2021-09-18T11:33:14.431Z</time>
      </trkpt>
      <trkpt lat="44.21088" lon="6.25155">
        <ele>1082.1</ele>
        <time>2021-09-18T11:33:14.858Z</time>
      </trkpt>
      <trkpt lat="44.21088" lon="6.25153">
        <ele>1082.2</ele>
        <time>2021-09-18T11:33:18.476Z</time>
      </trkpt>
      <trkpt lat="44.21088" lon="6.25152">
        <ele>1082.3</ele>
        <time>2021-09-18T11:33:21.950Z</time>
      </trkpt>
      <trkpt lat="44.21088" lon="6.25151">
        <ele>1082.3</ele>
        <time>2021-09-18T11:33:22.850Z</time>
      </trkpt>
      <trkpt lat="44.21089" lon="6.25148">
        <ele>1082</ele>
        <time>2021-09-18T11:33:23.430Z</time>
      </trkpt>
      <trkpt lat="44.21091" lon="6.25146">
        <ele>1081</ele>
        <time>2021-09-18T11:33:24.031Z</time>
      </trkpt>
      <trkpt lat="44.21091" lon="6.25144">
        <ele>1081.2</ele>
        <time>2021-09-18T11:33:30.979Z</time>
      </trkpt>
      <trkpt lat="44.21092" lon="6.25142">
        <ele>1080.8</ele>
        <time>2021-09-18T11:33:31.406Z</time>
      </trkpt>
      <trkpt lat="44.21092" lon="6.25138">
        <ele>1081</ele>
        <time>2021-09-18T11:33:38.642Z</time>
      </trkpt>
      <trkpt lat="44.21093" lon="6.25137">
        <ele>1080.6</ele>
        <time>2021-09-18T11:33:38.943Z</time>
      </trkpt>
      <trkpt lat="44.21095" lon="6.25136">
        <ele>1079.6</ele>
        <time>2021-09-18T11:33:39.462Z</time>
      </trkpt>
      <trkpt lat="44.21095" lon="6.25134">
        <ele>1079.7</ele>
        <time>2021-09-18T11:33:43.080Z</time>
      </trkpt>
      <trkpt lat="44.21095" lon="6.25132">
        <ele>1079.9</ele>
        <time>2021-09-18T11:33:50.028Z</time>
      </trkpt>
      <trkpt lat="44.21096" lon="6.25131">
        <ele>1079.4</ele>
        <time>2021-09-18T11:33:50.328Z</time>
      </trkpt>
      <trkpt lat="44.21097" lon="6.2513">
        <ele>1079</ele>
        <time>2021-09-18T11:33:50.629Z</time>
      </trkpt>
      <trkpt lat="44.21096" lon="6.25128">
        <ele>1079.7</ele>
        <time>2021-09-18T11:33:59.100Z</time>
      </trkpt>
      <trkpt lat="44.21095" lon="6.25126">
        <ele>1080.3</ele>
        <time>2021-09-18T11:34:07.571Z</time>
      </trkpt>
      <trkpt lat="44.21095" lon="6.25124">
        <ele>1080.5</ele>
        <time>2021-09-18T11:34:14.519Z</time>
      </trkpt>
      <trkpt lat="44.21095" lon="6.25123">
        <ele>1080.6</ele>
        <time>2021-09-18T11:34:17.993Z</time>
      </trkpt>
      <trkpt lat="44.21096" lon="6.25121">
        <ele>1080.2</ele>
        <time>2021-09-18T11:34:18.420Z</time>
      </trkpt>
      <trkpt lat="44.21096" lon="6.25119">
        <ele>1080.3</ele>
        <time>2021-09-18T11:34:22.038Z</time>
      </trkpt>
      <trkpt lat="44.21096" lon="6.25116">
        <ele>1080.6</ele>
        <time>2021-09-18T11:34:32.459Z</time>
      </trkpt>
      <trkpt lat="44.21094" lon="6.25114">
        <ele>1081.7</ele>
        <time>2021-09-18T11:34:44.385Z</time>
      </trkpt>
      <trkpt lat="44.21094" lon="6.25112">
        <ele>1081.9</ele>
        <time>2021-09-18T11:34:51.333Z</time>
      </trkpt>
      <trkpt lat="44.21095" lon="6.2511">
        <ele>1081.5</ele>
        <time>2021-09-18T11:34:51.760Z</time>
      </trkpt>
      <trkpt lat="44.21096" lon="6.25107">
        <ele>1081.3</ele>
        <time>2021-09-18T11:34:52.339Z</time>
      </trkpt>
      <trkpt lat="44.21098" lon="6.25105">
        <ele>1080.4</ele>
        <time>2021-09-18T11:34:52.941Z</time>
      </trkpt>
      <trkpt lat="44.21099" lon="6.25103">
        <ele>1080.1</ele>
        <time>2021-09-18T11:34:53.368Z</time>
      </trkpt>
      <trkpt lat="44.21099" lon="6.25101">
        <ele>1080.2</ele>
        <time>2021-09-18T11:34:56.986Z</time>
      </trkpt>
      <trkpt lat="44.211" lon="6.25098">
        <ele>1080</ele>
        <time>2021-09-18T11:34:57.566Z</time>
      </trkpt>
      <trkpt lat="44.21102" lon="6.25096">
        <ele>1079.2</ele>
        <time>2021-09-18T11:34:58.167Z</time>
      </trkpt>
      <trkpt lat="44.21102" lon="6.25094">
        <ele>1079.4</ele>
        <time>2021-09-18T11:35:05.115Z</time>
      </trkpt>
      <trkpt lat="44.21102" lon="6.25092">
        <ele>1079.5</ele>
        <time>2021-09-18T11:35:08.733Z</time>
      </trkpt>
      <trkpt lat="44.21104" lon="6.25089">
        <ele>1078.8</ele>
        <time>2021-09-18T11:35:09.450Z</time>
      </trkpt>
      <trkpt lat="44.21104" lon="6.25087">
        <ele>1079</ele>
        <time>2021-09-18T11:35:16.398Z</time>
      </trkpt>
      <trkpt lat="44.21104" lon="6.25084">
        <ele>1079.3</ele>
        <time>2021-09-18T11:35:26.819Z</time>
      </trkpt>
      <trkpt lat="44.21104" lon="6.25082">
        <ele>1079.5</ele>
        <time>2021-09-18T11:35:33.767Z</time>
      </trkpt>
      <trkpt lat="44.21103" lon="6.2508">
        <ele>1080.1</ele>
        <time>2021-09-18T11:35:42.238Z</time>
      </trkpt>
      <trkpt lat="44.21102" lon="6.25076">
        <ele>1081</ele>
        <time>2021-09-18T11:35:56.954Z</time>
      </trkpt>
      <trkpt lat="44.21101" lon="6.25074">
        <ele>1081.7</ele>
        <time>2021-09-18T11:36:05.425Z</time>
      </trkpt>
      <trkpt lat="44.211" lon="6.25072">
        <ele>1082.3</ele>
        <time>2021-09-18T11:36:13.897Z</time>
      </trkpt>
      <trkpt lat="44.211" lon="6.2507">
        <ele>1082.5</ele>
        <time>2021-09-18T11:36:20.844Z</time>
      </trkpt>
      <trkpt lat="44.211" lon="6.25068">
        <ele>1082.7</ele>
        <time>2021-09-18T11:36:27.792Z</time>
      </trkpt>
      <trkpt lat="44.21101" lon="6.25066">
        <ele>1082.5</ele>
        <time>2021-09-18T11:36:28.219Z</time>
      </trkpt>
      <trkpt lat="44.21103" lon="6.25063">
        <ele>1081.9</ele>
        <time>2021-09-18T11:36:28.937Z</time>
      </trkpt>
      <trkpt lat="44.21104" lon="6.25061">
        <ele>1081.6</ele>
        <time>2021-09-18T11:36:29.364Z</time>
      </trkpt>
      <trkpt lat="44.21104" lon="6.25059">
        <ele>1081.8</ele>
        <time>2021-09-18T11:36:36.312Z</time>
      </trkpt>
      <trkpt lat="44.21104" lon="6.25054">
        <ele>1082.3</ele>
        <time>2021-09-18T11:36:53.681Z</time>
      </trkpt>
      <trkpt lat="44.21105" lon="6.25052">
        <ele>1082.1</ele>
        <time>2021-09-18T11:36:54.108Z</time>
      </trkpt>
      <trkpt lat="44.21105" lon="6.25049">
        <ele>1082.4</ele>
        <time>2021-09-18T11:37:04.529Z</time>
      </trkpt>
      <trkpt lat="44.21106" lon="6.25046">
        <ele>1082.3</ele>
        <time>2021-09-18T11:37:05.182Z</time>
      </trkpt>
      <trkpt lat="44.21106" lon="6.25045">
        <ele>1082.4</ele>
        <time>2021-09-18T11:37:08.655Z</time>
      </trkpt>
      <trkpt lat="44.21106" lon="6.25042">
        <ele>1082.7</ele>
        <time>2021-09-18T11:37:19.077Z</time>
      </trkpt>
      <trkpt lat="44.21106" lon="6.25041">
        <ele>1082.8</ele>
        <time>2021-09-18T11:37:22.551Z</time>
      </trkpt>
      <trkpt lat="44.21106" lon="6.25039">
        <ele>1083</ele>
        <time>2021-09-18T11:37:29.498Z</time>
      </trkpt>
      <trkpt lat="44.21107" lon="6.25037">
        <ele>1082.8</ele>
        <time>2021-09-18T11:37:29.926Z</time>
      </trkpt>
      <trkpt lat="44.21109" lon="6.25034">
        <ele>1082.2</ele>
        <time>2021-09-18T11:37:30.643Z</time>
      </trkpt>
      <trkpt lat="44.2111" lon="6.25031">
        <ele>1082.1</ele>
        <time>2021-09-18T11:37:31.295Z</time>
      </trkpt>
      <trkpt lat="44.2111" lon="6.25028">
        <ele>1082.4</ele>
        <time>2021-09-18T11:37:41.717Z</time>
      </trkpt>
      <trkpt lat="44.21111" lon="6.25027">
        <ele>1082.1</ele>
        <time>2021-09-18T11:37:42.018Z</time>
      </trkpt>
      <trkpt lat="44.2111" lon="6.25024">
        <ele>1082.9</ele>
        <time>2021-09-18T11:37:53.511Z</time>
      </trkpt>
      <trkpt lat="44.2111" lon="6.25023">
        <ele>1083</ele>
        <time>2021-09-18T11:37:56.985Z</time>
      </trkpt>
      <trkpt lat="44.21111" lon="6.25019">
        <ele>1083</ele>
        <time>2021-09-18T11:38:00.800Z</time>
      </trkpt>
      <trkpt lat="44.2111" lon="6.25016">
        <ele>1083.7</ele>
        <time>2021-09-18T11:38:12.293Z</time>
      </trkpt>
      <trkpt lat="44.21111" lon="6.25014">
        <ele>1083.5</ele>
        <time>2021-09-18T11:38:12.720Z</time>
      </trkpt>
      <trkpt lat="44.21111" lon="6.25011">
        <ele>1083.9</ele>
        <time>2021-09-18T11:38:23.142Z</time>
      </trkpt>
      <trkpt lat="44.21112" lon="6.25009">
        <ele>1083.7</ele>
        <time>2021-09-18T11:38:23.569Z</time>
      </trkpt>
      <trkpt lat="44.21113" lon="6.25006">
        <ele>1083.6</ele>
        <time>2021-09-18T11:38:24.221Z</time>
      </trkpt>
      <trkpt lat="44.21113" lon="6.25004">
        <ele>1083.8</ele>
        <time>2021-09-18T11:38:31.169Z</time>
      </trkpt>
      <trkpt lat="44.21113" lon="6.25001">
        <ele>1084.1</ele>
        <time>2021-09-18T11:38:41.590Z</time>
      </trkpt>
      <trkpt lat="44.21114" lon="6.24999">
        <ele>1084</ele>
        <time>2021-09-18T11:38:42.012Z</time>
      </trkpt>
      <trkpt lat="44.21116" lon="6.24998">
        <ele>1083.3</ele>
        <time>2021-09-18T11:38:42.531Z</time>
      </trkpt>
      <trkpt lat="44.21116" lon="6.24997">
        <ele>1083.4</ele>
        <time>2021-09-18T11:38:46.005Z</time>
      </trkpt>
      <trkpt lat="44.21117" lon="6.24995">
        <ele>1083.2</ele>
        <time>2021-09-18T11:38:46.432Z</time>
      </trkpt>
      <trkpt lat="44.21119" lon="6.24992">
        <ele>1082.7</ele>
        <time>2021-09-18T11:38:47.150Z</time>
      </trkpt>
      <trkpt lat="44.2112" lon="6.2499">
        <ele>1082.5</ele>
        <time>2021-09-18T11:38:47.577Z</time>
      </trkpt>
      <trkpt lat="44.21119" lon="6.24988">
        <ele>1083.1</ele>
        <time>2021-09-18T11:38:56.048Z</time>
      </trkpt>
      <trkpt lat="44.21119" lon="6.24987">
        <ele>1083.2</ele>
        <time>2021-09-18T11:38:59.522Z</time>
      </trkpt>
      <trkpt lat="44.2112" lon="6.24985">
        <ele>1083</ele>
        <time>2021-09-18T11:38:59.949Z</time>
      </trkpt>
      <trkpt lat="44.21119" lon="6.24982">
        <ele>1083.7</ele>
        <time>2021-09-18T11:39:11.442Z</time>
      </trkpt>
      <trkpt lat="44.21119" lon="6.24981">
        <ele>1083.8</ele>
        <time>2021-09-18T11:39:14.916Z</time>
      </trkpt>
      <trkpt lat="44.21119" lon="6.2498">
        <ele>1083.9</ele>
        <time>2021-09-18T11:39:18.390Z</time>
      </trkpt>
      <trkpt lat="44.21118" lon="6.24978">
        <ele>1084.4</ele>
        <time>2021-09-18T11:39:26.861Z</time>
      </trkpt>
      <trkpt lat="44.21117" lon="6.24976">
        <ele>1085</ele>
        <time>2021-09-18T11:39:35.332Z</time>
      </trkpt>
      <trkpt lat="44.21116" lon="6.24976">
        <ele>1085.4</ele>
        <time>2021-09-18T11:39:40.178Z</time>
      </trkpt>
      <trkpt lat="44.21115" lon="6.24974">
        <ele>1086</ele>
        <time>2021-09-18T11:39:48.650Z</time>
      </trkpt>
      <trkpt lat="44.21114" lon="6.24972">
        <ele>1086.6</ele>
        <time>2021-09-18T11:39:57.121Z</time>
      </trkpt>
      <trkpt lat="44.21113" lon="6.24971">
        <ele>1087.1</ele>
        <time>2021-09-18T11:40:03.083Z</time>
      </trkpt>
      <trkpt lat="44.21112" lon="6.24971">
        <ele>1087.4</ele>
        <time>2021-09-18T11:40:07.930Z</time>
      </trkpt>
      <trkpt lat="44.21111" lon="6.24971">
        <ele>1087.8</ele>
        <time>2021-09-18T11:40:12.776Z</time>
      </trkpt>
      <trkpt lat="44.21109" lon="6.2497">
        <ele>1088.7</ele>
        <time>2021-09-18T11:40:23.073Z</time>
      </trkpt>
      <trkpt lat="44.21107" lon="6.24969">
        <ele>1089.6</ele>
        <time>2021-09-18T11:40:33.370Z</time>
      </trkpt>
      <trkpt lat="44.21108" lon="6.24968">
        <ele>1089.3</ele>
        <time>2021-09-18T11:40:33.670Z</time>
      </trkpt>
      <trkpt lat="44.21107" lon="6.24967">
        <ele>1089.7</ele>
        <time>2021-09-18T11:40:39.633Z</time>
      </trkpt>
      <trkpt lat="44.21106" lon="6.24966">
        <ele>1090.2</ele>
        <time>2021-09-18T11:40:45.596Z</time>
      </trkpt>
      <trkpt lat="44.21105" lon="6.24964">
        <ele>1090.8</ele>
        <time>2021-09-18T11:40:54.067Z</time>
      </trkpt>
      <trkpt lat="44.21104" lon="6.24964">
        <ele>1091.2</ele>
        <time>2021-09-18T11:40:58.914Z</time>
      </trkpt>
      <trkpt lat="44.21103" lon="6.24961">
        <ele>1091.8</ele>
        <time>2021-09-18T11:41:10.407Z</time>
      </trkpt>
      <trkpt lat="44.21101" lon="6.24961">
        <ele>1092.6</ele>
        <time>2021-09-18T11:41:20.100Z</time>
      </trkpt>
      <trkpt lat="44.211" lon="6.24958">
        <ele>1093.2</ele>
        <time>2021-09-18T11:41:31.593Z</time>
      </trkpt>
      <trkpt lat="44.21098" lon="6.24958">
        <ele>1094</ele>
        <time>2021-09-18T11:41:41.286Z</time>
      </trkpt>
      <trkpt lat="44.21098" lon="6.24955">
        <ele>1094.3</ele>
        <time>2021-09-18T11:41:51.708Z</time>
      </trkpt>
      <trkpt lat="44.21098" lon="6.24953">
        <ele>1094.4</ele>
        <time>2021-09-18T11:41:55.326Z</time>
      </trkpt>
      <trkpt lat="44.21099" lon="6.2495">
        <ele>1094.3</ele>
        <time>2021-09-18T11:41:55.978Z</time>
      </trkpt>
      <trkpt lat="44.21101" lon="6.24946">
        <ele>1094</ele>
        <time>2021-09-18T11:41:56.832Z</time>
      </trkpt>
      <trkpt lat="44.211" lon="6.24945">
        <ele>1094.4</ele>
        <time>2021-09-18T11:42:02.795Z</time>
      </trkpt>
      <trkpt lat="44.21101" lon="6.24943">
        <ele>1094.2</ele>
        <time>2021-09-18T11:42:03.222Z</time>
      </trkpt>
      <trkpt lat="44.211" lon="6.24941">
        <ele>1094.8</ele>
        <time>2021-09-18T11:42:11.693Z</time>
      </trkpt>
      <trkpt lat="44.211" lon="6.24938">
        <ele>1095.1</ele>
        <time>2021-09-18T11:42:22.115Z</time>
      </trkpt>
      <trkpt lat="44.21099" lon="6.24937">
        <ele>1095.5</ele>
        <time>2021-09-18T11:42:28.077Z</time>
      </trkpt>
      <trkpt lat="44.21098" lon="6.24936">
        <ele>1096</ele>
        <time>2021-09-18T11:42:34.040Z</time>
      </trkpt>
      <trkpt lat="44.21097" lon="6.24937">
        <ele>1096.3</ele>
        <time>2021-09-18T11:42:40.003Z</time>
      </trkpt>
      <trkpt lat="44.21096" lon="6.24936">
        <ele>1096.7</ele>
        <time>2021-09-18T11:42:45.966Z</time>
      </trkpt>
      <trkpt lat="44.21094" lon="6.24933">
        <ele>1097.7</ele>
        <time>2021-09-18T11:43:00.198Z</time>
      </trkpt>
      <trkpt lat="44.21095" lon="6.24932">
        <ele>1097.4</ele>
        <time>2021-09-18T11:43:00.499Z</time>
      </trkpt>
      <trkpt lat="44.21095" lon="6.24931">
        <ele>1097.5</ele>
        <time>2021-09-18T11:43:03.973Z</time>
      </trkpt>
      <trkpt lat="44.21094" lon="6.24929">
        <ele>1098.1</ele>
        <time>2021-09-18T11:43:12.444Z</time>
      </trkpt>
      <trkpt lat="44.21093" lon="6.24928">
        <ele>1098.5</ele>
        <time>2021-09-18T11:43:18.407Z</time>
      </trkpt>
      <trkpt lat="44.21092" lon="6.24927">
        <ele>1099</ele>
        <time>2021-09-18T11:43:24.370Z</time>
      </trkpt>
      <trkpt lat="44.21091" lon="6.24925">
        <ele>1099.5</ele>
        <time>2021-09-18T11:43:32.841Z</time>
      </trkpt>
      <trkpt lat="44.2109" lon="6.24924">
        <ele>1100</ele>
        <time>2021-09-18T11:43:38.804Z</time>
      </trkpt>
      <trkpt lat="44.2109" lon="6.24922">
        <ele>1100.1</ele>
        <time>2021-09-18T11:43:42.422Z</time>
      </trkpt>
      <trkpt lat="44.21092" lon="6.24918">
        <ele>1099.8</ele>
        <time>2021-09-18T11:43:43.276Z</time>
      </trkpt>
      <trkpt lat="44.21094" lon="6.24916">
        <ele>1099.2</ele>
        <time>2021-09-18T11:43:43.877Z</time>
      </trkpt>
      <trkpt lat="44.21095" lon="6.24913">
        <ele>1099.3</ele>
        <time>2021-09-18T11:43:48.732Z</time>
      </trkpt>
      <trkpt lat="44.21096" lon="6.24911">
        <ele>1099.2</ele>
        <time>2021-09-18T11:43:49.154Z</time>
      </trkpt>
      <trkpt lat="44.21096" lon="6.2491">
        <ele>1099.3</ele>
        <time>2021-09-18T11:43:52.628Z</time>
      </trkpt>
      <trkpt lat="44.21096" lon="6.24908">
        <ele>1099.6</ele>
        <time>2021-09-18T11:43:59.575Z</time>
      </trkpt>
      <trkpt lat="44.21097" lon="6.24906">
        <ele>1099.5</ele>
        <time>2021-09-18T11:43:59.997Z</time>
      </trkpt>
      <trkpt lat="44.21097" lon="6.24905">
        <ele>1099.6</ele>
        <time>2021-09-18T11:44:03.471Z</time>
      </trkpt>
      <trkpt lat="44.21099" lon="6.24902">
        <ele>1099.3</ele>
        <time>2021-09-18T11:44:04.189Z</time>
      </trkpt>
      <trkpt lat="44.211" lon="6.24902">
        <ele>1098.9</ele>
        <time>2021-09-18T11:44:04.433Z</time>
      </trkpt>
      <trkpt lat="44.21099" lon="6.249">
        <ele>1099.5</ele>
        <time>2021-09-18T11:44:12.904Z</time>
      </trkpt>
      <trkpt lat="44.21099" lon="6.24899">
        <ele>1099.7</ele>
        <time>2021-09-18T11:44:16.378Z</time>
      </trkpt>
      <trkpt lat="44.21099" lon="6.24896">
        <ele>1100.1</ele>
        <time>2021-09-18T11:44:26.799Z</time>
      </trkpt>
      <trkpt lat="44.21099" lon="6.24893">
        <ele>1100.5</ele>
        <time>2021-09-18T11:44:37.221Z</time>
      </trkpt>
      <trkpt lat="44.21098" lon="6.24893">
        <ele>1100.8</ele>
        <time>2021-09-18T11:44:42.067Z</time>
      </trkpt>
      <trkpt lat="44.21096" lon="6.24892">
        <ele>1101.6</ele>
        <time>2021-09-18T11:44:52.364Z</time>
      </trkpt>
      <trkpt lat="44.21095" lon="6.24891">
        <ele>1102.1</ele>
        <time>2021-09-18T11:44:58.327Z</time>
      </trkpt>
      <trkpt lat="44.21094" lon="6.24889">
        <ele>1102.7</ele>
        <time>2021-09-18T11:45:06.798Z</time>
      </trkpt>
      <trkpt lat="44.21094" lon="6.24888">
        <ele>1102.8</ele>
        <time>2021-09-18T11:45:10.272Z</time>
      </trkpt>
      <trkpt lat="44.21094" lon="6.24886">
        <ele>1103.1</ele>
        <time>2021-09-18T11:45:17.219Z</time>
      </trkpt>
      <trkpt lat="44.21094" lon="6.24884">
        <ele>1103.3</ele>
        <time>2021-09-18T11:45:24.167Z</time>
      </trkpt>
      <trkpt lat="44.21094" lon="6.24883">
        <ele>1103.5</ele>
        <time>2021-09-18T11:45:27.641Z</time>
      </trkpt>
      <trkpt lat="44.21094" lon="6.24882">
        <ele>1103.6</ele>
        <time>2021-09-18T11:45:31.115Z</time>
      </trkpt>
      <trkpt lat="44.21094" lon="6.2488">
        <ele>1103.8</ele>
        <time>2021-09-18T11:45:38.062Z</time>
      </trkpt>
      <trkpt lat="44.21093" lon="6.24878">
        <ele>1104.4</ele>
        <time>2021-09-18T11:45:46.534Z</time>
      </trkpt>
      <trkpt lat="44.21093" lon="6.24877">
        <ele>1104.6</ele>
        <time>2021-09-18T11:45:50.007Z</time>
      </trkpt>
      <trkpt lat="44.21093" lon="6.24876">
        <ele>1104.7</ele>
        <time>2021-09-18T11:45:53.481Z</time>
      </trkpt>
      <trkpt lat="44.21094" lon="6.24875">
        <ele>1104.5</ele>
        <time>2021-09-18T11:45:53.782Z</time>
      </trkpt>
      <trkpt lat="44.21094" lon="6.24873">
        <ele>1104.7</ele>
        <time>2021-09-18T11:46:00.730Z</time>
      </trkpt>
      <trkpt lat="44.21095" lon="6.24872">
        <ele>1104.5</ele>
        <time>2021-09-18T11:46:01.030Z</time>
      </trkpt>
      <trkpt lat="44.21094" lon="6.2487">
        <ele>1105.1</ele>
        <time>2021-09-18T11:46:09.501Z</time>
      </trkpt>
      <trkpt lat="44.21093" lon="6.24869">
        <ele>1105.6</ele>
        <time>2021-09-18T11:46:15.464Z</time>
      </trkpt>
      <trkpt lat="44.21092" lon="6.24868">
        <ele>1106</ele>
        <time>2021-09-18T11:46:21.427Z</time>
      </trkpt>
      <trkpt lat="44.21091" lon="6.24866">
        <ele>1106.6</ele>
        <time>2021-09-18T11:46:29.898Z</time>
      </trkpt>
      <trkpt lat="44.21092" lon="6.24865">
        <ele>1106.4</ele>
        <time>2021-09-18T11:46:30.199Z</time>
      </trkpt>
      <trkpt lat="44.21092" lon="6.24862">
        <ele>1106.8</ele>
        <time>2021-09-18T11:46:40.620Z</time>
      </trkpt>
      <trkpt lat="44.21092" lon="6.2486">
        <ele>1107</ele>
        <time>2021-09-18T11:46:47.568Z</time>
      </trkpt>
      <trkpt lat="44.21091" lon="6.24859">
        <ele>1107.5</ele>
        <time>2021-09-18T11:46:53.531Z</time>
      </trkpt>
      <trkpt lat="44.21091" lon="6.24855">
        <ele>1108</ele>
        <time>2021-09-18T11:47:07.426Z</time>
      </trkpt>
      <trkpt lat="44.2109" lon="6.24853">
        <ele>1108.5</ele>
        <time>2021-09-18T11:47:15.897Z</time>
      </trkpt>
      <trkpt lat="44.2109" lon="6.2485">
        <ele>1108.9</ele>
        <time>2021-09-18T11:47:26.319Z</time>
      </trkpt>
      <trkpt lat="44.21089" lon="6.24848">
        <ele>1109.5</ele>
        <time>2021-09-18T11:47:34.790Z</time>
      </trkpt>
      <trkpt lat="44.2109" lon="6.24845">
        <ele>1109.5</ele>
        <time>2021-09-18T11:47:37.770Z</time>
      </trkpt>
      <trkpt lat="44.21088" lon="6.24843">
        <ele>1110.4</ele>
        <time>2021-09-18T11:47:49.695Z</time>
      </trkpt>
      <trkpt lat="44.21087" lon="6.24842">
        <ele>1110.8</ele>
        <time>2021-09-18T11:47:55.658Z</time>
      </trkpt>
      <trkpt lat="44.21088" lon="6.24839">
        <ele>1110.9</ele>
        <time>2021-09-18T11:48:00.513Z</time>
      </trkpt>
      <trkpt lat="44.21088" lon="6.24838">
        <ele>1111</ele>
        <time>2021-09-18T11:48:03.987Z</time>
      </trkpt>
      <trkpt lat="44.21087" lon="6.24835">
        <ele>1111.7</ele>
        <time>2021-09-18T11:48:15.480Z</time>
      </trkpt>
      <trkpt lat="44.21087" lon="6.24832">
        <ele>1112</ele>
        <time>2021-09-18T11:48:25.902Z</time>
      </trkpt>
      <trkpt lat="44.21086" lon="6.24831">
        <ele>1112.5</ele>
        <time>2021-09-18T11:48:31.865Z</time>
      </trkpt>
      <trkpt lat="44.21084" lon="6.24833">
        <ele>1112.8</ele>
        <time>2021-09-18T11:48:42.089Z</time>
      </trkpt>
      <trkpt lat="44.21082" lon="6.24834">
        <ele>1113.6</ele>
        <time>2021-09-18T11:48:52.385Z</time>
      </trkpt>
      <trkpt lat="44.21081" lon="6.24834">
        <ele>1114.1</ele>
        <time>2021-09-18T11:48:57.232Z</time>
      </trkpt>
      <trkpt lat="44.2108" lon="6.24831">
        <ele>1114.9</ele>
        <time>2021-09-18T11:49:08.725Z</time>
      </trkpt>
      <trkpt lat="44.21081" lon="6.24828">
        <ele>1114.8</ele>
        <time>2021-09-18T11:49:09.377Z</time>
      </trkpt>
      <trkpt lat="44.21081" lon="6.24826">
        <ele>1115</ele>
        <time>2021-09-18T11:49:16.325Z</time>
      </trkpt>
      <trkpt lat="44.21081" lon="6.24824">
        <ele>1115.2</ele>
        <time>2021-09-18T11:49:23.273Z</time>
      </trkpt>
      <trkpt lat="44.2108" lon="6.2482">
        <ele>1116.1</ele>
        <time>2021-09-18T11:49:37.989Z</time>
      </trkpt>
      <trkpt lat="44.2108" lon="6.24818">
        <ele>1116.3</ele>
        <time>2021-09-18T11:49:44.937Z</time>
      </trkpt>
      <trkpt lat="44.2108" lon="6.24815">
        <ele>1116.7</ele>
        <time>2021-09-18T11:49:55.358Z</time>
      </trkpt>
      <trkpt lat="44.21079" lon="6.24812">
        <ele>1117.5</ele>
        <time>2021-09-18T11:50:06.852Z</time>
      </trkpt>
      <trkpt lat="44.21079" lon="6.2481">
        <ele>1117.7</ele>
        <time>2021-09-18T11:50:13.799Z</time>
      </trkpt>
      <trkpt lat="44.2108" lon="6.24808">
        <ele>1117.4</ele>
        <time>2021-09-18T11:50:14.226Z</time>
      </trkpt>
      <trkpt lat="44.2108" lon="6.24807">
        <ele>1117.5</ele>
        <time>2021-09-18T11:50:17.700Z</time>
      </trkpt>
      <trkpt lat="44.21079" lon="6.24805">
        <ele>1118.2</ele>
        <time>2021-09-18T11:50:26.171Z</time>
      </trkpt>
      <trkpt lat="44.2108" lon="6.24804">
        <ele>1117.8</ele>
        <time>2021-09-18T11:50:26.472Z</time>
      </trkpt>
      <trkpt lat="44.21079" lon="6.24802">
        <ele>1118.6</ele>
        <time>2021-09-18T11:50:34.943Z</time>
      </trkpt>
      <trkpt lat="44.21078" lon="6.24801">
        <ele>1119.2</ele>
        <time>2021-09-18T11:50:40.906Z</time>
      </trkpt>
      <trkpt lat="44.21078" lon="6.24797">
        <ele>1119.6</ele>
        <time>2021-09-18T11:50:54.801Z</time>
      </trkpt>
      <trkpt lat="44.21078" lon="6.24795">
        <ele>1119.8</ele>
        <time>2021-09-18T11:51:01.749Z</time>
      </trkpt>
      <trkpt lat="44.21077" lon="6.24792">
        <ele>1120.7</ele>
        <time>2021-09-18T11:51:13.242Z</time>
      </trkpt>
      <trkpt lat="44.21077" lon="6.24791">
        <ele>1120.8</ele>
        <time>2021-09-18T11:51:16.716Z</time>
      </trkpt>
      <trkpt lat="44.21077" lon="6.2479">
        <ele>1120.9</ele>
        <time>2021-09-18T11:51:20.190Z</time>
      </trkpt>
      <trkpt lat="44.21079" lon="6.24788">
        <ele>1120.1</ele>
        <time>2021-09-18T11:51:20.792Z</time>
      </trkpt>
      <trkpt lat="44.21077" lon="6.24787">
        <ele>1121.2</ele>
        <time>2021-09-18T11:51:31.088Z</time>
      </trkpt>
      <trkpt lat="44.21076" lon="6.24787">
        <ele>1121.7</ele>
        <time>2021-09-18T11:51:35.935Z</time>
      </trkpt>
      <trkpt lat="44.21076" lon="6.24784">
        <ele>1122</ele>
        <time>2021-09-18T11:51:46.356Z</time>
      </trkpt>
      <trkpt lat="44.21075" lon="6.24783">
        <ele>1122.6</ele>
        <time>2021-09-18T11:51:52.319Z</time>
      </trkpt>
      <trkpt lat="44.21075" lon="6.24781">
        <ele>1122.9</ele>
        <time>2021-09-18T11:51:59.267Z</time>
      </trkpt>
      <trkpt lat="44.21074" lon="6.2478">
        <ele>1123.5</ele>
        <time>2021-09-18T11:52:05.230Z</time>
      </trkpt>
      <trkpt lat="44.21073" lon="6.24778">
        <ele>1124.2</ele>
        <time>2021-09-18T11:52:13.701Z</time>
      </trkpt>
      <trkpt lat="44.21072" lon="6.24775">
        <ele>1125</ele>
        <time>2021-09-18T11:52:25.194Z</time>
      </trkpt>
      <trkpt lat="44.21072" lon="6.24772">
        <ele>1125.3</ele>
        <time>2021-09-18T11:52:35.616Z</time>
      </trkpt>
      <trkpt lat="44.2107" lon="6.24771">
        <ele>1126.5</ele>
        <time>2021-09-18T11:52:45.912Z</time>
      </trkpt>
      <trkpt lat="44.21072" lon="6.24772">
        <ele>1125.3</ele>
        <time>2021-09-18T11:52:46.432Z</time>
      </trkpt>
      <trkpt lat="44.2107" lon="6.24776">
        <ele>1125.9</ele>
        <time>2021-09-18T11:53:03.374Z</time>
      </trkpt>
      <trkpt lat="44.21069" lon="6.24779">
        <ele>1126.1</ele>
        <time>2021-09-18T11:53:10.096Z</time>
      </trkpt>
      <trkpt lat="44.21067" lon="6.2478">
        <ele>1127</ele>
        <time>2021-09-18T11:53:20.393Z</time>
      </trkpt>
      <trkpt lat="44.21066" lon="6.24781">
        <ele>1127.4</ele>
        <time>2021-09-18T11:53:26.356Z</time>
      </trkpt>
      <trkpt lat="44.21065" lon="6.24782">
        <ele>1127.8</ele>
        <time>2021-09-18T11:53:32.319Z</time>
      </trkpt>
      <trkpt lat="44.21065" lon="6.24784">
        <ele>1127.6</ele>
        <time>2021-09-18T11:53:32.669Z</time>
      </trkpt>
      <trkpt lat="44.21064" lon="6.24785">
        <ele>1128</ele>
        <time>2021-09-18T11:53:38.632Z</time>
      </trkpt>
      <trkpt lat="44.21063" lon="6.24784">
        <ele>1128.6</ele>
        <time>2021-09-18T11:53:44.595Z</time>
      </trkpt>
      <trkpt lat="44.21062" lon="6.24782">
        <ele>1129.3</ele>
        <time>2021-09-18T11:53:53.066Z</time>
      </trkpt>
      <trkpt lat="44.21062" lon="6.2478">
        <ele>1129.5</ele>
        <time>2021-09-18T11:54:00.014Z</time>
      </trkpt>
      <trkpt lat="44.21062" lon="6.24779">
        <ele>1129.6</ele>
        <time>2021-09-18T11:54:03.488Z</time>
      </trkpt>
      <trkpt lat="44.2106" lon="6.24779">
        <ele>1130.6</ele>
        <time>2021-09-18T11:54:13.181Z</time>
      </trkpt>
      <trkpt lat="44.21059" lon="6.24778">
        <ele>1131.2</ele>
        <time>2021-09-18T11:54:19.143Z</time>
      </trkpt>
      <trkpt lat="44.21058" lon="6.24776">
        <ele>1132</ele>
        <time>2021-09-18T11:54:27.614Z</time>
      </trkpt>
      <trkpt lat="44.21057" lon="6.24775">
        <ele>1132.6</ele>
        <time>2021-09-18T11:54:33.577Z</time>
      </trkpt>
      <trkpt lat="44.21056" lon="6.24774">
        <ele>1133.2</ele>
        <time>2021-09-18T11:54:39.540Z</time>
      </trkpt>
      <trkpt lat="44.21055" lon="6.24773">
        <ele>1133.8</ele>
        <time>2021-09-18T11:54:45.503Z</time>
      </trkpt>
      <trkpt lat="44.21055" lon="6.24771">
        <ele>1134</ele>
        <time>2021-09-18T11:54:52.451Z</time>
      </trkpt>
      <trkpt lat="44.21055" lon="6.24773">
        <ele>1133.8</ele>
        <time>2021-09-18T11:54:52.801Z</time>
      </trkpt>
      <trkpt lat="44.21054" lon="6.24776">
        <ele>1134</ele>
        <time>2021-09-18T11:54:59.524Z</time>
      </trkpt>
      <trkpt lat="44.21053" lon="6.24779">
        <ele>1134.2</ele>
        <time>2021-09-18T11:55:06.247Z</time>
      </trkpt>
      <trkpt lat="44.21053" lon="6.24781">
        <ele>1133.9</ele>
        <time>2021-09-18T11:55:06.597Z</time>
      </trkpt>
      <trkpt lat="44.21051" lon="6.24782">
        <ele>1134.8</ele>
        <time>2021-09-18T11:55:16.894Z</time>
      </trkpt>
      <trkpt lat="44.21049" lon="6.24783">
        <ele>1135.7</ele>
        <time>2021-09-18T11:55:27.190Z</time>
      </trkpt>
      <trkpt lat="44.21048" lon="6.24783">
        <ele>1136.2</ele>
        <time>2021-09-18T11:55:32.037Z</time>
      </trkpt>
      <trkpt lat="44.21047" lon="6.24784">
        <ele>1136.6</ele>
        <time>2021-09-18T11:55:38.000Z</time>
      </trkpt>
      <trkpt lat="44.21046" lon="6.24785">
        <ele>1137</ele>
        <time>2021-09-18T11:55:43.963Z</time>
      </trkpt>
      <trkpt lat="44.21045" lon="6.24785">
        <ele>1137.5</ele>
        <time>2021-09-18T11:55:48.809Z</time>
      </trkpt>
      <trkpt lat="44.21044" lon="6.24786">
        <ele>1137.9</ele>
        <time>2021-09-18T11:55:54.772Z</time>
      </trkpt>
      <trkpt lat="44.21045" lon="6.24788">
        <ele>1137.2</ele>
        <time>2021-09-18T11:55:55.199Z</time>
      </trkpt>
      <trkpt lat="44.21044" lon="6.24788">
        <ele>1137.7</ele>
        <time>2021-09-18T11:56:00.046Z</time>
      </trkpt>
      <trkpt lat="44.21043" lon="6.24788">
        <ele>1138.2</ele>
        <time>2021-09-18T11:56:04.892Z</time>
      </trkpt>
      <trkpt lat="44.21041" lon="6.24788">
        <ele>1139.2</ele>
        <time>2021-09-18T11:56:14.585Z</time>
      </trkpt>
      <trkpt lat="44.21039" lon="6.24787">
        <ele>1140.3</ele>
        <time>2021-09-18T11:56:24.882Z</time>
      </trkpt>
      <trkpt lat="44.21038" lon="6.24788">
        <ele>1140.7</ele>
        <time>2021-09-18T11:56:30.845Z</time>
      </trkpt>
      <trkpt lat="44.21037" lon="6.24789">
        <ele>1141.1</ele>
        <time>2021-09-18T11:56:36.807Z</time>
      </trkpt>
      <trkpt lat="44.21036" lon="6.2479">
        <ele>1141.5</ele>
        <time>2021-09-18T11:56:42.770Z</time>
      </trkpt>
      <trkpt lat="44.21035" lon="6.24791">
        <ele>1141.9</ele>
        <time>2021-09-18T11:56:48.733Z</time>
      </trkpt>
      <trkpt lat="44.21034" lon="6.24794">
        <ele>1142.1</ele>
        <time>2021-09-18T11:56:55.456Z</time>
      </trkpt>
      <trkpt lat="44.21035" lon="6.24796">
        <ele>1141.4</ele>
        <time>2021-09-18T11:56:55.883Z</time>
      </trkpt>
      <trkpt lat="44.21033" lon="6.24797">
        <ele>1142.3</ele>
        <time>2021-09-18T11:57:06.180Z</time>
      </trkpt>
      <trkpt lat="44.21033" lon="6.24798">
        <ele>1142.2</ele>
        <time>2021-09-18T11:57:06.355Z</time>
      </trkpt>
      <trkpt lat="44.21031" lon="6.24799">
        <ele>1143.1</ele>
        <time>2021-09-18T11:57:16.652Z</time>
      </trkpt>
      <trkpt lat="44.2103" lon="6.24801">
        <ele>1143.4</ele>
        <time>2021-09-18T11:57:25.123Z</time>
      </trkpt>
      <trkpt lat="44.21027" lon="6.24802">
        <ele>1144.8</ele>
        <time>2021-09-18T11:57:40.071Z</time>
      </trkpt>
      <trkpt lat="44.21028" lon="6.24801">
        <ele>1144.4</ele>
        <time>2021-09-18T11:57:40.372Z</time>
      </trkpt>
      <trkpt lat="44.21027" lon="6.24801">
        <ele>1144.9</ele>
        <time>2021-09-18T11:57:45.218Z</time>
      </trkpt>
      <trkpt lat="44.21026" lon="6.24801">
        <ele>1145.4</ele>
        <time>2021-09-18T11:57:50.065Z</time>
      </trkpt>
      <trkpt lat="44.21025" lon="6.24799">
        <ele>1146.1</ele>
        <time>2021-09-18T11:57:58.536Z</time>
      </trkpt>
      <trkpt lat="44.21023" lon="6.24799">
        <ele>1147.1</ele>
        <time>2021-09-18T11:58:08.229Z</time>
      </trkpt>
      <trkpt lat="44.21022" lon="6.24798">
        <ele>1147.7</ele>
        <time>2021-09-18T11:58:14.192Z</time>
      </trkpt>
      <trkpt lat="44.21023" lon="6.24797">
        <ele>1147.3</ele>
        <time>2021-09-18T11:58:14.493Z</time>
      </trkpt>
      <trkpt lat="44.21023" lon="6.24796">
        <ele>1147.4</ele>
        <time>2021-09-18T11:58:17.966Z</time>
      </trkpt>
      <trkpt lat="44.21022" lon="6.24794">
        <ele>1148.2</ele>
        <time>2021-09-18T11:58:26.438Z</time>
      </trkpt>
      <trkpt lat="44.21021" lon="6.24793">
        <ele>1148.8</ele>
        <time>2021-09-18T11:58:32.401Z</time>
      </trkpt>
      <trkpt lat="44.2102" lon="6.24793">
        <ele>1149.3</ele>
        <time>2021-09-18T11:58:37.247Z</time>
      </trkpt>
      <trkpt lat="44.2102" lon="6.24792">
        <ele>1149.4</ele>
        <time>2021-09-18T11:58:40.721Z</time>
      </trkpt>
      <trkpt lat="44.2102" lon="6.24791">
        <ele>1149.5</ele>
        <time>2021-09-18T11:58:44.195Z</time>
      </trkpt>
      <trkpt lat="44.21019" lon="6.24788">
        <ele>1150.3</ele>
        <time>2021-09-18T11:58:55.688Z</time>
      </trkpt>
      <trkpt lat="44.21019" lon="6.24786">
        <ele>1150.5</ele>
        <time>2021-09-18T11:59:02.636Z</time>
      </trkpt>
      <trkpt lat="44.21019" lon="6.24784">
        <ele>1150.8</ele>
        <time>2021-09-18T11:59:09.584Z</time>
      </trkpt>
      <trkpt lat="44.2102" lon="6.24783">
        <ele>1150.4</ele>
        <time>2021-09-18T11:59:09.884Z</time>
      </trkpt>
      <trkpt lat="44.2102" lon="6.24781">
        <ele>1150.6</ele>
        <time>2021-09-18T11:59:16.832Z</time>
      </trkpt>
      <trkpt lat="44.21017" lon="6.2478">
        <ele>1152.2</ele>
        <time>2021-09-18T11:59:31.781Z</time>
      </trkpt>
      <trkpt lat="44.21016" lon="6.24779">
        <ele>1152.8</ele>
        <time>2021-09-18T11:59:37.744Z</time>
      </trkpt>
      <trkpt lat="44.21016" lon="6.24777">
        <ele>1153</ele>
        <time>2021-09-18T11:59:44.692Z</time>
      </trkpt>
      <trkpt lat="44.21015" lon="6.24775">
        <ele>1153.7</ele>
        <time>2021-09-18T11:59:53.163Z</time>
      </trkpt>
      <trkpt lat="44.21015" lon="6.24774">
        <ele>1153.8</ele>
        <time>2021-09-18T11:59:56.637Z</time>
      </trkpt>
      <trkpt lat="44.21015" lon="6.24772">
        <ele>1154.1</ele>
        <time>2021-09-18T12:00:03.584Z</time>
      </trkpt>
      <trkpt lat="44.21014" lon="6.24771">
        <ele>1154.7</ele>
        <time>2021-09-18T12:00:09.547Z</time>
      </trkpt>
      <trkpt lat="44.21012" lon="6.2477">
        <ele>1155.8</ele>
        <time>2021-09-18T12:00:19.844Z</time>
      </trkpt>
      <trkpt lat="44.21012" lon="6.24769">
        <ele>1155.9</ele>
        <time>2021-09-18T12:00:23.318Z</time>
      </trkpt>
      <trkpt lat="44.21011" lon="6.24768">
        <ele>1156.5</ele>
        <time>2021-09-18T12:00:29.281Z</time>
      </trkpt>
      <trkpt lat="44.2101" lon="6.24766">
        <ele>1157.2</ele>
        <time>2021-09-18T12:00:37.752Z</time>
      </trkpt>
      <trkpt lat="44.21009" lon="6.24764">
        <ele>1157.9</ele>
        <time>2021-09-18T12:00:46.223Z</time>
      </trkpt>
      <trkpt lat="44.21007" lon="6.24762">
        <ele>1159.2</ele>
        <time>2021-09-18T12:00:58.149Z</time>
      </trkpt>
      <trkpt lat="44.21006" lon="6.24761">
        <ele>1159.8</ele>
        <time>2021-09-18T12:01:04.112Z</time>
      </trkpt>
      <trkpt lat="44.21006" lon="6.24759">
        <ele>1160</ele>
        <time>2021-09-18T12:01:11.059Z</time>
      </trkpt>
      <trkpt lat="44.21005" lon="6.24757">
        <ele>1160.7</ele>
        <time>2021-09-18T12:01:19.531Z</time>
      </trkpt>
      <trkpt lat="44.21004" lon="6.24754">
        <ele>1161.6</ele>
        <time>2021-09-18T12:01:31.024Z</time>
      </trkpt>
      <trkpt lat="44.21004" lon="6.2475">
        <ele>1162</ele>
        <time>2021-09-18T12:01:44.920Z</time>
      </trkpt>
      <trkpt lat="44.21004" lon="6.24747">
        <ele>1162.2</ele>
        <time>2021-09-18T12:01:51.498Z</time>
      </trkpt>
      <trkpt lat="44.21005" lon="6.24752">
        <ele>1161.3</ele>
        <time>2021-09-18T12:01:52.407Z</time>
      </trkpt>
      <trkpt lat="44.21004" lon="6.24753">
        <ele>1161.7</ele>
        <time>2021-09-18T12:01:58.370Z</time>
      </trkpt>
      <trkpt lat="44.21004" lon="6.24754">
        <ele>1161.6</ele>
        <time>2021-09-18T12:01:58.545Z</time>
      </trkpt>
      <trkpt lat="44.21004" lon="6.24756">
        <ele>1161.3</ele>
        <time>2021-09-18T12:01:58.896Z</time>
      </trkpt>
      <trkpt lat="44.21002" lon="6.24756">
        <ele>1162.3</ele>
        <time>2021-09-18T12:02:08.589Z</time>
      </trkpt>
      <trkpt lat="44.21001" lon="6.24758">
        <ele>1162.6</ele>
        <time>2021-09-18T12:02:17.060Z</time>
      </trkpt>
      <trkpt lat="44.21" lon="6.2476">
        <ele>1162.9</ele>
        <time>2021-09-18T12:02:25.531Z</time>
      </trkpt>
      <trkpt lat="44.21001" lon="6.24761">
        <ele>1162.3</ele>
        <time>2021-09-18T12:02:25.832Z</time>
      </trkpt>
      <trkpt lat="44.21" lon="6.24762">
        <ele>1162.7</ele>
        <time>2021-09-18T12:02:31.794Z</time>
      </trkpt>
      <trkpt lat="44.20999" lon="6.24764">
        <ele>1163</ele>
        <time>2021-09-18T12:02:40.266Z</time>
      </trkpt>
      <trkpt lat="44.20997" lon="6.24766">
        <ele>1163.7</ele>
        <time>2021-09-18T12:02:52.191Z</time>
      </trkpt>
      <trkpt lat="44.20998" lon="6.24767">
        <ele>1163.1</ele>
        <time>2021-09-18T12:02:52.492Z</time>
      </trkpt>
      <trkpt lat="44.20997" lon="6.24768">
        <ele>1163.5</ele>
        <time>2021-09-18T12:02:58.455Z</time>
      </trkpt>
      <trkpt lat="44.20996" lon="6.2477">
        <ele>1163.7</ele>
        <time>2021-09-18T12:03:05.100Z</time>
      </trkpt>
      <trkpt lat="44.20995" lon="6.24771">
        <ele>1164.1</ele>
        <time>2021-09-18T12:03:11.063Z</time>
      </trkpt>
      <trkpt lat="44.20994" lon="6.24773">
        <ele>1164.3</ele>
        <time>2021-09-18T12:03:17.708Z</time>
      </trkpt>
      <trkpt lat="44.20994" lon="6.24775">
        <ele>1164.1</ele>
        <time>2021-09-18T12:03:18.059Z</time>
      </trkpt>
      <trkpt lat="44.20993" lon="6.24775">
        <ele>1164.6</ele>
        <time>2021-09-18T12:03:22.905Z</time>
      </trkpt>
      <trkpt lat="44.20993" lon="6.24776">
        <ele>1164.5</ele>
        <time>2021-09-18T12:03:23.080Z</time>
      </trkpt>
      <trkpt lat="44.20992" lon="6.24779">
        <ele>1164.6</ele>
        <time>2021-09-18T12:03:27.935Z</time>
      </trkpt>
      <trkpt lat="44.20992" lon="6.24781">
        <ele>1164.4</ele>
        <time>2021-09-18T12:03:28.286Z</time>
      </trkpt>
      <trkpt lat="44.20991" lon="6.24784">
        <ele>1164.6</ele>
        <time>2021-09-18T12:03:35.008Z</time>
      </trkpt>
      <trkpt lat="44.20992" lon="6.24786">
        <ele>1163.9</ele>
        <time>2021-09-18T12:03:35.436Z</time>
      </trkpt>
      <trkpt lat="44.2099" lon="6.24788">
        <ele>1164.6</ele>
        <time>2021-09-18T12:03:47.361Z</time>
      </trkpt>
      <trkpt lat="44.20989" lon="6.24788">
        <ele>1165.1</ele>
        <time>2021-09-18T12:03:52.208Z</time>
      </trkpt>
      <trkpt lat="44.20988" lon="6.24788">
        <ele>1165.6</ele>
        <time>2021-09-18T12:03:57.054Z</time>
      </trkpt>
      <trkpt lat="44.20988" lon="6.24791">
        <ele>1165.3</ele>
        <time>2021-09-18T12:03:57.580Z</time>
      </trkpt>
      <trkpt lat="44.20988" lon="6.24793">
        <ele>1165</ele>
        <time>2021-09-18T12:03:57.930Z</time>
      </trkpt>
      <trkpt lat="44.20988" lon="6.24795">
        <ele>1164.8</ele>
        <time>2021-09-18T12:03:58.281Z</time>
      </trkpt>
      <trkpt lat="44.20989" lon="6.24797">
        <ele>1164.1</ele>
        <time>2021-09-18T12:03:58.708Z</time>
      </trkpt>
      <trkpt lat="44.20989" lon="6.24799">
        <ele>1163.9</ele>
        <time>2021-09-18T12:03:59.058Z</time>
      </trkpt>
      <trkpt lat="44.20986" lon="6.24801">
        <ele>1165.1</ele>
        <time>2021-09-18T12:04:15.172Z</time>
      </trkpt>
      <trkpt lat="44.20986" lon="6.24803">
        <ele>1164.9</ele>
        <time>2021-09-18T12:04:15.523Z</time>
      </trkpt>
      <trkpt lat="44.20988" lon="6.24804">
        <ele>1163.9</ele>
        <time>2021-09-18T12:04:16.042Z</time>
      </trkpt>
      <trkpt lat="44.20988" lon="6.24806">
        <ele>1163.7</ele>
        <time>2021-09-18T12:04:16.392Z</time>
      </trkpt>
      <trkpt lat="44.20988" lon="6.24807">
        <ele>1163.6</ele>
        <time>2021-09-18T12:04:16.568Z</time>
      </trkpt>
      <trkpt lat="44.20985" lon="6.2481">
        <ele>1164.7</ele>
        <time>2021-09-18T12:04:34.456Z</time>
      </trkpt>
      <trkpt lat="44.20984" lon="6.2481">
        <ele>1165.1</ele>
        <time>2021-09-18T12:04:39.303Z</time>
      </trkpt>
      <trkpt lat="44.20982" lon="6.2481">
        <ele>1166.1</ele>
        <time>2021-09-18T12:04:48.996Z</time>
      </trkpt>
      <trkpt lat="44.20981" lon="6.24809">
        <ele>1166.7</ele>
        <time>2021-09-18T12:04:54.959Z</time>
      </trkpt>
      <trkpt lat="44.2098" lon="6.2481">
        <ele>1167.1</ele>
        <time>2021-09-18T12:05:00.922Z</time>
      </trkpt>
      <trkpt lat="44.20979" lon="6.24812">
        <ele>1167.3</ele>
        <time>2021-09-18T12:05:07.567Z</time>
      </trkpt>
      <trkpt lat="44.20978" lon="6.24814">
        <ele>1167.6</ele>
        <time>2021-09-18T12:05:16.038Z</time>
      </trkpt>
      <trkpt lat="44.20978" lon="6.24817">
        <ele>1167.3</ele>
        <time>2021-09-18T12:05:16.563Z</time>
      </trkpt>
      <trkpt lat="44.20977" lon="6.2482">
        <ele>1167.4</ele>
        <time>2021-09-18T12:05:21.418Z</time>
      </trkpt>
      <trkpt lat="44.20978" lon="6.24821">
        <ele>1166.9</ele>
        <time>2021-09-18T12:05:21.719Z</time>
      </trkpt>
      <trkpt lat="44.20977" lon="6.24823">
        <ele>1167.1</ele>
        <time>2021-09-18T12:05:28.364Z</time>
      </trkpt>
      <trkpt lat="44.20977" lon="6.24826">
        <ele>1166.8</ele>
        <time>2021-09-18T12:05:28.890Z</time>
      </trkpt>
      <trkpt lat="44.20977" lon="6.24829">
        <ele>1166.5</ele>
        <time>2021-09-18T12:05:29.415Z</time>
      </trkpt>
      <trkpt lat="44.20976" lon="6.24831">
        <ele>1166.8</ele>
        <time>2021-09-18T12:05:37.887Z</time>
      </trkpt>
      <trkpt lat="44.20975" lon="6.24834">
        <ele>1166.9</ele>
        <time>2021-09-18T12:05:42.742Z</time>
      </trkpt>
      <trkpt lat="44.20975" lon="6.24836">
        <ele>1166.7</ele>
        <time>2021-09-18T12:05:43.092Z</time>
      </trkpt>
      <trkpt lat="44.20975" lon="6.24837">
        <ele>1166.6</ele>
        <time>2021-09-18T12:05:43.267Z</time>
      </trkpt>
      <trkpt lat="44.20974" lon="6.24839">
        <ele>1166.9</ele>
        <time>2021-09-18T12:05:51.738Z</time>
      </trkpt>
      <trkpt lat="44.20973" lon="6.2484">
        <ele>1167.2</ele>
        <time>2021-09-18T12:05:57.701Z</time>
      </trkpt>
      <trkpt lat="44.20971" lon="6.24841">
        <ele>1168.1</ele>
        <time>2021-09-18T12:06:07.998Z</time>
      </trkpt>
      <trkpt lat="44.2097" lon="6.24841">
        <ele>1168.6</ele>
        <time>2021-09-18T12:06:12.844Z</time>
      </trkpt>
      <trkpt lat="44.20969" lon="6.24841">
        <ele>1169</ele>
        <time>2021-09-18T12:06:17.691Z</time>
      </trkpt>
      <trkpt lat="44.20967" lon="6.24842">
        <ele>1169.9</ele>
        <time>2021-09-18T12:06:27.988Z</time>
      </trkpt>
      <trkpt lat="44.20966" lon="6.24843">
        <ele>1170.2</ele>
        <time>2021-09-18T12:06:33.950Z</time>
      </trkpt>
      <trkpt lat="44.20965" lon="6.24844">
        <ele>1170.6</ele>
        <time>2021-09-18T12:06:39.913Z</time>
      </trkpt>
      <trkpt lat="44.20963" lon="6.24847">
        <ele>1171.2</ele>
        <time>2021-09-18T12:06:54.146Z</time>
      </trkpt>
      <trkpt lat="44.20962" lon="6.24848">
        <ele>1171.6</ele>
        <time>2021-09-18T12:07:00.109Z</time>
      </trkpt>
      <trkpt lat="44.2096" lon="6.24848">
        <ele>1172.5</ele>
        <time>2021-09-18T12:07:09.802Z</time>
      </trkpt>
      <trkpt lat="44.20959" lon="6.24848">
        <ele>1173</ele>
        <time>2021-09-18T12:07:14.648Z</time>
      </trkpt>
      <trkpt lat="44.20958" lon="6.24849">
        <ele>1173.4</ele>
        <time>2021-09-18T12:07:20.611Z</time>
      </trkpt>
      <trkpt lat="44.20956" lon="6.24851">
        <ele>1174.1</ele>
        <time>2021-09-18T12:07:32.537Z</time>
      </trkpt>
      <trkpt lat="44.20955" lon="6.24853">
        <ele>1174.3</ele>
        <time>2021-09-18T12:07:39.182Z</time>
      </trkpt>
      <trkpt lat="44.20953" lon="6.24853">
        <ele>1175.3</ele>
        <time>2021-09-18T12:07:48.875Z</time>
      </trkpt>
      <trkpt lat="44.20952" lon="6.24852">
        <ele>1175.9</ele>
        <time>2021-09-18T12:07:54.838Z</time>
      </trkpt>
      <trkpt lat="44.2095" lon="6.24852">
        <ele>1176.8</ele>
        <time>2021-09-18T12:08:04.531Z</time>
      </trkpt>
      <trkpt lat="44.20949" lon="6.24853">
        <ele>1177.2</ele>
        <time>2021-09-18T12:08:10.494Z</time>
      </trkpt>
      <trkpt lat="44.20946" lon="6.24853">
        <ele>1178.6</ele>
        <time>2021-09-18T12:08:25.033Z</time>
      </trkpt>
      <trkpt lat="44.20946" lon="6.24851">
        <ele>1178.8</ele>
        <time>2021-09-18T12:08:31.981Z</time>
      </trkpt>
      <trkpt lat="44.20947" lon="6.2485">
        <ele>1178.5</ele>
        <time>2021-09-18T12:08:32.282Z</time>
      </trkpt>
      <trkpt lat="44.20944" lon="6.2485">
        <ele>1179.9</ele>
        <time>2021-09-18T12:08:46.821Z</time>
      </trkpt>
      <trkpt lat="44.20943" lon="6.24848">
        <ele>1180.6</ele>
        <time>2021-09-18T12:08:55.293Z</time>
      </trkpt>
      <trkpt lat="44.20942" lon="6.24846">
        <ele>1181.3</ele>
        <time>2021-09-18T12:09:03.764Z</time>
      </trkpt>
      <trkpt lat="44.20941" lon="6.24846">
        <ele>1181.8</ele>
        <time>2021-09-18T12:09:08.610Z</time>
      </trkpt>
      <trkpt lat="44.2094" lon="6.24844">
        <ele>1182.5</ele>
        <time>2021-09-18T12:09:17.081Z</time>
      </trkpt>
      <trkpt lat="44.20939" lon="6.24842">
        <ele>1183.2</ele>
        <time>2021-09-18T12:09:25.553Z</time>
      </trkpt>
      <trkpt lat="44.2094" lon="6.2484">
        <ele>1183</ele>
        <time>2021-09-18T12:09:25.980Z</time>
      </trkpt>
      <trkpt lat="44.20939" lon="6.24837">
        <ele>1183.8</ele>
        <time>2021-09-18T12:09:37.473Z</time>
      </trkpt>
      <trkpt lat="44.20938" lon="6.24835">
        <ele>1184.6</ele>
        <time>2021-09-18T12:09:45.945Z</time>
      </trkpt>
      <trkpt lat="44.20939" lon="6.24834">
        <ele>1184.2</ele>
        <time>2021-09-18T12:09:46.245Z</time>
      </trkpt>
      <trkpt lat="44.20939" lon="6.24831">
        <ele>1184.5</ele>
        <time>2021-09-18T12:09:56.667Z</time>
      </trkpt>
      <trkpt lat="44.2094" lon="6.24829">
        <ele>1184.2</ele>
        <time>2021-09-18T12:09:57.094Z</time>
      </trkpt>
      <trkpt lat="44.20939" lon="6.24827">
        <ele>1184.9</ele>
        <time>2021-09-18T12:10:05.566Z</time>
      </trkpt>
      <trkpt lat="44.20939" lon="6.24826">
        <ele>1185</ele>
        <time>2021-09-18T12:10:09.039Z</time>
      </trkpt>
      <trkpt lat="44.20938" lon="6.24827">
        <ele>1185.4</ele>
        <time>2021-09-18T12:10:15.002Z</time>
      </trkpt>
      <trkpt lat="44.20937" lon="6.24826">
        <ele>1186</ele>
        <time>2021-09-18T12:10:20.965Z</time>
      </trkpt>
      <trkpt lat="44.20936" lon="6.24827">
        <ele>1186.3</ele>
        <time>2021-09-18T12:10:26.928Z</time>
      </trkpt>
      <trkpt lat="44.20934" lon="6.24828">
        <ele>1187.2</ele>
        <time>2021-09-18T12:10:37.225Z</time>
      </trkpt>
      <trkpt lat="44.20933" lon="6.24827">
        <ele>1187.8</ele>
        <time>2021-09-18T12:10:43.188Z</time>
      </trkpt>
      <trkpt lat="44.20932" lon="6.24825">
        <ele>1188.5</ele>
        <time>2021-09-18T12:10:51.659Z</time>
      </trkpt>
      <trkpt lat="44.20931" lon="6.24824">
        <ele>1189</ele>
        <time>2021-09-18T12:10:57.622Z</time>
      </trkpt>
      <trkpt lat="44.2093" lon="6.24823">
        <ele>1189.6</ele>
        <time>2021-09-18T12:11:03.585Z</time>
      </trkpt>
      <trkpt lat="44.20929" lon="6.24822">
        <ele>1190.2</ele>
        <time>2021-09-18T12:11:09.548Z</time>
      </trkpt>
      <trkpt lat="44.2093" lon="6.2482">
        <ele>1189.9</ele>
        <time>2021-09-18T12:11:09.975Z</time>
      </trkpt>
      <trkpt lat="44.20929" lon="6.24817">
        <ele>1190.7</ele>
        <time>2021-09-18T12:11:21.469Z</time>
      </trkpt>
      <trkpt lat="44.20929" lon="6.24815">
        <ele>1190.9</ele>
        <time>2021-09-18T12:11:28.416Z</time>
      </trkpt>
      <trkpt lat="44.20928" lon="6.24814">
        <ele>1191.4</ele>
        <time>2021-09-18T12:11:34.379Z</time>
      </trkpt>
      <trkpt lat="44.20928" lon="6.2481">
        <ele>1191.8</ele>
        <time>2021-09-18T12:11:48.275Z</time>
      </trkpt>
      <trkpt lat="44.20927" lon="6.24809">
        <ele>1192.4</ele>
        <time>2021-09-18T12:11:54.238Z</time>
      </trkpt>
      <trkpt lat="44.20926" lon="6.24807">
        <ele>1193.1</ele>
        <time>2021-09-18T12:12:02.709Z</time>
      </trkpt>
      <trkpt lat="44.20926" lon="6.24805">
        <ele>1193.3</ele>
        <time>2021-09-18T12:12:09.657Z</time>
      </trkpt>
      <trkpt lat="44.20925" lon="6.24805">
        <ele>1193.8</ele>
        <time>2021-09-18T12:12:14.504Z</time>
      </trkpt>
      <trkpt lat="44.20924" lon="6.24805">
        <ele>1194.2</ele>
        <time>2021-09-18T12:12:19.350Z</time>
      </trkpt>
      <trkpt lat="44.20922" lon="6.24805">
        <ele>1195.2</ele>
        <time>2021-09-18T12:12:29.043Z</time>
      </trkpt>
      <trkpt lat="44.2092" lon="6.24806">
        <ele>1196</ele>
        <time>2021-09-18T12:12:39.340Z</time>
      </trkpt>
      <trkpt lat="44.20919" lon="6.24806">
        <ele>1196.5</ele>
        <time>2021-09-18T12:12:44.186Z</time>
      </trkpt>
      <trkpt lat="44.20918" lon="6.24806">
        <ele>1197</ele>
        <time>2021-09-18T12:12:49.033Z</time>
      </trkpt>
      <trkpt lat="44.20917" lon="6.24805">
        <ele>1197.6</ele>
        <time>2021-09-18T12:12:54.996Z</time>
      </trkpt>
      <trkpt lat="44.20917" lon="6.24803">
        <ele>1197.8</ele>
        <time>2021-09-18T12:13:01.944Z</time>
      </trkpt>
      <trkpt lat="44.20917" lon="6.248">
        <ele>1198</ele>
        <time>2021-09-18T12:13:08.522Z</time>
      </trkpt>
      <trkpt lat="44.20916" lon="6.24798">
        <ele>1198.5</ele>
        <time>2021-09-18T12:13:16.993Z</time>
      </trkpt>
      <trkpt lat="44.20916" lon="6.24796">
        <ele>1198.7</ele>
        <time>2021-09-18T12:13:23.941Z</time>
      </trkpt>
      <trkpt lat="44.20916" lon="6.24793">
        <ele>1199</ele>
        <time>2021-09-18T12:13:34.363Z</time>
      </trkpt>
      <trkpt lat="44.20916" lon="6.24792">
        <ele>1199.1</ele>
        <time>2021-09-18T12:13:37.837Z</time>
      </trkpt>
      <trkpt lat="44.20915" lon="6.2479">
        <ele>1199.5</ele>
        <time>2021-09-18T12:13:46.308Z</time>
      </trkpt>
      <trkpt lat="44.20915" lon="6.24792">
        <ele>1199.3</ele>
        <time>2021-09-18T12:13:46.658Z</time>
      </trkpt>
      <trkpt lat="44.20914" lon="6.24791">
        <ele>1199.6</ele>
        <time>2021-09-18T12:13:52.621Z</time>
      </trkpt>
      <trkpt lat="44.20912" lon="6.24792">
        <ele>1199.9</ele>
        <time>2021-09-18T12:14:02.918Z</time>
      </trkpt>
      <trkpt lat="44.20912" lon="6.2479">
        <ele>1200.1</ele>
        <time>2021-09-18T12:14:09.866Z</time>
      </trkpt>
      <trkpt lat="44.2091" lon="6.24789">
        <ele>1200.6</ele>
        <time>2021-09-18T12:14:20.162Z</time>
      </trkpt>
      <trkpt lat="44.20908" lon="6.24787">
        <ele>1201.3</ele>
        <time>2021-09-18T12:14:32.088Z</time>
      </trkpt>
      <trkpt lat="44.20909" lon="6.24786">
        <ele>1201.2</ele>
        <time>2021-09-18T12:14:32.389Z</time>
      </trkpt>
      <trkpt lat="44.20908" lon="6.24783">
        <ele>1201.7</ele>
        <time>2021-09-18T12:14:43.883Z</time>
      </trkpt>
      <trkpt lat="44.20906" lon="6.24782">
        <ele>1202.2</ele>
        <time>2021-09-18T12:14:54.179Z</time>
      </trkpt>
      <trkpt lat="44.20906" lon="6.2478">
        <ele>1202.4</ele>
        <time>2021-09-18T12:15:01.127Z</time>
      </trkpt>
      <trkpt lat="44.20906" lon="6.24778">
        <ele>1202.7</ele>
        <time>2021-09-18T12:15:08.075Z</time>
      </trkpt>
      <trkpt lat="44.20905" lon="6.24777">
        <ele>1203</ele>
        <time>2021-09-18T12:15:14.038Z</time>
      </trkpt>
      <trkpt lat="44.20906" lon="6.24778">
        <ele>1202.7</ele>
        <time>2021-09-18T12:15:14.339Z</time>
      </trkpt>
      <trkpt lat="44.20904" lon="6.24778">
        <ele>1203.1</ele>
        <time>2021-09-18T12:15:24.032Z</time>
      </trkpt>
      <trkpt lat="44.20902" lon="6.24778">
        <ele>1203.5</ele>
        <time>2021-09-18T12:15:33.725Z</time>
      </trkpt>
      <trkpt lat="44.20902" lon="6.24776">
        <ele>1203.8</ele>
        <time>2021-09-18T12:15:40.672Z</time>
      </trkpt>
      <trkpt lat="44.20902" lon="6.24775">
        <ele>1203.9</ele>
        <time>2021-09-18T12:15:44.146Z</time>
      </trkpt>
      <trkpt lat="44.20901" lon="6.24774">
        <ele>1204.2</ele>
        <time>2021-09-18T12:15:50.109Z</time>
      </trkpt>
      <trkpt lat="44.209" lon="6.24773">
        <ele>1204.6</ele>
        <time>2021-09-18T12:15:56.072Z</time>
      </trkpt>
      <trkpt lat="44.20897" lon="6.24774">
        <ele>1205.1</ele>
        <time>2021-09-18T12:16:11.021Z</time>
      </trkpt>
      <trkpt lat="44.20896" lon="6.24773">
        <ele>1205.5</ele>
        <time>2021-09-18T12:16:16.984Z</time>
      </trkpt>
      <trkpt lat="44.20895" lon="6.2477">
        <ele>1206</ele>
        <time>2021-09-18T12:16:28.478Z</time>
      </trkpt>
      <trkpt lat="44.20894" lon="6.24768">
        <ele>1206.5</ele>
        <time>2021-09-18T12:16:36.949Z</time>
      </trkpt>
      <trkpt lat="44.20894" lon="6.24766">
        <ele>1206.8</ele>
        <time>2021-09-18T12:16:43.897Z</time>
      </trkpt>
      <trkpt lat="44.20892" lon="6.24766">
        <ele>1207.2</ele>
        <time>2021-09-18T12:16:53.590Z</time>
      </trkpt>
      <trkpt lat="44.20891" lon="6.24765">
        <ele>1207.6</ele>
        <time>2021-09-18T12:16:59.553Z</time>
      </trkpt>
      <trkpt lat="44.20891" lon="6.24764">
        <ele>1207.7</ele>
        <time>2021-09-18T12:17:03.027Z</time>
      </trkpt>
      <trkpt lat="44.2089" lon="6.24763">
        <ele>1208.1</ele>
        <time>2021-09-18T12:17:08.990Z</time>
      </trkpt>
      <trkpt lat="44.2089" lon="6.24761">
        <ele>1208.3</ele>
        <time>2021-09-18T12:17:15.937Z</time>
      </trkpt>
      <trkpt lat="44.20889" lon="6.2476">
        <ele>1208.7</ele>
        <time>2021-09-18T12:17:21.900Z</time>
      </trkpt>
      <trkpt lat="44.20888" lon="6.24759">
        <ele>1209.1</ele>
        <time>2021-09-18T12:17:27.863Z</time>
      </trkpt>
      <trkpt lat="44.20889" lon="6.24758">
        <ele>1208.9</ele>
        <time>2021-09-18T12:17:28.164Z</time>
      </trkpt>
      <trkpt lat="44.20888" lon="6.24755">
        <ele>1209.6</ele>
        <time>2021-09-18T12:17:39.658Z</time>
      </trkpt>
      <trkpt lat="44.20887" lon="6.24754">
        <ele>1210</ele>
        <time>2021-09-18T12:17:45.621Z</time>
      </trkpt>
      <trkpt lat="44.20886" lon="6.24755">
        <ele>1210.1</ele>
        <time>2021-09-18T12:17:49.021Z</time>
      </trkpt>
      <trkpt lat="44.20885" lon="6.24755">
        <ele>1210.3</ele>
        <time>2021-09-18T12:17:53.867Z</time>
      </trkpt>
      <trkpt lat="44.20883" lon="6.24756">
        <ele>1210.7</ele>
        <time>2021-09-18T12:18:04.164Z</time>
      </trkpt>
      <trkpt lat="44.20882" lon="6.24757">
        <ele>1210.8</ele>
        <time>2021-09-18T12:18:07.564Z</time>
      </trkpt>
      <trkpt lat="44.20881" lon="6.24754">
        <ele>1211.4</ele>
        <time>2021-09-18T12:18:19.057Z</time>
      </trkpt>
      <trkpt lat="44.20881" lon="6.24751">
        <ele>1211.8</ele>
        <time>2021-09-18T12:18:29.479Z</time>
      </trkpt>
      <trkpt lat="44.2088" lon="6.2475">
        <ele>1212.2</ele>
        <time>2021-09-18T12:18:35.442Z</time>
      </trkpt>
      <trkpt lat="44.20879" lon="6.24748">
        <ele>1212.6</ele>
        <time>2021-09-18T12:18:43.913Z</time>
      </trkpt>
      <trkpt lat="44.2088" lon="6.24746">
        <ele>1212.5</ele>
        <time>2021-09-18T12:18:44.335Z</time>
      </trkpt>
      <trkpt lat="44.2088" lon="6.24745">
        <ele>1212.6</ele>
        <time>2021-09-18T12:18:47.809Z</time>
      </trkpt>
      <trkpt lat="44.2088" lon="6.24743">
        <ele>1212.7</ele>
        <time>2021-09-18T12:18:51.427Z</time>
      </trkpt>
      <trkpt lat="44.20879" lon="6.24741">
        <ele>1213.1</ele>
        <time>2021-09-18T12:18:59.898Z</time>
      </trkpt>
      <trkpt lat="44.20879" lon="6.24739">
        <ele>1213.3</ele>
        <time>2021-09-18T12:19:06.846Z</time>
      </trkpt>
      <trkpt lat="44.20879" lon="6.24738">
        <ele>1213.3</ele>
        <time>2021-09-18T12:19:07.747Z</time>
      </trkpt>
      <trkpt lat="44.20879" lon="6.24736">
        <ele>1213.5</ele>
        <time>2021-09-18T12:19:14.695Z</time>
      </trkpt>
      <trkpt lat="44.20878" lon="6.24734">
        <ele>1213.9</ele>
        <time>2021-09-18T12:19:23.166Z</time>
      </trkpt>
      <trkpt lat="44.20877" lon="6.24732">
        <ele>1214.3</ele>
        <time>2021-09-18T12:19:31.637Z</time>
      </trkpt>
      <trkpt lat="44.20876" lon="6.24731">
        <ele>1214.7</ele>
        <time>2021-09-18T12:19:37.600Z</time>
      </trkpt>
      <trkpt lat="44.20876" lon="6.24729">
        <ele>1214.8</ele>
        <time>2021-09-18T12:19:41.218Z</time>
      </trkpt>
      <trkpt lat="44.20875" lon="6.24729">
        <ele>1215.1</ele>
        <time>2021-09-18T12:19:46.065Z</time>
      </trkpt>
      <trkpt lat="44.20874" lon="6.24729">
        <ele>1215.4</ele>
        <time>2021-09-18T12:19:50.911Z</time>
      </trkpt>
      <trkpt lat="44.20873" lon="6.2473">
        <ele>1215.6</ele>
        <time>2021-09-18T12:19:56.874Z</time>
      </trkpt>
      <trkpt lat="44.20871" lon="6.2473">
        <ele>1216.2</ele>
        <time>2021-09-18T12:20:06.567Z</time>
      </trkpt>
      <trkpt lat="44.20869" lon="6.24732">
        <ele>1216.6</ele>
        <time>2021-09-18T12:20:18.493Z</time>
      </trkpt>
      <trkpt lat="44.20868" lon="6.24731">
        <ele>1217</ele>
        <time>2021-09-18T12:20:24.456Z</time>
      </trkpt>
      <trkpt lat="44.20867" lon="6.2473">
        <ele>1217.4</ele>
        <time>2021-09-18T12:20:30.419Z</time>
      </trkpt>
      <trkpt lat="44.20868" lon="6.24728">
        <ele>1217.3</ele>
        <time>2021-09-18T12:20:30.840Z</time>
      </trkpt>
      <trkpt lat="44.20868" lon="6.24726">
        <ele>1217.4</ele>
        <time>2021-09-18T12:20:34.458Z</time>
      </trkpt>
      <trkpt lat="44.20868" lon="6.24725">
        <ele>1217.5</ele>
        <time>2021-09-18T12:20:37.932Z</time>
      </trkpt>
      <trkpt lat="44.20868" lon="6.24722">
        <ele>1217.8</ele>
        <time>2021-09-18T12:20:48.354Z</time>
      </trkpt>
      <trkpt lat="44.20868" lon="6.24721">
        <ele>1217.9</ele>
        <time>2021-09-18T12:20:51.828Z</time>
      </trkpt>
      <trkpt lat="44.20868" lon="6.2472">
        <ele>1218</ele>
        <time>2021-09-18T12:20:55.302Z</time>
      </trkpt>
      <trkpt lat="44.20868" lon="6.24718">
        <ele>1218.2</ele>
        <time>2021-09-18T12:21:02.250Z</time>
      </trkpt>
      <trkpt lat="44.20867" lon="6.24714">
        <ele>1218.9</ele>
        <time>2021-09-18T12:21:16.967Z</time>
      </trkpt>
      <trkpt lat="44.20867" lon="6.24712">
        <ele>1219</ele>
        <time>2021-09-18T12:21:20.585Z</time>
      </trkpt>
      <trkpt lat="44.20867" lon="6.24711">
        <ele>1219.1</ele>
        <time>2021-09-18T12:21:24.059Z</time>
      </trkpt>
      <trkpt lat="44.20866" lon="6.24709">
        <ele>1219.7</ele>
        <time>2021-09-18T12:21:32.530Z</time>
      </trkpt>
      <trkpt lat="44.20866" lon="6.24708">
        <ele>1219.8</ele>
        <time>2021-09-18T12:21:36.004Z</time>
      </trkpt>
      <trkpt lat="44.20866" lon="6.24705">
        <ele>1220</ele>
        <time>2021-09-18T12:21:42.582Z</time>
      </trkpt>
      <trkpt lat="44.20866" lon="6.24704">
        <ele>1220.1</ele>
        <time>2021-09-18T12:21:46.056Z</time>
      </trkpt>
      <trkpt lat="44.20864" lon="6.24702">
        <ele>1221</ele>
        <time>2021-09-18T12:21:57.982Z</time>
      </trkpt>
      <trkpt lat="44.20863" lon="6.247">
        <ele>1221.5</ele>
        <time>2021-09-18T12:22:06.454Z</time>
      </trkpt>
      <trkpt lat="44.20862" lon="6.24698">
        <ele>1222.1</ele>
        <time>2021-09-18T12:22:14.925Z</time>
      </trkpt>
      <trkpt lat="44.20862" lon="6.24696">
        <ele>1222.3</ele>
        <time>2021-09-18T12:22:21.873Z</time>
      </trkpt>
      <trkpt lat="44.20862" lon="6.24694">
        <ele>1222.5</ele>
        <time>2021-09-18T12:22:28.821Z</time>
      </trkpt>
      <trkpt lat="44.20861" lon="6.24692">
        <ele>1223.1</ele>
        <time>2021-09-18T12:22:37.292Z</time>
      </trkpt>
      <trkpt lat="44.20861" lon="6.2469">
        <ele>1223.3</ele>
        <time>2021-09-18T12:22:44.240Z</time>
      </trkpt>
      <trkpt lat="44.2086" lon="6.24688">
        <ele>1223.9</ele>
        <time>2021-09-18T12:22:52.711Z</time>
      </trkpt>
      <trkpt lat="44.20859" lon="6.24685">
        <ele>1224.5</ele>
        <time>2021-09-18T12:23:04.205Z</time>
      </trkpt>
      <trkpt lat="44.20857" lon="6.24684">
        <ele>1225.4</ele>
        <time>2021-09-18T12:23:14.502Z</time>
      </trkpt>
      <trkpt lat="44.20856" lon="6.24683">
        <ele>1225.9</ele>
        <time>2021-09-18T12:23:20.465Z</time>
      </trkpt>
      <trkpt lat="44.20855" lon="6.24683">
        <ele>1226.3</ele>
        <time>2021-09-18T12:23:25.311Z</time>
      </trkpt>
      <trkpt lat="44.20855" lon="6.24681">
        <ele>1226.5</ele>
        <time>2021-09-18T12:23:32.259Z</time>
      </trkpt>
      <trkpt lat="44.20856" lon="6.2468">
        <ele>1226.2</ele>
        <time>2021-09-18T12:23:32.560Z</time>
      </trkpt>
      <trkpt lat="44.20856" lon="6.24678">
        <ele>1226.5</ele>
        <time>2021-09-18T12:23:39.508Z</time>
      </trkpt>
      <trkpt lat="44.20855" lon="6.24676">
        <ele>1227.1</ele>
        <time>2021-09-18T12:23:47.979Z</time>
      </trkpt>
      <trkpt lat="44.20855" lon="6.24673">
        <ele>1227.4</ele>
        <time>2021-09-18T12:23:58.401Z</time>
      </trkpt>
      <trkpt lat="44.20854" lon="6.24671">
        <ele>1228.1</ele>
        <time>2021-09-18T12:24:06.872Z</time>
      </trkpt>
      <trkpt lat="44.20854" lon="6.2467">
        <ele>1228.2</ele>
        <time>2021-09-18T12:24:10.346Z</time>
      </trkpt>
      <trkpt lat="44.20854" lon="6.24667">
        <ele>1228.5</ele>
        <time>2021-09-18T12:24:20.768Z</time>
      </trkpt>
      <trkpt lat="44.20854" lon="6.24664">
        <ele>1228.8</ele>
        <time>2021-09-18T12:24:31.190Z</time>
      </trkpt>
      <trkpt lat="44.20853" lon="6.24663">
        <ele>1229.4</ele>
        <time>2021-09-18T12:24:37.153Z</time>
      </trkpt>
      <trkpt lat="44.20853" lon="6.24662">
        <ele>1229.5</ele>
        <time>2021-09-18T12:24:40.627Z</time>
      </trkpt>
      <trkpt lat="44.20852" lon="6.24659">
        <ele>1230.2</ele>
        <time>2021-09-18T12:24:52.121Z</time>
      </trkpt>
      <trkpt lat="44.20852" lon="6.24655">
        <ele>1230.6</ele>
        <time>2021-09-18T12:25:06.017Z</time>
      </trkpt>
      <trkpt lat="44.20851" lon="6.24653">
        <ele>1231.2</ele>
        <time>2021-09-18T12:25:14.488Z</time>
      </trkpt>
      <trkpt lat="44.20849" lon="6.24651">
        <ele>1232.2</ele>
        <time>2021-09-18T12:25:26.414Z</time>
      </trkpt>
      <trkpt lat="44.20849" lon="6.24649">
        <ele>1232.4</ele>
        <time>2021-09-18T12:25:33.362Z</time>
      </trkpt>
      <trkpt lat="44.20848" lon="6.24648">
        <ele>1233</ele>
        <time>2021-09-18T12:25:39.325Z</time>
      </trkpt>
      <trkpt lat="44.20847" lon="6.24646">
        <ele>1233.6</ele>
        <time>2021-09-18T12:25:47.796Z</time>
      </trkpt>
      <trkpt lat="44.20846" lon="6.24644">
        <ele>1234.2</ele>
        <time>2021-09-18T12:25:56.267Z</time>
      </trkpt>
      <trkpt lat="44.20845" lon="6.24642">
        <ele>1234.8</ele>
        <time>2021-09-18T12:26:04.739Z</time>
      </trkpt>
      <trkpt lat="44.20845" lon="6.2464">
        <ele>1235</ele>
        <time>2021-09-18T12:26:11.687Z</time>
      </trkpt>
      <trkpt lat="44.20846" lon="6.24638">
        <ele>1234.8</ele>
        <time>2021-09-18T12:26:12.114Z</time>
      </trkpt>
      <trkpt lat="44.20845" lon="6.24635">
        <ele>1235.6</ele>
        <time>2021-09-18T12:26:23.608Z</time>
      </trkpt>
      <trkpt lat="44.20845" lon="6.24634">
        <ele>1235.7</ele>
        <time>2021-09-18T12:26:27.082Z</time>
      </trkpt>
      <trkpt lat="44.20845" lon="6.24632">
        <ele>1235.9</ele>
        <time>2021-09-18T12:26:34.030Z</time>
      </trkpt>
      <trkpt lat="44.20845" lon="6.24629">
        <ele>1236.2</ele>
        <time>2021-09-18T12:26:44.452Z</time>
      </trkpt>
      <trkpt lat="44.20844" lon="6.24626">
        <ele>1236.9</ele>
        <time>2021-09-18T12:26:55.945Z</time>
      </trkpt>
      <trkpt lat="44.20843" lon="6.24624">
        <ele>1237.5</ele>
        <time>2021-09-18T12:27:04.417Z</time>
      </trkpt>
      <trkpt lat="44.20841" lon="6.24623">
        <ele>1238.5</ele>
        <time>2021-09-18T12:27:14.713Z</time>
      </trkpt>
      <trkpt lat="44.2084" lon="6.2462">
        <ele>1239.2</ele>
        <time>2021-09-18T12:27:26.207Z</time>
      </trkpt>
      <trkpt lat="44.20842" lon="6.24619">
        <ele>1238.5</ele>
        <time>2021-09-18T12:27:26.726Z</time>
      </trkpt>
      <trkpt lat="44.20841" lon="6.24618">
        <ele>1239</ele>
        <time>2021-09-18T12:27:32.689Z</time>
      </trkpt>
      <trkpt lat="44.2084" lon="6.24617">
        <ele>1239.5</ele>
        <time>2021-09-18T12:27:38.652Z</time>
      </trkpt>
      <trkpt lat="44.20839" lon="6.24616">
        <ele>1240.1</ele>
        <time>2021-09-18T12:27:44.615Z</time>
      </trkpt>
      <trkpt lat="44.20838" lon="6.24614">
        <ele>1240.7</ele>
        <time>2021-09-18T12:27:53.086Z</time>
      </trkpt>
      <trkpt lat="44.20837" lon="6.24611">
        <ele>1241.5</ele>
        <time>2021-09-18T12:28:04.580Z</time>
      </trkpt>
      <trkpt lat="44.20837" lon="6.2461">
        <ele>1241.6</ele>
        <time>2021-09-18T12:28:08.054Z</time>
      </trkpt>
      <trkpt lat="44.20836" lon="6.24609">
        <ele>1242.1</ele>
        <time>2021-09-18T12:28:14.017Z</time>
      </trkpt>
      <trkpt lat="44.20835" lon="6.24607">
        <ele>1242.7</ele>
        <time>2021-09-18T12:28:22.488Z</time>
      </trkpt>
      <trkpt lat="44.20834" lon="6.24603">
        <ele>1243.6</ele>
        <time>2021-09-18T12:28:37.205Z</time>
      </trkpt>
      <trkpt lat="44.20833" lon="6.246">
        <ele>1244.2</ele>
        <time>2021-09-18T12:28:48.699Z</time>
      </trkpt>
      <trkpt lat="44.20833" lon="6.24598">
        <ele>1244.4</ele>
        <time>2021-09-18T12:28:55.647Z</time>
      </trkpt>
      <trkpt lat="44.20833" lon="6.24595">
        <ele>1244.7</ele>
        <time>2021-09-18T12:29:06.069Z</time>
      </trkpt>
      <trkpt lat="44.20832" lon="6.24592">
        <ele>1245.1</ele>
        <time>2021-09-18T12:29:17.563Z</time>
      </trkpt>
      <trkpt lat="44.20832" lon="6.24591">
        <ele>1245.2</ele>
        <time>2021-09-18T12:29:21.037Z</time>
      </trkpt>
      <trkpt lat="44.20833" lon="6.24588">
        <ele>1245.5</ele>
        <time>2021-09-18T12:29:31.483Z</time>
      </trkpt>
      <trkpt lat="44.20833" lon="6.24585">
        <ele>1245.8</ele>
        <time>2021-09-18T12:29:41.905Z</time>
      </trkpt>
      <trkpt lat="44.20835" lon="6.24584">
        <ele>1245.2</ele>
        <time>2021-09-18T12:29:42.425Z</time>
      </trkpt>
      <trkpt lat="44.20835" lon="6.24582">
        <ele>1245.5</ele>
        <time>2021-09-18T12:29:49.373Z</time>
      </trkpt>
      <trkpt lat="44.20835" lon="6.2458">
        <ele>1245.8</ele>
        <time>2021-09-18T12:29:56.321Z</time>
      </trkpt>
      <trkpt lat="44.20835" lon="6.24579">
        <ele>1246</ele>
        <time>2021-09-18T12:29:59.795Z</time>
      </trkpt>
      <trkpt lat="44.20836" lon="6.24577">
        <ele>1245.9</ele>
        <time>2021-09-18T12:30:00.216Z</time>
      </trkpt>
      <trkpt lat="44.20837" lon="6.24575">
        <ele>1245.9</ele>
        <time>2021-09-18T12:30:02.412Z</time>
      </trkpt>
      <trkpt lat="44.20837" lon="6.24572">
        <ele>1246.4</ele>
        <time>2021-09-18T12:30:12.834Z</time>
      </trkpt>
      <trkpt lat="44.20838" lon="6.24569">
        <ele>1246.5</ele>
        <time>2021-09-18T12:30:17.689Z</time>
      </trkpt>
      <trkpt lat="44.20838" lon="6.24567">
        <ele>1246.8</ele>
        <time>2021-09-18T12:30:24.637Z</time>
      </trkpt>
      <trkpt lat="44.20839" lon="6.24565">
        <ele>1246.8</ele>
        <time>2021-09-18T12:30:26.834Z</time>
      </trkpt>
      <trkpt lat="44.20838" lon="6.24564">
        <ele>1247.3</ele>
        <time>2021-09-18T12:30:32.797Z</time>
      </trkpt>
      <trkpt lat="44.20838" lon="6.24563">
        <ele>1247.5</ele>
        <time>2021-09-18T12:30:36.271Z</time>
      </trkpt>
      <trkpt lat="44.20839" lon="6.24561">
        <ele>1247.4</ele>
        <time>2021-09-18T12:30:36.692Z</time>
      </trkpt>
      <trkpt lat="44.20839" lon="6.24559">
        <ele>1247.8</ele>
        <time>2021-09-18T12:30:43.640Z</time>
      </trkpt>
      <trkpt lat="44.20839" lon="6.24557">
        <ele>1248.1</ele>
        <time>2021-09-18T12:30:50.588Z</time>
      </trkpt>
      <trkpt lat="44.2084" lon="6.24555">
        <ele>1248.1</ele>
        <time>2021-09-18T12:30:52.784Z</time>
      </trkpt>
      <trkpt lat="44.20839" lon="6.24553">
        <ele>1248.8</ele>
        <time>2021-09-18T12:31:01.256Z</time>
      </trkpt>
      <trkpt lat="44.20839" lon="6.24551">
        <ele>1249.2</ele>
        <time>2021-09-18T12:31:08.204Z</time>
      </trkpt>
      <trkpt lat="44.20838" lon="6.2455">
        <ele>1249.8</ele>
        <time>2021-09-18T12:31:14.167Z</time>
      </trkpt>
      <trkpt lat="44.20837" lon="6.24548">
        <ele>1250.5</ele>
        <time>2021-09-18T12:31:22.638Z</time>
      </trkpt>
      <trkpt lat="44.20835" lon="6.24546">
        <ele>1251.6</ele>
        <time>2021-09-18T12:31:34.564Z</time>
      </trkpt>
      <trkpt lat="44.20834" lon="6.24545">
        <ele>1252.2</ele>
        <time>2021-09-18T12:31:40.527Z</time>
      </trkpt>
      <trkpt lat="44.20833" lon="6.24542">
        <ele>1252.9</ele>
        <time>2021-09-18T12:31:52.021Z</time>
      </trkpt>
      <trkpt lat="44.20833" lon="6.24541">
        <ele>1253.1</ele>
        <time>2021-09-18T12:31:55.495Z</time>
      </trkpt>
      <trkpt lat="44.20832" lon="6.24539">
        <ele>1253.5</ele>
        <time>2021-09-18T12:32:03.966Z</time>
      </trkpt>
      <trkpt lat="44.2083" lon="6.24537">
        <ele>1253.8</ele>
        <time>2021-09-18T12:32:14.190Z</time>
      </trkpt>
      <trkpt lat="44.20829" lon="6.24536">
        <ele>1254</ele>
        <time>2021-09-18T12:32:20.153Z</time>
      </trkpt>
      <trkpt lat="44.20828" lon="6.24535">
        <ele>1254.1</ele>
        <time>2021-09-18T12:32:23.552Z</time>
      </trkpt>
      <trkpt lat="44.20826" lon="6.24533">
        <ele>1254.5</ele>
        <time>2021-09-18T12:32:35.478Z</time>
      </trkpt>
      <trkpt lat="44.20826" lon="6.24531">
        <ele>1254.8</ele>
        <time>2021-09-18T12:32:42.426Z</time>
      </trkpt>
      <trkpt lat="44.20824" lon="6.24528">
        <ele>1255.3</ele>
        <time>2021-09-18T12:32:56.659Z</time>
      </trkpt>
      <trkpt lat="44.20823" lon="6.24526">
        <ele>1255.7</ele>
        <time>2021-09-18T12:33:05.130Z</time>
      </trkpt>
      <trkpt lat="44.20817" lon="6.24517">
        <ele>1257.2</ele>
        <time>2021-09-18T12:33:47.829Z</time>
      </trkpt>
      <trkpt lat="44.20819" lon="6.24521">
        <ele>1256.5</ele>
        <time>2021-09-18T12:33:48.683Z</time>
      </trkpt>
      <trkpt lat="44.20815" lon="6.24515">
        <ele>1257.5</ele>
        <time>2021-09-18T12:34:17.149Z</time>
      </trkpt>
      <trkpt lat="44.20813" lon="6.24516">
        <ele>1257.4</ele>
        <time>2021-09-18T12:34:17.707Z</time>
      </trkpt>
      <trkpt lat="44.20812" lon="6.24516">
        <ele>1257.4</ele>
        <time>2021-09-18T12:34:18.964Z</time>
      </trkpt>
      <trkpt lat="44.20811" lon="6.24517">
        <ele>1257.2</ele>
        <time>2021-09-18T12:34:19.265Z</time>
      </trkpt>
      <trkpt lat="44.20808" lon="6.24517">
        <ele>1257.2</ele>
        <time>2021-09-18T12:34:23.034Z</time>
      </trkpt>
      <trkpt lat="44.20807" lon="6.24517">
        <ele>1257.2</ele>
        <time>2021-09-18T12:34:24.290Z</time>
      </trkpt>
      <trkpt lat="44.20805" lon="6.24518">
        <ele>1257</ele>
        <time>2021-09-18T12:34:24.810Z</time>
      </trkpt>
      <trkpt lat="44.20803" lon="6.24516">
        <ele>1257.4</ele>
        <time>2021-09-18T12:34:36.736Z</time>
      </trkpt>
      <trkpt lat="44.20801" lon="6.24515">
        <ele>1257.5</ele>
        <time>2021-09-18T12:34:41.315Z</time>
      </trkpt>
      <trkpt lat="44.20799" lon="6.24512">
        <ele>1258</ele>
        <time>2021-09-18T12:34:55.548Z</time>
      </trkpt>
      <trkpt lat="44.20797" lon="6.24512">
        <ele>1258</ele>
        <time>2021-09-18T12:34:58.061Z</time>
      </trkpt>
      <trkpt lat="44.20796" lon="6.24512">
        <ele>1258</ele>
        <time>2021-09-18T12:34:59.318Z</time>
      </trkpt>
      <trkpt lat="44.20794" lon="6.2451">
        <ele>1258.4</ele>
        <time>2021-09-18T12:35:11.244Z</time>
      </trkpt>
      <trkpt lat="44.20792" lon="6.2451">
        <ele>1258.4</ele>
        <time>2021-09-18T12:35:13.757Z</time>
      </trkpt>
      <trkpt lat="44.20791" lon="6.24511">
        <ele>1258.2</ele>
        <time>2021-09-18T12:35:14.057Z</time>
      </trkpt>
      <trkpt lat="44.20789" lon="6.2451">
        <ele>1258.4</ele>
        <time>2021-09-18T12:35:20.624Z</time>
      </trkpt>
      <trkpt lat="44.20788" lon="6.24509">
        <ele>1258.5</ele>
        <time>2021-09-18T12:35:24.024Z</time>
      </trkpt>
      <trkpt lat="44.20786" lon="6.24508">
        <ele>1258.7</ele>
        <time>2021-09-18T12:35:30.591Z</time>
      </trkpt>
      <trkpt lat="44.20785" lon="6.24507">
        <ele>1258.9</ele>
        <time>2021-09-18T12:35:36.554Z</time>
      </trkpt>
      <trkpt lat="44.20783" lon="6.24506">
        <ele>1259</ele>
        <time>2021-09-18T12:35:41.134Z</time>
      </trkpt>
      <trkpt lat="44.20781" lon="6.24507">
        <ele>1258.9</ele>
        <time>2021-09-18T12:35:41.692Z</time>
      </trkpt>
      <trkpt lat="44.20779" lon="6.24508">
        <ele>1258.7</ele>
        <time>2021-09-18T12:35:42.212Z</time>
      </trkpt>
      <trkpt lat="44.20777" lon="6.24509">
        <ele>1258.6</ele>
        <time>2021-09-18T12:35:42.770Z</time>
      </trkpt>
      <trkpt lat="44.20776" lon="6.2451">
        <ele>1258.4</ele>
        <time>2021-09-18T12:35:43.071Z</time>
      </trkpt>
      <trkpt lat="44.20775" lon="6.24509">
        <ele>1258.6</ele>
        <time>2021-09-18T12:35:49.034Z</time>
      </trkpt>
      <trkpt lat="44.20773" lon="6.24508">
        <ele>1258.7</ele>
        <time>2021-09-18T12:35:53.614Z</time>
      </trkpt>
      <trkpt lat="44.20772" lon="6.24507">
        <ele>1258.9</ele>
        <time>2021-09-18T12:35:59.577Z</time>
      </trkpt>
      <trkpt lat="44.20769" lon="6.24505">
        <ele>1259.2</ele>
        <time>2021-09-18T12:36:09.497Z</time>
      </trkpt>
      <trkpt lat="44.20768" lon="6.24504">
        <ele>1259.4</ele>
        <time>2021-09-18T12:36:15.460Z</time>
      </trkpt>
      <trkpt lat="44.20765" lon="6.24503">
        <ele>1259.5</ele>
        <time>2021-09-18T12:36:20.972Z</time>
      </trkpt>
      <trkpt lat="44.20764" lon="6.24502">
        <ele>1259.7</ele>
        <time>2021-09-18T12:36:26.935Z</time>
      </trkpt>
      <trkpt lat="44.20761" lon="6.24503">
        <ele>1259.5</ele>
        <time>2021-09-18T12:36:27.635Z</time>
      </trkpt>
      <trkpt lat="44.20759" lon="6.24503">
        <ele>1259.5</ele>
        <time>2021-09-18T12:36:30.148Z</time>
      </trkpt>
      <trkpt lat="44.20758" lon="6.24503">
        <ele>1259.5</ele>
        <time>2021-09-18T12:36:31.405Z</time>
      </trkpt>
      <trkpt lat="44.20756" lon="6.24502">
        <ele>1259.7</ele>
        <time>2021-09-18T12:36:37.972Z</time>
      </trkpt>
      <trkpt lat="44.20754" lon="6.245">
        <ele>1260</ele>
        <time>2021-09-18T12:36:48.195Z</time>
      </trkpt>
      <trkpt lat="44.20753" lon="6.24497">
        <ele>1260.9</ele>
        <time>2021-09-18T12:36:59.689Z</time>
      </trkpt>
      <trkpt lat="44.20751" lon="6.24494">
        <ele>1261.7</ele>
        <time>2021-09-18T12:37:13.922Z</time>
      </trkpt>
      <trkpt lat="44.20748" lon="6.24494">
        <ele>1261.8</ele>
        <time>2021-09-18T12:37:19.348Z</time>
      </trkpt>
      <trkpt lat="44.20746" lon="6.24494">
        <ele>1261.8</ele>
        <time>2021-09-18T12:37:21.861Z</time>
      </trkpt>
      <trkpt lat="44.20742" lon="6.24494">
        <ele>1261.9</ele>
        <time>2021-09-18T12:37:28.380Z</time>
      </trkpt>
      <trkpt lat="44.20741" lon="6.24493">
        <ele>1262.2</ele>
        <time>2021-09-18T12:37:34.343Z</time>
      </trkpt>
      <trkpt lat="44.2074" lon="6.24493">
        <ele>1262.2</ele>
        <time>2021-09-18T12:37:35.600Z</time>
      </trkpt>
      <trkpt lat="44.20737" lon="6.24491">
        <ele>1262.8</ele>
        <time>2021-09-18T12:37:51.714Z</time>
      </trkpt>
      <trkpt lat="44.20735" lon="6.24489">
        <ele>1263.3</ele>
        <time>2021-09-18T12:38:03.640Z</time>
      </trkpt>
      <trkpt lat="44.20733" lon="6.24486">
        <ele>1264.1</ele>
        <time>2021-09-18T12:38:17.873Z</time>
      </trkpt>
      <trkpt lat="44.20732" lon="6.24486">
        <ele>1264.1</ele>
        <time>2021-09-18T12:38:19.129Z</time>
      </trkpt>
      <trkpt lat="44.2073" lon="6.24486">
        <ele>1264.1</ele>
        <time>2021-09-18T12:38:21.642Z</time>
      </trkpt>
      <trkpt lat="44.20728" lon="6.24484">
        <ele>1264.6</ele>
        <time>2021-09-18T12:38:33.568Z</time>
      </trkpt>
      <trkpt lat="44.20727" lon="6.24482">
        <ele>1265.1</ele>
        <time>2021-09-18T12:38:42.040Z</time>
      </trkpt>
      <trkpt lat="44.20726" lon="6.24481">
        <ele>1265.3</ele>
        <time>2021-09-18T12:38:48.003Z</time>
      </trkpt>
      <trkpt lat="44.20726" lon="6.24479">
        <ele>1265.8</ele>
        <time>2021-09-18T12:38:54.951Z</time>
      </trkpt>
      <trkpt lat="44.20725" lon="6.24477">
        <ele>1266.2</ele>
        <time>2021-09-18T12:39:03.422Z</time>
      </trkpt>
      <trkpt lat="44.20724" lon="6.24475">
        <ele>1266.6</ele>
        <time>2021-09-18T12:39:11.894Z</time>
      </trkpt>
      <trkpt lat="44.20722" lon="6.24475">
        <ele>1266.6</ele>
        <time>2021-09-18T12:39:14.407Z</time>
      </trkpt>
      <trkpt lat="44.2072" lon="6.24472">
        <ele>1267.2</ele>
        <time>2021-09-18T12:39:28.639Z</time>
      </trkpt>
      <trkpt lat="44.20719" lon="6.24472">
        <ele>1267.2</ele>
        <time>2021-09-18T12:39:29.896Z</time>
      </trkpt>
      <trkpt lat="44.20717" lon="6.24472">
        <ele>1267.1</ele>
        <time>2021-09-18T12:39:30.409Z</time>
      </trkpt>
      <trkpt lat="44.20716" lon="6.24472">
        <ele>1267.1</ele>
        <time>2021-09-18T12:39:31.665Z</time>
      </trkpt>
      <trkpt lat="44.20714" lon="6.24471">
        <ele>1267.2</ele>
        <time>2021-09-18T12:39:36.245Z</time>
      </trkpt>
      <trkpt lat="44.20711" lon="6.2447">
        <ele>1267.3</ele>
        <time>2021-09-18T12:39:41.757Z</time>
      </trkpt>
      <trkpt lat="44.2071" lon="6.2447">
        <ele>1267.3</ele>
        <time>2021-09-18T12:39:43.014Z</time>
      </trkpt>
      <trkpt lat="44.20709" lon="6.2447">
        <ele>1267.3</ele>
        <time>2021-09-18T12:39:44.270Z</time>
      </trkpt>
      <trkpt lat="44.20708" lon="6.24468">
        <ele>1267.6</ele>
        <time>2021-09-18T12:39:52.742Z</time>
      </trkpt>
      <trkpt lat="44.20705" lon="6.24467">
        <ele>1267.7</ele>
        <time>2021-09-18T12:39:58.255Z</time>
      </trkpt>
      <trkpt lat="44.20706" lon="6.24467">
        <ele>1267.7</ele>
        <time>2021-09-18T12:39:59.511Z</time>
      </trkpt>
      <trkpt lat="44.20705" lon="6.24468">
        <ele>1267.5</ele>
        <time>2021-09-18T12:39:59.812Z</time>
      </trkpt>
      <trkpt lat="44.20703" lon="6.24468">
        <ele>1267.4</ele>
        <time>2021-09-18T12:40:00.324Z</time>
      </trkpt>
      <trkpt lat="44.20688" lon="6.24469">
        <ele>1266.7</ele>
        <time>2021-09-18T12:40:04.289Z</time>
      </trkpt>
      <trkpt lat="44.20699" lon="6.24467">
        <ele>1267.5</ele>
        <time>2021-09-18T12:40:32.792Z</time>
      </trkpt>
      <trkpt lat="44.20698" lon="6.24467">
        <ele>1267.4</ele>
        <time>2021-09-18T12:40:33.036Z</time>
      </trkpt>
      <trkpt lat="44.20696" lon="6.24467">
        <ele>1267.3</ele>
        <time>2021-09-18T12:40:33.548Z</time>
      </trkpt>
      <trkpt lat="44.20695" lon="6.24467">
        <ele>1267.3</ele>
        <time>2021-09-18T12:40:34.805Z</time>
      </trkpt>
      <trkpt lat="44.20693" lon="6.24467">
        <ele>1267.2</ele>
        <time>2021-09-18T12:40:35.318Z</time>
      </trkpt>
      <trkpt lat="44.20691" lon="6.24466">
        <ele>1267.3</ele>
        <time>2021-09-18T12:40:39.897Z</time>
      </trkpt>
      <trkpt lat="44.20689" lon="6.24468">
        <ele>1266.9</ele>
        <time>2021-09-18T12:40:40.499Z</time>
      </trkpt>
      <trkpt lat="44.20686" lon="6.24469">
        <ele>1266.7</ele>
        <time>2021-09-18T12:40:41.199Z</time>
      </trkpt>
      <trkpt lat="44.20684" lon="6.24469">
        <ele>1266.6</ele>
        <time>2021-09-18T12:40:41.712Z</time>
      </trkpt>
      <trkpt lat="44.20683" lon="6.24469">
        <ele>1266.6</ele>
        <time>2021-09-18T12:40:42.968Z</time>
      </trkpt>
      <trkpt lat="44.2068" lon="6.2447">
        <ele>1266.3</ele>
        <time>2021-09-18T12:40:43.722Z</time>
      </trkpt>
      <trkpt lat="44.20677" lon="6.2447">
        <ele>1266.2</ele>
        <time>2021-09-18T12:40:44.621Z</time>
      </trkpt>
      <trkpt lat="44.20676" lon="6.24469">
        <ele>1266.3</ele>
        <time>2021-09-18T12:40:48.021Z</time>
      </trkpt>
      <trkpt lat="44.20673" lon="6.24469">
        <ele>1266.2</ele>
        <time>2021-09-18T12:40:48.919Z</time>
      </trkpt>
      <trkpt lat="44.20671" lon="6.24469">
        <ele>1266.1</ele>
        <time>2021-09-18T12:40:49.432Z</time>
      </trkpt>
      <trkpt lat="44.20668" lon="6.24468">
        <ele>1266.1</ele>
        <time>2021-09-18T12:40:53.307Z</time>
      </trkpt>
      <trkpt lat="44.20665" lon="6.24466">
        <ele>1266.2</ele>
        <time>2021-09-18T12:40:59.074Z</time>
      </trkpt>
      <trkpt lat="44.20663" lon="6.24466">
        <ele>1266</ele>
        <time>2021-09-18T12:40:59.563Z</time>
      </trkpt>
      <trkpt lat="44.20662" lon="6.24465">
        <ele>1266</ele>
        <time>2021-09-18T12:41:01.109Z</time>
      </trkpt>
      <trkpt lat="44.20661" lon="6.24465">
        <ele>1266</ele>
        <time>2021-09-18T12:41:02.365Z</time>
      </trkpt>
      <trkpt lat="44.20659" lon="6.24465">
        <ele>1265.8</ele>
        <time>2021-09-18T12:41:02.854Z</time>
      </trkpt>
      <trkpt lat="44.20657" lon="6.24464">
        <ele>1265.8</ele>
        <time>2021-09-18T12:41:05.523Z</time>
      </trkpt>
      <trkpt lat="44.20656" lon="6.24464">
        <ele>1265.7</ele>
        <time>2021-09-18T12:41:05.768Z</time>
      </trkpt>
      <trkpt lat="44.20654" lon="6.24461">
        <ele>1265.8</ele>
        <time>2021-09-18T12:41:11.130Z</time>
      </trkpt>
      <trkpt lat="44.20652" lon="6.2446">
        <ele>1265.7</ele>
        <time>2021-09-18T12:41:11.689Z</time>
      </trkpt>
      <trkpt lat="44.20651" lon="6.2446">
        <ele>1265.7</ele>
        <time>2021-09-18T12:41:12.946Z</time>
      </trkpt>
      <trkpt lat="44.20649" lon="6.24457">
        <ele>1265.7</ele>
        <time>2021-09-18T12:41:16.636Z</time>
      </trkpt>
      <trkpt lat="44.20648" lon="6.24457">
        <ele>1265.6</ele>
        <time>2021-09-18T12:41:16.880Z</time>
      </trkpt>
      <trkpt lat="44.20645" lon="6.24455">
        <ele>1265.5</ele>
        <time>2021-09-18T12:41:17.910Z</time>
      </trkpt>
      <trkpt lat="44.20643" lon="6.24453">
        <ele>1265.5</ele>
        <time>2021-09-18T12:41:21.002Z</time>
      </trkpt>
      <trkpt lat="44.20641" lon="6.24452">
        <ele>1265.3</ele>
        <time>2021-09-18T12:41:21.521Z</time>
      </trkpt>
      <trkpt lat="44.20638" lon="6.24453">
        <ele>1265</ele>
        <time>2021-09-18T12:41:22.275Z</time>
      </trkpt>
      <trkpt lat="44.20636" lon="6.24453">
        <ele>1264.9</ele>
        <time>2021-09-18T12:41:22.788Z</time>
      </trkpt>
      <trkpt lat="44.20615" lon="6.24455">
        <ele>1260.4</ele>
        <time>2021-09-18T12:41:27.921Z</time>
      </trkpt>
      <trkpt lat="44.20599" lon="6.24453">
        <ele>1258.8</ele>
        <time>2021-09-18T12:41:31.886Z</time>
      </trkpt>
      <trkpt lat="44.20582" lon="6.24459">
        <ele>1257.4</ele>
        <time>2021-09-18T12:41:36.172Z</time>
      </trkpt>
      <trkpt lat="44.20564" lon="6.24457">
        <ele>1256</ele>
        <time>2021-09-18T12:41:40.699Z</time>
      </trkpt>
      <trkpt lat="44.2055" lon="6.24454">
        <ele>1255.4</ele>
        <time>2021-09-18T12:41:44.537Z</time>
      </trkpt>
      <trkpt lat="44.20533" lon="6.24444">
        <ele>1255</ele>
        <time>2021-09-18T12:41:50.734Z</time>
      </trkpt>
      <trkpt lat="44.2052" lon="6.24433">
        <ele>1253.8</ele>
        <time>2021-09-18T12:41:54.441Z</time>
      </trkpt>
      <trkpt lat="44.20514" lon="6.24408">
        <ele>1251</ele>
        <time>2021-09-18T12:41:59.196Z</time>
      </trkpt>
      <trkpt lat="44.20513" lon="6.24397">
        <ele>1249.8</ele>
        <time>2021-09-18T12:42:01.085Z</time>
      </trkpt>
      <trkpt lat="44.20509" lon="6.24382">
        <ele>1247.7</ele>
        <time>2021-09-18T12:42:03.880Z</time>
      </trkpt>
      <trkpt lat="44.20509" lon="6.24366">
        <ele>1245.6</ele>
        <time>2021-09-18T12:42:06.699Z</time>
      </trkpt>
      <trkpt lat="44.20496" lon="6.24357">
        <ele>1249.3</ele>
        <time>2021-09-18T12:43:16.115Z</time>
      </trkpt>
      <trkpt lat="44.20496" lon="6.24356">
        <ele>1249.2</ele>
        <time>2021-09-18T12:43:16.290Z</time>
      </trkpt>
      <trkpt lat="44.20494" lon="6.24353">
        <ele>1248.5</ele>
        <time>2021-09-18T12:43:17.008Z</time>
      </trkpt>
      <trkpt lat="44.20491" lon="6.24351">
        <ele>1247.8</ele>
        <time>2021-09-18T12:43:17.821Z</time>
      </trkpt>
      <trkpt lat="44.20488" lon="6.24349">
        <ele>1247</ele>
        <time>2021-09-18T12:43:18.633Z</time>
      </trkpt>
      <trkpt lat="44.20487" lon="6.24347">
        <ele>1246.7</ele>
        <time>2021-09-18T12:43:19.061Z</time>
      </trkpt>
      <trkpt lat="44.20485" lon="6.24343">
        <ele>1245.9</ele>
        <time>2021-09-18T12:43:19.915Z</time>
      </trkpt>
      <trkpt lat="44.20483" lon="6.24339">
        <ele>1245.1</ele>
        <time>2021-09-18T12:43:20.769Z</time>
      </trkpt>
      <trkpt lat="44.20482" lon="6.24338">
        <ele>1244.8</ele>
        <time>2021-09-18T12:43:21.070Z</time>
      </trkpt>
      <trkpt lat="44.2048" lon="6.24337">
        <ele>1244.3</ele>
        <time>2021-09-18T12:43:21.589Z</time>
      </trkpt>
      <trkpt lat="44.20479" lon="6.24336">
        <ele>1244</ele>
        <time>2021-09-18T12:43:21.890Z</time>
      </trkpt>
      <trkpt lat="44.20478" lon="6.24334">
        <ele>1243.6</ele>
        <time>2021-09-18T12:43:22.317Z</time>
      </trkpt>
      <trkpt lat="44.20477" lon="6.24332">
        <ele>1243.2</ele>
        <time>2021-09-18T12:43:22.745Z</time>
      </trkpt>
      <trkpt lat="44.20476" lon="6.24329">
        <ele>1242.7</ele>
        <time>2021-09-18T12:43:23.324Z</time>
      </trkpt>
      <trkpt lat="44.20476" lon="6.24327">
        <ele>1242.5</ele>
        <time>2021-09-18T12:43:23.675Z</time>
      </trkpt>
      <trkpt lat="44.20476" lon="6.24326">
        <ele>1242.4</ele>
        <time>2021-09-18T12:43:23.850Z</time>
      </trkpt>
      <trkpt lat="44.20475" lon="6.24324">
        <ele>1242</ele>
        <time>2021-09-18T12:43:24.277Z</time>
      </trkpt>
      <trkpt lat="44.20473" lon="6.24322">
        <ele>1241.4</ele>
        <time>2021-09-18T12:43:24.878Z</time>
      </trkpt>
      <trkpt lat="44.20472" lon="6.24321">
        <ele>1241.1</ele>
        <time>2021-09-18T12:43:25.179Z</time>
      </trkpt>
      <trkpt lat="44.20469" lon="6.24321">
        <ele>1240.5</ele>
        <time>2021-09-18T12:43:25.912Z</time>
      </trkpt>
      <trkpt lat="44.20469" lon="6.24322">
        <ele>1240.6</ele>
        <time>2021-09-18T12:43:29.387Z</time>
      </trkpt>
      <trkpt lat="44.20468" lon="6.24322">
        <ele>1240.3</ele>
        <time>2021-09-18T12:43:29.631Z</time>
      </trkpt>
      <trkpt lat="44.20467" lon="6.24323">
        <ele>1240.2</ele>
        <time>2021-09-18T12:43:29.932Z</time>
      </trkpt>
      <trkpt lat="44.20465" lon="6.24323">
        <ele>1239.8</ele>
        <time>2021-09-18T12:43:30.420Z</time>
      </trkpt>
      <trkpt lat="44.20463" lon="6.24324">
        <ele>1239.5</ele>
        <time>2021-09-18T12:43:30.940Z</time>
      </trkpt>
      <trkpt lat="44.2046" lon="6.24324">
        <ele>1238.8</ele>
        <time>2021-09-18T12:43:31.673Z</time>
      </trkpt>
      <trkpt lat="44.20459" lon="6.24324">
        <ele>1238.6</ele>
        <time>2021-09-18T12:43:31.917Z</time>
      </trkpt>
      <trkpt lat="44.20455" lon="6.24325">
        <ele>1237.9</ele>
        <time>2021-09-18T12:43:32.910Z</time>
      </trkpt>
      <trkpt lat="44.20453" lon="6.24323">
        <ele>1237.2</ele>
        <time>2021-09-18T12:43:33.512Z</time>
      </trkpt>
      <trkpt lat="44.20451" lon="6.24323">
        <ele>1236.8</ele>
        <time>2021-09-18T12:43:34.001Z</time>
      </trkpt>
      <trkpt lat="44.20449" lon="6.24322">
        <ele>1236.3</ele>
        <time>2021-09-18T12:43:34.520Z</time>
      </trkpt>
      <trkpt lat="44.20448" lon="6.24323">
        <ele>1236.2</ele>
        <time>2021-09-18T12:43:34.821Z</time>
      </trkpt>
      <trkpt lat="44.20446" lon="6.24323">
        <ele>1235.8</ele>
        <time>2021-09-18T12:43:35.309Z</time>
      </trkpt>
      <trkpt lat="44.20444" lon="6.24322">
        <ele>1235.2</ele>
        <time>2021-09-18T12:43:35.829Z</time>
      </trkpt>
      <trkpt lat="44.20442" lon="6.24323">
        <ele>1234.9</ele>
        <time>2021-09-18T12:43:36.348Z</time>
      </trkpt>
      <trkpt lat="44.2044" lon="6.24323">
        <ele>1234.5</ele>
        <time>2021-09-18T12:43:36.837Z</time>
      </trkpt>
      <trkpt lat="44.20437" lon="6.24324">
        <ele>1234</ele>
        <time>2021-09-18T12:43:37.591Z</time>
      </trkpt>
      <trkpt lat="44.20436" lon="6.24323">
        <ele>1233.6</ele>
        <time>2021-09-18T12:43:37.891Z</time>
      </trkpt>
      <trkpt lat="44.20434" lon="6.24322">
        <ele>1233.1</ele>
        <time>2021-09-18T12:43:38.411Z</time>
      </trkpt>
      <trkpt lat="44.20432" lon="6.24321">
        <ele>1232.5</ele>
        <time>2021-09-18T12:43:38.930Z</time>
      </trkpt>
      <trkpt lat="44.20431" lon="6.2432">
        <ele>1232.2</ele>
        <time>2021-09-18T12:43:39.230Z</time>
      </trkpt>
      <trkpt lat="44.20428" lon="6.24317">
        <ele>1231.1</ele>
        <time>2021-09-18T12:43:40.133Z</time>
      </trkpt>
      <trkpt lat="44.20426" lon="6.24316">
        <ele>1230.5</ele>
        <time>2021-09-18T12:43:40.652Z</time>
      </trkpt>
      <trkpt lat="44.20423" lon="6.24315">
        <ele>1229.8</ele>
        <time>2021-09-18T12:43:41.406Z</time>
      </trkpt>
      <trkpt lat="44.20421" lon="6.24313">
        <ele>1229</ele>
        <time>2021-09-18T12:43:42.007Z</time>
      </trkpt>
      <trkpt lat="44.2042" lon="6.24312">
        <ele>1228.7</ele>
        <time>2021-09-18T12:43:42.308Z</time>
      </trkpt>
      <trkpt lat="44.2042" lon="6.2431">
        <ele>1228.4</ele>
        <time>2021-09-18T12:43:42.658Z</time>
      </trkpt>
      <trkpt lat="44.2042" lon="6.24307">
        <ele>1228</ele>
        <time>2021-09-18T12:43:43.184Z</time>
      </trkpt>
      <trkpt lat="44.20419" lon="6.24305">
        <ele>1227.5</ele>
        <time>2021-09-18T12:43:43.611Z</time>
      </trkpt>
      <trkpt lat="44.20419" lon="6.24303">
        <ele>1227.2</ele>
        <time>2021-09-18T12:43:43.961Z</time>
      </trkpt>
      <trkpt lat="44.20418" lon="6.24301">
        <ele>1226.7</ele>
        <time>2021-09-18T12:43:44.389Z</time>
      </trkpt>
      <trkpt lat="44.20417" lon="6.24302">
        <ele>1226.6</ele>
        <time>2021-09-18T12:43:44.689Z</time>
      </trkpt>
      <trkpt lat="44.20416" lon="6.24302">
        <ele>1226.3</ele>
        <time>2021-09-18T12:43:44.934Z</time>
      </trkpt>
      <trkpt lat="44.20415" lon="6.243">
        <ele>1225.7</ele>
        <time>2021-09-18T12:43:45.361Z</time>
      </trkpt>
      <trkpt lat="44.20414" lon="6.24298">
        <ele>1225.1</ele>
        <time>2021-09-18T12:43:45.788Z</time>
      </trkpt>
      <trkpt lat="44.20413" lon="6.24297">
        <ele>1224.6</ele>
        <time>2021-09-18T12:43:46.089Z</time>
      </trkpt>
      <trkpt lat="44.20411" lon="6.24295">
        <ele>1223.7</ele>
        <time>2021-09-18T12:43:46.690Z</time>
      </trkpt>
      <trkpt lat="44.2041" lon="6.24293">
        <ele>1223.1</ele>
        <time>2021-09-18T12:43:47.118Z</time>
      </trkpt>
      <trkpt lat="44.20408" lon="6.24292">
        <ele>1222.3</ele>
        <time>2021-09-18T12:43:47.637Z</time>
      </trkpt>
      <trkpt lat="44.20407" lon="6.2429">
        <ele>1221.7</ele>
        <time>2021-09-18T12:43:48.064Z</time>
      </trkpt>
      <trkpt lat="44.20406" lon="6.24288">
        <ele>1221.2</ele>
        <time>2021-09-18T12:43:48.491Z</time>
      </trkpt>
      <trkpt lat="44.20406" lon="6.24286">
        <ele>1220.9</ele>
        <time>2021-09-18T12:43:48.842Z</time>
      </trkpt>
      <trkpt lat="44.20405" lon="6.24285">
        <ele>1220.4</ele>
        <time>2021-09-18T12:43:49.142Z</time>
      </trkpt>
      <trkpt lat="44.20404" lon="6.24286">
        <ele>1220.3</ele>
        <time>2021-09-18T12:43:49.443Z</time>
      </trkpt>
      <trkpt lat="44.20403" lon="6.24287">
        <ele>1220.1</ele>
        <time>2021-09-18T12:43:49.744Z</time>
      </trkpt>
      <trkpt lat="44.20402" lon="6.24288">
        <ele>1219.9</ele>
        <time>2021-09-18T12:43:50.044Z</time>
      </trkpt>
      <trkpt lat="44.204" lon="6.24289">
        <ele>1219.4</ele>
        <time>2021-09-18T12:43:50.564Z</time>
      </trkpt>
      <trkpt lat="44.20397" lon="6.24288">
        <ele>1218.4</ele>
        <time>2021-09-18T12:43:51.318Z</time>
      </trkpt>
      <trkpt lat="44.20396" lon="6.24287">
        <ele>1217.9</ele>
        <time>2021-09-18T12:43:51.618Z</time>
      </trkpt>
      <trkpt lat="44.20395" lon="6.24285">
        <ele>1217.3</ele>
        <time>2021-09-18T12:43:52.045Z</time>
      </trkpt>
      <trkpt lat="44.20394" lon="6.24284">
        <ele>1216.9</ele>
        <time>2021-09-18T12:43:52.346Z</time>
      </trkpt>
      <trkpt lat="44.20393" lon="6.24282">
        <ele>1216.3</ele>
        <time>2021-09-18T12:43:52.773Z</time>
      </trkpt>
      <trkpt lat="44.20391" lon="6.24281">
        <ele>1215.5</ele>
        <time>2021-09-18T12:43:53.293Z</time>
      </trkpt>
      <trkpt lat="44.20391" lon="6.2428">
        <ele>1215.4</ele>
        <time>2021-09-18T12:43:53.468Z</time>
      </trkpt>
      <trkpt lat="44.20391" lon="6.24277">
        <ele>1215</ele>
        <time>2021-09-18T12:43:53.993Z</time>
      </trkpt>
      <trkpt lat="44.20389" lon="6.24276">
        <ele>1214.2</ele>
        <time>2021-09-18T12:43:54.513Z</time>
      </trkpt>
      <trkpt lat="44.20387" lon="6.24274">
        <ele>1213.4</ele>
        <time>2021-09-18T12:43:55.114Z</time>
      </trkpt>
      <trkpt lat="44.20386" lon="6.24273">
        <ele>1212.9</ele>
        <time>2021-09-18T12:43:55.415Z</time>
      </trkpt>
      <trkpt lat="44.20383" lon="6.24268">
        <ele>1211.3</ele>
        <time>2021-09-18T12:43:56.557Z</time>
      </trkpt>
      <trkpt lat="44.20382" lon="6.24267">
        <ele>1210.9</ele>
        <time>2021-09-18T12:43:56.858Z</time>
      </trkpt>
      <trkpt lat="44.2038" lon="6.24263">
        <ele>1209.7</ele>
        <time>2021-09-18T12:43:57.712Z</time>
      </trkpt>
      <trkpt lat="44.20378" lon="6.24261">
        <ele>1208.9</ele>
        <time>2021-09-18T12:43:58.314Z</time>
      </trkpt>
      <trkpt lat="44.20376" lon="6.24262">
        <ele>1208.4</ele>
        <time>2021-09-18T12:43:58.833Z</time>
      </trkpt>
      <trkpt lat="44.20375" lon="6.24262">
        <ele>1208.1</ele>
        <time>2021-09-18T12:43:59.077Z</time>
      </trkpt>
      <trkpt lat="44.20374" lon="6.24261">
        <ele>1207.6</ele>
        <time>2021-09-18T12:43:59.378Z</time>
      </trkpt>
      <trkpt lat="44.20373" lon="6.24257">
        <ele>1206.8</ele>
        <time>2021-09-18T12:44:00.120Z</time>
      </trkpt>
      <trkpt lat="44.20372" lon="6.24255">
        <ele>1206.3</ele>
        <time>2021-09-18T12:44:00.547Z</time>
      </trkpt>
      <trkpt lat="44.2037" lon="6.24255">
        <ele>1205.7</ele>
        <time>2021-09-18T12:44:01.036Z</time>
      </trkpt>
      <trkpt lat="44.20369" lon="6.24254">
        <ele>1205.2</ele>
        <time>2021-09-18T12:44:01.337Z</time>
      </trkpt>
      <trkpt lat="44.20367" lon="6.24255">
        <ele>1204.7</ele>
        <time>2021-09-18T12:44:01.856Z</time>
      </trkpt>
      <trkpt lat="44.20365" lon="6.24255">
        <ele>1204.1</ele>
        <time>2021-09-18T12:44:02.345Z</time>
      </trkpt>
      <trkpt lat="44.20364" lon="6.24254">
        <ele>1203.7</ele>
        <time>2021-09-18T12:44:02.646Z</time>
      </trkpt>
      <trkpt lat="44.20361" lon="6.24253">
        <ele>1202.7</ele>
        <time>2021-09-18T12:44:03.400Z</time>
      </trkpt>
      <trkpt lat="44.2036" lon="6.2425">
        <ele>1202</ele>
        <time>2021-09-18T12:44:03.979Z</time>
      </trkpt>
      <trkpt lat="44.20359" lon="6.24249">
        <ele>1201.7</ele>
        <time>2021-09-18T12:44:04.280Z</time>
      </trkpt>
      <trkpt lat="44.20356" lon="6.24246">
        <ele>1200.8</ele>
        <time>2021-09-18T12:44:05.182Z</time>
      </trkpt>
      <trkpt lat="44.20354" lon="6.24244">
        <ele>1200.2</ele>
        <time>2021-09-18T12:44:05.783Z</time>
      </trkpt>
      <trkpt lat="44.20352" lon="6.24243">
        <ele>1199.6</ele>
        <time>2021-09-18T12:44:06.303Z</time>
      </trkpt>
      <trkpt lat="44.20351" lon="6.24243">
        <ele>1199.3</ele>
        <time>2021-09-18T12:44:06.547Z</time>
      </trkpt>
      <trkpt lat="44.2035" lon="6.24241">
        <ele>1199</ele>
        <time>2021-09-18T12:44:06.974Z</time>
      </trkpt>
      <trkpt lat="44.20349" lon="6.24244">
        <ele>1198.7</ele>
        <time>2021-09-18T12:44:07.554Z</time>
      </trkpt>
      <trkpt lat="44.20348" lon="6.24246">
        <ele>1198.4</ele>
        <time>2021-09-18T12:44:07.981Z</time>
      </trkpt>
      <trkpt lat="44.20346" lon="6.24244">
        <ele>1197.8</ele>
        <time>2021-09-18T12:44:08.583Z</time>
      </trkpt>
      <trkpt lat="44.20345" lon="6.24243">
        <ele>1197.5</ele>
        <time>2021-09-18T12:44:08.883Z</time>
      </trkpt>
      <trkpt lat="44.20344" lon="6.24242">
        <ele>1197.2</ele>
        <time>2021-09-18T12:44:09.184Z</time>
      </trkpt>
      <trkpt lat="44.20343" lon="6.2424">
        <ele>1196.9</ele>
        <time>2021-09-18T12:44:09.611Z</time>
      </trkpt>
      <trkpt lat="44.20343" lon="6.24238">
        <ele>1196.9</ele>
        <time>2021-09-18T12:44:11.413Z</time>
      </trkpt>
      <trkpt lat="44.20342" lon="6.24237">
        <ele>1196.6</ele>
        <time>2021-09-18T12:44:11.713Z</time>
      </trkpt>
      <trkpt lat="44.20341" lon="6.24236">
        <ele>1196.3</ele>
        <time>2021-09-18T12:44:12.014Z</time>
      </trkpt>
      <trkpt lat="44.2034" lon="6.24233">
        <ele>1196</ele>
        <time>2021-09-18T12:44:12.594Z</time>
      </trkpt>
      <trkpt lat="44.20339" lon="6.24231">
        <ele>1195.7</ele>
        <time>2021-09-18T12:44:13.021Z</time>
      </trkpt>
      <trkpt lat="44.20338" lon="6.24229">
        <ele>1195.4</ele>
        <time>2021-09-18T12:44:13.448Z</time>
      </trkpt>
      <trkpt lat="44.20338" lon="6.24226">
        <ele>1195.4</ele>
        <time>2021-09-18T12:44:16.150Z</time>
      </trkpt>
      <trkpt lat="44.20336" lon="6.24228">
        <ele>1194.8</ele>
        <time>2021-09-18T12:44:16.752Z</time>
      </trkpt>
      <trkpt lat="44.20335" lon="6.2423">
        <ele>1194.5</ele>
        <time>2021-09-18T12:44:17.179Z</time>
      </trkpt>
      <trkpt lat="44.20333" lon="6.24232">
        <ele>1193.9</ele>
        <time>2021-09-18T12:44:17.781Z</time>
      </trkpt>
      <trkpt lat="44.20332" lon="6.24232">
        <ele>1193.6</ele>
        <time>2021-09-18T12:44:18.025Z</time>
      </trkpt>
      <trkpt lat="44.20331" lon="6.24233">
        <ele>1193.4</ele>
        <time>2021-09-18T12:44:18.326Z</time>
      </trkpt>
      <trkpt lat="44.2033" lon="6.24234">
        <ele>1193.1</ele>
        <time>2021-09-18T12:44:18.626Z</time>
      </trkpt>
      <trkpt lat="44.20329" lon="6.24236">
        <ele>1192.8</ele>
        <time>2021-09-18T12:44:19.054Z</time>
      </trkpt>
      <trkpt lat="44.20328" lon="6.24238">
        <ele>1192.5</ele>
        <time>2021-09-18T12:44:19.481Z</time>
      </trkpt>
      <trkpt lat="44.20328" lon="6.24239">
        <ele>1192.5</ele>
        <time>2021-09-18T12:44:20.382Z</time>
      </trkpt>
      <trkpt lat="44.2033" lon="6.24242">
        <ele>1193</ele>
        <time>2021-09-18T12:44:34.615Z</time>
      </trkpt>
      <trkpt lat="44.20331" lon="6.24245">
        <ele>1193.3</ele>
        <time>2021-09-18T12:44:45.061Z</time>
      </trkpt>
      <trkpt lat="44.20331" lon="6.24246">
        <ele>1193.3</ele>
        <time>2021-09-18T12:44:45.962Z</time>
      </trkpt>
      <trkpt lat="44.20332" lon="6.24248">
        <ele>1193.6</ele>
        <time>2021-09-18T12:44:54.434Z</time>
      </trkpt>
      <trkpt lat="44.20332" lon="6.2425">
        <ele>1193.6</ele>
        <time>2021-09-18T12:44:56.235Z</time>
      </trkpt>
      <trkpt lat="44.2033" lon="6.24252">
        <ele>1193.2</ele>
        <time>2021-09-18T12:44:56.836Z</time>
      </trkpt>
      <trkpt lat="44.20328" lon="6.24253">
        <ele>1192.7</ele>
        <time>2021-09-18T12:44:57.356Z</time>
      </trkpt>
      <trkpt lat="44.20326" lon="6.24254">
        <ele>1192.2</ele>
        <time>2021-09-18T12:44:57.875Z</time>
      </trkpt>
      <trkpt lat="44.20325" lon="6.24257">
        <ele>1192.2</ele>
        <time>2021-09-18T12:45:00.855Z</time>
      </trkpt>
      <trkpt lat="44.20324" lon="6.2426">
        <ele>1192.2</ele>
        <time>2021-09-18T12:45:03.835Z</time>
      </trkpt>
      <trkpt lat="44.20323" lon="6.24263">
        <ele>1192.3</ele>
        <time>2021-09-18T12:45:08.690Z</time>
      </trkpt>
      <trkpt lat="44.20321" lon="6.24265">
        <ele>1191.8</ele>
        <time>2021-09-18T12:45:09.292Z</time>
      </trkpt>
      <trkpt lat="44.20319" lon="6.24267">
        <ele>1191.4</ele>
        <time>2021-09-18T12:45:09.893Z</time>
      </trkpt>
      <trkpt lat="44.20317" lon="6.24268">
        <ele>1190.9</ele>
        <time>2021-09-18T12:45:10.412Z</time>
      </trkpt>
      <trkpt lat="44.20315" lon="6.24269">
        <ele>1190.4</ele>
        <time>2021-09-18T12:45:10.932Z</time>
      </trkpt>
      <trkpt lat="44.20312" lon="6.24271">
        <ele>1189.6</ele>
        <time>2021-09-18T12:45:11.744Z</time>
      </trkpt>
      <trkpt lat="44.2031" lon="6.24271">
        <ele>1189</ele>
        <time>2021-09-18T12:45:12.233Z</time>
      </trkpt>
      <trkpt lat="44.20309" lon="6.24271">
        <ele>1188.6</ele>
        <time>2021-09-18T12:45:12.477Z</time>
      </trkpt>
      <trkpt lat="44.20307" lon="6.24271">
        <ele>1188</ele>
        <time>2021-09-18T12:45:12.966Z</time>
      </trkpt>
      <trkpt lat="44.20305" lon="6.24271">
        <ele>1187.3</ele>
        <time>2021-09-18T12:45:13.455Z</time>
      </trkpt>
      <trkpt lat="44.20303" lon="6.24274">
        <ele>1187</ele>
        <time>2021-09-18T12:45:14.173Z</time>
      </trkpt>
      <trkpt lat="44.20301" lon="6.24275">
        <ele>1186.4</ele>
        <time>2021-09-18T12:45:14.692Z</time>
      </trkpt>
      <trkpt lat="44.20296" lon="6.24279">
        <ele>1185.2</ele>
        <time>2021-09-18T12:45:16.101Z</time>
      </trkpt>
      <trkpt lat="44.20294" lon="6.24281">
        <ele>1184.7</ele>
        <time>2021-09-18T12:45:16.702Z</time>
      </trkpt>
      <trkpt lat="44.20292" lon="6.2428">
        <ele>1184</ele>
        <time>2021-09-18T12:45:17.221Z</time>
      </trkpt>
      <trkpt lat="44.2029" lon="6.2428">
        <ele>1183.3</ele>
        <time>2021-09-18T12:45:17.710Z</time>
      </trkpt>
      <trkpt lat="44.20288" lon="6.24282">
        <ele>1182.9</ele>
        <time>2021-09-18T12:45:18.312Z</time>
      </trkpt>
      <trkpt lat="44.20287" lon="6.24283">
        <ele>1182.6</ele>
        <time>2021-09-18T12:45:18.612Z</time>
      </trkpt>
      <trkpt lat="44.20285" lon="6.24285">
        <ele>1182.1</ele>
        <time>2021-09-18T12:45:19.214Z</time>
      </trkpt>
      <trkpt lat="44.20285" lon="6.24287">
        <ele>1182.3</ele>
        <time>2021-09-18T12:45:26.162Z</time>
      </trkpt>
      <trkpt lat="44.20283" lon="6.24291">
        <ele>1182</ele>
        <time>2021-09-18T12:45:27.017Z</time>
      </trkpt>
      <trkpt lat="44.20282" lon="6.24292">
        <ele>1181.8</ele>
        <time>2021-09-18T12:45:27.318Z</time>
      </trkpt>
      <trkpt lat="44.20282" lon="6.24294">
        <ele>1182</ele>
        <time>2021-09-18T12:45:34.266Z</time>
      </trkpt>
      <trkpt lat="44.2028" lon="6.24295">
        <ele>1181.4</ele>
        <time>2021-09-18T12:45:34.785Z</time>
      </trkpt>
      <trkpt lat="44.2028" lon="6.24296">
        <ele>1181.5</ele>
        <time>2021-09-18T12:45:38.260Z</time>
      </trkpt>
      <trkpt lat="44.2028" lon="6.24298">
        <ele>1181.6</ele>
        <time>2021-09-18T12:45:41.878Z</time>
      </trkpt>
      <trkpt lat="44.20279" lon="6.243">
        <ele>1181.5</ele>
        <time>2021-09-18T12:45:42.300Z</time>
      </trkpt>
      <trkpt lat="44.20278" lon="6.24301">
        <ele>1181.2</ele>
        <time>2021-09-18T12:45:42.600Z</time>
      </trkpt>
      <trkpt lat="44.20277" lon="6.243">
        <ele>1180.8</ele>
        <time>2021-09-18T12:45:42.901Z</time>
      </trkpt>
      <trkpt lat="44.20274" lon="6.243">
        <ele>1179.8</ele>
        <time>2021-09-18T12:45:43.634Z</time>
      </trkpt>
      <trkpt lat="44.20273" lon="6.243">
        <ele>1179.4</ele>
        <time>2021-09-18T12:45:43.879Z</time>
      </trkpt>
      <trkpt lat="44.20273" lon="6.24301">
        <ele>1179.5</ele>
        <time>2021-09-18T12:45:47.353Z</time>
      </trkpt>
      <trkpt lat="44.20273" lon="6.24304">
        <ele>1179.8</ele>
        <time>2021-09-18T12:45:57.776Z</time>
      </trkpt>
      <trkpt lat="44.20273" lon="6.24307">
        <ele>1180</ele>
        <time>2021-09-18T12:46:04.354Z</time>
      </trkpt>
      <trkpt lat="44.20271" lon="6.24309">
        <ele>1179.5</ele>
        <time>2021-09-18T12:46:04.956Z</time>
      </trkpt>
      <trkpt lat="44.20269" lon="6.24309">
        <ele>1178.8</ele>
        <time>2021-09-18T12:46:05.444Z</time>
      </trkpt>
      <trkpt lat="44.20267" lon="6.2431">
        <ele>1178.2</ele>
        <time>2021-09-18T12:46:05.964Z</time>
      </trkpt>
      <trkpt lat="44.20264" lon="6.2431">
        <ele>1177.2</ele>
        <time>2021-09-18T12:46:06.697Z</time>
      </trkpt>
      <trkpt lat="44.20261" lon="6.24313">
        <ele>1176.4</ele>
        <time>2021-09-18T12:46:07.599Z</time>
      </trkpt>
      <trkpt lat="44.2026" lon="6.24315">
        <ele>1176.2</ele>
        <time>2021-09-18T12:46:08.026Z</time>
      </trkpt>
      <trkpt lat="44.20257" lon="6.24317">
        <ele>1175.3</ele>
        <time>2021-09-18T12:46:08.839Z</time>
      </trkpt>
      <trkpt lat="44.20255" lon="6.24319">
        <ele>1174.7</ele>
        <time>2021-09-18T12:46:09.440Z</time>
      </trkpt>
      <trkpt lat="44.20252" lon="6.24319">
        <ele>1173.7</ele>
        <time>2021-09-18T12:46:10.173Z</time>
      </trkpt>
      <trkpt lat="44.2025" lon="6.2432">
        <ele>1173</ele>
        <time>2021-09-18T12:46:10.693Z</time>
      </trkpt>
      <trkpt lat="44.20248" lon="6.24321">
        <ele>1172.5</ele>
        <time>2021-09-18T12:46:11.212Z</time>
      </trkpt>
      <trkpt lat="44.20246" lon="6.24323">
        <ele>1172.1</ele>
        <time>2021-09-18T12:46:11.813Z</time>
      </trkpt>
      <trkpt lat="44.20244" lon="6.24324">
        <ele>1171.5</ele>
        <time>2021-09-18T12:46:12.333Z</time>
      </trkpt>
      <trkpt lat="44.20242" lon="6.24325">
        <ele>1171</ele>
        <time>2021-09-18T12:46:12.852Z</time>
      </trkpt>
      <trkpt lat="44.2024" lon="6.24326">
        <ele>1170.4</ele>
        <time>2021-09-18T12:46:13.371Z</time>
      </trkpt>
      <trkpt lat="44.20239" lon="6.24327">
        <ele>1170.2</ele>
        <time>2021-09-18T12:46:13.672Z</time>
      </trkpt>
      <trkpt lat="44.20237" lon="6.24328">
        <ele>1169.6</ele>
        <time>2021-09-18T12:46:14.191Z</time>
      </trkpt>
      <trkpt lat="44.20235" lon="6.24329">
        <ele>1169.1</ele>
        <time>2021-09-18T12:46:14.710Z</time>
      </trkpt>
      <trkpt lat="44.20235" lon="6.24331">
        <ele>1169.2</ele>
        <time>2021-09-18T12:46:18.328Z</time>
      </trkpt>
      <trkpt lat="44.20233" lon="6.24333">
        <ele>1168.7</ele>
        <time>2021-09-18T12:46:18.930Z</time>
      </trkpt>
      <trkpt lat="44.20232" lon="6.24336">
        <ele>1168.7</ele>
        <time>2021-09-18T12:46:21.910Z</time>
      </trkpt>
      <trkpt lat="44.20231" lon="6.24338">
        <ele>1168.6</ele>
        <time>2021-09-18T12:46:22.332Z</time>
      </trkpt>
      <trkpt lat="44.20229" lon="6.24338">
        <ele>1168</ele>
        <time>2021-09-18T12:46:22.820Z</time>
      </trkpt>
      <trkpt lat="44.20227" lon="6.24338">
        <ele>1167.4</ele>
        <time>2021-09-18T12:46:23.309Z</time>
      </trkpt>
      <trkpt lat="44.20226" lon="6.24338">
        <ele>1167.1</ele>
        <time>2021-09-18T12:46:23.554Z</time>
      </trkpt>
      <trkpt lat="44.20224" lon="6.24338">
        <ele>1166.4</ele>
        <time>2021-09-18T12:46:24.042Z</time>
      </trkpt>
      <trkpt lat="44.20222" lon="6.24339">
        <ele>1165.9</ele>
        <time>2021-09-18T12:46:24.562Z</time>
      </trkpt>
      <trkpt lat="44.20221" lon="6.24341">
        <ele>1165.8</ele>
        <time>2021-09-18T12:46:24.983Z</time>
      </trkpt>
      <trkpt lat="44.2022" lon="6.24344">
        <ele>1165.8</ele>
        <time>2021-09-18T12:46:27.963Z</time>
      </trkpt>
      <trkpt lat="44.20219" lon="6.24346">
        <ele>1165.7</ele>
        <time>2021-09-18T12:46:28.385Z</time>
      </trkpt>
      <trkpt lat="44.20219" lon="6.24347">
        <ele>1165.8</ele>
        <time>2021-09-18T12:46:31.859Z</time>
      </trkpt>
      <trkpt lat="44.20219" lon="6.24349">
        <ele>1166</ele>
        <time>2021-09-18T12:46:38.808Z</time>
      </trkpt>
      <trkpt lat="44.20216" lon="6.24351">
        <ele>1165.2</ele>
        <time>2021-09-18T12:46:39.621Z</time>
      </trkpt>
      <trkpt lat="44.20214" lon="6.24351">
        <ele>1164.6</ele>
        <time>2021-09-18T12:46:40.109Z</time>
      </trkpt>
      <trkpt lat="44.20212" lon="6.24352">
        <ele>1164</ele>
        <time>2021-09-18T12:46:40.629Z</time>
      </trkpt>
      <trkpt lat="44.2021" lon="6.24354">
        <ele>1163.5</ele>
        <time>2021-09-18T12:46:41.230Z</time>
      </trkpt>
      <trkpt lat="44.20208" lon="6.24356">
        <ele>1163.1</ele>
        <time>2021-09-18T12:46:41.832Z</time>
      </trkpt>
      <trkpt lat="44.20206" lon="6.24358">
        <ele>1162.6</ele>
        <time>2021-09-18T12:46:42.433Z</time>
      </trkpt>
      <trkpt lat="44.20203" lon="6.2436">
        <ele>1161.7</ele>
        <time>2021-09-18T12:46:43.246Z</time>
      </trkpt>
      <trkpt lat="44.20201" lon="6.24362">
        <ele>1161.2</ele>
        <time>2021-09-18T12:46:43.847Z</time>
      </trkpt>
      <trkpt lat="44.202" lon="6.24364">
        <ele>1161</ele>
        <time>2021-09-18T12:46:44.274Z</time>
      </trkpt>
      <trkpt lat="44.20199" lon="6.24364">
        <ele>1160.7</ele>
        <time>2021-09-18T12:46:44.519Z</time>
      </trkpt>
      <trkpt lat="44.20197" lon="6.24364">
        <ele>1160</ele>
        <time>2021-09-18T12:46:45.007Z</time>
      </trkpt>
      <trkpt lat="44.20195" lon="6.24365">
        <ele>1159.4</ele>
        <time>2021-09-18T12:46:45.527Z</time>
      </trkpt>
      <trkpt lat="44.20194" lon="6.24365">
        <ele>1159</ele>
        <time>2021-09-18T12:46:45.771Z</time>
      </trkpt>
      <trkpt lat="44.20192" lon="6.24365">
        <ele>1158.3</ele>
        <time>2021-09-18T12:46:46.260Z</time>
      </trkpt>
      <trkpt lat="44.20191" lon="6.24367">
        <ele>1158.2</ele>
        <time>2021-09-18T12:46:46.682Z</time>
      </trkpt>
      <trkpt lat="44.20192" lon="6.24369">
        <ele>1158.7</ele>
        <time>2021-09-18T12:46:55.153Z</time>
      </trkpt>
      <trkpt lat="44.20191" lon="6.2437">
        <ele>1158.4</ele>
        <time>2021-09-18T12:46:55.454Z</time>
      </trkpt>
      <trkpt lat="44.20189" lon="6.2437">
        <ele>1157.7</ele>
        <time>2021-09-18T12:46:55.943Z</time>
      </trkpt>
      <trkpt lat="44.20188" lon="6.24372">
        <ele>1157.5</ele>
        <time>2021-09-18T12:46:56.370Z</time>
      </trkpt>
      <trkpt lat="44.20187" lon="6.24373">
        <ele>1157.2</ele>
        <time>2021-09-18T12:46:56.671Z</time>
      </trkpt>
      <trkpt lat="44.20185" lon="6.24375">
        <ele>1156.6</ele>
        <time>2021-09-18T12:46:57.272Z</time>
      </trkpt>
      <trkpt lat="44.20182" lon="6.24376">
        <ele>1155.6</ele>
        <time>2021-09-18T12:46:58.026Z</time>
      </trkpt>
      <trkpt lat="44.20181" lon="6.24376">
        <ele>1155.2</ele>
        <time>2021-09-18T12:46:58.271Z</time>
      </trkpt>
      <trkpt lat="44.2018" lon="6.24377">
        <ele>1154.9</ele>
        <time>2021-09-18T12:46:58.571Z</time>
      </trkpt>
      <trkpt lat="44.20178" lon="6.24376">
        <ele>1154.1</ele>
        <time>2021-09-18T12:46:59.091Z</time>
      </trkpt>
      <trkpt lat="44.20175" lon="6.24374">
        <ele>1152.9</ele>
        <time>2021-09-18T12:46:59.903Z</time>
      </trkpt>
      <trkpt lat="44.20173" lon="6.24372">
        <ele>1152.1</ele>
        <time>2021-09-18T12:47:00.505Z</time>
      </trkpt>
      <trkpt lat="44.20171" lon="6.24372">
        <ele>1151.4</ele>
        <time>2021-09-18T12:47:00.993Z</time>
      </trkpt>
      <trkpt lat="44.20169" lon="6.24372">
        <ele>1150.7</ele>
        <time>2021-09-18T12:47:01.482Z</time>
      </trkpt>
      <trkpt lat="44.20167" lon="6.24372">
        <ele>1150</ele>
        <time>2021-09-18T12:47:01.971Z</time>
      </trkpt>
      <trkpt lat="44.20165" lon="6.24373">
        <ele>1149.4</ele>
        <time>2021-09-18T12:47:02.490Z</time>
      </trkpt>
      <trkpt lat="44.20164" lon="6.24373">
        <ele>1149.2</ele>
        <time>2021-09-18T12:47:02.735Z</time>
      </trkpt>
      <trkpt lat="44.20163" lon="6.24374">
        <ele>1148.9</ele>
        <time>2021-09-18T12:47:03.035Z</time>
      </trkpt>
      <trkpt lat="44.20162" lon="6.24378">
        <ele>1148.8</ele>
        <time>2021-09-18T12:47:03.949Z</time>
      </trkpt>
      <trkpt lat="44.2016" lon="6.2438">
        <ele>1148.3</ele>
        <time>2021-09-18T12:47:04.550Z</time>
      </trkpt>
      <trkpt lat="44.20159" lon="6.24383">
        <ele>1148.1</ele>
        <time>2021-09-18T12:47:05.130Z</time>
      </trkpt>
      <trkpt lat="44.20158" lon="6.24383">
        <ele>1147.8</ele>
        <time>2021-09-18T12:47:05.374Z</time>
      </trkpt>
      <trkpt lat="44.20157" lon="6.24384">
        <ele>1147.6</ele>
        <time>2021-09-18T12:47:05.675Z</time>
      </trkpt>
      <trkpt lat="44.20155" lon="6.24386">
        <ele>1147</ele>
        <time>2021-09-18T12:47:06.277Z</time>
      </trkpt>
      <trkpt lat="44.20153" lon="6.24387">
        <ele>1146.5</ele>
        <time>2021-09-18T12:47:06.796Z</time>
      </trkpt>
      <trkpt lat="44.20151" lon="6.24387">
        <ele>1145.9</ele>
        <time>2021-09-18T12:47:07.285Z</time>
      </trkpt>
      <trkpt lat="44.2015" lon="6.24388">
        <ele>1145.6</ele>
        <time>2021-09-18T12:47:07.585Z</time>
      </trkpt>
      <trkpt lat="44.20149" lon="6.24391">
        <ele>1145.3</ele>
        <time>2021-09-18T12:47:08.165Z</time>
      </trkpt>
      <trkpt lat="44.20147" lon="6.24391">
        <ele>1144.7</ele>
        <time>2021-09-18T12:47:08.654Z</time>
      </trkpt>
      <trkpt lat="44.20146" lon="6.24393">
        <ele>1144.4</ele>
        <time>2021-09-18T12:47:09.081Z</time>
      </trkpt>
      <trkpt lat="44.20145" lon="6.24394">
        <ele>1144.1</ele>
        <time>2021-09-18T12:47:09.382Z</time>
      </trkpt>
      <trkpt lat="44.20143" lon="6.24394">
        <ele>1143.5</ele>
        <time>2021-09-18T12:47:09.870Z</time>
      </trkpt>
      <trkpt lat="44.20141" lon="6.24396">
        <ele>1142.9</ele>
        <time>2021-09-18T12:47:10.472Z</time>
      </trkpt>
      <trkpt lat="44.20139" lon="6.24397">
        <ele>1142.3</ele>
        <time>2021-09-18T12:47:10.991Z</time>
      </trkpt>
      <trkpt lat="44.20138" lon="6.24398">
        <ele>1142</ele>
        <time>2021-09-18T12:47:11.292Z</time>
      </trkpt>
      <trkpt lat="44.20136" lon="6.24398">
        <ele>1141.3</ele>
        <time>2021-09-18T12:47:11.781Z</time>
      </trkpt>
      <trkpt lat="44.20135" lon="6.24398">
        <ele>1141</ele>
        <time>2021-09-18T12:47:12.025Z</time>
      </trkpt>
      <trkpt lat="44.20133" lon="6.244">
        <ele>1140.4</ele>
        <time>2021-09-18T12:47:12.627Z</time>
      </trkpt>
      <trkpt lat="44.20131" lon="6.24399">
        <ele>1139.7</ele>
        <time>2021-09-18T12:47:13.146Z</time>
      </trkpt>
      <trkpt lat="44.20129" lon="6.24401">
        <ele>1139.1</ele>
        <time>2021-09-18T12:47:13.747Z</time>
      </trkpt>
      <trkpt lat="44.20127" lon="6.24401">
        <ele>1138.4</ele>
        <time>2021-09-18T12:47:14.236Z</time>
      </trkpt>
      <trkpt lat="44.20126" lon="6.24402">
        <ele>1138.1</ele>
        <time>2021-09-18T12:47:14.537Z</time>
      </trkpt>
      <trkpt lat="44.20125" lon="6.24403">
        <ele>1137.7</ele>
        <time>2021-09-18T12:47:14.837Z</time>
      </trkpt>
      <trkpt lat="44.20123" lon="6.24403">
        <ele>1137.1</ele>
        <time>2021-09-18T12:47:15.326Z</time>
      </trkpt>
      <trkpt lat="44.20121" lon="6.24405">
        <ele>1136.4</ele>
        <time>2021-09-18T12:47:15.928Z</time>
      </trkpt>
      <trkpt lat="44.20119" lon="6.24408">
        <ele>1135.6</ele>
        <time>2021-09-18T12:47:16.645Z</time>
      </trkpt>
      <trkpt lat="44.20117" lon="6.24411">
        <ele>1134.9</ele>
        <time>2021-09-18T12:47:17.363Z</time>
      </trkpt>
      <trkpt lat="44.20116" lon="6.24411">
        <ele>1134.6</ele>
        <time>2021-09-18T12:47:17.608Z</time>
      </trkpt>
      <trkpt lat="44.2012" lon="6.24412">
        <ele>1135.9</ele>
        <time>2021-09-18T12:47:37.302Z</time>
      </trkpt>
      <trkpt lat="44.20121" lon="6.24412">
        <ele>1136.2</ele>
        <time>2021-09-18T12:47:42.149Z</time>
      </trkpt>
      <trkpt lat="44.20123" lon="6.24413">
        <ele>1136.9</ele>
        <time>2021-09-18T12:47:52.446Z</time>
      </trkpt>
      <trkpt lat="44.20124" lon="6.24414">
        <ele>1137.2</ele>
        <time>2021-09-18T12:47:58.409Z</time>
      </trkpt>
      <trkpt lat="44.20125" lon="6.24416">
        <ele>1137.5</ele>
        <time>2021-09-18T12:48:06.881Z</time>
      </trkpt>
      <trkpt lat="44.20127" lon="6.24418">
        <ele>1138.4</ele>
        <time>2021-09-18T12:48:18.807Z</time>
      </trkpt>
      <trkpt lat="44.20128" lon="6.24421">
        <ele>1139.2</ele>
        <time>2021-09-18T12:48:30.302Z</time>
      </trkpt>
      <trkpt lat="44.2013" lon="6.24423">
        <ele>1140.2</ele>
        <time>2021-09-18T12:48:42.229Z</time>
      </trkpt>
      <trkpt lat="44.20133" lon="6.24427">
        <ele>1141.8</ele>
        <time>2021-09-18T12:49:02.342Z</time>
      </trkpt>
      <trkpt lat="44.20133" lon="6.2443">
        <ele>1142.3</ele>
        <time>2021-09-18T12:49:12.765Z</time>
      </trkpt>
      <trkpt lat="44.20133" lon="6.24432">
        <ele>1142.6</ele>
        <time>2021-09-18T12:49:19.714Z</time>
      </trkpt>
      <trkpt lat="44.20134" lon="6.24435">
        <ele>1143.4</ele>
        <time>2021-09-18T12:49:31.209Z</time>
      </trkpt>
      <trkpt lat="44.20133" lon="6.24436">
        <ele>1143.2</ele>
        <time>2021-09-18T12:49:31.509Z</time>
      </trkpt>
      <trkpt lat="44.20131" lon="6.24437">
        <ele>1142.7</ele>
        <time>2021-09-18T12:49:32.029Z</time>
      </trkpt>
      <trkpt lat="44.20129" lon="6.24438">
        <ele>1142.1</ele>
        <time>2021-09-18T12:49:32.548Z</time>
      </trkpt>
      <trkpt lat="44.20127" lon="6.24438">
        <ele>1141.4</ele>
        <time>2021-09-18T12:49:33.037Z</time>
      </trkpt>
      <trkpt lat="44.20125" lon="6.24438">
        <ele>1140.7</ele>
        <time>2021-09-18T12:49:33.525Z</time>
      </trkpt>
      <trkpt lat="44.20123" lon="6.24438">
        <ele>1140</ele>
        <time>2021-09-18T12:49:34.014Z</time>
      </trkpt>
      <trkpt lat="44.20122" lon="6.24439">
        <ele>1139.8</ele>
        <time>2021-09-18T12:49:34.315Z</time>
      </trkpt>
      <trkpt lat="44.20121" lon="6.2444">
        <ele>1139.6</ele>
        <time>2021-09-18T12:49:34.616Z</time>
      </trkpt>
      <trkpt lat="44.20121" lon="6.24442">
        <ele>1139.9</ele>
        <time>2021-09-18T12:49:41.565Z</time>
      </trkpt>
      <trkpt lat="44.20122" lon="6.24444">
        <ele>1140.5</ele>
        <time>2021-09-18T12:49:50.037Z</time>
      </trkpt>
      <trkpt lat="44.20122" lon="6.24446">
        <ele>1140.8</ele>
        <time>2021-09-18T12:49:56.985Z</time>
      </trkpt>
      <trkpt lat="44.20121" lon="6.24447">
        <ele>1140.6</ele>
        <time>2021-09-18T12:49:57.286Z</time>
      </trkpt>
      <trkpt lat="44.20121" lon="6.24448">
        <ele>1140.8</ele>
        <time>2021-09-18T12:50:00.760Z</time>
      </trkpt>
      <trkpt lat="44.20119" lon="6.24451">
        <ele>1140.5</ele>
        <time>2021-09-18T12:50:01.478Z</time>
      </trkpt>
      <trkpt lat="44.20118" lon="6.24453">
        <ele>1140.5</ele>
        <time>2021-09-18T12:50:03.675Z</time>
      </trkpt>
      <trkpt lat="44.20118" lon="6.24455">
        <ele>1140.8</ele>
        <time>2021-09-18T12:50:10.624Z</time>
      </trkpt>
      <trkpt lat="44.20118" lon="6.24458">
        <ele>1141.2</ele>
        <time>2021-09-18T12:50:21.047Z</time>
      </trkpt>
      <trkpt lat="44.20118" lon="6.24462">
        <ele>1141.8</ele>
        <time>2021-09-18T12:50:34.944Z</time>
      </trkpt>
      <trkpt lat="44.20118" lon="6.24465">
        <ele>1142.3</ele>
        <time>2021-09-18T12:50:45.368Z</time>
      </trkpt>
      <trkpt lat="44.20118" lon="6.24466">
        <ele>1142.4</ele>
        <time>2021-09-18T12:50:48.842Z</time>
      </trkpt>
      <trkpt lat="44.20119" lon="6.2447">
        <ele>1143.4</ele>
        <time>2021-09-18T12:51:03.561Z</time>
      </trkpt>
      <trkpt lat="44.20117" lon="6.24473">
        <ele>1143.1</ele>
        <time>2021-09-18T12:51:04.278Z</time>
      </trkpt>
      <trkpt lat="44.20117" lon="6.24476">
        <ele>1143.5</ele>
        <time>2021-09-18T12:51:14.702Z</time>
      </trkpt>
      <trkpt lat="44.20117" lon="6.24479">
        <ele>1144</ele>
        <time>2021-09-18T12:51:25.125Z</time>
      </trkpt>
      <trkpt lat="44.20118" lon="6.24482">
        <ele>1144.8</ele>
        <time>2021-09-18T12:51:36.620Z</time>
      </trkpt>
      <trkpt lat="44.20117" lon="6.24486">
        <ele>1145</ele>
        <time>2021-09-18T12:51:44.066Z</time>
      </trkpt>
      <trkpt lat="44.20116" lon="6.24488">
        <ele>1145</ele>
        <time>2021-09-18T12:51:46.262Z</time>
      </trkpt>
      <trkpt lat="44.20116" lon="6.24491">
        <ele>1145.4</ele>
        <time>2021-09-18T12:51:56.685Z</time>
      </trkpt>
      <trkpt lat="44.20115" lon="6.24494">
        <ele>1145.5</ele>
        <time>2021-09-18T12:52:01.541Z</time>
      </trkpt>
      <trkpt lat="44.20113" lon="6.24496">
        <ele>1145.1</ele>
        <time>2021-09-18T12:52:02.142Z</time>
      </trkpt>
      <trkpt lat="44.2011" lon="6.24496">
        <ele>1144</ele>
        <time>2021-09-18T12:52:02.875Z</time>
      </trkpt>
      <trkpt lat="44.20108" lon="6.24497">
        <ele>1143.4</ele>
        <time>2021-09-18T12:52:03.394Z</time>
      </trkpt>
      <trkpt lat="44.20105" lon="6.24497">
        <ele>1142.4</ele>
        <time>2021-09-18T12:52:04.128Z</time>
      </trkpt>
      <trkpt lat="44.20103" lon="6.24497">
        <ele>1141.6</ele>
        <time>2021-09-18T12:52:04.616Z</time>
      </trkpt>
      <trkpt lat="44.20102" lon="6.24499">
        <ele>1141.6</ele>
        <time>2021-09-18T12:52:06.813Z</time>
      </trkpt>
      <trkpt lat="44.20101" lon="6.24501">
        <ele>1141.6</ele>
        <time>2021-09-18T12:52:09.009Z</time>
      </trkpt>
      <trkpt lat="44.201" lon="6.24501">
        <ele>1141.3</ele>
        <time>2021-09-18T12:52:09.254Z</time>
      </trkpt>
      <trkpt lat="44.20098" lon="6.24502">
        <ele>1140.8</ele>
        <time>2021-09-18T12:52:09.773Z</time>
      </trkpt>
      <trkpt lat="44.20096" lon="6.24503">
        <ele>1140.4</ele>
        <time>2021-09-18T12:52:10.292Z</time>
      </trkpt>
      <trkpt lat="44.20092" lon="6.24503">
        <ele>1139</ele>
        <time>2021-09-18T12:52:11.270Z</time>
      </trkpt>
      <trkpt lat="44.20091" lon="6.24503">
        <ele>1138.6</ele>
        <time>2021-09-18T12:52:11.514Z</time>
      </trkpt>
      <trkpt lat="44.20089" lon="6.24504">
        <ele>1138.2</ele>
        <time>2021-09-18T12:52:12.033Z</time>
      </trkpt>
      <trkpt lat="44.20087" lon="6.24505">
        <ele>1137.8</ele>
        <time>2021-09-18T12:52:12.553Z</time>
      </trkpt>
      <trkpt lat="44.20086" lon="6.24505">
        <ele>1137.4</ele>
        <time>2021-09-18T12:52:12.797Z</time>
      </trkpt>
      <trkpt lat="44.20084" lon="6.24507">
        <ele>1137.3</ele>
        <time>2021-09-18T12:52:13.484Z</time>
      </trkpt>
      <trkpt lat="44.20082" lon="6.24509">
        <ele>1137.1</ele>
        <time>2021-09-18T12:52:14.085Z</time>
      </trkpt>
      <trkpt lat="44.2008" lon="6.24509">
        <ele>1136.4</ele>
        <time>2021-09-18T12:52:14.574Z</time>
      </trkpt>
      <trkpt lat="44.20079" lon="6.24509">
        <ele>1136.1</ele>
        <time>2021-09-18T12:52:14.818Z</time>
      </trkpt>
      <trkpt lat="44.20076" lon="6.24509">
        <ele>1135</ele>
        <time>2021-09-18T12:52:15.551Z</time>
      </trkpt>
      <trkpt lat="44.20073" lon="6.24507">
        <ele>1133.4</ele>
        <time>2021-09-18T12:52:16.364Z</time>
      </trkpt>
      <trkpt lat="44.20071" lon="6.24506">
        <ele>1132.4</ele>
        <time>2021-09-18T12:52:16.883Z</time>
      </trkpt>
      <trkpt lat="44.20069" lon="6.24507">
        <ele>1132</ele>
        <time>2021-09-18T12:52:17.403Z</time>
      </trkpt>
      <trkpt lat="44.20067" lon="6.24507">
        <ele>1131.3</ele>
        <time>2021-09-18T12:52:17.891Z</time>
      </trkpt>
      <trkpt lat="44.20066" lon="6.24509">
        <ele>1131.6</ele>
        <time>2021-09-18T12:52:26.363Z</time>
      </trkpt>
      <trkpt lat="44.20065" lon="6.24511">
        <ele>1131.8</ele>
        <time>2021-09-18T12:52:33.008Z</time>
      </trkpt>
      <trkpt lat="44.20064" lon="6.24512">
        <ele>1131.7</ele>
        <time>2021-09-18T12:52:33.309Z</time>
      </trkpt>
      <trkpt lat="44.20063" lon="6.24514">
        <ele>1132</ele>
        <time>2021-09-18T12:52:41.781Z</time>
      </trkpt>
      <trkpt lat="44.20062" lon="6.24514">
        <ele>1131.6</ele>
        <time>2021-09-18T12:52:42.026Z</time>
      </trkpt>
      <trkpt lat="44.2006" lon="6.24515">
        <ele>1131.2</ele>
        <time>2021-09-18T12:52:42.545Z</time>
      </trkpt>
      <trkpt lat="44.2006" lon="6.24517">
        <ele>1131.8</ele>
        <time>2021-09-18T12:52:49.494Z</time>
      </trkpt>
      <trkpt lat="44.20058" lon="6.24518">
        <ele>1131.4</ele>
        <time>2021-09-18T12:52:50.013Z</time>
      </trkpt>
      <trkpt lat="44.20057" lon="6.24519">
        <ele>1131.3</ele>
        <time>2021-09-18T12:52:50.314Z</time>
      </trkpt>
      <trkpt lat="44.20055" lon="6.24521">
        <ele>1131.2</ele>
        <time>2021-09-18T12:52:51.000Z</time>
      </trkpt>
      <trkpt lat="44.20053" lon="6.24522">
        <ele>1130.8</ele>
        <time>2021-09-18T12:52:51.519Z</time>
      </trkpt>
      <trkpt lat="44.20052" lon="6.24523">
        <ele>1130.7</ele>
        <time>2021-09-18T12:52:51.820Z</time>
      </trkpt>
      <trkpt lat="44.2005" lon="6.24525">
        <ele>1130.6</ele>
        <time>2021-09-18T12:52:52.506Z</time>
      </trkpt>
      <trkpt lat="44.20049" lon="6.24527">
        <ele>1130.8</ele>
        <time>2021-09-18T12:52:59.151Z</time>
      </trkpt>
      <trkpt lat="44.20048" lon="6.24529">
        <ele>1131.1</ele>
        <time>2021-09-18T12:53:07.623Z</time>
      </trkpt>
      <trkpt lat="44.20047" lon="6.2453">
        <ele>1131</ele>
        <time>2021-09-18T12:53:07.924Z</time>
      </trkpt>
      <trkpt lat="44.20045" lon="6.24533">
        <ele>1131.2</ele>
        <time>2021-09-18T12:53:15.245Z</time>
      </trkpt>
      <trkpt lat="44.20044" lon="6.24536">
        <ele>1131.7</ele>
        <time>2021-09-18T12:53:26.740Z</time>
      </trkpt>
      <trkpt lat="44.20042" lon="6.2454">
        <ele>1132.1</ele>
        <time>2021-09-18T12:53:40.030Z</time>
      </trkpt>
      <trkpt lat="44.20041" lon="6.24541">
        <ele>1132.1</ele>
        <time>2021-09-18T12:53:41.576Z</time>
      </trkpt>
      <trkpt lat="44.20039" lon="6.24545">
        <ele>1132.5</ele>
        <time>2021-09-18T12:53:54.866Z</time>
      </trkpt>
      <trkpt lat="44.20038" lon="6.24549">
        <ele>1133.3</ele>
        <time>2021-09-18T12:54:09.585Z</time>
      </trkpt>
      <trkpt lat="44.20038" lon="6.24552">
        <ele>1134.2</ele>
        <time>2021-09-18T12:54:20.008Z</time>
      </trkpt>
      <trkpt lat="44.20037" lon="6.24553">
        <ele>1134.1</ele>
        <time>2021-09-18T12:54:20.309Z</time>
      </trkpt>
      <trkpt lat="44.20035" lon="6.24557">
        <ele>1134.6</ele>
        <time>2021-09-18T12:54:37.253Z</time>
      </trkpt>
      <trkpt lat="44.20034" lon="6.2456">
        <ele>1135.1</ele>
        <time>2021-09-18T12:54:48.748Z</time>
      </trkpt>
      <trkpt lat="44.20033" lon="6.24562">
        <ele>1135.3</ele>
        <time>2021-09-18T12:54:55.393Z</time>
      </trkpt>
      <trkpt lat="44.20032" lon="6.24563">
        <ele>1135.3</ele>
        <time>2021-09-18T12:54:56.939Z</time>
      </trkpt>
      <trkpt lat="44.20032" lon="6.24564">
        <ele>1135.6</ele>
        <time>2021-09-18T12:55:00.413Z</time>
      </trkpt>
      <trkpt lat="44.20029" lon="6.24566">
        <ele>1135.1</ele>
        <time>2021-09-18T12:55:01.226Z</time>
      </trkpt>
      <trkpt lat="44.20028" lon="6.24568">
        <ele>1135.3</ele>
        <time>2021-09-18T12:55:07.871Z</time>
      </trkpt>
      <trkpt lat="44.20027" lon="6.2457">
        <ele>1135.6</ele>
        <time>2021-09-18T12:55:16.343Z</time>
      </trkpt>
      <trkpt lat="44.20026" lon="6.24572">
        <ele>1135.8</ele>
        <time>2021-09-18T12:55:22.988Z</time>
      </trkpt>
      <trkpt lat="44.20024" lon="6.24574">
        <ele>1135.7</ele>
        <time>2021-09-18T12:55:23.675Z</time>
      </trkpt>
      <trkpt lat="44.20023" lon="6.24576">
        <ele>1135.9</ele>
        <time>2021-09-18T12:55:30.320Z</time>
      </trkpt>
      <trkpt lat="44.20021" lon="6.24578">
        <ele>1135.8</ele>
        <time>2021-09-18T12:55:31.006Z</time>
      </trkpt>
      <trkpt lat="44.20019" lon="6.24581">
        <ele>1135.9</ele>
        <time>2021-09-18T12:55:36.369Z</time>
      </trkpt>
      <trkpt lat="44.20018" lon="6.24583">
        <ele>1136.2</ele>
        <time>2021-09-18T12:55:44.841Z</time>
      </trkpt>
      <trkpt lat="44.20017" lon="6.24584">
        <ele>1136</ele>
        <time>2021-09-18T12:55:45.142Z</time>
      </trkpt>
      <trkpt lat="44.20016" lon="6.24585">
        <ele>1135.8</ele>
        <time>2021-09-18T12:55:45.442Z</time>
      </trkpt>
      <trkpt lat="44.20015" lon="6.24588">
        <ele>1136</ele>
        <time>2021-09-18T12:55:52.165Z</time>
      </trkpt>
      <trkpt lat="44.20015" lon="6.2459">
        <ele>1136.3</ele>
        <time>2021-09-18T12:55:59.114Z</time>
      </trkpt>
      <trkpt lat="44.20014" lon="6.24591">
        <ele>1136.1</ele>
        <time>2021-09-18T12:55:59.415Z</time>
      </trkpt>
      <trkpt lat="44.20014" lon="6.24595">
        <ele>1136.8</ele>
        <time>2021-09-18T12:56:13.313Z</time>
      </trkpt>
      <trkpt lat="44.20014" lon="6.24597">
        <ele>1137.1</ele>
        <time>2021-09-18T12:56:20.262Z</time>
      </trkpt>
      <trkpt lat="44.20013" lon="6.246">
        <ele>1137.3</ele>
        <time>2021-09-18T12:56:26.985Z</time>
      </trkpt>
      <trkpt lat="44.20013" lon="6.24604">
        <ele>1137.9</ele>
        <time>2021-09-18T12:56:40.883Z</time>
      </trkpt>
      <trkpt lat="44.20012" lon="6.24607">
        <ele>1138.1</ele>
        <time>2021-09-18T12:56:47.606Z</time>
      </trkpt>
      <trkpt lat="44.20013" lon="6.24611">
        <ele>1139.1</ele>
        <time>2021-09-18T12:57:02.324Z</time>
      </trkpt>
      <trkpt lat="44.20013" lon="6.24614">
        <ele>1139.6</ele>
        <time>2021-09-18T12:57:12.748Z</time>
      </trkpt>
      <trkpt lat="44.20014" lon="6.24616">
        <ele>1140.2</ele>
        <time>2021-09-18T12:57:21.220Z</time>
      </trkpt>
      <trkpt lat="44.20015" lon="6.24619">
        <ele>1141</ele>
        <time>2021-09-18T12:57:32.715Z</time>
      </trkpt>
      <trkpt lat="44.20014" lon="6.24621">
        <ele>1141</ele>
        <time>2021-09-18T12:57:34.911Z</time>
      </trkpt>
      <trkpt lat="44.20014" lon="6.24623">
        <ele>1141.4</ele>
        <time>2021-09-18T12:57:41.860Z</time>
      </trkpt>
      <trkpt lat="44.20012" lon="6.24624">
        <ele>1140.9</ele>
        <time>2021-09-18T12:57:42.380Z</time>
      </trkpt>
      <trkpt lat="44.20011" lon="6.24626">
        <ele>1141</ele>
        <time>2021-09-18T12:57:46.411Z</time>
      </trkpt>
      <trkpt lat="44.20009" lon="6.24627">
        <ele>1140.5</ele>
        <time>2021-09-18T12:57:46.930Z</time>
      </trkpt>
      <trkpt lat="44.20007" lon="6.24628">
        <ele>1140.1</ele>
        <time>2021-09-18T12:57:47.449Z</time>
      </trkpt>
      <trkpt lat="44.20005" lon="6.24629">
        <ele>1139.7</ele>
        <time>2021-09-18T12:57:47.968Z</time>
      </trkpt>
      <trkpt lat="44.20003" lon="6.24631">
        <ele>1139.5</ele>
        <time>2021-09-18T12:57:48.570Z</time>
      </trkpt>
      <trkpt lat="44.20001" lon="6.24633">
        <ele>1139.2</ele>
        <time>2021-09-18T12:57:49.171Z</time>
      </trkpt>
      <trkpt lat="44.19999" lon="6.24633">
        <ele>1138.7</ele>
        <time>2021-09-18T12:57:49.660Z</time>
      </trkpt>
      <trkpt lat="44.19997" lon="6.24635">
        <ele>1138.7</ele>
        <time>2021-09-18T12:57:52.752Z</time>
      </trkpt>
      <trkpt lat="44.19995" lon="6.24636">
        <ele>1138.4</ele>
        <time>2021-09-18T12:57:53.271Z</time>
      </trkpt>
      <trkpt lat="44.19993" lon="6.24639">
        <ele>1138.6</ele>
        <time>2021-09-18T12:58:00.592Z</time>
      </trkpt>
      <trkpt lat="44.19992" lon="6.24641">
        <ele>1138.7</ele>
        <time>2021-09-18T12:58:04.623Z</time>
      </trkpt>
      <trkpt lat="44.19991" lon="6.24644">
        <ele>1139.1</ele>
        <time>2021-09-18T12:58:16.118Z</time>
      </trkpt>
      <trkpt lat="44.19991" lon="6.24646">
        <ele>1139.5</ele>
        <time>2021-09-18T12:58:23.067Z</time>
      </trkpt>
      <trkpt lat="44.19989" lon="6.24647">
        <ele>1139.3</ele>
        <time>2021-09-18T12:58:23.586Z</time>
      </trkpt>
      <trkpt lat="44.19989" lon="6.24648">
        <ele>1139.5</ele>
        <time>2021-09-18T12:58:27.061Z</time>
      </trkpt>
      <trkpt lat="44.19988" lon="6.24649">
        <ele>1139.6</ele>
        <time>2021-09-18T12:58:30.461Z</time>
      </trkpt>
      <trkpt lat="44.19986" lon="6.2465">
        <ele>1139.4</ele>
        <time>2021-09-18T12:58:30.980Z</time>
      </trkpt>
      <trkpt lat="44.19985" lon="6.24651">
        <ele>1139.4</ele>
        <time>2021-09-18T12:58:32.526Z</time>
      </trkpt>
      <trkpt lat="44.19983" lon="6.24654">
        <ele>1139.7</ele>
        <time>2021-09-18T12:58:42.328Z</time>
      </trkpt>
      <trkpt lat="44.19981" lon="6.24655">
        <ele>1139.5</ele>
        <time>2021-09-18T12:58:42.847Z</time>
      </trkpt>
      <trkpt lat="44.19981" lon="6.24656">
        <ele>1139.7</ele>
        <time>2021-09-18T12:58:46.321Z</time>
      </trkpt>
      <trkpt lat="44.19981" lon="6.24658">
        <ele>1140.2</ele>
        <time>2021-09-18T12:58:53.270Z</time>
      </trkpt>
      <trkpt lat="44.19981" lon="6.24661">
        <ele>1140.8</ele>
        <time>2021-09-18T12:59:03.694Z</time>
      </trkpt>
      <trkpt lat="44.1998" lon="6.24664">
        <ele>1141.3</ele>
        <time>2021-09-18T12:59:15.189Z</time>
      </trkpt>
      <trkpt lat="44.1998" lon="6.24665">
        <ele>1141.5</ele>
        <time>2021-09-18T12:59:18.663Z</time>
      </trkpt>
      <trkpt lat="44.1998" lon="6.24669">
        <ele>1141.7</ele>
        <time>2021-09-18T12:59:25.900Z</time>
      </trkpt>
      <trkpt lat="44.19978" lon="6.24671">
        <ele>1141.3</ele>
        <time>2021-09-18T12:59:26.501Z</time>
      </trkpt>
      <trkpt lat="44.19978" lon="6.24675">
        <ele>1141</ele>
        <time>2021-09-18T12:59:27.202Z</time>
      </trkpt>
      <trkpt lat="44.19977" lon="6.24676">
        <ele>1140.8</ele>
        <time>2021-09-18T12:59:27.503Z</time>
      </trkpt>
      <trkpt lat="44.19976" lon="6.24679">
        <ele>1140.5</ele>
        <time>2021-09-18T12:59:28.083Z</time>
      </trkpt>
      <trkpt lat="44.19976" lon="6.24681">
        <ele>1140.3</ele>
        <time>2021-09-18T12:59:28.433Z</time>
      </trkpt>
      <trkpt lat="44.19975" lon="6.24683">
        <ele>1140.1</ele>
        <time>2021-09-18T12:59:28.860Z</time>
      </trkpt>
      <trkpt lat="44.19975" lon="6.24686">
        <ele>1139.9</ele>
        <time>2021-09-18T12:59:29.386Z</time>
      </trkpt>
      <trkpt lat="44.19974" lon="6.24687">
        <ele>1139.7</ele>
        <time>2021-09-18T12:59:29.687Z</time>
      </trkpt>
      <trkpt lat="44.19974" lon="6.24689">
        <ele>1139.6</ele>
        <time>2021-09-18T12:59:30.037Z</time>
      </trkpt>
      <trkpt lat="44.19973" lon="6.24693">
        <ele>1139.3</ele>
        <time>2021-09-18T12:59:30.779Z</time>
      </trkpt>
      <trkpt lat="44.19973" lon="6.24696">
        <ele>1139.1</ele>
        <time>2021-09-18T12:59:31.305Z</time>
      </trkpt>
      <trkpt lat="44.19973" lon="6.247">
        <ele>1138.9</ele>
        <time>2021-09-18T12:59:32.006Z</time>
      </trkpt>
      <trkpt lat="44.19973" lon="6.24703">
        <ele>1138.7</ele>
        <time>2021-09-18T12:59:32.531Z</time>
      </trkpt>
      <trkpt lat="44.19972" lon="6.24705">
        <ele>1138.5</ele>
        <time>2021-09-18T12:59:32.959Z</time>
      </trkpt>
      <trkpt lat="44.19972" lon="6.24708">
        <ele>1138.3</ele>
        <time>2021-09-18T12:59:33.484Z</time>
      </trkpt>
      <trkpt lat="44.19972" lon="6.24709">
        <ele>1138.3</ele>
        <time>2021-09-18T12:59:34.385Z</time>
      </trkpt>
      <trkpt lat="44.19973" lon="6.24711">
        <ele>1138.2</ele>
        <time>2021-09-18T12:59:34.807Z</time>
      </trkpt>
      <trkpt lat="44.19972" lon="6.24714">
        <ele>1138</ele>
        <time>2021-09-18T12:59:35.386Z</time>
      </trkpt>
      <trkpt lat="44.19972" lon="6.24717">
        <ele>1137.8</ele>
        <time>2021-09-18T12:59:35.912Z</time>
      </trkpt>
      <trkpt lat="44.19972" lon="6.24722">
        <ele>1137.6</ele>
        <time>2021-09-18T12:59:36.787Z</time>
      </trkpt>
      <trkpt lat="44.19971" lon="6.24725">
        <ele>1137.4</ele>
        <time>2021-09-18T12:59:37.366Z</time>
      </trkpt>
      <trkpt lat="44.19971" lon="6.24727">
        <ele>1137.3</ele>
        <time>2021-09-18T12:59:37.717Z</time>
      </trkpt>
      <trkpt lat="44.19972" lon="6.24729">
        <ele>1137.2</ele>
        <time>2021-09-18T12:59:38.138Z</time>
      </trkpt>
      <trkpt lat="44.1997" lon="6.24732">
        <ele>1137</ele>
        <time>2021-09-18T12:59:38.856Z</time>
      </trkpt>
      <trkpt lat="44.1997" lon="6.24734">
        <ele>1136.9</ele>
        <time>2021-09-18T12:59:39.207Z</time>
      </trkpt>
      <trkpt lat="44.1997" lon="6.24736">
        <ele>1136.8</ele>
        <time>2021-09-18T12:59:39.557Z</time>
      </trkpt>
      <trkpt lat="44.19971" lon="6.24739">
        <ele>1136.6</ele>
        <time>2021-09-18T12:59:40.137Z</time>
      </trkpt>
      <trkpt lat="44.19972" lon="6.2474">
        <ele>1136.6</ele>
        <time>2021-09-18T12:59:41.683Z</time>
      </trkpt>
      <trkpt lat="44.19971" lon="6.24743">
        <ele>1136.4</ele>
        <time>2021-09-18T12:59:42.262Z</time>
      </trkpt>
      <trkpt lat="44.1997" lon="6.24745">
        <ele>1136.3</ele>
        <time>2021-09-18T12:59:42.684Z</time>
      </trkpt>
      <trkpt lat="44.1997" lon="6.24747">
        <ele>1136.2</ele>
        <time>2021-09-18T12:59:43.035Z</time>
      </trkpt>
      <trkpt lat="44.19969" lon="6.24751">
        <ele>1136</ele>
        <time>2021-09-18T12:59:43.719Z</time>
      </trkpt>
      <trkpt lat="44.19968" lon="6.24753">
        <ele>1135.7</ele>
        <time>2021-09-18T12:59:44.146Z</time>
      </trkpt>
      <trkpt lat="44.19968" lon="6.24756">
        <ele>1135.3</ele>
        <time>2021-09-18T12:59:44.672Z</time>
      </trkpt>
      <trkpt lat="44.19967" lon="6.24758">
        <ele>1135.1</ele>
        <time>2021-09-18T12:59:45.099Z</time>
      </trkpt>
      <trkpt lat="44.19966" lon="6.2476">
        <ele>1134.8</ele>
        <time>2021-09-18T12:59:45.526Z</time>
      </trkpt>
      <trkpt lat="44.19965" lon="6.24763">
        <ele>1134.4</ele>
        <time>2021-09-18T12:59:46.106Z</time>
      </trkpt>
      <trkpt lat="44.19965" lon="6.24764">
        <ele>1134.3</ele>
        <time>2021-09-18T12:59:46.281Z</time>
      </trkpt>
      <trkpt lat="44.19963" lon="6.24767">
        <ele>1133.8</ele>
        <time>2021-09-18T12:59:46.999Z</time>
      </trkpt>
      <trkpt lat="44.19962" lon="6.2477">
        <ele>1133.4</ele>
        <time>2021-09-18T12:59:47.578Z</time>
      </trkpt>
      <trkpt lat="44.19961" lon="6.24773">
        <ele>1132.9</ele>
        <time>2021-09-18T12:59:48.158Z</time>
      </trkpt>
      <trkpt lat="44.19961" lon="6.24775">
        <ele>1132.6</ele>
        <time>2021-09-18T12:59:48.508Z</time>
      </trkpt>
      <trkpt lat="44.19959" lon="6.24778">
        <ele>1132.1</ele>
        <time>2021-09-18T12:59:49.226Z</time>
      </trkpt>
      <trkpt lat="44.19957" lon="6.24781">
        <ele>1131.6</ele>
        <time>2021-09-18T12:59:49.944Z</time>
      </trkpt>
      <trkpt lat="44.19957" lon="6.24784">
        <ele>1131.2</ele>
        <time>2021-09-18T12:59:50.470Z</time>
      </trkpt>
      <trkpt lat="44.19956" lon="6.24786">
        <ele>1130.8</ele>
        <time>2021-09-18T12:59:50.897Z</time>
      </trkpt>
      <trkpt lat="44.19954" lon="6.24788">
        <ele>1130.4</ele>
        <time>2021-09-18T12:59:51.498Z</time>
      </trkpt>
      <trkpt lat="44.19953" lon="6.24789">
        <ele>1130.2</ele>
        <time>2021-09-18T12:59:51.799Z</time>
      </trkpt>
      <trkpt lat="44.19951" lon="6.24791">
        <ele>1129.8</ele>
        <time>2021-09-18T12:59:52.401Z</time>
      </trkpt>
      <trkpt lat="44.1995" lon="6.24792">
        <ele>1129.5</ele>
        <time>2021-09-18T12:59:52.701Z</time>
      </trkpt>
      <trkpt lat="44.19948" lon="6.24793">
        <ele>1129.3</ele>
        <time>2021-09-18T12:59:53.221Z</time>
      </trkpt>
      <trkpt lat="44.19946" lon="6.24794">
        <ele>1129</ele>
        <time>2021-09-18T12:59:53.740Z</time>
      </trkpt>
      <trkpt lat="44.19943" lon="6.24797">
        <ele>1128.3</ele>
        <time>2021-09-18T12:59:54.642Z</time>
      </trkpt>
      <trkpt lat="44.19942" lon="6.24802">
        <ele>1127.3</ele>
        <time>2021-09-18T12:59:55.551Z</time>
      </trkpt>
      <trkpt lat="44.19941" lon="6.24808">
        <ele>1126</ele>
        <time>2021-09-18T12:59:56.631Z</time>
      </trkpt>
      <trkpt lat="44.1994" lon="6.24809">
        <ele>1125.8</ele>
        <time>2021-09-18T12:59:56.931Z</time>
      </trkpt>
      <trkpt lat="44.19939" lon="6.24813">
        <ele>1124.9</ele>
        <time>2021-09-18T12:59:57.674Z</time>
      </trkpt>
      <trkpt lat="44.19937" lon="6.24814">
        <ele>1124.5</ele>
        <time>2021-09-18T12:59:58.193Z</time>
      </trkpt>
      <trkpt lat="44.19936" lon="6.24817">
        <ele>1123.8</ele>
        <time>2021-09-18T12:59:58.773Z</time>
      </trkpt>
      <trkpt lat="44.19935" lon="6.2482">
        <ele>1123.1</ele>
        <time>2021-09-18T12:59:59.352Z</time>
      </trkpt>
      <trkpt lat="44.19934" lon="6.24821">
        <ele>1122.8</ele>
        <time>2021-09-18T12:59:59.653Z</time>
      </trkpt>
      <trkpt lat="44.19933" lon="6.24822">
        <ele>1122.5</ele>
        <time>2021-09-18T12:59:59.954Z</time>
      </trkpt>
      <trkpt lat="44.19932" lon="6.24821">
        <ele>1122.6</ele>
        <time>2021-09-18T13:00:03.354Z</time>
      </trkpt>
      <trkpt lat="44.19929" lon="6.24821">
        <ele>1122.3</ele>
        <time>2021-09-18T13:00:04.087Z</time>
      </trkpt>
      <trkpt lat="44.19927" lon="6.24823">
        <ele>1121.6</ele>
        <time>2021-09-18T13:00:04.688Z</time>
      </trkpt>
      <trkpt lat="44.19925" lon="6.24825">
        <ele>1121</ele>
        <time>2021-09-18T13:00:05.290Z</time>
      </trkpt>
      <trkpt lat="44.19924" lon="6.24827">
        <ele>1120.4</ele>
        <time>2021-09-18T13:00:05.717Z</time>
      </trkpt>
      <trkpt lat="44.19925" lon="6.24829">
        <ele>1120.1</ele>
        <time>2021-09-18T13:00:06.144Z</time>
      </trkpt>
      <trkpt lat="44.19926" lon="6.2483">
        <ele>1120</ele>
        <time>2021-09-18T13:00:06.445Z</time>
      </trkpt>
      <trkpt lat="44.19927" lon="6.2483">
        <ele>1120.1</ele>
        <time>2021-09-18T13:00:09.713Z</time>
      </trkpt>
      <trkpt lat="44.19929" lon="6.24831">
        <ele>1120.1</ele>
        <time>2021-09-18T13:00:12.382Z</time>
      </trkpt>
      <trkpt lat="44.1993" lon="6.24831">
        <ele>1120.3</ele>
        <time>2021-09-18T13:00:17.229Z</time>
      </trkpt>
      <trkpt lat="44.19932" lon="6.24834">
        <ele>1119.9</ele>
        <time>2021-09-18T13:00:17.946Z</time>
      </trkpt>
      <trkpt lat="44.19934" lon="6.24835">
        <ele>1120</ele>
        <time>2021-09-18T13:00:22.526Z</time>
      </trkpt>
      <trkpt lat="44.19935" lon="6.24836">
        <ele>1119.9</ele>
        <time>2021-09-18T13:00:22.827Z</time>
      </trkpt>
      <trkpt lat="44.19936" lon="6.24835">
        <ele>1120.3</ele>
        <time>2021-09-18T13:00:28.790Z</time>
      </trkpt>
      <trkpt lat="44.19937" lon="6.24834">
        <ele>1120.6</ele>
        <time>2021-09-18T13:00:34.753Z</time>
      </trkpt>
      <trkpt lat="44.19939" lon="6.24835">
        <ele>1120.7</ele>
        <time>2021-09-18T13:00:39.333Z</time>
      </trkpt>
      <trkpt lat="44.19941" lon="6.24835">
        <ele>1120.9</ele>
        <time>2021-09-18T13:00:45.868Z</time>
      </trkpt>
      <trkpt lat="44.19942" lon="6.24834">
        <ele>1121.2</ele>
        <time>2021-09-18T13:00:51.832Z</time>
      </trkpt>
      <trkpt lat="44.19944" lon="6.24836">
        <ele>1121.2</ele>
        <time>2021-09-18T13:00:54.924Z</time>
      </trkpt>
      <trkpt lat="44.19945" lon="6.24836">
        <ele>1121.3</ele>
        <time>2021-09-18T13:00:58.191Z</time>
      </trkpt>
      <trkpt lat="44.19947" lon="6.24834">
        <ele>1121.9</ele>
        <time>2021-09-18T13:01:10.118Z</time>
      </trkpt>
      <trkpt lat="44.19949" lon="6.24832">
        <ele>1122.5</ele>
        <time>2021-09-18T13:01:22.044Z</time>
      </trkpt>
      <trkpt lat="44.1995" lon="6.24832">
        <ele>1122.6</ele>
        <time>2021-09-18T13:01:25.312Z</time>
      </trkpt>
      <trkpt lat="44.19952" lon="6.24832">
        <ele>1122.9</ele>
        <time>2021-09-18T13:01:35.005Z</time>
      </trkpt>
      <trkpt lat="44.19953" lon="6.24832">
        <ele>1123</ele>
        <time>2021-09-18T13:01:38.272Z</time>
      </trkpt>
      <trkpt lat="44.19955" lon="6.24832">
        <ele>1123.3</ele>
        <time>2021-09-18T13:01:47.965Z</time>
      </trkpt>
      <trkpt lat="44.19957" lon="6.2483">
        <ele>1123.9</ele>
        <time>2021-09-18T13:01:59.892Z</time>
      </trkpt>
      <trkpt lat="44.19958" lon="6.24829">
        <ele>1124.1</ele>
        <time>2021-09-18T13:02:05.855Z</time>
      </trkpt>
      <trkpt lat="44.19959" lon="6.24826">
        <ele>1124.7</ele>
        <time>2021-09-18T13:02:17.350Z</time>
      </trkpt>
      <trkpt lat="44.1996" lon="6.24823">
        <ele>1125.3</ele>
        <time>2021-09-18T13:02:28.845Z</time>
      </trkpt>
      <trkpt lat="44.19961" lon="6.24821">
        <ele>1125.7</ele>
        <time>2021-09-18T13:02:37.317Z</time>
      </trkpt>
      <trkpt lat="44.19963" lon="6.2482">
        <ele>1126.1</ele>
        <time>2021-09-18T13:02:47.614Z</time>
      </trkpt>
      <trkpt lat="44.19965" lon="6.24821">
        <ele>1126.1</ele>
        <time>2021-09-18T13:02:50.284Z</time>
      </trkpt>
      <trkpt lat="44.19968" lon="6.24821">
        <ele>1126.5</ele>
        <time>2021-09-18T13:03:04.802Z</time>
      </trkpt>
      <trkpt lat="44.1997" lon="6.24823">
        <ele>1126.4</ele>
        <time>2021-09-18T13:03:05.489Z</time>
      </trkpt>
      <trkpt lat="44.19971" lon="6.24825">
        <ele>1126.3</ele>
        <time>2021-09-18T13:03:05.910Z</time>
      </trkpt>
      <trkpt lat="44.19971" lon="6.24827">
        <ele>1126</ele>
        <time>2021-09-18T13:03:06.261Z</time>
      </trkpt>
      <trkpt lat="44.19972" lon="6.2483">
        <ele>1125.7</ele>
        <time>2021-09-18T13:03:06.840Z</time>
      </trkpt>
      <trkpt lat="44.19972" lon="6.24832">
        <ele>1125.5</ele>
        <time>2021-09-18T13:03:07.191Z</time>
      </trkpt>
      <trkpt lat="44.19971" lon="6.24835">
        <ele>1125</ele>
        <time>2021-09-18T13:03:07.770Z</time>
      </trkpt>
      <trkpt lat="44.1997" lon="6.24836">
        <ele>1124.8</ele>
        <time>2021-09-18T13:03:08.071Z</time>
      </trkpt>
      <trkpt lat="44.1997" lon="6.24838">
        <ele>1124.5</ele>
        <time>2021-09-18T13:03:08.422Z</time>
      </trkpt>
      <trkpt lat="44.19969" lon="6.24841">
        <ele>1124.1</ele>
        <time>2021-09-18T13:03:09.001Z</time>
      </trkpt>
      <trkpt lat="44.19968" lon="6.24845">
        <ele>1123.5</ele>
        <time>2021-09-18T13:03:09.743Z</time>
      </trkpt>
      <trkpt lat="44.19967" lon="6.2485">
        <ele>1122.7</ele>
        <time>2021-09-18T13:03:10.653Z</time>
      </trkpt>
      <trkpt lat="44.19967" lon="6.24851">
        <ele>1122.6</ele>
        <time>2021-09-18T13:03:10.828Z</time>
      </trkpt>
      <trkpt lat="44.19966" lon="6.24853">
        <ele>1122.2</ele>
        <time>2021-09-18T13:03:11.255Z</time>
      </trkpt>
      <trkpt lat="44.19966" lon="6.24854">
        <ele>1122.1</ele>
        <time>2021-09-18T13:03:11.431Z</time>
      </trkpt>
      <trkpt lat="44.19966" lon="6.24858">
        <ele>1121.6</ele>
        <time>2021-09-18T13:03:12.132Z</time>
      </trkpt>
      <trkpt lat="44.19965" lon="6.24861">
        <ele>1121.1</ele>
        <time>2021-09-18T13:03:12.711Z</time>
      </trkpt>
      <trkpt lat="44.19963" lon="6.24865">
        <ele>1120.2</ele>
        <time>2021-09-18T13:03:13.566Z</time>
      </trkpt>
      <trkpt lat="44.19961" lon="6.24868">
        <ele>1119.5</ele>
        <time>2021-09-18T13:03:14.283Z</time>
      </trkpt>
      <trkpt lat="44.1996" lon="6.24869">
        <ele>1119.1</ele>
        <time>2021-09-18T13:03:14.584Z</time>
      </trkpt>
      <trkpt lat="44.19959" lon="6.24873">
        <ele>1118.4</ele>
        <time>2021-09-18T13:03:15.326Z</time>
      </trkpt>
      <trkpt lat="44.19958" lon="6.24877">
        <ele>1117.7</ele>
        <time>2021-09-18T13:03:16.069Z</time>
      </trkpt>
      <trkpt lat="44.19956" lon="6.24879">
        <ele>1116.9</ele>
        <time>2021-09-18T13:03:16.670Z</time>
      </trkpt>
      <trkpt lat="44.19955" lon="6.24881">
        <ele>1116.4</ele>
        <time>2021-09-18T13:03:17.097Z</time>
      </trkpt>
      <trkpt lat="44.19954" lon="6.24883">
        <ele>1115.9</ele>
        <time>2021-09-18T13:03:17.525Z</time>
      </trkpt>
      <trkpt lat="44.19954" lon="6.24884">
        <ele>1115.8</ele>
        <time>2021-09-18T13:03:17.700Z</time>
      </trkpt>
      <trkpt lat="44.19954" lon="6.24886">
        <ele>1115.5</ele>
        <time>2021-09-18T13:03:18.050Z</time>
      </trkpt>
      <trkpt lat="44.19954" lon="6.2489">
        <ele>1115</ele>
        <time>2021-09-18T13:03:18.751Z</time>
      </trkpt>
      <trkpt lat="44.19953" lon="6.24893">
        <ele>1114.3</ele>
        <time>2021-09-18T13:03:19.331Z</time>
      </trkpt>
      <trkpt lat="44.19952" lon="6.24895">
        <ele>1113.7</ele>
        <time>2021-09-18T13:03:19.758Z</time>
      </trkpt>
      <trkpt lat="44.19952" lon="6.24898">
        <ele>1113.3</ele>
        <time>2021-09-18T13:03:20.284Z</time>
      </trkpt>
      <trkpt lat="44.19951" lon="6.24901">
        <ele>1112.6</ele>
        <time>2021-09-18T13:03:20.863Z</time>
      </trkpt>
      <trkpt lat="44.19951" lon="6.24906">
        <ele>1111.9</ele>
        <time>2021-09-18T13:03:21.739Z</time>
      </trkpt>
      <trkpt lat="44.19951" lon="6.2491">
        <ele>1111.3</ele>
        <time>2021-09-18T13:03:22.440Z</time>
      </trkpt>
      <trkpt lat="44.1995" lon="6.24913">
        <ele>1110.5</ele>
        <time>2021-09-18T13:03:23.020Z</time>
      </trkpt>
      <trkpt lat="44.19949" lon="6.24915">
        <ele>1110</ele>
        <time>2021-09-18T13:03:23.447Z</time>
      </trkpt>
      <trkpt lat="44.1995" lon="6.24917">
        <ele>1110</ele>
        <time>2021-09-18T13:03:25.644Z</time>
      </trkpt>
      <trkpt lat="44.1995" lon="6.2492">
        <ele>1109.8</ele>
        <time>2021-09-18T13:03:26.169Z</time>
      </trkpt>
      <trkpt lat="44.1995" lon="6.24921">
        <ele>1109.8</ele>
        <time>2021-09-18T13:03:27.070Z</time>
      </trkpt>
      <trkpt lat="44.19951" lon="6.24923">
        <ele>1110</ele>
        <time>2021-09-18T13:03:33.715Z</time>
      </trkpt>
      <trkpt lat="44.19953" lon="6.24925">
        <ele>1110.5</ele>
        <time>2021-09-18T13:03:45.642Z</time>
      </trkpt>
      <trkpt lat="44.19955" lon="6.24928">
        <ele>1111</ele>
        <time>2021-09-18T13:03:59.875Z</time>
      </trkpt>
      <trkpt lat="44.19955" lon="6.24931">
        <ele>1110.8</ele>
        <time>2021-09-18T13:04:00.401Z</time>
      </trkpt>
      <trkpt lat="44.19956" lon="6.24935">
        <ele>1110.9</ele>
        <time>2021-09-18T13:04:05.865Z</time>
      </trkpt>
      <trkpt lat="44.19955" lon="6.24936">
        <ele>1110.6</ele>
        <time>2021-09-18T13:04:06.166Z</time>
      </trkpt>
      <trkpt lat="44.19956" lon="6.2494">
        <ele>1110.7</ele>
        <time>2021-09-18T13:04:11.630Z</time>
      </trkpt>
      <trkpt lat="44.19956" lon="6.24941">
        <ele>1110.6</ele>
        <time>2021-09-18T13:04:11.805Z</time>
      </trkpt>
      <trkpt lat="44.19955" lon="6.24943">
        <ele>1110.2</ele>
        <time>2021-09-18T13:04:12.232Z</time>
      </trkpt>
      <trkpt lat="44.19954" lon="6.24948">
        <ele>1109.7</ele>
        <time>2021-09-18T13:04:13.142Z</time>
      </trkpt>
      <trkpt lat="44.19953" lon="6.24953">
        <ele>1109.2</ele>
        <time>2021-09-18T13:04:14.051Z</time>
      </trkpt>
      <trkpt lat="44.19953" lon="6.24955">
        <ele>1109.1</ele>
        <time>2021-09-18T13:04:14.402Z</time>
      </trkpt>
      <trkpt lat="44.19952" lon="6.24959">
        <ele>1108.6</ele>
        <time>2021-09-18T13:04:15.144Z</time>
      </trkpt>
      <trkpt lat="44.19952" lon="6.24962">
        <ele>1108.4</ele>
        <time>2021-09-18T13:04:15.670Z</time>
      </trkpt>
      <trkpt lat="44.19951" lon="6.24964">
        <ele>1108</ele>
        <time>2021-09-18T13:04:16.097Z</time>
      </trkpt>
      <trkpt lat="44.1995" lon="6.24966">
        <ele>1107.6</ele>
        <time>2021-09-18T13:04:16.524Z</time>
      </trkpt>
      <trkpt lat="44.1995" lon="6.2497">
        <ele>1107.4</ele>
        <time>2021-09-18T13:04:17.225Z</time>
      </trkpt>
      <trkpt lat="44.19951" lon="6.24973">
        <ele>1107.6</ele>
        <time>2021-09-18T13:04:23.948Z</time>
      </trkpt>
      <trkpt lat="44.19951" lon="6.24976">
        <ele>1107.5</ele>
        <time>2021-09-18T13:04:24.516Z</time>
      </trkpt>
      <trkpt lat="44.19951" lon="6.2498">
        <ele>1107.3</ele>
        <time>2021-09-18T13:04:25.217Z</time>
      </trkpt>
      <trkpt lat="44.19951" lon="6.24984">
        <ele>1107.1</ele>
        <time>2021-09-18T13:04:25.918Z</time>
      </trkpt>
      <trkpt lat="44.1995" lon="6.24986">
        <ele>1106.7</ele>
        <time>2021-09-18T13:04:26.345Z</time>
      </trkpt>
      <trkpt lat="44.19948" lon="6.24987">
        <ele>1106</ele>
        <time>2021-09-18T13:04:26.864Z</time>
      </trkpt>
      <trkpt lat="44.19947" lon="6.2499">
        <ele>1105.6</ele>
        <time>2021-09-18T13:04:27.444Z</time>
      </trkpt>
      <trkpt lat="44.19946" lon="6.24993">
        <ele>1105.1</ele>
        <time>2021-09-18T13:04:28.024Z</time>
      </trkpt>
      <trkpt lat="44.19947" lon="6.24998">
        <ele>1105.2</ele>
        <time>2021-09-18T13:04:34.226Z</time>
      </trkpt>
      <trkpt lat="44.19946" lon="6.25001">
        <ele>1104.7</ele>
        <time>2021-09-18T13:04:34.806Z</time>
      </trkpt>
      <trkpt lat="44.19945" lon="6.25004">
        <ele>1104.1</ele>
        <time>2021-09-18T13:04:35.386Z</time>
      </trkpt>
      <trkpt lat="44.19943" lon="6.25009">
        <ele>1102.9</ele>
        <time>2021-09-18T13:04:36.389Z</time>
      </trkpt>
      <trkpt lat="44.19941" lon="6.25013">
        <ele>1101.9</ele>
        <time>2021-09-18T13:04:37.244Z</time>
      </trkpt>
      <trkpt lat="44.19941" lon="6.25017">
        <ele>1101.5</ele>
        <time>2021-09-18T13:04:37.944Z</time>
      </trkpt>
      <trkpt lat="44.19941" lon="6.2502">
        <ele>1101.2</ele>
        <time>2021-09-18T13:04:38.470Z</time>
      </trkpt>
      <trkpt lat="44.1994" lon="6.25022">
        <ele>1100.7</ele>
        <time>2021-09-18T13:04:38.897Z</time>
      </trkpt>
      <trkpt lat="44.1994" lon="6.25024">
        <ele>1100.5</ele>
        <time>2021-09-18T13:04:39.248Z</time>
      </trkpt>
      <trkpt lat="44.1994" lon="6.25026">
        <ele>1100.2</ele>
        <time>2021-09-18T13:04:39.598Z</time>
      </trkpt>
      <trkpt lat="44.1994" lon="6.25028">
        <ele>1100</ele>
        <time>2021-09-18T13:04:39.949Z</time>
      </trkpt>
      <trkpt lat="44.1994" lon="6.25031">
        <ele>1099.7</ele>
        <time>2021-09-18T13:04:40.474Z</time>
      </trkpt>
      <trkpt lat="44.19939" lon="6.25034">
        <ele>1099.1</ele>
        <time>2021-09-18T13:04:41.054Z</time>
      </trkpt>
      <trkpt lat="44.19939" lon="6.25036">
        <ele>1098.9</ele>
        <time>2021-09-18T13:04:41.404Z</time>
      </trkpt>
      <trkpt lat="44.19939" lon="6.25039">
        <ele>1098.6</ele>
        <time>2021-09-18T13:04:41.930Z</time>
      </trkpt>
      <trkpt lat="44.1994" lon="6.25043">
        <ele>1098.4</ele>
        <time>2021-09-18T13:04:42.614Z</time>
      </trkpt>
      <trkpt lat="44.1994" lon="6.25045">
        <ele>1098.2</ele>
        <time>2021-09-18T13:04:42.965Z</time>
      </trkpt>
      <trkpt lat="44.19942" lon="6.25046">
        <ele>1098.7</ele>
        <time>2021-09-18T13:04:53.261Z</time>
      </trkpt>
      <trkpt lat="44.19943" lon="6.25048">
        <ele>1098.7</ele>
        <time>2021-09-18T13:04:55.458Z</time>
      </trkpt>
      <trkpt lat="44.19943" lon="6.2505">
        <ele>1098.5</ele>
        <time>2021-09-18T13:04:55.808Z</time>
      </trkpt>
      <trkpt lat="44.19944" lon="6.25054">
        <ele>1098.4</ele>
        <time>2021-09-18T13:04:56.722Z</time>
      </trkpt>
      <trkpt lat="44.19945" lon="6.25056">
        <ele>1098.4</ele>
        <time>2021-09-18T13:04:58.918Z</time>
      </trkpt>
      <trkpt lat="44.19946" lon="6.25057">
        <ele>1098.6</ele>
        <time>2021-09-18T13:05:04.882Z</time>
      </trkpt>
      <trkpt lat="44.19947" lon="6.25059">
        <ele>1098.7</ele>
        <time>2021-09-18T13:05:08.913Z</time>
      </trkpt>
      <trkpt lat="44.19948" lon="6.2506">
        <ele>1098.8</ele>
        <time>2021-09-18T13:05:12.313Z</time>
      </trkpt>
      <trkpt lat="44.1995" lon="6.25061">
        <ele>1099.3</ele>
        <time>2021-09-18T13:05:22.610Z</time>
      </trkpt>
      <trkpt lat="44.19951" lon="6.25062">
        <ele>1099.4</ele>
        <time>2021-09-18T13:05:26.010Z</time>
      </trkpt>
      <trkpt lat="44.19952" lon="6.25063">
        <ele>1099.6</ele>
        <time>2021-09-18T13:05:31.973Z</time>
      </trkpt>
      <trkpt lat="44.19952" lon="6.25065">
        <ele>1099.4</ele>
        <time>2021-09-18T13:05:32.323Z</time>
      </trkpt>
      <trkpt lat="44.19953" lon="6.25067">
        <ele>1099.4</ele>
        <time>2021-09-18T13:05:34.520Z</time>
      </trkpt>
      <trkpt lat="44.19954" lon="6.25068">
        <ele>1099.6</ele>
        <time>2021-09-18T13:05:40.483Z</time>
      </trkpt>
      <trkpt lat="44.19955" lon="6.25069">
        <ele>1099.7</ele>
        <time>2021-09-18T13:05:43.883Z</time>
      </trkpt>
      <trkpt lat="44.19956" lon="6.2507">
        <ele>1099.9</ele>
        <time>2021-09-18T13:05:49.846Z</time>
      </trkpt>
      <trkpt lat="44.19957" lon="6.25072">
        <ele>1099.9</ele>
        <time>2021-09-18T13:05:52.043Z</time>
      </trkpt>
      <trkpt lat="44.19958" lon="6.25073">
        <ele>1100.1</ele>
        <time>2021-09-18T13:05:58.006Z</time>
      </trkpt>
      <trkpt lat="44.19958" lon="6.25074">
        <ele>1100</ele>
        <time>2021-09-18T13:05:58.181Z</time>
      </trkpt>
      <trkpt lat="44.19958" lon="6.25076">
        <ele>1099.7</ele>
        <time>2021-09-18T13:05:58.532Z</time>
      </trkpt>
      <trkpt lat="44.1996" lon="6.25077">
        <ele>1100.2</ele>
        <time>2021-09-18T13:06:08.828Z</time>
      </trkpt>
      <trkpt lat="44.1996" lon="6.2508">
        <ele>1099.8</ele>
        <time>2021-09-18T13:06:09.354Z</time>
      </trkpt>
      <trkpt lat="44.19961" lon="6.25081">
        <ele>1100</ele>
        <time>2021-09-18T13:06:15.317Z</time>
      </trkpt>
      <trkpt lat="44.19962" lon="6.25085">
        <ele>1100.1</ele>
        <time>2021-09-18T13:06:20.781Z</time>
      </trkpt>
      <trkpt lat="44.19964" lon="6.25088">
        <ele>1101</ele>
        <time>2021-09-18T13:06:35.015Z</time>
      </trkpt>
      <trkpt lat="44.19966" lon="6.25089">
        <ele>1101.6</ele>
        <time>2021-09-18T13:06:45.312Z</time>
      </trkpt>
      <trkpt lat="44.19966" lon="6.25093">
        <ele>1102</ele>
        <time>2021-09-18T13:06:59.210Z</time>
      </trkpt>
      <trkpt lat="44.19968" lon="6.25094">
        <ele>1102.6</ele>
        <time>2021-09-18T13:07:09.507Z</time>
      </trkpt>
      <trkpt lat="44.19968" lon="6.25096">
        <ele>1102.8</ele>
        <time>2021-09-18T13:07:16.456Z</time>
      </trkpt>
      <trkpt lat="44.19969" lon="6.251">
        <ele>1103.5</ele>
        <time>2021-09-18T13:07:31.175Z</time>
      </trkpt>
      <trkpt lat="44.19969" lon="6.25102">
        <ele>1103.7</ele>
        <time>2021-09-18T13:07:38.124Z</time>
      </trkpt>
      <trkpt lat="44.1997" lon="6.25104">
        <ele>1104.1</ele>
        <time>2021-09-18T13:07:46.596Z</time>
      </trkpt>
      <trkpt lat="44.19969" lon="6.25106">
        <ele>1104.1</ele>
        <time>2021-09-18T13:07:48.792Z</time>
      </trkpt>
      <trkpt lat="44.19967" lon="6.25109">
        <ele>1103.8</ele>
        <time>2021-09-18T13:07:49.510Z</time>
      </trkpt>
      <trkpt lat="44.19966" lon="6.25109">
        <ele>1103.5</ele>
        <time>2021-09-18T13:07:49.755Z</time>
      </trkpt>
      <trkpt lat="44.19965" lon="6.25108">
        <ele>1103.2</ele>
        <time>2021-09-18T13:07:50.055Z</time>
      </trkpt>
      <trkpt lat="44.19964" lon="6.2511">
        <ele>1103.1</ele>
        <time>2021-09-18T13:07:50.477Z</time>
      </trkpt>
      <trkpt lat="44.19963" lon="6.25113">
        <ele>1103.1</ele>
        <time>2021-09-18T13:07:53.457Z</time>
      </trkpt>
      <trkpt lat="44.19961" lon="6.25114">
        <ele>1102.7</ele>
        <time>2021-09-18T13:07:53.976Z</time>
      </trkpt>
      <trkpt lat="44.19959" lon="6.25116">
        <ele>1102.3</ele>
        <time>2021-09-18T13:07:54.578Z</time>
      </trkpt>
      <trkpt lat="44.19957" lon="6.25119">
        <ele>1102.1</ele>
        <time>2021-09-18T13:07:55.296Z</time>
      </trkpt>
      <trkpt lat="44.19957" lon="6.2512">
        <ele>1102.2</ele>
        <time>2021-09-18T13:07:58.770Z</time>
      </trkpt>
      <trkpt lat="44.19955" lon="6.25123">
        <ele>1101.9</ele>
        <time>2021-09-18T13:07:59.488Z</time>
      </trkpt>
      <trkpt lat="44.19954" lon="6.25125">
        <ele>1101.8</ele>
        <time>2021-09-18T13:07:59.910Z</time>
      </trkpt>
      <trkpt lat="44.19953" lon="6.25127">
        <ele>1101.7</ele>
        <time>2021-09-18T13:08:00.331Z</time>
      </trkpt>
      <trkpt lat="44.19951" lon="6.25128">
        <ele>1101.3</ele>
        <time>2021-09-18T13:08:00.850Z</time>
      </trkpt>
      <trkpt lat="44.1995" lon="6.25129">
        <ele>1101.1</ele>
        <time>2021-09-18T13:08:01.151Z</time>
      </trkpt>
      <trkpt lat="44.19948" lon="6.2513">
        <ele>1100.6</ele>
        <time>2021-09-18T13:08:01.670Z</time>
      </trkpt>
      <trkpt lat="44.19947" lon="6.25132">
        <ele>1100.5</ele>
        <time>2021-09-18T13:08:02.092Z</time>
      </trkpt>
      <trkpt lat="44.19946" lon="6.25134">
        <ele>1100.4</ele>
        <time>2021-09-18T13:08:02.514Z</time>
      </trkpt>
      <trkpt lat="44.19946" lon="6.25138">
        <ele>1100.8</ele>
        <time>2021-09-18T13:08:16.412Z</time>
      </trkpt>
      <trkpt lat="44.19947" lon="6.2514">
        <ele>1101.3</ele>
        <time>2021-09-18T13:08:24.884Z</time>
      </trkpt>
      <trkpt lat="44.19947" lon="6.25141">
        <ele>1101.4</ele>
        <time>2021-09-18T13:08:28.358Z</time>
      </trkpt>
      <trkpt lat="44.19948" lon="6.25145">
        <ele>1102</ele>
        <time>2021-09-18T13:08:43.077Z</time>
      </trkpt>
      <trkpt lat="44.19947" lon="6.25147">
        <ele>1101.9</ele>
        <time>2021-09-18T13:08:43.499Z</time>
      </trkpt>
      <trkpt lat="44.19946" lon="6.25147">
        <ele>1101.6</ele>
        <time>2021-09-18T13:08:43.743Z</time>
      </trkpt>
      <trkpt lat="44.19944" lon="6.25149">
        <ele>1101.2</ele>
        <time>2021-09-18T13:08:44.345Z</time>
      </trkpt>
      <trkpt lat="44.19943" lon="6.2515">
        <ele>1101.1</ele>
        <time>2021-09-18T13:08:44.645Z</time>
      </trkpt>
      <trkpt lat="44.19942" lon="6.25152">
        <ele>1101</ele>
        <time>2021-09-18T13:08:45.067Z</time>
      </trkpt>
      <trkpt lat="44.1994" lon="6.25153">
        <ele>1100.5</ele>
        <time>2021-09-18T13:08:45.586Z</time>
      </trkpt>
      <trkpt lat="44.19939" lon="6.25156">
        <ele>1100.5</ele>
        <time>2021-09-18T13:08:48.567Z</time>
      </trkpt>
      <trkpt lat="44.19938" lon="6.25157">
        <ele>1100.3</ele>
        <time>2021-09-18T13:08:48.867Z</time>
      </trkpt>
      <trkpt lat="44.19936" lon="6.2516">
        <ele>1100</ele>
        <time>2021-09-18T13:08:49.585Z</time>
      </trkpt>
      <trkpt lat="44.19934" lon="6.25161">
        <ele>1099.5</ele>
        <time>2021-09-18T13:08:50.104Z</time>
      </trkpt>
      <trkpt lat="44.19932" lon="6.25162">
        <ele>1099</ele>
        <time>2021-09-18T13:08:50.624Z</time>
      </trkpt>
      <trkpt lat="44.1993" lon="6.25163">
        <ele>1098.5</ele>
        <time>2021-09-18T13:08:51.143Z</time>
      </trkpt>
      <trkpt lat="44.19929" lon="6.25165">
        <ele>1098.4</ele>
        <time>2021-09-18T13:08:51.564Z</time>
      </trkpt>
      <trkpt lat="44.19928" lon="6.25167">
        <ele>1098.3</ele>
        <time>2021-09-18T13:08:51.986Z</time>
      </trkpt>
      <trkpt lat="44.19926" lon="6.25168">
        <ele>1097.9</ele>
        <time>2021-09-18T13:08:52.505Z</time>
      </trkpt>
      <trkpt lat="44.19924" lon="6.25169">
        <ele>1097.5</ele>
        <time>2021-09-18T13:08:53.025Z</time>
      </trkpt>
      <trkpt lat="44.19923" lon="6.2517">
        <ele>1097.4</ele>
        <time>2021-09-18T13:08:53.325Z</time>
      </trkpt>
      <trkpt lat="44.19921" lon="6.25173">
        <ele>1097.4</ele>
        <time>2021-09-18T13:08:57.016Z</time>
      </trkpt>
      <trkpt lat="44.1992" lon="6.25174">
        <ele>1097.3</ele>
        <time>2021-09-18T13:08:57.316Z</time>
      </trkpt>
      <trkpt lat="44.19918" lon="6.25176">
        <ele>1097.1</ele>
        <time>2021-09-18T13:08:57.918Z</time>
      </trkpt>
      <trkpt lat="44.19917" lon="6.25177">
        <ele>1097</ele>
        <time>2021-09-18T13:08:58.218Z</time>
      </trkpt>
      <trkpt lat="44.19916" lon="6.25179">
        <ele>1097</ele>
        <time>2021-09-18T13:09:00.415Z</time>
      </trkpt>
      <trkpt lat="44.19916" lon="6.25182">
        <ele>1097.6</ele>
        <time>2021-09-18T13:09:10.839Z</time>
      </trkpt>
      <trkpt lat="44.19915" lon="6.25184">
        <ele>1097.7</ele>
        <time>2021-09-18T13:09:14.870Z</time>
      </trkpt>
      <trkpt lat="44.19915" lon="6.25187">
        <ele>1098.2</ele>
        <time>2021-09-18T13:09:25.293Z</time>
      </trkpt>
      <trkpt lat="44.19913" lon="6.25187">
        <ele>1097.6</ele>
        <time>2021-09-18T13:09:25.782Z</time>
      </trkpt>
      <trkpt lat="44.1991" lon="6.25188">
        <ele>1097</ele>
        <time>2021-09-18T13:09:26.536Z</time>
      </trkpt>
      <trkpt lat="44.19907" lon="6.25189">
        <ele>1096.3</ele>
        <time>2021-09-18T13:09:27.290Z</time>
      </trkpt>
      <trkpt lat="44.19906" lon="6.25189">
        <ele>1096</ele>
        <time>2021-09-18T13:09:27.534Z</time>
      </trkpt>
      <trkpt lat="44.19905" lon="6.25192">
        <ele>1096.3</ele>
        <time>2021-09-18T13:09:37.980Z</time>
      </trkpt>
      <trkpt lat="44.19904" lon="6.25193">
        <ele>1096.1</ele>
        <time>2021-09-18T13:09:38.280Z</time>
      </trkpt>
      <trkpt lat="44.19902" lon="6.25196">
        <ele>1096.1</ele>
        <time>2021-09-18T13:09:41.971Z</time>
      </trkpt>
      <trkpt lat="44.199" lon="6.25198">
        <ele>1095.9</ele>
        <time>2021-09-18T13:09:42.572Z</time>
      </trkpt>
      <trkpt lat="44.19899" lon="6.25201">
        <ele>1096.1</ele>
        <time>2021-09-18T13:09:49.295Z</time>
      </trkpt>
      <trkpt lat="44.19898" lon="6.25203">
        <ele>1096.2</ele>
        <time>2021-09-18T13:09:53.326Z</time>
      </trkpt>
      <trkpt lat="44.19896" lon="6.25207">
        <ele>1096.3</ele>
        <time>2021-09-18T13:09:59.279Z</time>
      </trkpt>
      <trkpt lat="44.19895" lon="6.2521">
        <ele>1096.5</ele>
        <time>2021-09-18T13:10:06.002Z</time>
      </trkpt>
      <trkpt lat="44.19894" lon="6.25213">
        <ele>1096.8</ele>
        <time>2021-09-18T13:10:16.447Z</time>
      </trkpt>
      <trkpt lat="44.19894" lon="6.25215">
        <ele>1097.1</ele>
        <time>2021-09-18T13:10:23.396Z</time>
      </trkpt>
      <trkpt lat="44.19893" lon="6.25217">
        <ele>1097.2</ele>
        <time>2021-09-18T13:10:27.427Z</time>
      </trkpt>
      <trkpt lat="44.19892" lon="6.25219">
        <ele>1097.2</ele>
        <time>2021-09-18T13:10:29.624Z</time>
      </trkpt>
      <trkpt lat="44.19891" lon="6.25222">
        <ele>1097.5</ele>
        <time>2021-09-18T13:10:40.070Z</time>
      </trkpt>
      <trkpt lat="44.19889" lon="6.25225">
        <ele>1097.4</ele>
        <time>2021-09-18T13:10:40.943Z</time>
      </trkpt>
      <trkpt lat="44.19887" lon="6.25227">
        <ele>1097.2</ele>
        <time>2021-09-18T13:10:41.544Z</time>
      </trkpt>
      <trkpt lat="44.19885" lon="6.25228">
        <ele>1096.7</ele>
        <time>2021-09-18T13:10:42.064Z</time>
      </trkpt>
      <trkpt lat="44.19884" lon="6.25229">
        <ele>1096.6</ele>
        <time>2021-09-18T13:10:42.364Z</time>
      </trkpt>
      <trkpt lat="44.19881" lon="6.25231">
        <ele>1096.1</ele>
        <time>2021-09-18T13:10:43.177Z</time>
      </trkpt>
      <trkpt lat="44.1988" lon="6.25234">
        <ele>1096.3</ele>
        <time>2021-09-18T13:10:49.900Z</time>
      </trkpt>
      <trkpt lat="44.19878" lon="6.25237">
        <ele>1096.2</ele>
        <time>2021-09-18T13:10:50.774Z</time>
      </trkpt>
      <trkpt lat="44.19876" lon="6.25239">
        <ele>1095.9</ele>
        <time>2021-09-18T13:10:51.375Z</time>
      </trkpt>
      <trkpt lat="44.19875" lon="6.25241">
        <ele>1096</ele>
        <time>2021-09-18T13:10:55.406Z</time>
      </trkpt>
      <trkpt lat="44.19873" lon="6.25242">
        <ele>1095.6</ele>
        <time>2021-09-18T13:10:55.925Z</time>
      </trkpt>
      <trkpt lat="44.19872" lon="6.25245">
        <ele>1095.8</ele>
        <time>2021-09-18T13:11:02.648Z</time>
      </trkpt>
      <trkpt lat="44.19871" lon="6.25248">
        <ele>1096</ele>
        <time>2021-09-18T13:11:09.371Z</time>
      </trkpt>
      <trkpt lat="44.1987" lon="6.25252">
        <ele>1096.3</ele>
        <time>2021-09-18T13:11:19.178Z</time>
      </trkpt>
      <trkpt lat="44.19869" lon="6.25254">
        <ele>1096.4</ele>
        <time>2021-09-18T13:11:23.209Z</time>
      </trkpt>
      <trkpt lat="44.19868" lon="6.25256">
        <ele>1096.4</ele>
        <time>2021-09-18T13:11:25.406Z</time>
      </trkpt>
      <trkpt lat="44.19867" lon="6.25257">
        <ele>1096.3</ele>
        <time>2021-09-18T13:11:25.706Z</time>
      </trkpt>
      <trkpt lat="44.19866" lon="6.25258">
        <ele>1096.2</ele>
        <time>2021-09-18T13:11:26.007Z</time>
      </trkpt>
      <trkpt lat="44.19865" lon="6.25261">
        <ele>1096.4</ele>
        <time>2021-09-18T13:11:32.730Z</time>
      </trkpt>
      <trkpt lat="44.19864" lon="6.25262">
        <ele>1096.3</ele>
        <time>2021-09-18T13:11:33.031Z</time>
      </trkpt>
      <trkpt lat="44.19861" lon="6.25262">
        <ele>1095.4</ele>
        <time>2021-09-18T13:11:33.764Z</time>
      </trkpt>
      <trkpt lat="44.19859" lon="6.25263">
        <ele>1094.9</ele>
        <time>2021-09-18T13:11:34.283Z</time>
      </trkpt>
      <trkpt lat="44.19857" lon="6.25265">
        <ele>1094.7</ele>
        <time>2021-09-18T13:11:34.885Z</time>
      </trkpt>
      <trkpt lat="44.19855" lon="6.25266">
        <ele>1094.2</ele>
        <time>2021-09-18T13:11:35.404Z</time>
      </trkpt>
      <trkpt lat="44.19852" lon="6.25266">
        <ele>1093.3</ele>
        <time>2021-09-18T13:11:36.137Z</time>
      </trkpt>
      <trkpt lat="44.1985" lon="6.25266">
        <ele>1092.7</ele>
        <time>2021-09-18T13:11:36.626Z</time>
      </trkpt>
      <trkpt lat="44.19848" lon="6.25265">
        <ele>1092</ele>
        <time>2021-09-18T13:11:37.145Z</time>
      </trkpt>
      <trkpt lat="44.19848" lon="6.25266">
        <ele>1092.1</ele>
        <time>2021-09-18T13:11:40.620Z</time>
      </trkpt>
      <trkpt lat="44.19846" lon="6.25268">
        <ele>1091.9</ele>
        <time>2021-09-18T13:11:41.221Z</time>
      </trkpt>
      <trkpt lat="44.19844" lon="6.25269">
        <ele>1091.4</ele>
        <time>2021-09-18T13:11:41.741Z</time>
      </trkpt>
      <trkpt lat="44.19842" lon="6.2527">
        <ele>1091</ele>
        <time>2021-09-18T13:11:42.260Z</time>
      </trkpt>
      <trkpt lat="44.19841" lon="6.2527">
        <ele>1090.7</ele>
        <time>2021-09-18T13:11:42.504Z</time>
      </trkpt>
      <trkpt lat="44.1984" lon="6.25271">
        <ele>1090.5</ele>
        <time>2021-09-18T13:11:42.805Z</time>
      </trkpt>
      <trkpt lat="44.19838" lon="6.2527">
        <ele>1089.8</ele>
        <time>2021-09-18T13:11:43.324Z</time>
      </trkpt>
      <trkpt lat="44.19836" lon="6.25272">
        <ele>1089.5</ele>
        <time>2021-09-18T13:11:43.926Z</time>
      </trkpt>
      <trkpt lat="44.19836" lon="6.25273">
        <ele>1089.7</ele>
        <time>2021-09-18T13:11:47.400Z</time>
      </trkpt>
      <trkpt lat="44.19834" lon="6.25275">
        <ele>1089.4</ele>
        <time>2021-09-18T13:11:48.002Z</time>
      </trkpt>
      <trkpt lat="44.19833" lon="6.25279">
        <ele>1089.8</ele>
        <time>2021-09-18T13:12:02.362Z</time>
      </trkpt>
      <trkpt lat="44.19832" lon="6.2528">
        <ele>1089.7</ele>
        <time>2021-09-18T13:12:02.663Z</time>
      </trkpt>
      <trkpt lat="44.1983" lon="6.25283">
        <ele>1089.6</ele>
        <time>2021-09-18T13:12:03.536Z</time>
      </trkpt>
      <trkpt lat="44.19828" lon="6.25285">
        <ele>1089.4</ele>
        <time>2021-09-18T13:12:04.138Z</time>
      </trkpt>
      <trkpt lat="44.19828" lon="6.25287">
        <ele>1089.7</ele>
        <time>2021-09-18T13:12:11.087Z</time>
      </trkpt>
      <trkpt lat="44.19827" lon="6.25291">
        <ele>1090.1</ele>
        <time>2021-09-18T13:12:25.447Z</time>
      </trkpt>
      <trkpt lat="44.19826" lon="6.25293">
        <ele>1090.2</ele>
        <time>2021-09-18T13:12:29.478Z</time>
      </trkpt>
      <trkpt lat="44.19825" lon="6.25296">
        <ele>1090.4</ele>
        <time>2021-09-18T13:12:36.201Z</time>
      </trkpt>
      <trkpt lat="44.19825" lon="6.25299">
        <ele>1090.9</ele>
        <time>2021-09-18T13:12:46.625Z</time>
      </trkpt>
      <trkpt lat="44.19823" lon="6.25302">
        <ele>1090.9</ele>
        <time>2021-09-18T13:12:50.315Z</time>
      </trkpt>
      <trkpt lat="44.19821" lon="6.25308">
        <ele>1091.3</ele>
        <time>2021-09-18T13:13:03.761Z</time>
      </trkpt>
      <trkpt lat="44.19819" lon="6.25312">
        <ele>1091.5</ele>
        <time>2021-09-18T13:13:11.823Z</time>
      </trkpt>
      <trkpt lat="44.19818" lon="6.25314">
        <ele>1091.5</ele>
        <time>2021-09-18T13:13:14.020Z</time>
      </trkpt>
      <trkpt lat="44.19817" lon="6.25317">
        <ele>1091.7</ele>
        <time>2021-09-18T13:13:20.743Z</time>
      </trkpt>
      <trkpt lat="44.19816" lon="6.2532">
        <ele>1092</ele>
        <time>2021-09-18T13:13:31.189Z</time>
      </trkpt>
      <trkpt lat="44.19815" lon="6.25323">
        <ele>1092.2</ele>
        <time>2021-09-18T13:13:37.912Z</time>
      </trkpt>
      <trkpt lat="44.19815" lon="6.25325">
        <ele>1092.5</ele>
        <time>2021-09-18T13:13:44.861Z</time>
      </trkpt>
      <trkpt lat="44.19814" lon="6.25327">
        <ele>1092.6</ele>
        <time>2021-09-18T13:13:48.892Z</time>
      </trkpt>
      <trkpt lat="44.19814" lon="6.2533">
        <ele>1093.1</ele>
        <time>2021-09-18T13:13:59.316Z</time>
      </trkpt>
      <trkpt lat="44.19813" lon="6.25333">
        <ele>1093.3</ele>
        <time>2021-09-18T13:14:06.039Z</time>
      </trkpt>
      <trkpt lat="44.19812" lon="6.25335">
        <ele>1093.4</ele>
        <time>2021-09-18T13:14:10.070Z</time>
      </trkpt>
      <trkpt lat="44.19812" lon="6.25336">
        <ele>1093.5</ele>
        <time>2021-09-18T13:14:13.544Z</time>
      </trkpt>
      <trkpt lat="44.19811" lon="6.25337">
        <ele>1093.4</ele>
        <time>2021-09-18T13:14:13.845Z</time>
      </trkpt>
      <trkpt lat="44.19811" lon="6.2534">
        <ele>1093.9</ele>
        <time>2021-09-18T13:14:24.269Z</time>
      </trkpt>
      <trkpt lat="44.19811" lon="6.25343">
        <ele>1094.4</ele>
        <time>2021-09-18T13:14:34.692Z</time>
      </trkpt>
      <trkpt lat="44.19811" lon="6.25346">
        <ele>1094.8</ele>
        <time>2021-09-18T13:14:45.116Z</time>
      </trkpt>
      <trkpt lat="44.1981" lon="6.25348">
        <ele>1094.9</ele>
        <time>2021-09-18T13:14:49.147Z</time>
      </trkpt>
      <trkpt lat="44.19811" lon="6.25352">
        <ele>1095.8</ele>
        <time>2021-09-18T13:15:03.866Z</time>
      </trkpt>
      <trkpt lat="44.19812" lon="6.25354">
        <ele>1096.3</ele>
        <time>2021-09-18T13:15:12.339Z</time>
      </trkpt>
      <trkpt lat="44.19813" lon="6.25358">
        <ele>1097.2</ele>
        <time>2021-09-18T13:15:27.058Z</time>
      </trkpt>
      <trkpt lat="44.19813" lon="6.25361">
        <ele>1097.7</ele>
        <time>2021-09-18T13:15:37.482Z</time>
      </trkpt>
      <trkpt lat="44.19815" lon="6.25363">
        <ele>1098.5</ele>
        <time>2021-09-18T13:15:49.408Z</time>
      </trkpt>
      <trkpt lat="44.19816" lon="6.25367">
        <ele>1099.4</ele>
        <time>2021-09-18T13:16:04.127Z</time>
      </trkpt>
      <trkpt lat="44.19817" lon="6.25372">
        <ele>1100.4</ele>
        <time>2021-09-18T13:16:22.164Z</time>
      </trkpt>
      <trkpt lat="44.19817" lon="6.25374">
        <ele>1100.7</ele>
        <time>2021-09-18T13:16:29.113Z</time>
      </trkpt>
      <trkpt lat="44.19818" lon="6.25377">
        <ele>1101.4</ele>
        <time>2021-09-18T13:16:40.608Z</time>
      </trkpt>
      <trkpt lat="44.19818" lon="6.2538">
        <ele>1101.9</ele>
        <time>2021-09-18T13:16:51.032Z</time>
      </trkpt>
      <trkpt lat="44.19818" lon="6.25382">
        <ele>1102.2</ele>
        <time>2021-09-18T13:16:57.981Z</time>
      </trkpt>
      <trkpt lat="44.19818" lon="6.25385">
        <ele>1102.7</ele>
        <time>2021-09-18T13:17:08.405Z</time>
      </trkpt>
      <trkpt lat="44.19819" lon="6.25389">
        <ele>1103.5</ele>
        <time>2021-09-18T13:17:23.124Z</time>
      </trkpt>
      <trkpt lat="44.19819" lon="6.25393">
        <ele>1104.1</ele>
        <time>2021-09-18T13:17:37.023Z</time>
      </trkpt>
      <trkpt lat="44.19819" lon="6.25395">
        <ele>1104.4</ele>
        <time>2021-09-18T13:17:43.972Z</time>
      </trkpt>
      <trkpt lat="44.19819" lon="6.25398">
        <ele>1104.9</ele>
        <time>2021-09-18T13:17:54.396Z</time>
      </trkpt>
      <trkpt lat="44.19818" lon="6.25401">
        <ele>1105.1</ele>
        <time>2021-09-18T13:18:01.119Z</time>
      </trkpt>
      <trkpt lat="44.19817" lon="6.25403">
        <ele>1105.2</ele>
        <time>2021-09-18T13:18:05.150Z</time>
      </trkpt>
      <trkpt lat="44.19815" lon="6.25404">
        <ele>1104.9</ele>
        <time>2021-09-18T13:18:05.669Z</time>
      </trkpt>
      <trkpt lat="44.19812" lon="6.25405">
        <ele>1104.3</ele>
        <time>2021-09-18T13:18:06.423Z</time>
      </trkpt>
      <trkpt lat="44.1981" lon="6.25406">
        <ele>1104</ele>
        <time>2021-09-18T13:18:06.942Z</time>
      </trkpt>
      <trkpt lat="44.19809" lon="6.25405">
        <ele>1103.6</ele>
        <time>2021-09-18T13:18:07.243Z</time>
      </trkpt>
      <trkpt lat="44.19807" lon="6.25405">
        <ele>1103.1</ele>
        <time>2021-09-18T13:18:07.731Z</time>
      </trkpt>
      <trkpt lat="44.19806" lon="6.25405">
        <ele>1102.9</ele>
        <time>2021-09-18T13:18:07.976Z</time>
      </trkpt>
      <trkpt lat="44.19804" lon="6.25406">
        <ele>1102.6</ele>
        <time>2021-09-18T13:18:08.495Z</time>
      </trkpt>
      <trkpt lat="44.19803" lon="6.25405">
        <ele>1102.2</ele>
        <time>2021-09-18T13:18:08.796Z</time>
      </trkpt>
      <trkpt lat="44.19801" lon="6.25404">
        <ele>1101.6</ele>
        <time>2021-09-18T13:18:09.315Z</time>
      </trkpt>
      <trkpt lat="44.19799" lon="6.25405">
        <ele>1101.3</ele>
        <time>2021-09-18T13:18:09.834Z</time>
      </trkpt>
      <trkpt lat="44.19797" lon="6.25405">
        <ele>1100.8</ele>
        <time>2021-09-18T13:18:10.323Z</time>
      </trkpt>
      <trkpt lat="44.19796" lon="6.25405">
        <ele>1100.6</ele>
        <time>2021-09-18T13:18:10.568Z</time>
      </trkpt>
      <trkpt lat="44.19795" lon="6.25406">
        <ele>1100.5</ele>
        <time>2021-09-18T13:18:10.868Z</time>
      </trkpt>
      <trkpt lat="44.19793" lon="6.25407">
        <ele>1100.2</ele>
        <time>2021-09-18T13:18:11.388Z</time>
      </trkpt>
      <trkpt lat="44.19792" lon="6.25408">
        <ele>1100.1</ele>
        <time>2021-09-18T13:18:11.688Z</time>
      </trkpt>
      <trkpt lat="44.1979" lon="6.25409">
        <ele>1099.8</ele>
        <time>2021-09-18T13:18:12.207Z</time>
      </trkpt>
      <trkpt lat="44.19788" lon="6.25409">
        <ele>1099.4</ele>
        <time>2021-09-18T13:18:12.696Z</time>
      </trkpt>
      <trkpt lat="44.19786" lon="6.2541">
        <ele>1099.1</ele>
        <time>2021-09-18T13:18:13.216Z</time>
      </trkpt>
      <trkpt lat="44.19784" lon="6.25408">
        <ele>1098.3</ele>
        <time>2021-09-18T13:18:13.817Z</time>
      </trkpt>
      <trkpt lat="44.19783" lon="6.25408">
        <ele>1098</ele>
        <time>2021-09-18T13:18:14.061Z</time>
      </trkpt>
      <trkpt lat="44.19781" lon="6.25405">
        <ele>1097</ele>
        <time>2021-09-18T13:18:14.779Z</time>
      </trkpt>
      <trkpt lat="44.1978" lon="6.25406">
        <ele>1097</ele>
        <time>2021-09-18T13:18:16.325Z</time>
      </trkpt>
      <trkpt lat="44.19779" lon="6.25408">
        <ele>1097.1</ele>
        <time>2021-09-18T13:18:20.356Z</time>
      </trkpt>
      <trkpt lat="44.19778" lon="6.2541">
        <ele>1097.2</ele>
        <time>2021-09-18T13:18:24.387Z</time>
      </trkpt>
      <trkpt lat="44.19776" lon="6.25409">
        <ele>1096.6</ele>
        <time>2021-09-18T13:18:24.906Z</time>
      </trkpt>
      <trkpt lat="44.19774" lon="6.25409">
        <ele>1096.1</ele>
        <time>2021-09-18T13:18:25.395Z</time>
      </trkpt>
      <trkpt lat="44.19772" lon="6.2541">
        <ele>1095.8</ele>
        <time>2021-09-18T13:18:25.915Z</time>
      </trkpt>
      <trkpt lat="44.1977" lon="6.2541">
        <ele>1095.4</ele>
        <time>2021-09-18T13:18:26.403Z</time>
      </trkpt>
      <trkpt lat="44.19767" lon="6.25409">
        <ele>1094.5</ele>
        <time>2021-09-18T13:18:27.157Z</time>
      </trkpt>
      <trkpt lat="44.19765" lon="6.25409">
        <ele>1094</ele>
        <time>2021-09-18T13:18:27.646Z</time>
      </trkpt>
      <trkpt lat="44.19763" lon="6.25408">
        <ele>1093.4</ele>
        <time>2021-09-18T13:18:28.165Z</time>
      </trkpt>
      <trkpt lat="44.19761" lon="6.25408">
        <ele>1092.9</ele>
        <time>2021-09-18T13:18:28.654Z</time>
      </trkpt>
      <trkpt lat="44.19759" lon="6.25409">
        <ele>1092.6</ele>
        <time>2021-09-18T13:18:29.173Z</time>
      </trkpt>
      <trkpt lat="44.19757" lon="6.25409">
        <ele>1092.2</ele>
        <time>2021-09-18T13:18:29.662Z</time>
      </trkpt>
      <trkpt lat="44.19755" lon="6.25409">
        <ele>1091.7</ele>
        <time>2021-09-18T13:18:30.151Z</time>
      </trkpt>
      <trkpt lat="44.19753" lon="6.25408">
        <ele>1091</ele>
        <time>2021-09-18T13:18:30.670Z</time>
      </trkpt>
      <trkpt lat="44.1975" lon="6.25408">
        <ele>1090.3</ele>
        <time>2021-09-18T13:18:31.403Z</time>
      </trkpt>
      <trkpt lat="44.19749" lon="6.25409">
        <ele>1090.4</ele>
        <time>2021-09-18T13:18:34.803Z</time>
      </trkpt>
      <trkpt lat="44.19747" lon="6.2541">
        <ele>1090.2</ele>
        <time>2021-09-18T13:18:35.323Z</time>
      </trkpt>
      <trkpt lat="44.19746" lon="6.25412">
        <ele>1090.5</ele>
        <time>2021-09-18T13:18:43.795Z</time>
      </trkpt>
      <trkpt lat="44.19745" lon="6.25413">
        <ele>1090.5</ele>
        <time>2021-09-18T13:18:45.341Z</time>
      </trkpt>
      <trkpt lat="44.19745" lon="6.25415">
        <ele>1090.9</ele>
        <time>2021-09-18T13:18:52.290Z</time>
      </trkpt>
      <trkpt lat="44.19744" lon="6.25418">
        <ele>1091.4</ele>
        <time>2021-09-18T13:19:03.786Z</time>
      </trkpt>
      <trkpt lat="44.19743" lon="6.25421">
        <ele>1092</ele>
        <time>2021-09-18T13:19:15.281Z</time>
      </trkpt>
      <trkpt lat="44.19743" lon="6.25423">
        <ele>1092.6</ele>
        <time>2021-09-18T13:19:22.231Z</time>
      </trkpt>
      <trkpt lat="44.19742" lon="6.25426">
        <ele>1093.3</ele>
        <time>2021-09-18T13:19:33.726Z</time>
      </trkpt>
      <trkpt lat="44.19742" lon="6.25427">
        <ele>1093.5</ele>
        <time>2021-09-18T13:19:37.201Z</time>
      </trkpt>
      <trkpt lat="44.19741" lon="6.25429">
        <ele>1093.9</ele>
        <time>2021-09-18T13:19:45.673Z</time>
      </trkpt>
      <trkpt lat="44.19739" lon="6.2543">
        <ele>1093.8</ele>
        <time>2021-09-18T13:19:46.232Z</time>
      </trkpt>
      <trkpt lat="44.19739" lon="6.25432">
        <ele>1094.4</ele>
        <time>2021-09-18T13:19:53.181Z</time>
      </trkpt>
      <trkpt lat="44.19738" lon="6.25433">
        <ele>1094.5</ele>
        <time>2021-09-18T13:19:56.581Z</time>
      </trkpt>
      <trkpt lat="44.19735" lon="6.25433">
        <ele>1093.9</ele>
        <time>2021-09-18T13:19:57.314Z</time>
      </trkpt>
      <trkpt lat="44.19734" lon="6.25433">
        <ele>1093.7</ele>
        <time>2021-09-18T13:19:57.559Z</time>
      </trkpt>
      <trkpt lat="44.19732" lon="6.25434">
        <ele>1093.6</ele>
        <time>2021-09-18T13:19:58.117Z</time>
      </trkpt>
      <trkpt lat="44.1973" lon="6.25435">
        <ele>1093.5</ele>
        <time>2021-09-18T13:19:58.676Z</time>
      </trkpt>
      <trkpt lat="44.19728" lon="6.25437">
        <ele>1093.6</ele>
        <time>2021-09-18T13:20:03.601Z</time>
      </trkpt>
      <trkpt lat="44.19727" lon="6.25438">
        <ele>1093.7</ele>
        <time>2021-09-18T13:20:07.001Z</time>
      </trkpt>
      <trkpt lat="44.19725" lon="6.2544">
        <ele>1093.8</ele>
        <time>2021-09-18T13:20:11.927Z</time>
      </trkpt>
      <trkpt lat="44.19723" lon="6.25441">
        <ele>1093.7</ele>
        <time>2021-09-18T13:20:12.485Z</time>
      </trkpt>
      <trkpt lat="44.19722" lon="6.25443">
        <ele>1094</ele>
        <time>2021-09-18T13:20:20.958Z</time>
      </trkpt>
      <trkpt lat="44.19721" lon="6.25444">
        <ele>1094.1</ele>
        <time>2021-09-18T13:20:24.358Z</time>
      </trkpt>
      <trkpt lat="44.19719" lon="6.25446">
        <ele>1094.2</ele>
        <time>2021-09-18T13:20:29.283Z</time>
      </trkpt>
      <trkpt lat="44.19718" lon="6.25448">
        <ele>1094.5</ele>
        <time>2021-09-18T13:20:37.756Z</time>
      </trkpt>
      <trkpt lat="44.19717" lon="6.25449">
        <ele>1094.5</ele>
        <time>2021-09-18T13:20:39.302Z</time>
      </trkpt>
      <trkpt lat="44.19715" lon="6.25451">
        <ele>1094.6</ele>
        <time>2021-09-18T13:20:44.227Z</time>
      </trkpt>
      <trkpt lat="44.19712" lon="6.25453">
        <ele>1094.5</ele>
        <time>2021-09-18T13:20:45.257Z</time>
      </trkpt>
      <trkpt lat="44.19711" lon="6.25455">
        <ele>1094.8</ele>
        <time>2021-09-18T13:20:53.730Z</time>
      </trkpt>
      <trkpt lat="44.1971" lon="6.25457">
        <ele>1095</ele>
        <time>2021-09-18T13:21:00.375Z</time>
      </trkpt>
      <trkpt lat="44.19709" lon="6.25458">
        <ele>1095.1</ele>
        <time>2021-09-18T13:21:03.774Z</time>
      </trkpt>
      <trkpt lat="44.19707" lon="6.25459">
        <ele>1094.9</ele>
        <time>2021-09-18T13:21:04.294Z</time>
      </trkpt>
      <trkpt lat="44.19705" lon="6.25463">
        <ele>1095.4</ele>
        <time>2021-09-18T13:21:21.239Z</time>
      </trkpt>
      <trkpt lat="44.19704" lon="6.25464">
        <ele>1095.4</ele>
        <time>2021-09-18T13:21:22.785Z</time>
      </trkpt>
      <trkpt lat="44.19702" lon="6.25466">
        <ele>1095.4</ele>
        <time>2021-09-18T13:21:25.877Z</time>
      </trkpt>
      <trkpt lat="44.19701" lon="6.25467">
        <ele>1095.4</ele>
        <time>2021-09-18T13:21:27.423Z</time>
      </trkpt>
      <trkpt lat="44.19698" lon="6.25469">
        <ele>1095.2</ele>
        <time>2021-09-18T13:21:28.206Z</time>
      </trkpt>
      <trkpt lat="44.19696" lon="6.25469">
        <ele>1094.7</ele>
        <time>2021-09-18T13:21:28.695Z</time>
      </trkpt>
      <trkpt lat="44.19694" lon="6.2547">
        <ele>1094.5</ele>
        <time>2021-09-18T13:21:29.214Z</time>
      </trkpt>
      <trkpt lat="44.19692" lon="6.2547">
        <ele>1094.1</ele>
        <time>2021-09-18T13:21:29.703Z</time>
      </trkpt>
      <trkpt lat="44.19689" lon="6.2547">
        <ele>1093.4</ele>
        <time>2021-09-18T13:21:30.436Z</time>
      </trkpt>
      <trkpt lat="44.19686" lon="6.25469">
        <ele>1092.5</ele>
        <time>2021-09-18T13:21:31.190Z</time>
      </trkpt>
      <trkpt lat="44.19684" lon="6.25469">
        <ele>1092</ele>
        <time>2021-09-18T13:21:31.679Z</time>
      </trkpt>
      <trkpt lat="44.19681" lon="6.25468">
        <ele>1091.1</ele>
        <time>2021-09-18T13:21:32.432Z</time>
      </trkpt>
      <trkpt lat="44.19678" lon="6.25467">
        <ele>1090.2</ele>
        <time>2021-09-18T13:21:33.186Z</time>
      </trkpt>
      <trkpt lat="44.19676" lon="6.25468">
        <ele>1090</ele>
        <time>2021-09-18T13:21:33.706Z</time>
      </trkpt>
      <trkpt lat="44.19675" lon="6.25468">
        <ele>1089.7</ele>
        <time>2021-09-18T13:21:33.950Z</time>
      </trkpt>
      <trkpt lat="44.19672" lon="6.25466">
        <ele>1088.7</ele>
        <time>2021-09-18T13:21:34.763Z</time>
      </trkpt>
      <trkpt lat="44.1967" lon="6.25464">
        <ele>1087.8</ele>
        <time>2021-09-18T13:21:35.364Z</time>
      </trkpt>
      <trkpt lat="44.19669" lon="6.25463">
        <ele>1087.4</ele>
        <time>2021-09-18T13:21:35.665Z</time>
      </trkpt>
      <trkpt lat="44.19666" lon="6.25461">
        <ele>1086.3</ele>
        <time>2021-09-18T13:21:36.477Z</time>
      </trkpt>
      <trkpt lat="44.19665" lon="6.25461">
        <ele>1086.1</ele>
        <time>2021-09-18T13:21:36.722Z</time>
      </trkpt>
      <trkpt lat="44.19664" lon="6.2546">
        <ele>1085.6</ele>
        <time>2021-09-18T13:21:37.023Z</time>
      </trkpt>
      <trkpt lat="44.19662" lon="6.25458">
        <ele>1084.7</ele>
        <time>2021-09-18T13:21:37.624Z</time>
      </trkpt>
      <trkpt lat="44.19661" lon="6.25457">
        <ele>1084.2</ele>
        <time>2021-09-18T13:21:37.925Z</time>
      </trkpt>
      <trkpt lat="44.1966" lon="6.25456">
        <ele>1083.8</ele>
        <time>2021-09-18T13:21:38.225Z</time>
      </trkpt>
      <trkpt lat="44.19658" lon="6.25455">
        <ele>1083.1</ele>
        <time>2021-09-18T13:21:38.745Z</time>
      </trkpt>
      <trkpt lat="44.19656" lon="6.25454">
        <ele>1082.4</ele>
        <time>2021-09-18T13:21:39.264Z</time>
      </trkpt>
      <trkpt lat="44.19653" lon="6.25452">
        <ele>1081.3</ele>
        <time>2021-09-18T13:21:40.077Z</time>
      </trkpt>
      <trkpt lat="44.19651" lon="6.25452">
        <ele>1080.7</ele>
        <time>2021-09-18T13:21:40.565Z</time>
      </trkpt>
      <trkpt lat="44.19648" lon="6.25451">
        <ele>1079.8</ele>
        <time>2021-09-18T13:21:41.319Z</time>
      </trkpt>
      <trkpt lat="44.19646" lon="6.25451">
        <ele>1079.3</ele>
        <time>2021-09-18T13:21:41.808Z</time>
      </trkpt>
      <trkpt lat="44.19643" lon="6.25451">
        <ele>1078.5</ele>
        <time>2021-09-18T13:21:42.541Z</time>
      </trkpt>
      <trkpt lat="44.19642" lon="6.25452">
        <ele>1078.4</ele>
        <time>2021-09-18T13:21:42.842Z</time>
      </trkpt>
      <trkpt lat="44.1964" lon="6.25452">
        <ele>1077.9</ele>
        <time>2021-09-18T13:21:43.331Z</time>
      </trkpt>
      <trkpt lat="44.19638" lon="6.2545">
        <ele>1077.1</ele>
        <time>2021-09-18T13:21:43.932Z</time>
      </trkpt>
      <trkpt lat="44.19636" lon="6.2545">
        <ele>1076.6</ele>
        <time>2021-09-18T13:21:44.421Z</time>
      </trkpt>
      <trkpt lat="44.19634" lon="6.25451">
        <ele>1076.2</ele>
        <time>2021-09-18T13:21:44.940Z</time>
      </trkpt>
      <trkpt lat="44.19632" lon="6.25452">
        <ele>1075.8</ele>
        <time>2021-09-18T13:21:45.459Z</time>
      </trkpt>
      <trkpt lat="44.19631" lon="6.25453">
        <ele>1075.7</ele>
        <time>2021-09-18T13:21:45.760Z</time>
      </trkpt>
      <trkpt lat="44.19629" lon="6.25455">
        <ele>1075.4</ele>
        <time>2021-09-18T13:21:46.362Z</time>
      </trkpt>
      <trkpt lat="44.19627" lon="6.25457">
        <ele>1075.1</ele>
        <time>2021-09-18T13:21:46.963Z</time>
      </trkpt>
      <trkpt lat="44.19625" lon="6.25459">
        <ele>1074.8</ele>
        <time>2021-09-18T13:21:47.565Z</time>
      </trkpt>
      <trkpt lat="44.19624" lon="6.25461">
        <ele>1074.8</ele>
        <time>2021-09-18T13:21:49.761Z</time>
      </trkpt>
      <trkpt lat="44.19623" lon="6.25464">
        <ele>1074.8</ele>
        <time>2021-09-18T13:21:52.741Z</time>
      </trkpt>
      <trkpt lat="44.19622" lon="6.25466">
        <ele>1074.8</ele>
        <time>2021-09-18T13:21:54.938Z</time>
      </trkpt>
      <trkpt lat="44.19621" lon="6.25469">
        <ele>1074.8</ele>
        <time>2021-09-18T13:21:57.918Z</time>
      </trkpt>
      <trkpt lat="44.1962" lon="6.25469">
        <ele>1074.5</ele>
        <time>2021-09-18T13:21:58.163Z</time>
      </trkpt>
      <trkpt lat="44.19618" lon="6.25471">
        <ele>1074.1</ele>
        <time>2021-09-18T13:21:58.764Z</time>
      </trkpt>
      <trkpt lat="44.19618" lon="6.25474">
        <ele>1074.4</ele>
        <time>2021-09-18T13:22:09.188Z</time>
      </trkpt>
      <trkpt lat="44.19617" lon="6.25476">
        <ele>1074.3</ele>
        <time>2021-09-18T13:22:09.610Z</time>
      </trkpt>
      <trkpt lat="44.19616" lon="6.25478">
        <ele>1074.2</ele>
        <time>2021-09-18T13:22:10.032Z</time>
      </trkpt>
      <trkpt lat="44.19615" lon="6.25481">
        <ele>1074.2</ele>
        <time>2021-09-18T13:22:13.012Z</time>
      </trkpt>
      <trkpt lat="44.19614" lon="6.25482">
        <ele>1074</ele>
        <time>2021-09-18T13:22:13.313Z</time>
      </trkpt>
      <trkpt lat="44.19612" lon="6.25484">
        <ele>1073.5</ele>
        <time>2021-09-18T13:22:13.914Z</time>
      </trkpt>
      <trkpt lat="44.19612" lon="6.25486">
        <ele>1073.7</ele>
        <time>2021-09-18T13:22:20.864Z</time>
      </trkpt>
      <trkpt lat="44.19611" lon="6.25488">
        <ele>1073.6</ele>
        <time>2021-09-18T13:22:21.285Z</time>
      </trkpt>
      <trkpt lat="44.1961" lon="6.25491">
        <ele>1073.5</ele>
        <time>2021-09-18T13:22:21.938Z</time>
      </trkpt>
      <trkpt lat="44.1961" lon="6.25493">
        <ele>1073.7</ele>
        <time>2021-09-18T13:22:28.887Z</time>
      </trkpt>
      <trkpt lat="44.1961" lon="6.25495">
        <ele>1073.8</ele>
        <time>2021-09-18T13:22:32.505Z</time>
      </trkpt>
      <trkpt lat="44.19609" lon="6.25498">
        <ele>1073.8</ele>
        <time>2021-09-18T13:22:35.486Z</time>
      </trkpt>
      <trkpt lat="44.19608" lon="6.25501">
        <ele>1073.6</ele>
        <time>2021-09-18T13:22:36.065Z</time>
      </trkpt>
      <trkpt lat="44.19608" lon="6.25503">
        <ele>1073.7</ele>
        <time>2021-09-18T13:22:39.684Z</time>
      </trkpt>
      <trkpt lat="44.19607" lon="6.25507">
        <ele>1073.5</ele>
        <time>2021-09-18T13:22:40.368Z</time>
      </trkpt>
      <trkpt lat="44.19607" lon="6.25509">
        <ele>1073.6</ele>
        <time>2021-09-18T13:22:43.986Z</time>
      </trkpt>
      <trkpt lat="44.19606" lon="6.25512">
        <ele>1073.4</ele>
        <time>2021-09-18T13:22:44.566Z</time>
      </trkpt>
      <trkpt lat="44.19605" lon="6.25515">
        <ele>1073.1</ele>
        <time>2021-09-18T13:22:45.146Z</time>
      </trkpt>
      <trkpt lat="44.19603" lon="6.25517">
        <ele>1072.5</ele>
        <time>2021-09-18T13:22:45.747Z</time>
      </trkpt>
      <trkpt lat="44.19601" lon="6.2552">
        <ele>1071.8</ele>
        <time>2021-09-18T13:22:46.465Z</time>
      </trkpt>
      <trkpt lat="44.196" lon="6.25523">
        <ele>1071.6</ele>
        <time>2021-09-18T13:22:47.045Z</time>
      </trkpt>
      <trkpt lat="44.19599" lon="6.25523">
        <ele>1071.2</ele>
        <time>2021-09-18T13:22:47.289Z</time>
      </trkpt>
      <trkpt lat="44.19599" lon="6.25526">
        <ele>1071.3</ele>
        <time>2021-09-18T13:22:51.909Z</time>
      </trkpt>
      <trkpt lat="44.19599" lon="6.25529">
        <ele>1071.4</ele>
        <time>2021-09-18T13:22:56.528Z</time>
      </trkpt>
      <trkpt lat="44.19599" lon="6.25533">
        <ele>1071.5</ele>
        <time>2021-09-18T13:23:01.822Z</time>
      </trkpt>
      <trkpt lat="44.19599" lon="6.25535">
        <ele>1071.6</ele>
        <time>2021-09-18T13:23:05.441Z</time>
      </trkpt>
      <trkpt lat="44.19599" lon="6.25538">
        <ele>1071.7</ele>
        <time>2021-09-18T13:23:10.060Z</time>
      </trkpt>
      <trkpt lat="44.196" lon="6.25541">
        <ele>1072.2</ele>
        <time>2021-09-18T13:23:21.556Z</time>
      </trkpt>
      <trkpt lat="44.19599" lon="6.25543">
        <ele>1071.8</ele>
        <time>2021-09-18T13:23:21.983Z</time>
      </trkpt>
      <trkpt lat="44.19598" lon="6.25545">
        <ele>1071.5</ele>
        <time>2021-09-18T13:23:22.410Z</time>
      </trkpt>
      <trkpt lat="44.19597" lon="6.25549">
        <ele>1071.2</ele>
        <time>2021-09-18T13:23:23.153Z</time>
      </trkpt>
      <trkpt lat="44.19595" lon="6.25553">
        <ele>1070.5</ele>
        <time>2021-09-18T13:23:24.007Z</time>
      </trkpt>
      <trkpt lat="44.19594" lon="6.25556">
        <ele>1070.2</ele>
        <time>2021-09-18T13:23:24.587Z</time>
      </trkpt>
      <trkpt lat="44.19593" lon="6.25558">
        <ele>1069.8</ele>
        <time>2021-09-18T13:23:25.014Z</time>
      </trkpt>
      <trkpt lat="44.19592" lon="6.2556">
        <ele>1069.4</ele>
        <time>2021-09-18T13:23:25.441Z</time>
      </trkpt>
      <trkpt lat="44.19591" lon="6.25563">
        <ele>1069.1</ele>
        <time>2021-09-18T13:23:26.021Z</time>
      </trkpt>
      <trkpt lat="44.1959" lon="6.25567">
        <ele>1068.7</ele>
        <time>2021-09-18T13:23:26.763Z</time>
      </trkpt>
      <trkpt lat="44.19589" lon="6.25571">
        <ele>1068.3</ele>
        <time>2021-09-18T13:23:27.506Z</time>
      </trkpt>
      <trkpt lat="44.19589" lon="6.25574">
        <ele>1068.4</ele>
        <time>2021-09-18T13:23:32.125Z</time>
      </trkpt>
      <trkpt lat="44.19589" lon="6.25578">
        <ele>1068.5</ele>
        <time>2021-09-18T13:23:37.420Z</time>
      </trkpt>
      <trkpt lat="44.19589" lon="6.25583">
        <ele>1068.6</ele>
        <time>2021-09-18T13:23:43.470Z</time>
      </trkpt>
      <trkpt lat="44.19589" lon="6.25585">
        <ele>1068.4</ele>
        <time>2021-09-18T13:23:43.820Z</time>
      </trkpt>
      <trkpt lat="44.1959" lon="6.25589">
        <ele>1068.4</ele>
        <time>2021-09-18T13:23:47.636Z</time>
      </trkpt>
      <trkpt lat="44.1959" lon="6.25591">
        <ele>1068.2</ele>
        <time>2021-09-18T13:23:47.987Z</time>
      </trkpt>
      <trkpt lat="44.1959" lon="6.25594">
        <ele>1067.9</ele>
        <time>2021-09-18T13:23:48.513Z</time>
      </trkpt>
      <trkpt lat="44.19589" lon="6.25598">
        <ele>1067</ele>
        <time>2021-09-18T13:23:49.255Z</time>
      </trkpt>
      <trkpt lat="44.19589" lon="6.256">
        <ele>1066.8</ele>
        <time>2021-09-18T13:23:49.605Z</time>
      </trkpt>
      <trkpt lat="44.19589" lon="6.25603">
        <ele>1066.5</ele>
        <time>2021-09-18T13:23:50.131Z</time>
      </trkpt>
      <trkpt lat="44.19589" lon="6.25606">
        <ele>1066.2</ele>
        <time>2021-09-18T13:23:50.657Z</time>
      </trkpt>
      <trkpt lat="44.1959" lon="6.25608">
        <ele>1066.4</ele>
        <time>2021-09-18T13:23:57.302Z</time>
      </trkpt>
      <trkpt lat="44.1959" lon="6.25611">
        <ele>1066.1</ele>
        <time>2021-09-18T13:23:57.827Z</time>
      </trkpt>
      <trkpt lat="44.19591" lon="6.25614">
        <ele>1066.2</ele>
        <time>2021-09-18T13:24:02.683Z</time>
      </trkpt>
      <trkpt lat="44.19592" lon="6.25618">
        <ele>1066.3</ele>
        <time>2021-09-18T13:24:08.147Z</time>
      </trkpt>
      <trkpt lat="44.19592" lon="6.25621">
        <ele>1065.9</ele>
        <time>2021-09-18T13:24:08.672Z</time>
      </trkpt>
      <trkpt lat="44.19591" lon="6.25626">
        <ele>1064.9</ele>
        <time>2021-09-18T13:24:09.582Z</time>
      </trkpt>
      <trkpt lat="44.19591" lon="6.25627">
        <ele>1064.8</ele>
        <time>2021-09-18T13:24:09.757Z</time>
      </trkpt>
      <trkpt lat="44.1959" lon="6.2563">
        <ele>1064</ele>
        <time>2021-09-18T13:24:10.337Z</time>
      </trkpt>
      <trkpt lat="44.1959" lon="6.25633">
        <ele>1063.7</ele>
        <time>2021-09-18T13:24:10.863Z</time>
      </trkpt>
      <trkpt lat="44.1959" lon="6.25634">
        <ele>1063.6</ele>
        <time>2021-09-18T13:24:11.038Z</time>
      </trkpt>
      <trkpt lat="44.1959" lon="6.25636">
        <ele>1063.4</ele>
        <time>2021-09-18T13:24:11.388Z</time>
      </trkpt>
      <trkpt lat="44.1959" lon="6.2564">
        <ele>1063</ele>
        <time>2021-09-18T13:24:12.089Z</time>
      </trkpt>
      <trkpt lat="44.19591" lon="6.25643">
        <ele>1063.1</ele>
        <time>2021-09-18T13:24:16.944Z</time>
      </trkpt>
      <trkpt lat="44.19591" lon="6.25644">
        <ele>1063</ele>
        <time>2021-09-18T13:24:17.120Z</time>
      </trkpt>
      <trkpt lat="44.19591" lon="6.25648">
        <ele>1062.6</ele>
        <time>2021-09-18T13:24:17.821Z</time>
      </trkpt>
      <trkpt lat="44.19591" lon="6.25649">
        <ele>1062.5</ele>
        <time>2021-09-18T13:24:17.996Z</time>
      </trkpt>
      <trkpt lat="44.19592" lon="6.25651">
        <ele>1062.7</ele>
        <time>2021-09-18T13:24:24.641Z</time>
      </trkpt>
      <trkpt lat="44.19592" lon="6.25655">
        <ele>1062.3</ele>
        <time>2021-09-18T13:24:25.342Z</time>
      </trkpt>
      <trkpt lat="44.19593" lon="6.25658">
        <ele>1062.4</ele>
        <time>2021-09-18T13:24:30.197Z</time>
      </trkpt>
      <trkpt lat="44.19594" lon="6.25662">
        <ele>1062.5</ele>
        <time>2021-09-18T13:24:35.661Z</time>
      </trkpt>
      <trkpt lat="44.19595" lon="6.25664">
        <ele>1062.7</ele>
        <time>2021-09-18T13:24:42.306Z</time>
      </trkpt>
      <trkpt lat="44.19596" lon="6.25668">
        <ele>1062.6</ele>
        <time>2021-09-18T13:24:43.220Z</time>
      </trkpt>
      <trkpt lat="44.19598" lon="6.25671">
        <ele>1062.9</ele>
        <time>2021-09-18T13:24:53.021Z</time>
      </trkpt>
      <trkpt lat="44.19599" lon="6.25673">
        <ele>1062.9</ele>
        <time>2021-09-18T13:24:55.218Z</time>
      </trkpt>
      <trkpt lat="44.196" lon="6.25676">
        <ele>1062.7</ele>
        <time>2021-09-18T13:24:55.797Z</time>
      </trkpt>
      <trkpt lat="44.19602" lon="6.25679">
        <ele>1063</ele>
        <time>2021-09-18T13:25:05.599Z</time>
      </trkpt>
      <trkpt lat="44.19603" lon="6.2568">
        <ele>1063.2</ele>
        <time>2021-09-18T13:25:11.562Z</time>
      </trkpt>
      <trkpt lat="44.19604" lon="6.2568">
        <ele>1063.7</ele>
        <time>2021-09-18T13:25:16.409Z</time>
      </trkpt>
      <trkpt lat="44.19605" lon="6.25682">
        <ele>1063.7</ele>
        <time>2021-09-18T13:25:18.605Z</time>
      </trkpt>
      <trkpt lat="44.19606" lon="6.25684">
        <ele>1063.7</ele>
        <time>2021-09-18T13:25:20.802Z</time>
      </trkpt>
      <trkpt lat="44.19607" lon="6.25687">
        <ele>1063.5</ele>
        <time>2021-09-18T13:25:21.382Z</time>
      </trkpt>
      <trkpt lat="44.19608" lon="6.2569">
        <ele>1063.3</ele>
        <time>2021-09-18T13:25:21.961Z</time>
      </trkpt>
      <trkpt lat="44.19609" lon="6.25692">
        <ele>1063.3</ele>
        <time>2021-09-18T13:25:24.158Z</time>
      </trkpt>
      <trkpt lat="44.19611" lon="6.25693">
        <ele>1064</ele>
        <time>2021-09-18T13:25:34.455Z</time>
      </trkpt>
      <trkpt lat="44.19614" lon="6.25694">
        <ele>1065.2</ele>
        <time>2021-09-18T13:25:49.404Z</time>
      </trkpt>
      <trkpt lat="44.19615" lon="6.25697">
        <ele>1065</ele>
        <time>2021-09-18T13:25:49.984Z</time>
      </trkpt>
      <trkpt lat="44.19616" lon="6.257">
        <ele>1064.8</ele>
        <time>2021-09-18T13:25:50.563Z</time>
      </trkpt>
      <trkpt lat="44.19617" lon="6.25701">
        <ele>1065.1</ele>
        <time>2021-09-18T13:25:56.527Z</time>
      </trkpt>
      <trkpt lat="44.19619" lon="6.25703">
        <ele>1065.6</ele>
        <time>2021-09-18T13:26:08.453Z</time>
      </trkpt>
      <trkpt lat="44.19621" lon="6.25704">
        <ele>1066.3</ele>
        <time>2021-09-18T13:26:18.750Z</time>
      </trkpt>
      <trkpt lat="44.19622" lon="6.25706">
        <ele>1066.3</ele>
        <time>2021-09-18T13:26:20.947Z</time>
      </trkpt>
      <trkpt lat="44.19623" lon="6.25707">
        <ele>1066.6</ele>
        <time>2021-09-18T13:26:26.910Z</time>
      </trkpt>
      <trkpt lat="44.19624" lon="6.2571">
        <ele>1066.4</ele>
        <time>2021-09-18T13:26:27.490Z</time>
      </trkpt>
      <trkpt lat="44.19626" lon="6.25711">
        <ele>1067.1</ele>
        <time>2021-09-18T13:26:37.787Z</time>
      </trkpt>
      <trkpt lat="44.19628" lon="6.25714">
        <ele>1067.4</ele>
        <time>2021-09-18T13:26:47.588Z</time>
      </trkpt>
      <trkpt lat="44.19629" lon="6.25716">
        <ele>1067.4</ele>
        <time>2021-09-18T13:26:49.785Z</time>
      </trkpt>
      <trkpt lat="44.19631" lon="6.25719">
        <ele>1067.7</ele>
        <time>2021-09-18T13:26:59.587Z</time>
      </trkpt>
      <trkpt lat="44.19632" lon="6.25723">
        <ele>1067.3</ele>
        <time>2021-09-18T13:27:00.329Z</time>
      </trkpt>
      <trkpt lat="44.19633" lon="6.25724">
        <ele>1067.6</ele>
        <time>2021-09-18T13:27:06.292Z</time>
      </trkpt>
      <trkpt lat="44.19635" lon="6.25727">
        <ele>1067.9</ele>
        <time>2021-09-18T13:27:16.094Z</time>
      </trkpt>
      <trkpt lat="44.19636" lon="6.25732">
        <ele>1067.2</ele>
        <time>2021-09-18T13:27:17.003Z</time>
      </trkpt>
      <trkpt lat="44.19637" lon="6.25734">
        <ele>1067.3</ele>
        <time>2021-09-18T13:27:21.034Z</time>
      </trkpt>
      <trkpt lat="44.19639" lon="6.25737">
        <ele>1067.6</ele>
        <time>2021-09-18T13:27:30.836Z</time>
      </trkpt>
      <trkpt lat="44.1964" lon="6.25741">
        <ele>1067.2</ele>
        <time>2021-09-18T13:27:31.578Z</time>
      </trkpt>
      <trkpt lat="44.19642" lon="6.25743">
        <ele>1067.7</ele>
        <time>2021-09-18T13:27:43.505Z</time>
      </trkpt>
      <trkpt lat="44.19643" lon="6.25749">
        <ele>1066.9</ele>
        <time>2021-09-18T13:27:44.584Z</time>
      </trkpt>
      <trkpt lat="44.19643" lon="6.25752">
        <ele>1066.3</ele>
        <time>2021-09-18T13:27:45.110Z</time>
      </trkpt>
      <trkpt lat="44.19643" lon="6.25755">
        <ele>1065.9</ele>
        <time>2021-09-18T13:27:45.636Z</time>
      </trkpt>
      <trkpt lat="44.19645" lon="6.25756">
        <ele>1066.7</ele>
        <time>2021-09-18T13:27:55.933Z</time>
      </trkpt>
      <trkpt lat="44.19645" lon="6.25758">
        <ele>1066.4</ele>
        <time>2021-09-18T13:27:56.283Z</time>
      </trkpt>
      <trkpt lat="44.19646" lon="6.25761">
        <ele>1066.4</ele>
        <time>2021-09-18T13:27:59.263Z</time>
      </trkpt>
      <trkpt lat="44.19646" lon="6.25763">
        <ele>1066.1</ele>
        <time>2021-09-18T13:27:59.614Z</time>
      </trkpt>
      <trkpt lat="44.19647" lon="6.25765">
        <ele>1066.2</ele>
        <time>2021-09-18T13:28:03.645Z</time>
      </trkpt>
      <trkpt lat="44.19649" lon="6.25768">
        <ele>1066.7</ele>
        <time>2021-09-18T13:28:17.879Z</time>
      </trkpt>
      <trkpt lat="44.19649" lon="6.2577">
        <ele>1066.4</ele>
        <time>2021-09-18T13:28:18.230Z</time>
      </trkpt>
      <trkpt lat="44.19651" lon="6.25772">
        <ele>1067</ele>
        <time>2021-09-18T13:28:30.156Z</time>
      </trkpt>
      <trkpt lat="44.19652" lon="6.25775">
        <ele>1067.1</ele>
        <time>2021-09-18T13:28:35.012Z</time>
      </trkpt>
      <trkpt lat="44.19652" lon="6.25777">
        <ele>1066.7</ele>
        <time>2021-09-18T13:28:35.362Z</time>
      </trkpt>
      <trkpt lat="44.19654" lon="6.25779">
        <ele>1067.4</ele>
        <time>2021-09-18T13:28:47.289Z</time>
      </trkpt>
      <trkpt lat="44.19654" lon="6.25781">
        <ele>1067.1</ele>
        <time>2021-09-18T13:28:47.639Z</time>
      </trkpt>
      <trkpt lat="44.19655" lon="6.25782">
        <ele>1067.4</ele>
        <time>2021-09-18T13:28:53.603Z</time>
      </trkpt>
      <trkpt lat="44.19656" lon="6.25784">
        <ele>1067.6</ele>
        <time>2021-09-18T13:29:00.248Z</time>
      </trkpt>
      <trkpt lat="44.19657" lon="6.25787">
        <ele>1067.6</ele>
        <time>2021-09-18T13:29:03.228Z</time>
      </trkpt>
      <trkpt lat="44.19658" lon="6.25789">
        <ele>1067.8</ele>
        <time>2021-09-18T13:29:09.873Z</time>
      </trkpt>
      <trkpt lat="44.19659" lon="6.2579">
        <ele>1068.1</ele>
        <time>2021-09-18T13:29:15.836Z</time>
      </trkpt>
      <trkpt lat="44.1966" lon="6.25792">
        <ele>1068.2</ele>
        <time>2021-09-18T13:29:19.867Z</time>
      </trkpt>
      <trkpt lat="44.19661" lon="6.25794">
        <ele>1068.4</ele>
        <time>2021-09-18T13:29:26.512Z</time>
      </trkpt>
      <trkpt lat="44.19662" lon="6.25797">
        <ele>1068.4</ele>
        <time>2021-09-18T13:29:29.493Z</time>
      </trkpt>
      <trkpt lat="44.19663" lon="6.25798">
        <ele>1068.8</ele>
        <time>2021-09-18T13:29:35.456Z</time>
      </trkpt>
      <trkpt lat="44.19664" lon="6.258">
        <ele>1068.9</ele>
        <time>2021-09-18T13:29:39.487Z</time>
      </trkpt>
      <trkpt lat="44.19665" lon="6.25803">
        <ele>1068.9</ele>
        <time>2021-09-18T13:29:42.467Z</time>
      </trkpt>
      <trkpt lat="44.19666" lon="6.25804">
        <ele>1069.3</ele>
        <time>2021-09-18T13:29:48.431Z</time>
      </trkpt>
      <trkpt lat="44.19668" lon="6.25805">
        <ele>1070.1</ele>
        <time>2021-09-18T13:29:58.728Z</time>
      </trkpt>
      <trkpt lat="44.19669" lon="6.25807">
        <ele>1070.3</ele>
        <time>2021-09-18T13:30:05.373Z</time>
      </trkpt>
      <trkpt lat="44.1967" lon="6.25809">
        <ele>1070.5</ele>
        <time>2021-09-18T13:30:12.017Z</time>
      </trkpt>
      <trkpt lat="44.1967" lon="6.25811">
        <ele>1070.2</ele>
        <time>2021-09-18T13:30:12.368Z</time>
      </trkpt>
      <trkpt lat="44.19672" lon="6.25812">
        <ele>1071.1</ele>
        <time>2021-09-18T13:30:22.665Z</time>
      </trkpt>
      <trkpt lat="44.19674" lon="6.25815">
        <ele>1071.7</ele>
        <time>2021-09-18T13:30:36.899Z</time>
      </trkpt>
      <trkpt lat="44.19675" lon="6.25816">
        <ele>1072</ele>
        <time>2021-09-18T13:30:42.862Z</time>
      </trkpt>
      <trkpt lat="44.19676" lon="6.25819">
        <ele>1072.1</ele>
        <time>2021-09-18T13:30:47.718Z</time>
      </trkpt>
      <trkpt lat="44.19676" lon="6.25822">
        <ele>1071.6</ele>
        <time>2021-09-18T13:30:48.243Z</time>
      </trkpt>
      <trkpt lat="44.19677" lon="6.25825">
        <ele>1071.6</ele>
        <time>2021-09-18T13:30:51.224Z</time>
      </trkpt>
      <trkpt lat="44.19679" lon="6.25827">
        <ele>1072.4</ele>
        <time>2021-09-18T13:31:03.150Z</time>
      </trkpt>
      <trkpt lat="44.19679" lon="6.2583">
        <ele>1071.9</ele>
        <time>2021-09-18T13:31:03.676Z</time>
      </trkpt>
      <trkpt lat="44.1968" lon="6.25832">
        <ele>1072.1</ele>
        <time>2021-09-18T13:31:10.321Z</time>
      </trkpt>
      <trkpt lat="44.19681" lon="6.25834">
        <ele>1072.4</ele>
        <time>2021-09-18T13:31:18.794Z</time>
      </trkpt>
      <trkpt lat="44.19682" lon="6.25837">
        <ele>1072.9</ele>
        <time>2021-09-18T13:31:30.289Z</time>
      </trkpt>
      <trkpt lat="44.19682" lon="6.25838">
        <ele>1072.9</ele>
        <time>2021-09-18T13:31:31.190Z</time>
      </trkpt>
      <trkpt lat="44.19683" lon="6.2584">
        <ele>1073.4</ele>
        <time>2021-09-18T13:31:39.662Z</time>
      </trkpt>
      <trkpt lat="44.19684" lon="6.25843">
        <ele>1073.9</ele>
        <time>2021-09-18T13:31:51.158Z</time>
      </trkpt>
      <trkpt lat="44.19684" lon="6.25845">
        <ele>1073.9</ele>
        <time>2021-09-18T13:31:52.960Z</time>
      </trkpt>
      <trkpt lat="44.19685" lon="6.25846">
        <ele>1074.4</ele>
        <time>2021-09-18T13:31:58.923Z</time>
      </trkpt>
      <trkpt lat="44.19687" lon="6.25849">
        <ele>1075.4</ele>
        <time>2021-09-18T13:32:13.157Z</time>
      </trkpt>
      <trkpt lat="44.19687" lon="6.25852">
        <ele>1075.4</ele>
        <time>2021-09-18T13:32:15.860Z</time>
      </trkpt>
      <trkpt lat="44.19687" lon="6.25855">
        <ele>1075.4</ele>
        <time>2021-09-18T13:32:18.562Z</time>
      </trkpt>
      <trkpt lat="44.19687" lon="6.25857">
        <ele>1075.4</ele>
        <time>2021-09-18T13:32:20.364Z</time>
      </trkpt>
      <trkpt lat="44.19687" lon="6.2586">
        <ele>1075.3</ele>
        <time>2021-09-18T13:32:20.932Z</time>
      </trkpt>
      <trkpt lat="44.19686" lon="6.25861">
        <ele>1074.8</ele>
        <time>2021-09-18T13:32:21.233Z</time>
      </trkpt>
      <trkpt lat="44.19686" lon="6.25864">
        <ele>1074.8</ele>
        <time>2021-09-18T13:32:23.936Z</time>
      </trkpt>
      <trkpt lat="44.19685" lon="6.25867">
        <ele>1074.3</ele>
        <time>2021-09-18T13:32:24.515Z</time>
      </trkpt>
      <trkpt lat="44.19685" lon="6.2587">
        <ele>1074.3</ele>
        <time>2021-09-18T13:32:27.218Z</time>
      </trkpt>
      <trkpt lat="44.19685" lon="6.25873">
        <ele>1074.2</ele>
        <time>2021-09-18T13:32:27.786Z</time>
      </trkpt>
      <trkpt lat="44.19685" lon="6.25875">
        <ele>1074.2</ele>
        <time>2021-09-18T13:32:29.588Z</time>
      </trkpt>
      <trkpt lat="44.19684" lon="6.25878">
        <ele>1073.7</ele>
        <time>2021-09-18T13:32:30.168Z</time>
      </trkpt>
      <trkpt lat="44.19685" lon="6.2588">
        <ele>1074.2</ele>
        <time>2021-09-18T13:32:38.640Z</time>
      </trkpt>
      <trkpt lat="44.19685" lon="6.25882">
        <ele>1074.2</ele>
        <time>2021-09-18T13:32:40.442Z</time>
      </trkpt>
      <trkpt lat="44.19685" lon="6.25885">
        <ele>1074.2</ele>
        <time>2021-09-18T13:32:43.144Z</time>
      </trkpt>
      <trkpt lat="44.19685" lon="6.25887">
        <ele>1074.2</ele>
        <time>2021-09-18T13:32:44.946Z</time>
      </trkpt>
      <trkpt lat="44.19685" lon="6.25891">
        <ele>1074.2</ele>
        <time>2021-09-18T13:32:48.549Z</time>
      </trkpt>
      <trkpt lat="44.19684" lon="6.25894">
        <ele>1073.6</ele>
        <time>2021-09-18T13:32:49.129Z</time>
      </trkpt>
      <trkpt lat="44.19684" lon="6.25897">
        <ele>1073.6</ele>
        <time>2021-09-18T13:32:51.832Z</time>
      </trkpt>
      <trkpt lat="44.19684" lon="6.25899">
        <ele>1073.6</ele>
        <time>2021-09-18T13:32:53.633Z</time>
      </trkpt>
      <trkpt lat="44.19684" lon="6.25901">
        <ele>1073.6</ele>
        <time>2021-09-18T13:32:55.435Z</time>
      </trkpt>
      <trkpt lat="44.19684" lon="6.25905">
        <ele>1073.6</ele>
        <time>2021-09-18T13:32:59.038Z</time>
      </trkpt>
      <trkpt lat="44.19683" lon="6.25907">
        <ele>1073.1</ele>
        <time>2021-09-18T13:32:59.466Z</time>
      </trkpt>
      <trkpt lat="44.19681" lon="6.2591">
        <ele>1072.1</ele>
        <time>2021-09-18T13:33:00.183Z</time>
      </trkpt>
      <trkpt lat="44.1968" lon="6.25912">
        <ele>1071.6</ele>
        <time>2021-09-18T13:33:00.611Z</time>
      </trkpt>
      <trkpt lat="44.19679" lon="6.25915">
        <ele>1071.1</ele>
        <time>2021-09-18T13:33:01.190Z</time>
      </trkpt>
      <trkpt lat="44.19678" lon="6.25916">
        <ele>1070.6</ele>
        <time>2021-09-18T13:33:01.491Z</time>
      </trkpt>
      <trkpt lat="44.19676" lon="6.25918">
        <ele>1069.8</ele>
        <time>2021-09-18T13:33:02.093Z</time>
      </trkpt>
      <trkpt lat="44.19674" lon="6.25919">
        <ele>1068.9</ele>
        <time>2021-09-18T13:33:02.612Z</time>
      </trkpt>
      <trkpt lat="44.19673" lon="6.2592">
        <ele>1068.5</ele>
        <time>2021-09-18T13:33:02.913Z</time>
      </trkpt>
      <trkpt lat="44.19671" lon="6.25922">
        <ele>1067.8</ele>
        <time>2021-09-18T13:33:03.514Z</time>
      </trkpt>
      <trkpt lat="44.19669" lon="6.25923">
        <ele>1067</ele>
        <time>2021-09-18T13:33:04.033Z</time>
      </trkpt>
      <trkpt lat="44.19667" lon="6.25925">
        <ele>1066.3</ele>
        <time>2021-09-18T13:33:04.635Z</time>
      </trkpt>
      <trkpt lat="44.19665" lon="6.25926">
        <ele>1065.6</ele>
        <time>2021-09-18T13:33:05.154Z</time>
      </trkpt>
      <trkpt lat="44.19664" lon="6.25928">
        <ele>1065.4</ele>
        <time>2021-09-18T13:33:05.581Z</time>
      </trkpt>
      <trkpt lat="44.19664" lon="6.25929">
        <ele>1065.6</ele>
        <time>2021-09-18T13:33:09.056Z</time>
      </trkpt>
      <trkpt lat="44.19662" lon="6.25931">
        <ele>1065</ele>
        <time>2021-09-18T13:33:09.657Z</time>
      </trkpt>
      <trkpt lat="44.1966" lon="6.25932">
        <ele>1064.4</ele>
        <time>2021-09-18T13:33:10.177Z</time>
      </trkpt>
      <trkpt lat="44.19658" lon="6.25932">
        <ele>1063.6</ele>
        <time>2021-09-18T13:33:10.665Z</time>
      </trkpt>
      <trkpt lat="44.19656" lon="6.25933">
        <ele>1062.9</ele>
        <time>2021-09-18T13:33:11.185Z</time>
      </trkpt>
      <trkpt lat="44.19655" lon="6.25934">
        <ele>1062.7</ele>
        <time>2021-09-18T13:33:11.485Z</time>
      </trkpt>
      <trkpt lat="44.19654" lon="6.25935">
        <ele>1062.4</ele>
        <time>2021-09-18T13:33:11.786Z</time>
      </trkpt>
      <trkpt lat="44.19651" lon="6.25937">
        <ele>1061.5</ele>
        <time>2021-09-18T13:33:12.599Z</time>
      </trkpt>
      <trkpt lat="44.19648" lon="6.25938">
        <ele>1060.4</ele>
        <time>2021-09-18T13:33:13.353Z</time>
      </trkpt>
      <trkpt lat="44.19646" lon="6.25938">
        <ele>1059.6</ele>
        <time>2021-09-18T13:33:13.841Z</time>
      </trkpt>
      <trkpt lat="44.19644" lon="6.25939">
        <ele>1059</ele>
        <time>2021-09-18T13:33:14.361Z</time>
      </trkpt>
      <trkpt lat="44.19642" lon="6.25941">
        <ele>1058.4</ele>
        <time>2021-09-18T13:33:14.962Z</time>
      </trkpt>
      <trkpt lat="44.1964" lon="6.25944">
        <ele>1058</ele>
        <time>2021-09-18T13:33:15.680Z</time>
      </trkpt>
      <trkpt lat="44.19639" lon="6.25947">
        <ele>1058</ele>
        <time>2021-09-18T13:33:18.660Z</time>
      </trkpt>
      <trkpt lat="44.19638" lon="6.2595">
        <ele>1058</ele>
        <time>2021-09-18T13:33:21.641Z</time>
      </trkpt>
      <trkpt lat="44.19638" lon="6.25954">
        <ele>1058.6</ele>
        <time>2021-09-18T13:33:35.539Z</time>
      </trkpt>
      <trkpt lat="44.19637" lon="6.25956">
        <ele>1058.4</ele>
        <time>2021-09-18T13:33:35.967Z</time>
      </trkpt>
      <trkpt lat="44.19635" lon="6.25957">
        <ele>1057.8</ele>
        <time>2021-09-18T13:33:36.486Z</time>
      </trkpt>
      <trkpt lat="44.19634" lon="6.2596">
        <ele>1057.8</ele>
        <time>2021-09-18T13:33:39.466Z</time>
      </trkpt>
      <trkpt lat="44.19631" lon="6.25962">
        <ele>1056.9</ele>
        <time>2021-09-18T13:33:40.279Z</time>
      </trkpt>
      <trkpt lat="44.1963" lon="6.25964">
        <ele>1056.7</ele>
        <time>2021-09-18T13:33:40.706Z</time>
      </trkpt>
      <trkpt lat="44.19629" lon="6.25966">
        <ele>1056.6</ele>
        <time>2021-09-18T13:33:41.128Z</time>
      </trkpt>
      <trkpt lat="44.19628" lon="6.25968">
        <ele>1056.5</ele>
        <time>2021-09-18T13:33:41.549Z</time>
      </trkpt>
      <trkpt lat="44.19627" lon="6.2597">
        <ele>1056.3</ele>
        <time>2021-09-18T13:33:41.977Z</time>
      </trkpt>
      <trkpt lat="44.19625" lon="6.25972">
        <ele>1055.8</ele>
        <time>2021-09-18T13:33:42.578Z</time>
      </trkpt>
      <trkpt lat="44.19623" lon="6.25972">
        <ele>1055</ele>
        <time>2021-09-18T13:33:43.067Z</time>
      </trkpt>
      <trkpt lat="44.19622" lon="6.25973">
        <ele>1054.7</ele>
        <time>2021-09-18T13:33:43.368Z</time>
      </trkpt>
      <trkpt lat="44.1962" lon="6.25973">
        <ele>1054</ele>
        <time>2021-09-18T13:33:43.856Z</time>
      </trkpt>
      <trkpt lat="44.19618" lon="6.25974">
        <ele>1053.3</ele>
        <time>2021-09-18T13:33:44.376Z</time>
      </trkpt>
      <trkpt lat="44.19616" lon="6.25976">
        <ele>1052.8</ele>
        <time>2021-09-18T13:33:44.977Z</time>
      </trkpt>
      <trkpt lat="44.19615" lon="6.25977">
        <ele>1052.5</ele>
        <time>2021-09-18T13:33:45.278Z</time>
      </trkpt>
      <trkpt lat="44.19614" lon="6.25978">
        <ele>1052.2</ele>
        <time>2021-09-18T13:33:45.579Z</time>
      </trkpt>
      <trkpt lat="44.19613" lon="6.2598">
        <ele>1052.1</ele>
        <time>2021-09-18T13:33:46.000Z</time>
      </trkpt>
      <trkpt lat="44.19612" lon="6.25982">
        <ele>1052</ele>
        <time>2021-09-18T13:33:46.422Z</time>
      </trkpt>
      <trkpt lat="44.1961" lon="6.25983">
        <ele>1051.3</ele>
        <time>2021-09-18T13:33:46.941Z</time>
      </trkpt>
      <trkpt lat="44.19608" lon="6.25986">
        <ele>1050.9</ele>
        <time>2021-09-18T13:33:47.659Z</time>
      </trkpt>
      <trkpt lat="44.19607" lon="6.25987">
        <ele>1050.7</ele>
        <time>2021-09-18T13:33:47.960Z</time>
      </trkpt>
      <trkpt lat="44.19605" lon="6.25989">
        <ele>1050.1</ele>
        <time>2021-09-18T13:33:48.561Z</time>
      </trkpt>
      <trkpt lat="44.19604" lon="6.25991">
        <ele>1050</ele>
        <time>2021-09-18T13:33:48.983Z</time>
      </trkpt>
      <trkpt lat="44.19603" lon="6.25994">
        <ele>1050</ele>
        <time>2021-09-18T13:33:51.963Z</time>
      </trkpt>
      <trkpt lat="44.19602" lon="6.25996">
        <ele>1049.9</ele>
        <time>2021-09-18T13:33:52.385Z</time>
      </trkpt>
      <trkpt lat="44.19601" lon="6.25998">
        <ele>1049.7</ele>
        <time>2021-09-18T13:33:52.812Z</time>
      </trkpt>
      <trkpt lat="44.19601" lon="6.26002">
        <ele>1050.2</ele>
        <time>2021-09-18T13:34:06.711Z</time>
      </trkpt>
      <trkpt lat="44.19601" lon="6.26006">
        <ele>1050.6</ele>
        <time>2021-09-18T13:34:20.610Z</time>
      </trkpt>
      <trkpt lat="44.19601" lon="6.26008">
        <ele>1050.7</ele>
        <time>2021-09-18T13:34:24.228Z</time>
      </trkpt>
      <trkpt lat="44.19601" lon="6.2601">
        <ele>1050.9</ele>
        <time>2021-09-18T13:34:31.178Z</time>
      </trkpt>
      <trkpt lat="44.196" lon="6.26013">
        <ele>1050.8</ele>
        <time>2021-09-18T13:34:31.830Z</time>
      </trkpt>
      <trkpt lat="44.19599" lon="6.26016">
        <ele>1050.6</ele>
        <time>2021-09-18T13:34:32.410Z</time>
      </trkpt>
      <trkpt lat="44.19598" lon="6.26018">
        <ele>1050.4</ele>
        <time>2021-09-18T13:34:32.837Z</time>
      </trkpt>
      <trkpt lat="44.19598" lon="6.2602">
        <ele>1050.6</ele>
        <time>2021-09-18T13:34:39.786Z</time>
      </trkpt>
      <trkpt lat="44.19598" lon="6.26022">
        <ele>1050.7</ele>
        <time>2021-09-18T13:34:43.405Z</time>
      </trkpt>
      <trkpt lat="44.19598" lon="6.26024">
        <ele>1050.9</ele>
        <time>2021-09-18T13:34:50.354Z</time>
      </trkpt>
      <trkpt lat="44.19598" lon="6.26027">
        <ele>1051.2</ele>
        <time>2021-09-18T13:35:00.778Z</time>
      </trkpt>
      <trkpt lat="44.19599" lon="6.26031">
        <ele>1052</ele>
        <time>2021-09-18T13:35:15.498Z</time>
      </trkpt>
      <trkpt lat="44.19599" lon="6.26033">
        <ele>1052.2</ele>
        <time>2021-09-18T13:35:22.447Z</time>
      </trkpt>
      <trkpt lat="44.19598" lon="6.26035">
        <ele>1051.9</ele>
        <time>2021-09-18T13:35:22.875Z</time>
      </trkpt>
      <trkpt lat="44.19597" lon="6.26037">
        <ele>1051.6</ele>
        <time>2021-09-18T13:35:23.302Z</time>
      </trkpt>
      <trkpt lat="44.19597" lon="6.2604">
        <ele>1051.8</ele>
        <time>2021-09-18T13:35:29.880Z</time>
      </trkpt>
      <trkpt lat="44.19596" lon="6.26042">
        <ele>1051.5</ele>
        <time>2021-09-18T13:35:30.308Z</time>
      </trkpt>
      <trkpt lat="44.19596" lon="6.26045">
        <ele>1051.8</ele>
        <time>2021-09-18T13:35:40.732Z</time>
      </trkpt>
      <trkpt lat="44.19596" lon="6.26048">
        <ele>1052</ele>
        <time>2021-09-18T13:35:47.310Z</time>
      </trkpt>
      <trkpt lat="44.19595" lon="6.26051">
        <ele>1051.8</ele>
        <time>2021-09-18T13:35:47.890Z</time>
      </trkpt>
      <trkpt lat="44.19595" lon="6.26054">
        <ele>1052</ele>
        <time>2021-09-18T13:35:54.468Z</time>
      </trkpt>
      <trkpt lat="44.19595" lon="6.26056">
        <ele>1052.2</ele>
        <time>2021-09-18T13:36:01.418Z</time>
      </trkpt>
      <trkpt lat="44.19594" lon="6.26059">
        <ele>1051.9</ele>
        <time>2021-09-18T13:36:01.997Z</time>
      </trkpt>
      <trkpt lat="44.19594" lon="6.26061">
        <ele>1052.1</ele>
        <time>2021-09-18T13:36:08.947Z</time>
      </trkpt>
      <trkpt lat="44.19594" lon="6.26063">
        <ele>1052.3</ele>
        <time>2021-09-18T13:36:15.896Z</time>
      </trkpt>
      <trkpt lat="44.19593" lon="6.26066">
        <ele>1052</ele>
        <time>2021-09-18T13:36:16.476Z</time>
      </trkpt>
      <trkpt lat="44.19592" lon="6.26069">
        <ele>1051.7</ele>
        <time>2021-09-18T13:36:17.056Z</time>
      </trkpt>
      <trkpt lat="44.19592" lon="6.26071">
        <ele>1051.8</ele>
        <time>2021-09-18T13:36:20.674Z</time>
      </trkpt>
      <trkpt lat="44.19591" lon="6.26073">
        <ele>1051.5</ele>
        <time>2021-09-18T13:36:21.101Z</time>
      </trkpt>
      <trkpt lat="44.19589" lon="6.26075">
        <ele>1050.5</ele>
        <time>2021-09-18T13:36:21.703Z</time>
      </trkpt>
      <trkpt lat="44.19588" lon="6.26078">
        <ele>1050.2</ele>
        <time>2021-09-18T13:36:22.282Z</time>
      </trkpt>
      <trkpt lat="44.19587" lon="6.26081">
        <ele>1049.9</ele>
        <time>2021-09-18T13:36:22.862Z</time>
      </trkpt>
      <trkpt lat="44.19587" lon="6.26084">
        <ele>1050.1</ele>
        <time>2021-09-18T13:36:29.440Z</time>
      </trkpt>
      <trkpt lat="44.19587" lon="6.26086">
        <ele>1050.2</ele>
        <time>2021-09-18T13:36:33.059Z</time>
      </trkpt>
      <trkpt lat="44.19586" lon="6.26089">
        <ele>1049.7</ele>
        <time>2021-09-18T13:36:33.638Z</time>
      </trkpt>
      <trkpt lat="44.19586" lon="6.26093">
        <ele>1049.9</ele>
        <time>2021-09-18T13:36:40.875Z</time>
      </trkpt>
      <trkpt lat="44.19585" lon="6.26096">
        <ele>1049.5</ele>
        <time>2021-09-18T13:36:41.455Z</time>
      </trkpt>
      <trkpt lat="44.19585" lon="6.26098">
        <ele>1049.6</ele>
        <time>2021-09-18T13:36:45.073Z</time>
      </trkpt>
      <trkpt lat="44.19585" lon="6.26101">
        <ele>1049.8</ele>
        <time>2021-09-18T13:36:51.652Z</time>
      </trkpt>
      <trkpt lat="44.19584" lon="6.26104">
        <ele>1049.4</ele>
        <time>2021-09-18T13:36:52.231Z</time>
      </trkpt>
      <trkpt lat="44.19584" lon="6.26106">
        <ele>1049.5</ele>
        <time>2021-09-18T13:36:55.850Z</time>
      </trkpt>
      <trkpt lat="44.19584" lon="6.26107">
        <ele>1049.5</ele>
        <time>2021-09-18T13:36:56.751Z</time>
      </trkpt>
      <trkpt lat="44.19583" lon="6.2611">
        <ele>1049.1</ele>
        <time>2021-09-18T13:36:57.330Z</time>
      </trkpt>
      <trkpt lat="44.19582" lon="6.26112">
        <ele>1048.8</ele>
        <time>2021-09-18T13:36:57.758Z</time>
      </trkpt>
      <trkpt lat="44.19582" lon="6.26113">
        <ele>1048.9</ele>
        <time>2021-09-18T13:37:01.232Z</time>
      </trkpt>
      <trkpt lat="44.1958" lon="6.26116">
        <ele>1048.2</ele>
        <time>2021-09-18T13:37:01.950Z</time>
      </trkpt>
      <trkpt lat="44.19579" lon="6.26118">
        <ele>1047.9</ele>
        <time>2021-09-18T13:37:02.377Z</time>
      </trkpt>
      <trkpt lat="44.19578" lon="6.26119">
        <ele>1047.5</ele>
        <time>2021-09-18T13:37:02.678Z</time>
      </trkpt>
      <trkpt lat="44.19577" lon="6.26122">
        <ele>1047.3</ele>
        <time>2021-09-18T13:37:03.258Z</time>
      </trkpt>
      <trkpt lat="44.19576" lon="6.26125">
        <ele>1047</ele>
        <time>2021-09-18T13:37:03.837Z</time>
      </trkpt>
      <trkpt lat="44.19575" lon="6.26127">
        <ele>1046.7</ele>
        <time>2021-09-18T13:37:04.265Z</time>
      </trkpt>
      <trkpt lat="44.19574" lon="6.26128">
        <ele>1046.4</ele>
        <time>2021-09-18T13:37:04.565Z</time>
      </trkpt>
      <trkpt lat="44.19573" lon="6.26131">
        <ele>1046.1</ele>
        <time>2021-09-18T13:37:05.145Z</time>
      </trkpt>
      <trkpt lat="44.19573" lon="6.26134">
        <ele>1046.3</ele>
        <time>2021-09-18T13:37:11.724Z</time>
      </trkpt>
      <trkpt lat="44.19574" lon="6.26135">
        <ele>1046.8</ele>
        <time>2021-09-18T13:37:17.687Z</time>
      </trkpt>
      <trkpt lat="44.19574" lon="6.26138">
        <ele>1046.9</ele>
        <time>2021-09-18T13:37:22.306Z</time>
      </trkpt>
      <trkpt lat="44.19573" lon="6.26141">
        <ele>1046.7</ele>
        <time>2021-09-18T13:37:22.886Z</time>
      </trkpt>
      <trkpt lat="44.19572" lon="6.26144">
        <ele>1046.5</ele>
        <time>2021-09-18T13:37:23.466Z</time>
      </trkpt>
      <trkpt lat="44.19572" lon="6.26146">
        <ele>1046.6</ele>
        <time>2021-09-18T13:37:27.084Z</time>
      </trkpt>
      <trkpt lat="44.19571" lon="6.26148">
        <ele>1046.3</ele>
        <time>2021-09-18T13:37:27.511Z</time>
      </trkpt>
      <trkpt lat="44.1957" lon="6.26151">
        <ele>1046.1</ele>
        <time>2021-09-18T13:37:28.091Z</time>
      </trkpt>
      <trkpt lat="44.19569" lon="6.26154">
        <ele>1045.9</ele>
        <time>2021-09-18T13:37:28.671Z</time>
      </trkpt>
      <trkpt lat="44.19568" lon="6.26156">
        <ele>1045.6</ele>
        <time>2021-09-18T13:37:29.098Z</time>
      </trkpt>
      <trkpt lat="44.19567" lon="6.26159">
        <ele>1045.4</ele>
        <time>2021-09-18T13:37:29.678Z</time>
      </trkpt>
      <trkpt lat="44.19567" lon="6.26164">
        <ele>1045.8</ele>
        <time>2021-09-18T13:37:42.881Z</time>
      </trkpt>
      <trkpt lat="44.19568" lon="6.26166">
        <ele>1046.3</ele>
        <time>2021-09-18T13:37:51.354Z</time>
      </trkpt>
      <trkpt lat="44.19567" lon="6.26167">
        <ele>1046</ele>
        <time>2021-09-18T13:37:51.655Z</time>
      </trkpt>
      <trkpt lat="44.19566" lon="6.26169">
        <ele>1045.8</ele>
        <time>2021-09-18T13:37:52.082Z</time>
      </trkpt>
      <trkpt lat="44.19566" lon="6.26171">
        <ele>1046.1</ele>
        <time>2021-09-18T13:37:59.031Z</time>
      </trkpt>
      <trkpt lat="44.19566" lon="6.26174">
        <ele>1046.5</ele>
        <time>2021-09-18T13:38:09.456Z</time>
      </trkpt>
      <trkpt lat="44.19567" lon="6.26176">
        <ele>1047.1</ele>
        <time>2021-09-18T13:38:17.928Z</time>
      </trkpt>
      <trkpt lat="44.19566" lon="6.26178">
        <ele>1047</ele>
        <time>2021-09-18T13:38:18.350Z</time>
      </trkpt>
      <trkpt lat="44.19565" lon="6.2618">
        <ele>1046.8</ele>
        <time>2021-09-18T13:38:18.777Z</time>
      </trkpt>
      <trkpt lat="44.19564" lon="6.26182">
        <ele>1046.7</ele>
        <time>2021-09-18T13:38:19.199Z</time>
      </trkpt>
      <trkpt lat="44.19564" lon="6.26185">
        <ele>1047.1</ele>
        <time>2021-09-18T13:38:29.623Z</time>
      </trkpt>
      <trkpt lat="44.19563" lon="6.26188">
        <ele>1047.1</ele>
        <time>2021-09-18T13:38:32.603Z</time>
      </trkpt>
      <trkpt lat="44.19564" lon="6.2619">
        <ele>1047.7</ele>
        <time>2021-09-18T13:38:41.076Z</time>
      </trkpt>
      <trkpt lat="44.19564" lon="6.26193">
        <ele>1048.1</ele>
        <time>2021-09-18T13:38:51.500Z</time>
      </trkpt>
      <trkpt lat="44.19563" lon="6.26195">
        <ele>1047.9</ele>
        <time>2021-09-18T13:38:51.927Z</time>
      </trkpt>
      <trkpt lat="44.19562" lon="6.26197">
        <ele>1047.8</ele>
        <time>2021-09-18T13:38:52.349Z</time>
      </trkpt>
      <trkpt lat="44.19561" lon="6.26199">
        <ele>1047.6</ele>
        <time>2021-09-18T13:38:52.776Z</time>
      </trkpt>
      <trkpt lat="44.1956" lon="6.262">
        <ele>1047.4</ele>
        <time>2021-09-18T13:38:53.077Z</time>
      </trkpt>
      <trkpt lat="44.19559" lon="6.26202">
        <ele>1047.2</ele>
        <time>2021-09-18T13:38:53.504Z</time>
      </trkpt>
      <trkpt lat="44.19558" lon="6.26204">
        <ele>1047.1</ele>
        <time>2021-09-18T13:38:53.926Z</time>
      </trkpt>
      <trkpt lat="44.19556" lon="6.26207">
        <ele>1046.7</ele>
        <time>2021-09-18T13:38:54.644Z</time>
      </trkpt>
      <trkpt lat="44.19555" lon="6.2621">
        <ele>1046.7</ele>
        <time>2021-09-18T13:38:57.624Z</time>
      </trkpt>
      <trkpt lat="44.19554" lon="6.26211">
        <ele>1046.4</ele>
        <time>2021-09-18T13:38:57.925Z</time>
      </trkpt>
      <trkpt lat="44.19553" lon="6.26215">
        <ele>1046.5</ele>
        <time>2021-09-18T13:39:03.389Z</time>
      </trkpt>
      <trkpt lat="44.19552" lon="6.26217">
        <ele>1046.3</ele>
        <time>2021-09-18T13:39:03.816Z</time>
      </trkpt>
      <trkpt lat="44.19551" lon="6.26221">
        <ele>1046.4</ele>
        <time>2021-09-18T13:39:09.280Z</time>
      </trkpt>
      <trkpt lat="44.19551" lon="6.26223">
        <ele>1046.6</ele>
        <time>2021-09-18T13:39:16.230Z</time>
      </trkpt>
      <trkpt lat="44.19551" lon="6.26226">
        <ele>1047</ele>
        <time>2021-09-18T13:39:26.654Z</time>
      </trkpt>
      <trkpt lat="44.1955" lon="6.26229">
        <ele>1046.9</ele>
        <time>2021-09-18T13:39:27.306Z</time>
      </trkpt>
      <trkpt lat="44.1955" lon="6.2623">
        <ele>1047</ele>
        <time>2021-09-18T13:39:30.781Z</time>
      </trkpt>
      <trkpt lat="44.19549" lon="6.26233">
        <ele>1047</ele>
        <time>2021-09-18T13:39:33.761Z</time>
      </trkpt>
      <trkpt lat="44.19549" lon="6.26236">
        <ele>1047.4</ele>
        <time>2021-09-18T13:39:44.186Z</time>
      </trkpt>
      <trkpt lat="44.19548" lon="6.26238">
        <ele>1047.2</ele>
        <time>2021-09-18T13:39:44.613Z</time>
      </trkpt>
      <trkpt lat="44.19548" lon="6.26241">
        <ele>1047.5</ele>
        <time>2021-09-18T13:39:55.037Z</time>
      </trkpt>
      <trkpt lat="44.19548" lon="6.26244">
        <ele>1047.9</ele>
        <time>2021-09-18T13:40:05.461Z</time>
      </trkpt>
      <trkpt lat="44.19548" lon="6.26245">
        <ele>1048</ele>
        <time>2021-09-18T13:40:08.936Z</time>
      </trkpt>
      <trkpt lat="44.19547" lon="6.26248">
        <ele>1047.9</ele>
        <time>2021-09-18T13:40:09.588Z</time>
      </trkpt>
      <trkpt lat="44.19547" lon="6.26252">
        <ele>1048.5</ele>
        <time>2021-09-18T13:40:23.487Z</time>
      </trkpt>
      <trkpt lat="44.19546" lon="6.26254">
        <ele>1048.4</ele>
        <time>2021-09-18T13:40:23.909Z</time>
      </trkpt>
      <trkpt lat="44.19546" lon="6.26258">
        <ele>1049</ele>
        <time>2021-09-18T13:40:37.808Z</time>
      </trkpt>
      <trkpt lat="44.19545" lon="6.2626">
        <ele>1048.9</ele>
        <time>2021-09-18T13:40:38.230Z</time>
      </trkpt>
      <trkpt lat="44.19544" lon="6.26263">
        <ele>1048.9</ele>
        <time>2021-09-18T13:40:41.210Z</time>
      </trkpt>
      <trkpt lat="44.19542" lon="6.26265">
        <ele>1048.5</ele>
        <time>2021-09-18T13:40:41.812Z</time>
      </trkpt>
      <trkpt lat="44.19541" lon="6.26267">
        <ele>1048.4</ele>
        <time>2021-09-18T13:40:42.233Z</time>
      </trkpt>
      <trkpt lat="44.1954" lon="6.26269">
        <ele>1048.3</ele>
        <time>2021-09-18T13:40:42.655Z</time>
      </trkpt>
      <trkpt lat="44.1954" lon="6.26272">
        <ele>1048.8</ele>
        <time>2021-09-18T13:40:53.079Z</time>
      </trkpt>
      <trkpt lat="44.1954" lon="6.26273">
        <ele>1049</ele>
        <time>2021-09-18T13:40:56.554Z</time>
      </trkpt>
      <trkpt lat="44.19539" lon="6.26275">
        <ele>1048.9</ele>
        <time>2021-09-18T13:40:56.976Z</time>
      </trkpt>
      <trkpt lat="44.19538" lon="6.26278">
        <ele>1049</ele>
        <time>2021-09-18T13:41:01.831Z</time>
      </trkpt>
      <trkpt lat="44.19538" lon="6.26279">
        <ele>1049.1</ele>
        <time>2021-09-18T13:41:05.306Z</time>
      </trkpt>
      <trkpt lat="44.19537" lon="6.26282">
        <ele>1049.3</ele>
        <time>2021-09-18T13:41:12.029Z</time>
      </trkpt>
      <trkpt lat="44.19535" lon="6.26284">
        <ele>1048.8</ele>
        <time>2021-09-18T13:41:12.630Z</time>
      </trkpt>
      <trkpt lat="44.19535" lon="6.26285">
        <ele>1049</ele>
        <time>2021-09-18T13:41:16.105Z</time>
      </trkpt>
      <trkpt lat="44.19533" lon="6.26288">
        <ele>1048.8</ele>
        <time>2021-09-18T13:41:16.823Z</time>
      </trkpt>
      <trkpt lat="44.19532" lon="6.26289">
        <ele>1048.6</ele>
        <time>2021-09-18T13:41:17.124Z</time>
      </trkpt>
      <trkpt lat="44.19532" lon="6.26293">
        <ele>1049.2</ele>
        <time>2021-09-18T13:41:31.023Z</time>
      </trkpt>
      <trkpt lat="44.19531" lon="6.26296">
        <ele>1049.4</ele>
        <time>2021-09-18T13:41:37.746Z</time>
      </trkpt>
      <trkpt lat="44.1953" lon="6.26298">
        <ele>1049.4</ele>
        <time>2021-09-18T13:41:39.942Z</time>
      </trkpt>
      <trkpt lat="44.19528" lon="6.263">
        <ele>1049</ele>
        <time>2021-09-18T13:41:40.544Z</time>
      </trkpt>
      <trkpt lat="44.19527" lon="6.26302">
        <ele>1049</ele>
        <time>2021-09-18T13:41:42.740Z</time>
      </trkpt>
      <trkpt lat="44.19526" lon="6.26303">
        <ele>1048.8</ele>
        <time>2021-09-18T13:41:43.041Z</time>
      </trkpt>
      <trkpt lat="44.19525" lon="6.26305">
        <ele>1048.8</ele>
        <time>2021-09-18T13:41:45.238Z</time>
      </trkpt>
      <trkpt lat="44.19524" lon="6.26308">
        <ele>1049</ele>
        <time>2021-09-18T13:41:51.961Z</time>
      </trkpt>
      <trkpt lat="44.19523" lon="6.26312">
        <ele>1049.4</ele>
        <time>2021-09-18T13:42:06.321Z</time>
      </trkpt>
      <trkpt lat="44.19523" lon="6.26316">
        <ele>1050.1</ele>
        <time>2021-09-18T13:42:20.220Z</time>
      </trkpt>
      <trkpt lat="44.19521" lon="6.26318">
        <ele>1049.8</ele>
        <time>2021-09-18T13:42:20.821Z</time>
      </trkpt>
      <trkpt lat="44.1952" lon="6.2632">
        <ele>1049.8</ele>
        <time>2021-09-18T13:42:23.018Z</time>
      </trkpt>
      <trkpt lat="44.19518" lon="6.26321">
        <ele>1049.4</ele>
        <time>2021-09-18T13:42:23.537Z</time>
      </trkpt>
      <trkpt lat="44.19517" lon="6.26324">
        <ele>1049.6</ele>
        <time>2021-09-18T13:42:30.260Z</time>
      </trkpt>
      <trkpt lat="44.19515" lon="6.26325">
        <ele>1049.1</ele>
        <time>2021-09-18T13:42:30.779Z</time>
      </trkpt>
      <trkpt lat="44.19514" lon="6.26327">
        <ele>1049.2</ele>
        <time>2021-09-18T13:42:34.810Z</time>
      </trkpt>
      <trkpt lat="44.19513" lon="6.26328">
        <ele>1049</ele>
        <time>2021-09-18T13:42:35.111Z</time>
      </trkpt>
      <trkpt lat="44.19512" lon="6.2633">
        <ele>1049.1</ele>
        <time>2021-09-18T13:42:39.142Z</time>
      </trkpt>
      <trkpt lat="44.19511" lon="6.26332">
        <ele>1049.2</ele>
        <time>2021-09-18T13:42:43.173Z</time>
      </trkpt>
      <trkpt lat="44.19511" lon="6.26333">
        <ele>1049.4</ele>
        <time>2021-09-18T13:42:46.648Z</time>
      </trkpt>
      <trkpt lat="44.1951" lon="6.26335">
        <ele>1049.5</ele>
        <time>2021-09-18T13:42:50.679Z</time>
      </trkpt>
      <trkpt lat="44.19509" lon="6.26337">
        <ele>1049.8</ele>
        <time>2021-09-18T13:42:59.152Z</time>
      </trkpt>
      <trkpt lat="44.19508" lon="6.26339">
        <ele>1050</ele>
        <time>2021-09-18T13:43:05.797Z</time>
      </trkpt>
      <trkpt lat="44.19507" lon="6.26342">
        <ele>1050.5</ele>
        <time>2021-09-18T13:43:17.292Z</time>
      </trkpt>
      <trkpt lat="44.19506" lon="6.26344">
        <ele>1050.8</ele>
        <time>2021-09-18T13:43:25.765Z</time>
      </trkpt>
      <trkpt lat="44.19505" lon="6.26346">
        <ele>1051</ele>
        <time>2021-09-18T13:43:32.410Z</time>
      </trkpt>
      <trkpt lat="44.19506" lon="6.26348">
        <ele>1051.8</ele>
        <time>2021-09-18T13:43:40.883Z</time>
      </trkpt>
      <trkpt lat="44.19504" lon="6.26349">
        <ele>1051.6</ele>
        <time>2021-09-18T13:43:41.402Z</time>
      </trkpt>
      <trkpt lat="44.19504" lon="6.26352">
        <ele>1052.4</ele>
        <time>2021-09-18T13:43:51.826Z</time>
      </trkpt>
      <trkpt lat="44.19504" lon="6.26354">
        <ele>1052.9</ele>
        <time>2021-09-18T13:43:58.776Z</time>
      </trkpt>
      <trkpt lat="44.19502" lon="6.26347">
        <ele>1050.5</ele>
        <time>2021-09-18T13:44:00.096Z</time>
      </trkpt>
      <trkpt lat="44.195" lon="6.26351">
        <ele>1051.1</ele>
        <time>2021-09-18T13:44:17.041Z</time>
      </trkpt>
      <trkpt lat="44.19498" lon="6.26365">
        <ele>1054.6</ele>
        <time>2021-09-18T13:45:06.645Z</time>
      </trkpt>
      <trkpt lat="44.19497" lon="6.26371">
        <ele>1056.1</ele>
        <time>2021-09-18T13:45:28.049Z</time>
      </trkpt>
      <trkpt lat="44.19495" lon="6.26376">
        <ele>1057.1</ele>
        <time>2021-09-18T13:45:47.944Z</time>
      </trkpt>
      <trkpt lat="44.19491" lon="6.26379">
        <ele>1056.9</ele>
        <time>2021-09-18T13:45:49.171Z</time>
      </trkpt>
      <trkpt lat="44.19487" lon="6.26381">
        <ele>1056.6</ele>
        <time>2021-09-18T13:45:50.210Z</time>
      </trkpt>
      <trkpt lat="44.19485" lon="6.26386">
        <ele>1057.1</ele>
        <time>2021-09-18T13:46:07.241Z</time>
      </trkpt>
      <trkpt lat="44.19481" lon="6.26388">
        <ele>1056.9</ele>
        <time>2021-09-18T13:46:08.359Z</time>
      </trkpt>
      <trkpt lat="44.19477" lon="6.26392">
        <ele>1056.6</ele>
        <time>2021-09-18T13:46:09.511Z</time>
      </trkpt>
      <trkpt lat="44.19474" lon="6.26392">
        <ele>1055.8</ele>
        <time>2021-09-18T13:46:10.244Z</time>
      </trkpt>
      <trkpt lat="44.19469" lon="6.26395">
        <ele>1055.4</ele>
        <time>2021-09-18T13:46:11.574Z</time>
      </trkpt>
      <trkpt lat="44.19465" lon="6.26397">
        <ele>1055.1</ele>
        <time>2021-09-18T13:46:12.613Z</time>
      </trkpt>
      <trkpt lat="44.19462" lon="6.26399">
        <ele>1054.5</ele>
        <time>2021-09-18T13:46:13.425Z</time>
      </trkpt>
      <trkpt lat="44.19457" lon="6.26403">
        <ele>1054.4</ele>
        <time>2021-09-18T13:46:15.486Z</time>
      </trkpt>
      <trkpt lat="44.19453" lon="6.26406">
        <ele>1054.2</ele>
        <time>2021-09-18T13:46:16.714Z</time>
      </trkpt>
      <trkpt lat="44.19448" lon="6.26412">
        <ele>1054.2</ele>
        <time>2021-09-18T13:46:25.001Z</time>
      </trkpt>
      <trkpt lat="44.19444" lon="6.26418">
        <ele>1054.4</ele>
        <time>2021-09-18T13:46:35.727Z</time>
      </trkpt>
      <trkpt lat="44.19436" lon="6.26427">
        <ele>1052.5</ele>
        <time>2021-09-18T13:46:38.239Z</time>
      </trkpt>
      <trkpt lat="44.19432" lon="6.26432">
        <ele>1051.4</ele>
        <time>2021-09-18T13:46:39.552Z</time>
      </trkpt>
      <trkpt lat="44.19429" lon="6.26437">
        <ele>1050.5</ele>
        <time>2021-09-18T13:46:40.694Z</time>
      </trkpt>
      <trkpt lat="44.19425" lon="6.26445">
        <ele>1049.6</ele>
        <time>2021-09-18T13:46:42.403Z</time>
      </trkpt>
      <trkpt lat="44.19421" lon="6.2645">
        <ele>1048.9</ele>
        <time>2021-09-18T13:46:43.716Z</time>
      </trkpt>
      <trkpt lat="44.19419" lon="6.26454">
        <ele>1048.4</ele>
        <time>2021-09-18T13:46:44.571Z</time>
      </trkpt>
      <trkpt lat="44.19416" lon="6.2646">
        <ele>1047.9</ele>
        <time>2021-09-18T13:46:45.852Z</time>
      </trkpt>
      <trkpt lat="44.19414" lon="6.26466">
        <ele>1047.6</ele>
        <time>2021-09-18T13:46:46.943Z</time>
      </trkpt>
      <trkpt lat="44.19412" lon="6.26468">
        <ele>1047.3</ele>
        <time>2021-09-18T13:46:47.544Z</time>
      </trkpt>
      <trkpt lat="44.1941" lon="6.26476">
        <ele>1047</ele>
        <time>2021-09-18T13:46:49.110Z</time>
      </trkpt>
      <trkpt lat="44.19409" lon="6.26478">
        <ele>1046.8</ele>
        <time>2021-09-18T13:46:49.537Z</time>
      </trkpt>
      <trkpt lat="44.19408" lon="6.26486">
        <ele>1046.4</ele>
        <time>2021-09-18T13:46:50.960Z</time>
      </trkpt>
      <trkpt lat="44.19406" lon="6.26496">
        <ele>1046</ele>
        <time>2021-09-18T13:46:52.807Z</time>
      </trkpt>
      <trkpt lat="44.19404" lon="6.26508">
        <ele>1043.5</ele>
        <time>2021-09-18T13:46:54.966Z</time>
      </trkpt>
      <trkpt lat="44.19403" lon="6.26517">
        <ele>1040.8</ele>
        <time>2021-09-18T13:46:56.562Z</time>
      </trkpt>
      <trkpt lat="44.19403" lon="6.2652">
        <ele>1040.1</ele>
        <time>2021-09-18T13:46:57.088Z</time>
      </trkpt>
      <trkpt lat="44.19403" lon="6.26529">
        <ele>1038.2</ele>
        <time>2021-09-18T13:46:58.665Z</time>
      </trkpt>
      <trkpt lat="44.19404" lon="6.26536">
        <ele>1036.4</ele>
        <time>2021-09-18T13:46:59.916Z</time>
      </trkpt>
      <trkpt lat="44.19405" lon="6.26549">
        <ele>1033.7</ele>
        <time>2021-09-18T13:47:02.207Z</time>
      </trkpt>
      <trkpt lat="44.19404" lon="6.26559">
        <ele>1030.8</ele>
        <time>2021-09-18T13:47:03.976Z</time>
      </trkpt>
      <trkpt lat="44.19403" lon="6.26562">
        <ele>1030</ele>
        <time>2021-09-18T13:47:04.556Z</time>
      </trkpt>
      <trkpt lat="44.19403" lon="6.26572">
        <ele>1027.5</ele>
        <time>2021-09-18T13:47:06.308Z</time>
      </trkpt>
      <trkpt lat="44.194" lon="6.26583">
        <ele>1024.2</ele>
        <time>2021-09-18T13:47:08.370Z</time>
      </trkpt>
      <trkpt lat="44.19395" lon="6.26591">
        <ele>1021</ele>
        <time>2021-09-18T13:47:10.230Z</time>
      </trkpt>
      <trkpt lat="44.19393" lon="6.26596">
        <ele>1019.5</ele>
        <time>2021-09-18T13:47:11.233Z</time>
      </trkpt>
      <trkpt lat="44.19392" lon="6.26603">
        <ele>1017.8</ele>
        <time>2021-09-18T13:47:12.484Z</time>
      </trkpt>
      <trkpt lat="44.19392" lon="6.26606">
        <ele>1017.1</ele>
        <time>2021-09-18T13:47:13.010Z</time>
      </trkpt>
      <trkpt lat="44.19392" lon="6.26611">
        <ele>1015.8</ele>
        <time>2021-09-18T13:47:13.886Z</time>
      </trkpt>
      <trkpt lat="44.19392" lon="6.26619">
        <ele>1014</ele>
        <time>2021-09-18T13:47:15.288Z</time>
      </trkpt>
      <trkpt lat="44.19391" lon="6.26629">
        <ele>1011.6</ele>
        <time>2021-09-18T13:47:17.057Z</time>
      </trkpt>
      <trkpt lat="44.19391" lon="6.26639">
        <ele>1009.5</ele>
        <time>2021-09-18T13:47:18.809Z</time>
      </trkpt>
      <trkpt lat="44.19393" lon="6.26653">
        <ele>1006.8</ele>
        <time>2021-09-18T13:47:21.311Z</time>
      </trkpt>
      <trkpt lat="44.19392" lon="6.26661">
        <ele>1004.7</ele>
        <time>2021-09-18T13:47:22.734Z</time>
      </trkpt>
      <trkpt lat="44.1939" lon="6.26667">
        <ele>1003.1</ele>
        <time>2021-09-18T13:47:23.893Z</time>
      </trkpt>
      <trkpt lat="44.1939" lon="6.26669">
        <ele>1002.5</ele>
        <time>2021-09-18T13:47:24.243Z</time>
      </trkpt>
      <trkpt lat="44.19389" lon="6.26677">
        <ele>1000.8</ele>
        <time>2021-09-18T13:47:25.666Z</time>
      </trkpt>
      <trkpt lat="44.19389" lon="6.2668">
        <ele>1000.2</ele>
        <time>2021-09-18T13:47:26.192Z</time>
      </trkpt>
      <trkpt lat="44.19389" lon="6.26686">
        <ele>998.9</ele>
        <time>2021-09-18T13:47:27.244Z</time>
      </trkpt>
      <trkpt lat="44.1939" lon="6.26697">
        <ele>996.6</ele>
        <time>2021-09-18T13:47:29.187Z</time>
      </trkpt>
      <trkpt lat="44.19391" lon="6.267">
        <ele>996.1</ele>
        <time>2021-09-18T13:47:29.766Z</time>
      </trkpt>
      <trkpt lat="44.19393" lon="6.26703">
        <ele>995.6</ele>
        <time>2021-09-18T13:47:30.484Z</time>
      </trkpt>
      <trkpt lat="44.19393" lon="6.26708">
        <ele>994.6</ele>
        <time>2021-09-18T13:47:31.360Z</time>
      </trkpt>
      <trkpt lat="44.19393" lon="6.26711">
        <ele>994</ele>
        <time>2021-09-18T13:47:31.886Z</time>
      </trkpt>
      <trkpt lat="44.19392" lon="6.26716">
        <ele>992.8</ele>
        <time>2021-09-18T13:47:32.796Z</time>
      </trkpt>
      <trkpt lat="44.19391" lon="6.26722">
        <ele>991.3</ele>
        <time>2021-09-18T13:47:33.875Z</time>
      </trkpt>
      <trkpt lat="44.19389" lon="6.26724">
        <ele>990.7</ele>
        <time>2021-09-18T13:47:34.476Z</time>
      </trkpt>
      <trkpt lat="44.19388" lon="6.26727">
        <ele>990</ele>
        <time>2021-09-18T13:47:35.056Z</time>
      </trkpt>
      <trkpt lat="44.1939" lon="6.26734">
        <ele>988.6</ele>
        <time>2021-09-18T13:47:36.377Z</time>
      </trkpt>
      <trkpt lat="44.19392" lon="6.26736">
        <ele>988.3</ele>
        <time>2021-09-18T13:47:36.978Z</time>
      </trkpt>
      <trkpt lat="44.19396" lon="6.26741">
        <ele>987.5</ele>
        <time>2021-09-18T13:47:38.291Z</time>
      </trkpt>
      <trkpt lat="44.19397" lon="6.26744">
        <ele>986.9</ele>
        <time>2021-09-18T13:47:38.870Z</time>
      </trkpt>
      <trkpt lat="44.19396" lon="6.26744">
        <ele>986.7</ele>
        <time>2021-09-18T13:47:39.115Z</time>
      </trkpt>
      <trkpt lat="44.19392" lon="6.26746">
        <ele>986.2</ele>
        <time>2021-09-18T13:47:40.153Z</time>
      </trkpt>
      <trkpt lat="44.19391" lon="6.26747">
        <ele>985.8</ele>
        <time>2021-09-18T13:47:40.454Z</time>
      </trkpt>
      <trkpt lat="44.19391" lon="6.26754">
        <ele>983.9</ele>
        <time>2021-09-18T13:47:41.681Z</time>
      </trkpt>
      <trkpt lat="44.19392" lon="6.26759">
        <ele>982.4</ele>
        <time>2021-09-18T13:47:42.590Z</time>
      </trkpt>
      <trkpt lat="44.19392" lon="6.26762">
        <ele>981.5</ele>
        <time>2021-09-18T13:47:43.116Z</time>
      </trkpt>
      <trkpt lat="44.19391" lon="6.26764">
        <ele>980.8</ele>
        <time>2021-09-18T13:47:43.543Z</time>
      </trkpt>
      <trkpt lat="44.19389" lon="6.26765">
        <ele>980.5</ele>
        <time>2021-09-18T13:47:44.063Z</time>
      </trkpt>
      <trkpt lat="44.19387" lon="6.26765">
        <ele>980.3</ele>
        <time>2021-09-18T13:47:44.551Z</time>
      </trkpt>
      <trkpt lat="44.19384" lon="6.26765">
        <ele>979.9</ele>
        <time>2021-09-18T13:47:45.285Z</time>
      </trkpt>
      <trkpt lat="44.19382" lon="6.26765">
        <ele>979.8</ele>
        <time>2021-09-18T13:47:45.797Z</time>
      </trkpt>
      <trkpt lat="44.19382" lon="6.26768">
        <ele>979</ele>
        <time>2021-09-18T13:47:46.323Z</time>
      </trkpt>
      <trkpt lat="44.19384" lon="6.26771">
        <ele>978.1</ele>
        <time>2021-09-18T13:47:47.041Z</time>
      </trkpt>
      <trkpt lat="44.19384" lon="6.26773">
        <ele>977.5</ele>
        <time>2021-09-18T13:47:47.391Z</time>
      </trkpt>
      <trkpt lat="44.19381" lon="6.26773">
        <ele>977.3</ele>
        <time>2021-09-18T13:47:48.063Z</time>
      </trkpt>
      <trkpt lat="44.19378" lon="6.26773">
        <ele>977.3</ele>
        <time>2021-09-18T13:47:51.832Z</time>
      </trkpt>
      <trkpt lat="44.19375" lon="6.26771">
        <ele>977.6</ele>
        <time>2021-09-18T13:48:01.752Z</time>
      </trkpt>
      <trkpt lat="44.19371" lon="6.26769">
        <ele>977.9</ele>
        <time>2021-09-18T13:48:12.545Z</time>
      </trkpt>
      <trkpt lat="44.1937" lon="6.26769">
        <ele>977.8</ele>
        <time>2021-09-18T13:48:12.789Z</time>
      </trkpt>
      <trkpt lat="44.1937" lon="6.26774">
        <ele>976.5</ele>
        <time>2021-09-18T13:48:13.665Z</time>
      </trkpt>
      <trkpt lat="44.19373" lon="6.2678">
        <ele>974.7</ele>
        <time>2021-09-18T13:48:14.947Z</time>
      </trkpt>
      <trkpt lat="44.19376" lon="6.26788">
        <ele>972.4</ele>
        <time>2021-09-18T13:48:16.529Z</time>
      </trkpt>
      <trkpt lat="44.19378" lon="6.26793">
        <ele>971.1</ele>
        <time>2021-09-18T13:48:17.532Z</time>
      </trkpt>
      <trkpt lat="44.19381" lon="6.26801">
        <ele>968.7</ele>
        <time>2021-09-18T13:48:19.114Z</time>
      </trkpt>
      <trkpt lat="44.19384" lon="6.26806">
        <ele>967.3</ele>
        <time>2021-09-18T13:48:20.257Z</time>
      </trkpt>
      <trkpt lat="44.19386" lon="6.2681">
        <ele>966.1</ele>
        <time>2021-09-18T13:48:21.111Z</time>
      </trkpt>
      <trkpt lat="44.19389" lon="6.26817">
        <ele>964.1</ele>
        <time>2021-09-18T13:48:22.540Z</time>
      </trkpt>
      <trkpt lat="44.19385" lon="6.26816">
        <ele>964.3</ele>
        <time>2021-09-18T13:48:31.423Z</time>
      </trkpt>
      <trkpt lat="44.19382" lon="6.26813">
        <ele>965.1</ele>
        <time>2021-09-18T13:48:49.313Z</time>
      </trkpt>
      <trkpt lat="44.19379" lon="6.26813">
        <ele>964.9</ele>
        <time>2021-09-18T13:48:49.985Z</time>
      </trkpt>
      <trkpt lat="44.19378" lon="6.26814">
        <ele>964.6</ele>
        <time>2021-09-18T13:48:50.286Z</time>
      </trkpt>
      <trkpt lat="44.19378" lon="6.26816">
        <ele>963.8</ele>
        <time>2021-09-18T13:48:50.636Z</time>
      </trkpt>
      <trkpt lat="44.1938" lon="6.26822">
        <ele>962.1</ele>
        <time>2021-09-18T13:48:51.796Z</time>
      </trkpt>
      <trkpt lat="44.1938" lon="6.26825">
        <ele>961.4</ele>
        <time>2021-09-18T13:48:52.321Z</time>
      </trkpt>
      <trkpt lat="44.19383" lon="6.26831">
        <ele>959.5</ele>
        <time>2021-09-18T13:48:53.603Z</time>
      </trkpt>
      <trkpt lat="44.19385" lon="6.26836">
        <ele>957.7</ele>
        <time>2021-09-18T13:48:54.606Z</time>
      </trkpt>
      <trkpt lat="44.19388" lon="6.26842">
        <ele>955.5</ele>
        <time>2021-09-18T13:48:55.888Z</time>
      </trkpt>
      <trkpt lat="44.19389" lon="6.26846">
        <ele>953.9</ele>
        <time>2021-09-18T13:48:56.630Z</time>
      </trkpt>
      <trkpt lat="44.19389" lon="6.26851">
        <ele>952</ele>
        <time>2021-09-18T13:48:57.507Z</time>
      </trkpt>
      <trkpt lat="44.19388" lon="6.26856">
        <ele>950.2</ele>
        <time>2021-09-18T13:48:58.416Z</time>
      </trkpt>
      <trkpt lat="44.19389" lon="6.26862">
        <ele>948.1</ele>
        <time>2021-09-18T13:48:59.496Z</time>
      </trkpt>
      <trkpt lat="44.19387" lon="6.26867">
        <ele>945.9</ele>
        <time>2021-09-18T13:49:00.499Z</time>
      </trkpt>
      <trkpt lat="44.19386" lon="6.26869">
        <ele>945.3</ele>
        <time>2021-09-18T13:49:00.926Z</time>
      </trkpt>
      <trkpt lat="44.19383" lon="6.2687">
        <ele>944.9</ele>
        <time>2021-09-18T13:49:01.680Z</time>
      </trkpt>
      <trkpt lat="44.19379" lon="6.26866">
        <ele>946.3</ele>
        <time>2021-09-18T13:49:25.534Z</time>
      </trkpt>
      <trkpt lat="44.19376" lon="6.26863">
        <ele>947.6</ele>
        <time>2021-09-18T13:49:43.424Z</time>
      </trkpt>
      <trkpt lat="44.19374" lon="6.26861">
        <ele>948.4</ele>
        <time>2021-09-18T13:49:55.351Z</time>
      </trkpt>
      <trkpt lat="44.19372" lon="6.26858">
        <ele>949.3</ele>
        <time>2021-09-18T13:50:09.586Z</time>
      </trkpt>
      <trkpt lat="44.19368" lon="6.26854">
        <ele>950.9</ele>
        <time>2021-09-18T13:50:33.440Z</time>
      </trkpt>
      <trkpt lat="44.19366" lon="6.26852">
        <ele>951.6</ele>
        <time>2021-09-18T13:50:45.367Z</time>
      </trkpt>
      <trkpt lat="44.19364" lon="6.26846">
        <ele>953.7</ele>
        <time>2021-09-18T13:51:08.359Z</time>
      </trkpt>
      <trkpt lat="44.19362" lon="6.26843">
        <ele>954.6</ele>
        <time>2021-09-18T13:51:22.593Z</time>
      </trkpt>
      <trkpt lat="44.19358" lon="6.26841">
        <ele>955.2</ele>
        <time>2021-09-18T13:51:43.187Z</time>
      </trkpt>
      <trkpt lat="44.19357" lon="6.2684">
        <ele>955.4</ele>
        <time>2021-09-18T13:51:49.151Z</time>
      </trkpt>
      <trkpt lat="44.19357" lon="6.26843">
        <ele>954.6</ele>
        <time>2021-09-18T13:51:49.677Z</time>
      </trkpt>
      <trkpt lat="44.19359" lon="6.26851">
        <ele>952</ele>
        <time>2021-09-18T13:51:51.161Z</time>
      </trkpt>
      <trkpt lat="44.1936" lon="6.26857">
        <ele>950</ele>
        <time>2021-09-18T13:51:52.241Z</time>
      </trkpt>
      <trkpt lat="44.19363" lon="6.26864">
        <ele>947.5</ele>
        <time>2021-09-18T13:51:53.670Z</time>
      </trkpt>
      <trkpt lat="44.19363" lon="6.26867">
        <ele>946.4</ele>
        <time>2021-09-18T13:51:54.195Z</time>
      </trkpt>
      <trkpt lat="44.19365" lon="6.26872">
        <ele>944.6</ele>
        <time>2021-09-18T13:51:55.199Z</time>
      </trkpt>
      <trkpt lat="44.19367" lon="6.2688">
        <ele>941.7</ele>
        <time>2021-09-18T13:51:56.683Z</time>
      </trkpt>
      <trkpt lat="44.19368" lon="6.26882">
        <ele>940.9</ele>
        <time>2021-09-18T13:51:57.111Z</time>
      </trkpt>
      <trkpt lat="44.1937" lon="6.26888">
        <ele>938.8</ele>
        <time>2021-09-18T13:51:58.270Z</time>
      </trkpt>
      <trkpt lat="44.19372" lon="6.26894">
        <ele>936.6</ele>
        <time>2021-09-18T13:51:59.429Z</time>
      </trkpt>
      <trkpt lat="44.19373" lon="6.26897">
        <ele>935.5</ele>
        <time>2021-09-18T13:52:00.009Z</time>
      </trkpt>
      <trkpt lat="44.19374" lon="6.26899">
        <ele>934.7</ele>
        <time>2021-09-18T13:52:00.436Z</time>
      </trkpt>
      <trkpt lat="44.19372" lon="6.269">
        <ele>934.3</ele>
        <time>2021-09-18T13:52:00.956Z</time>
      </trkpt>
      <trkpt lat="44.19369" lon="6.26898">
        <ele>935.2</ele>
        <time>2021-09-18T13:52:17.071Z</time>
      </trkpt>
      <trkpt lat="44.19365" lon="6.26895">
        <ele>936.5</ele>
        <time>2021-09-18T13:52:39.082Z</time>
      </trkpt>
      <trkpt lat="44.19362" lon="6.26892">
        <ele>937.8</ele>
        <time>2021-09-18T13:52:56.972Z</time>
      </trkpt>
      <trkpt lat="44.1936" lon="6.26888">
        <ele>939.4</ele>
        <time>2021-09-18T13:53:13.918Z</time>
      </trkpt>
      <trkpt lat="44.19358" lon="6.26882">
        <ele>941.3</ele>
        <time>2021-09-18T13:53:36.910Z</time>
      </trkpt>
      <trkpt lat="44.19357" lon="6.2688">
        <ele>942</ele>
        <time>2021-09-18T13:53:45.382Z</time>
      </trkpt>
      <trkpt lat="44.19347" lon="6.26864">
        <ele>947.5</ele>
        <time>2021-09-18T13:54:59.139Z</time>
      </trkpt>
      <trkpt lat="44.19345" lon="6.2686">
        <ele>948.9</ele>
        <time>2021-09-18T13:55:16.084Z</time>
      </trkpt>
      <trkpt lat="44.19342" lon="6.26857">
        <ele>949.9</ele>
        <time>2021-09-18T13:55:33.974Z</time>
      </trkpt>
      <trkpt lat="44.19341" lon="6.26868">
        <ele>946.5</ele>
        <time>2021-09-18T13:55:35.917Z</time>
      </trkpt>
      <trkpt lat="44.19343" lon="6.26877">
        <ele>943.5</ele>
        <time>2021-09-18T13:55:37.569Z</time>
      </trkpt>
      <trkpt lat="44.19344" lon="6.2688">
        <ele>942.5</ele>
        <time>2021-09-18T13:55:38.148Z</time>
      </trkpt>
      <trkpt lat="44.19345" lon="6.26892">
        <ele>938.8</ele>
        <time>2021-09-18T13:55:40.265Z</time>
      </trkpt>
      <trkpt lat="44.19347" lon="6.26897">
        <ele>937.1</ele>
        <time>2021-09-18T13:55:41.269Z</time>
      </trkpt>
      <trkpt lat="44.1935" lon="6.26909">
        <ele>933</ele>
        <time>2021-09-18T13:55:43.495Z</time>
      </trkpt>
      <trkpt lat="44.19351" lon="6.26917">
        <ele>930.3</ele>
        <time>2021-09-18T13:55:44.918Z</time>
      </trkpt>
      <trkpt lat="44.19352" lon="6.26919">
        <ele>929.5</ele>
        <time>2021-09-18T13:55:45.346Z</time>
      </trkpt>
      <trkpt lat="44.19355" lon="6.26928">
        <ele>926.6</ele>
        <time>2021-09-18T13:55:47.085Z</time>
      </trkpt>
      <trkpt lat="44.19357" lon="6.26935">
        <ele>924.4</ele>
        <time>2021-09-18T13:55:48.405Z</time>
      </trkpt>
      <trkpt lat="44.1936" lon="6.26946">
        <ele>920.9</ele>
        <time>2021-09-18T13:55:50.468Z</time>
      </trkpt>
      <trkpt lat="44.19362" lon="6.26953">
        <ele>918.9</ele>
        <time>2021-09-18T13:55:51.788Z</time>
      </trkpt>
      <trkpt lat="44.19364" lon="6.26959">
        <ele>917</ele>
        <time>2021-09-18T13:55:52.947Z</time>
      </trkpt>
      <trkpt lat="44.19366" lon="6.26965">
        <ele>915.4</ele>
        <time>2021-09-18T13:55:54.107Z</time>
      </trkpt>
      <trkpt lat="44.19369" lon="6.26974">
        <ele>912.8</ele>
        <time>2021-09-18T13:55:55.846Z</time>
      </trkpt>
      <trkpt lat="44.19371" lon="6.26982">
        <ele>910.7</ele>
        <time>2021-09-18T13:55:57.331Z</time>
      </trkpt>
      <trkpt lat="44.19373" lon="6.26987">
        <ele>909.5</ele>
        <time>2021-09-18T13:55:58.334Z</time>
      </trkpt>
      <trkpt lat="44.19372" lon="6.2699">
        <ele>908.5</ele>
        <time>2021-09-18T13:55:58.914Z</time>
      </trkpt>
      <trkpt lat="44.19369" lon="6.26989">
        <ele>908.8</ele>
        <time>2021-09-18T13:56:08.730Z</time>
      </trkpt>
      <trkpt lat="44.19367" lon="6.26987">
        <ele>909.2</ele>
        <time>2021-09-18T13:56:20.657Z</time>
      </trkpt>
      <trkpt lat="44.19364" lon="6.26979">
        <ele>911.4</ele>
        <time>2021-09-18T13:56:52.029Z</time>
      </trkpt>
      <trkpt lat="44.19361" lon="6.26972">
        <ele>913.4</ele>
        <time>2021-09-18T13:57:20.367Z</time>
      </trkpt>
      <trkpt lat="44.19357" lon="6.26965">
        <ele>915.5</ele>
        <time>2021-09-18T13:57:51.471Z</time>
      </trkpt>
      <trkpt lat="44.19353" lon="6.26961">
        <ele>916.8</ele>
        <time>2021-09-18T13:58:15.325Z</time>
      </trkpt>
      <trkpt lat="44.1935" lon="6.2696">
        <ele>917.1</ele>
        <time>2021-09-18T13:58:25.142Z</time>
      </trkpt>
      <trkpt lat="44.19347" lon="6.26955">
        <ele>918.7</ele>
        <time>2021-09-18T13:58:47.797Z</time>
      </trkpt>
      <trkpt lat="44.19342" lon="6.26951">
        <ele>920.3</ele>
        <time>2021-09-18T13:59:15.733Z</time>
      </trkpt>
      <trkpt lat="44.19338" lon="6.26948">
        <ele>921.3</ele>
        <time>2021-09-18T13:59:37.744Z</time>
      </trkpt>
      <trkpt lat="44.19335" lon="6.26944">
        <ele>922.6</ele>
        <time>2021-09-18T13:59:57.858Z</time>
      </trkpt>
      <trkpt lat="44.19333" lon="6.26943">
        <ele>923</ele>
        <time>2021-09-18T14:00:08.155Z</time>
      </trkpt>
      <trkpt lat="44.1933" lon="6.26938">
        <ele>922.9</ele>
        <time>2021-09-18T14:00:09.749Z</time>
      </trkpt>
      <trkpt lat="44.19327" lon="6.26936">
        <ele>921.9</ele>
        <time>2021-09-18T14:00:10.561Z</time>
      </trkpt>
      <trkpt lat="44.19326" lon="6.26935">
        <ele>921.5</ele>
        <time>2021-09-18T14:00:10.862Z</time>
      </trkpt>
      <trkpt lat="44.19326" lon="6.26938">
        <ele>920.6</ele>
        <time>2021-09-18T14:00:11.388Z</time>
      </trkpt>
      <trkpt lat="44.19329" lon="6.26944">
        <ele>919.9</ele>
        <time>2021-09-18T14:00:12.669Z</time>
      </trkpt>
      <trkpt lat="44.19329" lon="6.26947">
        <ele>919.5</ele>
        <time>2021-09-18T14:00:13.195Z</time>
      </trkpt>
      <trkpt lat="44.19331" lon="6.26954">
        <ele>918.2</ele>
        <time>2021-09-18T14:00:14.516Z</time>
      </trkpt>
      <trkpt lat="44.19332" lon="6.26957">
        <ele>917.5</ele>
        <time>2021-09-18T14:00:15.095Z</time>
      </trkpt>
      <trkpt lat="44.19333" lon="6.26964">
        <ele>915.8</ele>
        <time>2021-09-18T14:00:16.346Z</time>
      </trkpt>
      <trkpt lat="44.19333" lon="6.26967">
        <ele>914.9</ele>
        <time>2021-09-18T14:00:16.872Z</time>
      </trkpt>
      <trkpt lat="44.19336" lon="6.26974">
        <ele>912.6</ele>
        <time>2021-09-18T14:00:18.301Z</time>
      </trkpt>
      <trkpt lat="44.19339" lon="6.26978">
        <ele>911.4</ele>
        <time>2021-09-18T14:00:19.315Z</time>
      </trkpt>
      <trkpt lat="44.19339" lon="6.26981">
        <ele>910.4</ele>
        <time>2021-09-18T14:00:19.841Z</time>
      </trkpt>
      <trkpt lat="44.1934" lon="6.26984">
        <ele>909.5</ele>
        <time>2021-09-18T14:00:20.421Z</time>
      </trkpt>
      <trkpt lat="44.19342" lon="6.26993">
        <ele>906.8</ele>
        <time>2021-09-18T14:00:22.072Z</time>
      </trkpt>
      <trkpt lat="44.19343" lon="6.26996">
        <ele>905.8</ele>
        <time>2021-09-18T14:00:22.651Z</time>
      </trkpt>
      <trkpt lat="44.19346" lon="6.27004">
        <ele>903.4</ele>
        <time>2021-09-18T14:00:24.233Z</time>
      </trkpt>
      <trkpt lat="44.19348" lon="6.27014">
        <ele>901</ele>
        <time>2021-09-18T14:00:26.053Z</time>
      </trkpt>
      <trkpt lat="44.19349" lon="6.27017">
        <ele>900.4</ele>
        <time>2021-09-18T14:00:26.632Z</time>
      </trkpt>
      <trkpt lat="44.19351" lon="6.27024">
        <ele>898.7</ele>
        <time>2021-09-18T14:00:27.953Z</time>
      </trkpt>
      <trkpt lat="44.19352" lon="6.27026">
        <ele>898.2</ele>
        <time>2021-09-18T14:00:28.380Z</time>
      </trkpt>
      <trkpt lat="44.19353" lon="6.27032">
        <ele>896.6</ele>
        <time>2021-09-18T14:00:29.459Z</time>
      </trkpt>
      <trkpt lat="44.19354" lon="6.27041">
        <ele>894.7</ele>
        <time>2021-09-18T14:00:31.055Z</time>
      </trkpt>
      <trkpt lat="44.19356" lon="6.27045">
        <ele>893.7</ele>
        <time>2021-09-18T14:00:31.910Z</time>
      </trkpt>
      <trkpt lat="44.1936" lon="6.2706">
        <ele>890.4</ele>
        <time>2021-09-18T14:00:34.714Z</time>
      </trkpt>
      <trkpt lat="44.19364" lon="6.27072">
        <ele>887.8</ele>
        <time>2021-09-18T14:00:37.033Z</time>
      </trkpt>
      <trkpt lat="44.19367" lon="6.27082">
        <ele>885.8</ele>
        <time>2021-09-18T14:00:38.933Z</time>
      </trkpt>
      <trkpt lat="44.1937" lon="6.2709">
        <ele>884.1</ele>
        <time>2021-09-18T14:00:40.515Z</time>
      </trkpt>
      <trkpt lat="44.19373" lon="6.27094">
        <ele>883.2</ele>
        <time>2021-09-18T14:00:41.529Z</time>
      </trkpt>
      <trkpt lat="44.19378" lon="6.27101">
        <ele>882.1</ele>
        <time>2021-09-18T14:00:43.261Z</time>
      </trkpt>
      <trkpt lat="44.19381" lon="6.27106">
        <ele>881.4</ele>
        <time>2021-09-18T14:00:44.403Z</time>
      </trkpt>
      <trkpt lat="44.19384" lon="6.27111">
        <ele>880.2</ele>
        <time>2021-09-18T14:00:45.545Z</time>
      </trkpt>
      <trkpt lat="44.19385" lon="6.27115">
        <ele>879.3</ele>
        <time>2021-09-18T14:00:46.288Z</time>
      </trkpt>
      <trkpt lat="44.19384" lon="6.2712">
        <ele>878</ele>
        <time>2021-09-18T14:00:47.197Z</time>
      </trkpt>
      <trkpt lat="44.19381" lon="6.27121">
        <ele>877.1</ele>
        <time>2021-09-18T14:00:47.951Z</time>
      </trkpt>
      <trkpt lat="44.19375" lon="6.27117">
        <ele>877.4</ele>
        <time>2021-09-18T14:01:02.109Z</time>
      </trkpt>
      <trkpt lat="44.19367" lon="6.27115">
        <ele>876.8</ele>
        <time>2021-09-18T14:01:04.095Z</time>
      </trkpt>
      <trkpt lat="44.1936" lon="6.27109">
        <ele>877.3</ele>
        <time>2021-09-18T14:01:23.529Z</time>
      </trkpt>
      <trkpt lat="44.19358" lon="6.27109">
        <ele>877.2</ele>
        <time>2021-09-18T14:01:24.041Z</time>
      </trkpt>
      <trkpt lat="44.19354" lon="6.27104">
        <ele>877.8</ele>
        <time>2021-09-18T14:01:43.851Z</time>
      </trkpt>
      <trkpt lat="44.19348" lon="6.27099">
        <ele>878.6</ele>
        <time>2021-09-18T14:02:10.435Z</time>
      </trkpt>
      <trkpt lat="44.19342" lon="6.27096">
        <ele>878.5</ele>
        <time>2021-09-18T14:02:12.760Z</time>
      </trkpt>
      <trkpt lat="44.19342" lon="6.271">
        <ele>877.5</ele>
        <time>2021-09-18T14:02:13.461Z</time>
      </trkpt>
      <trkpt lat="44.19343" lon="6.27102">
        <ele>876.9</ele>
        <time>2021-09-18T14:02:13.889Z</time>
      </trkpt>
      <trkpt lat="44.19346" lon="6.27115">
        <ele>873.7</ele>
        <time>2021-09-18T14:02:16.282Z</time>
      </trkpt>
      <trkpt lat="44.19352" lon="6.27135">
        <ele>869.1</ele>
        <time>2021-09-18T14:02:20.081Z</time>
      </trkpt>
      <trkpt lat="44.19357" lon="6.27144">
        <ele>867.3</ele>
        <time>2021-09-18T14:02:22.076Z</time>
      </trkpt>
      <trkpt lat="44.1936" lon="6.27152">
        <ele>865.4</ele>
        <time>2021-09-18T14:02:23.658Z</time>
      </trkpt>
      <trkpt lat="44.19363" lon="6.27163">
        <ele>863.1</ele>
        <time>2021-09-18T14:02:25.720Z</time>
      </trkpt>
      <trkpt lat="44.19366" lon="6.27174">
        <ele>860.7</ele>
        <time>2021-09-18T14:02:27.782Z</time>
      </trkpt>
      <trkpt lat="44.19368" lon="6.27183">
        <ele>858.8</ele>
        <time>2021-09-18T14:02:29.434Z</time>
      </trkpt>
      <trkpt lat="44.19371" lon="6.27193">
        <ele>857.2</ele>
        <time>2021-09-18T14:02:31.333Z</time>
      </trkpt>
      <trkpt lat="44.19375" lon="6.27199">
        <ele>856.3</ele>
        <time>2021-09-18T14:02:32.769Z</time>
      </trkpt>
      <trkpt lat="44.19379" lon="6.27202">
        <ele>856.1</ele>
        <time>2021-09-18T14:02:33.996Z</time>
      </trkpt>
      <trkpt lat="44.19386" lon="6.27204">
        <ele>856.6</ele>
        <time>2021-09-18T14:02:52.059Z</time>
      </trkpt>
      <trkpt lat="44.19392" lon="6.27204">
        <ele>857.4</ele>
        <time>2021-09-18T14:03:21.095Z</time>
      </trkpt>
      <trkpt lat="44.19399" lon="6.27205">
        <ele>858.4</ele>
        <time>2021-09-18T14:03:55.198Z</time>
      </trkpt>
      <trkpt lat="44.19403" lon="6.27206">
        <ele>858.7</ele>
        <time>2021-09-18T14:04:05.778Z</time>
      </trkpt>
      <trkpt lat="44.19402" lon="6.27209">
        <ele>857.7</ele>
        <time>2021-09-18T14:04:06.358Z</time>
      </trkpt>
      <trkpt lat="44.19398" lon="6.27221">
        <ele>854</ele>
        <time>2021-09-18T14:04:08.677Z</time>
      </trkpt>
      <trkpt lat="44.19397" lon="6.27228">
        <ele>852.3</ele>
        <time>2021-09-18T14:04:09.927Z</time>
      </trkpt>
      <trkpt lat="44.19396" lon="6.2723">
        <ele>851.5</ele>
        <time>2021-09-18T14:04:10.355Z</time>
      </trkpt>
      <trkpt lat="44.19394" lon="6.27238">
        <ele>849.5</ele>
        <time>2021-09-18T14:04:11.839Z</time>
      </trkpt>
      <trkpt lat="44.19392" lon="6.27244">
        <ele>847.5</ele>
        <time>2021-09-18T14:04:12.999Z</time>
      </trkpt>
      <trkpt lat="44.19391" lon="6.27247">
        <ele>846.8</ele>
        <time>2021-09-18T14:04:13.578Z</time>
      </trkpt>
      <trkpt lat="44.1939" lon="6.2725">
        <ele>845.8</ele>
        <time>2021-09-18T14:04:14.158Z</time>
      </trkpt>
      <trkpt lat="44.19387" lon="6.27256">
        <ele>844.2</ele>
        <time>2021-09-18T14:04:15.440Z</time>
      </trkpt>
      <trkpt lat="44.19385" lon="6.2726">
        <ele>843.2</ele>
        <time>2021-09-18T14:04:16.294Z</time>
      </trkpt>
      <trkpt lat="44.19382" lon="6.27266">
        <ele>841.5</ele>
        <time>2021-09-18T14:04:17.576Z</time>
      </trkpt>
      <trkpt lat="44.19378" lon="6.27267">
        <ele>841</ele>
        <time>2021-09-18T14:04:18.569Z</time>
      </trkpt>
      <trkpt lat="44.19376" lon="6.27267">
        <ele>840.8</ele>
        <time>2021-09-18T14:04:19.058Z</time>
      </trkpt>
      <trkpt lat="44.19374" lon="6.27266">
        <ele>840.7</ele>
        <time>2021-09-18T14:04:19.617Z</time>
      </trkpt>
      <trkpt lat="44.1937" lon="6.27264">
        <ele>840.7</ele>
        <time>2021-09-18T14:04:24.956Z</time>
      </trkpt>
      <trkpt lat="44.19366" lon="6.27262">
        <ele>840.6</ele>
        <time>2021-09-18T14:04:26.370Z</time>
      </trkpt>
      <trkpt lat="44.19364" lon="6.27264">
        <ele>840</ele>
        <time>2021-09-18T14:04:26.971Z</time>
      </trkpt>
      <trkpt lat="44.19364" lon="6.27267">
        <ele>839.4</ele>
        <time>2021-09-18T14:04:27.497Z</time>
      </trkpt>
      <trkpt lat="44.19366" lon="6.27275">
        <ele>838</ele>
        <time>2021-09-18T14:04:28.981Z</time>
      </trkpt>
      <trkpt lat="44.19366" lon="6.27278">
        <ele>837.6</ele>
        <time>2021-09-18T14:04:29.507Z</time>
      </trkpt>
      <trkpt lat="44.19368" lon="6.27284">
        <ele>836.5</ele>
        <time>2021-09-18T14:04:30.666Z</time>
      </trkpt>
      <trkpt lat="44.19371" lon="6.27292">
        <ele>835.3</ele>
        <time>2021-09-18T14:04:32.249Z</time>
      </trkpt>
      <trkpt lat="44.19373" lon="6.27304">
        <ele>833.2</ele>
        <time>2021-09-18T14:04:34.407Z</time>
      </trkpt>
      <trkpt lat="44.19371" lon="6.27312">
        <ele>831.5</ele>
        <time>2021-09-18T14:04:35.892Z</time>
      </trkpt>
      <trkpt lat="44.1937" lon="6.27313">
        <ele>831</ele>
        <time>2021-09-18T14:04:36.193Z</time>
      </trkpt>
      <trkpt lat="44.19368" lon="6.27316">
        <ele>830.4</ele>
        <time>2021-09-18T14:04:36.911Z</time>
      </trkpt>
      <trkpt lat="44.19366" lon="6.27317">
        <ele>830.1</ele>
        <time>2021-09-18T14:04:37.430Z</time>
      </trkpt>
      <trkpt lat="44.19365" lon="6.27321">
        <ele>829.2</ele>
        <time>2021-09-18T14:04:38.172Z</time>
      </trkpt>
      <trkpt lat="44.19364" lon="6.27327">
        <ele>828.1</ele>
        <time>2021-09-18T14:04:39.252Z</time>
      </trkpt>
      <trkpt lat="44.19363" lon="6.27329">
        <ele>827.6</ele>
        <time>2021-09-18T14:04:39.679Z</time>
      </trkpt>
      <trkpt lat="44.19361" lon="6.27332">
        <ele>826.8</ele>
        <time>2021-09-18T14:04:40.397Z</time>
      </trkpt>
      <trkpt lat="44.19359" lon="6.27337">
        <ele>825.8</ele>
        <time>2021-09-18T14:04:41.400Z</time>
      </trkpt>
      <trkpt lat="44.19355" lon="6.27339">
        <ele>825.4</ele>
        <time>2021-09-18T14:04:42.438Z</time>
      </trkpt>
      <trkpt lat="44.19354" lon="6.27338">
        <ele>825.4</ele>
        <time>2021-09-18T14:04:43.984Z</time>
      </trkpt>
      <trkpt lat="44.19352" lon="6.27333">
        <ele>826.2</ele>
        <time>2021-09-18T14:05:03.880Z</time>
      </trkpt>
      <trkpt lat="44.1935" lon="6.27334">
        <ele>825.8</ele>
        <time>2021-09-18T14:05:04.399Z</time>
      </trkpt>
      <trkpt lat="44.1935" lon="6.27337">
        <ele>825.3</ele>
        <time>2021-09-18T14:05:04.925Z</time>
      </trkpt>
      <trkpt lat="44.19349" lon="6.2734">
        <ele>824.9</ele>
        <time>2021-09-18T14:05:05.504Z</time>
      </trkpt>
      <trkpt lat="44.19349" lon="6.27346">
        <ele>823.9</ele>
        <time>2021-09-18T14:05:06.556Z</time>
      </trkpt>
      <trkpt lat="44.19349" lon="6.27348">
        <ele>823.4</ele>
        <time>2021-09-18T14:05:06.906Z</time>
      </trkpt>
      <trkpt lat="44.1935" lon="6.27356">
        <ele>822.1</ele>
        <time>2021-09-18T14:05:08.329Z</time>
      </trkpt>
      <trkpt lat="44.1935" lon="6.27359">
        <ele>821.6</ele>
        <time>2021-09-18T14:05:08.855Z</time>
      </trkpt>
      <trkpt lat="44.1935" lon="6.27367">
        <ele>820.2</ele>
        <time>2021-09-18T14:05:10.257Z</time>
      </trkpt>
      <trkpt lat="44.19351" lon="6.27376">
        <ele>818.8</ele>
        <time>2021-09-18T14:05:11.853Z</time>
      </trkpt>
      <trkpt lat="44.19351" lon="6.27378">
        <ele>818.4</ele>
        <time>2021-09-18T14:05:12.203Z</time>
      </trkpt>
      <trkpt lat="44.19351" lon="6.27384">
        <ele>817.3</ele>
        <time>2021-09-18T14:05:13.255Z</time>
      </trkpt>
      <trkpt lat="44.1935" lon="6.27387">
        <ele>816.9</ele>
        <time>2021-09-18T14:05:13.834Z</time>
      </trkpt>
      <trkpt lat="44.1935" lon="6.27393">
        <ele>815.8</ele>
        <time>2021-09-18T14:05:14.886Z</time>
      </trkpt>
      <trkpt lat="44.19349" lon="6.27396">
        <ele>815.3</ele>
        <time>2021-09-18T14:05:15.465Z</time>
      </trkpt>
      <trkpt lat="44.19349" lon="6.27405">
        <ele>813.9</ele>
        <time>2021-09-18T14:05:17.043Z</time>
      </trkpt>
      <trkpt lat="44.19348" lon="6.27407">
        <ele>813.5</ele>
        <time>2021-09-18T14:05:17.470Z</time>
      </trkpt>
      <trkpt lat="44.19347" lon="6.27417">
        <ele>812</ele>
        <time>2021-09-18T14:05:19.239Z</time>
      </trkpt>
      <trkpt lat="44.19346" lon="6.27419">
        <ele>811.4</ele>
        <time>2021-09-18T14:05:19.666Z</time>
      </trkpt>
      <trkpt lat="44.19346" lon="6.27426">
        <ele>809.6</ele>
        <time>2021-09-18T14:05:20.893Z</time>
      </trkpt>
      <trkpt lat="44.19346" lon="6.27429">
        <ele>809</ele>
        <time>2021-09-18T14:05:21.419Z</time>
      </trkpt>
      <trkpt lat="44.19346" lon="6.27432">
        <ele>807.9</ele>
        <time>2021-09-18T14:05:21.944Z</time>
      </trkpt>
      <trkpt lat="44.19346" lon="6.27435">
        <ele>807.1</ele>
        <time>2021-09-18T14:05:22.470Z</time>
      </trkpt>
      <trkpt lat="44.19347" lon="6.27445">
        <ele>804.5</ele>
        <time>2021-09-18T14:05:24.239Z</time>
      </trkpt>
      <trkpt lat="44.19345" lon="6.27452">
        <ele>802.9</ele>
        <time>2021-09-18T14:05:25.560Z</time>
      </trkpt>
      <trkpt lat="44.19344" lon="6.27454">
        <ele>802.3</ele>
        <time>2021-09-18T14:05:25.987Z</time>
      </trkpt>
      <trkpt lat="44.19345" lon="6.27459">
        <ele>801</ele>
        <time>2021-09-18T14:05:26.897Z</time>
      </trkpt>
      <trkpt lat="44.19348" lon="6.27456">
        <ele>801.6</ele>
        <time>2021-09-18T14:05:44.787Z</time>
      </trkpt>
      <trkpt lat="44.19348" lon="6.27453">
        <ele>802.2</ele>
        <time>2021-09-18T14:05:55.212Z</time>
      </trkpt>
      <trkpt lat="44.19352" lon="6.27448">
        <ele>803.3</ele>
        <time>2021-09-18T14:06:21.244Z</time>
      </trkpt>
      <trkpt lat="44.19355" lon="6.27445">
        <ele>803.9</ele>
        <time>2021-09-18T14:06:39.134Z</time>
      </trkpt>
      <trkpt lat="44.19357" lon="6.27443">
        <ele>804.4</ele>
        <time>2021-09-18T14:06:51.061Z</time>
      </trkpt>
      <trkpt lat="44.1936" lon="6.27436">
        <ele>805.8</ele>
        <time>2021-09-18T14:07:19.400Z</time>
      </trkpt>
      <trkpt lat="44.19362" lon="6.27434">
        <ele>806.3</ele>
        <time>2021-09-18T14:07:31.327Z</time>
      </trkpt>
      <trkpt lat="44.19366" lon="6.27428">
        <ele>807.6</ele>
        <time>2021-09-18T14:07:59.796Z</time>
      </trkpt>
      <trkpt lat="44.19369" lon="6.27423">
        <ele>808.7</ele>
        <time>2021-09-18T14:08:22.451Z</time>
      </trkpt>
      <trkpt lat="44.19373" lon="6.2742">
        <ele>809.3</ele>
        <time>2021-09-18T14:08:44.049Z</time>
      </trkpt>
      <trkpt lat="44.19379" lon="6.27417">
        <ele>809.6</ele>
        <time>2021-09-18T14:08:57.789Z</time>
      </trkpt>
      <trkpt lat="44.19381" lon="6.27416">
        <ele>809.8</ele>
        <time>2021-09-18T14:09:04.356Z</time>
      </trkpt>
      <trkpt lat="44.19385" lon="6.27414">
        <ele>810</ele>
        <time>2021-09-18T14:09:13.515Z</time>
      </trkpt>
      <trkpt lat="44.19388" lon="6.27413">
        <ele>810</ele>
        <time>2021-09-18T14:09:17.391Z</time>
      </trkpt>
      <trkpt lat="44.19392" lon="6.27417">
        <ele>808.8</ele>
        <time>2021-09-18T14:09:18.594Z</time>
      </trkpt>
      <trkpt lat="44.19395" lon="6.2742">
        <ele>807.6</ele>
        <time>2021-09-18T14:09:19.496Z</time>
      </trkpt>
      <trkpt lat="44.19398" lon="6.27423">
        <ele>806.6</ele>
        <time>2021-09-18T14:09:20.398Z</time>
      </trkpt>
      <trkpt lat="44.19402" lon="6.27426">
        <ele>805.4</ele>
        <time>2021-09-18T14:09:21.508Z</time>
      </trkpt>
      <trkpt lat="44.19408" lon="6.2743">
        <ele>804</ele>
        <time>2021-09-18T14:09:23.134Z</time>
      </trkpt>
      <trkpt lat="44.19413" lon="6.27434">
        <ele>802.6</ele>
        <time>2021-09-18T14:09:24.542Z</time>
      </trkpt>
      <trkpt lat="44.19416" lon="6.27437">
        <ele>801.5</ele>
        <time>2021-09-18T14:09:25.444Z</time>
      </trkpt>
      <trkpt lat="44.19418" lon="6.27439">
        <ele>800.6</ele>
        <time>2021-09-18T14:09:26.046Z</time>
      </trkpt>
      <trkpt lat="44.19416" lon="6.27443">
        <ele>799.7</ele>
        <time>2021-09-18T14:09:26.900Z</time>
      </trkpt>
      <trkpt lat="44.19415" lon="6.27445">
        <ele>799.2</ele>
        <time>2021-09-18T14:09:27.328Z</time>
      </trkpt>
      <trkpt lat="44.19414" lon="6.27447">
        <ele>798.7</ele>
        <time>2021-09-18T14:09:27.755Z</time>
      </trkpt>
      <trkpt lat="44.1942" lon="6.2745">
        <ele>797.7</ele>
        <time>2021-09-18T14:09:29.313Z</time>
      </trkpt>
      <trkpt lat="44.19425" lon="6.27455">
        <ele>795.8</ele>
        <time>2021-09-18T14:09:30.816Z</time>
      </trkpt>
      <trkpt lat="44.19426" lon="6.27459">
        <ele>794.5</ele>
        <time>2021-09-18T14:09:31.559Z</time>
      </trkpt>
      <trkpt lat="44.19424" lon="6.27465">
        <ele>793</ele>
        <time>2021-09-18T14:09:32.718Z</time>
      </trkpt>
      <trkpt lat="44.19423" lon="6.27468">
        <ele>792.4</ele>
        <time>2021-09-18T14:09:33.298Z</time>
      </trkpt>
      <trkpt lat="44.1942" lon="6.27473">
        <ele>791.1</ele>
        <time>2021-09-18T14:09:34.440Z</time>
      </trkpt>
      <trkpt lat="44.19419" lon="6.27476">
        <ele>790.5</ele>
        <time>2021-09-18T14:09:35.020Z</time>
      </trkpt>
      <trkpt lat="44.19417" lon="6.27479">
        <ele>789.7</ele>
        <time>2021-09-18T14:09:35.738Z</time>
      </trkpt>
      <trkpt lat="44.19416" lon="6.27482">
        <ele>789.2</ele>
        <time>2021-09-18T14:09:36.318Z</time>
      </trkpt>
      <trkpt lat="44.19415" lon="6.27484">
        <ele>788.7</ele>
        <time>2021-09-18T14:09:36.745Z</time>
      </trkpt>
      <trkpt lat="44.19413" lon="6.27488">
        <ele>787.6</ele>
        <time>2021-09-18T14:09:37.599Z</time>
      </trkpt>
      <trkpt lat="44.19412" lon="6.27491">
        <ele>787</ele>
        <time>2021-09-18T14:09:38.179Z</time>
      </trkpt>
      <trkpt lat="44.19412" lon="6.27496">
        <ele>785.6</ele>
        <time>2021-09-18T14:09:39.055Z</time>
      </trkpt>
      <trkpt lat="44.19411" lon="6.27498">
        <ele>784.9</ele>
        <time>2021-09-18T14:09:39.482Z</time>
      </trkpt>
      <trkpt lat="44.19408" lon="6.27503">
        <ele>784</ele>
        <time>2021-09-18T14:09:40.625Z</time>
      </trkpt>
      <trkpt lat="44.19407" lon="6.27505">
        <ele>783.3</ele>
        <time>2021-09-18T14:09:41.052Z</time>
      </trkpt>
      <trkpt lat="44.19405" lon="6.27507">
        <ele>782.8</ele>
        <time>2021-09-18T14:09:41.654Z</time>
      </trkpt>
      <trkpt lat="44.19404" lon="6.2751">
        <ele>782.1</ele>
        <time>2021-09-18T14:09:42.233Z</time>
      </trkpt>
      <trkpt lat="44.19403" lon="6.27512">
        <ele>781.5</ele>
        <time>2021-09-18T14:09:42.661Z</time>
      </trkpt>
      <trkpt lat="44.19402" lon="6.27513">
        <ele>781</ele>
        <time>2021-09-18T14:09:42.961Z</time>
      </trkpt>
      <trkpt lat="44.19399" lon="6.27519">
        <ele>779.4</ele>
        <time>2021-09-18T14:09:44.243Z</time>
      </trkpt>
      <trkpt lat="44.19394" lon="6.27522">
        <ele>779.1</ele>
        <time>2021-09-18T14:09:45.579Z</time>
      </trkpt>
      <trkpt lat="44.19391" lon="6.27525">
        <ele>778.3</ele>
        <time>2021-09-18T14:09:46.481Z</time>
      </trkpt>
      <trkpt lat="44.19389" lon="6.27526">
        <ele>777.9</ele>
        <time>2021-09-18T14:09:47.000Z</time>
      </trkpt>
      <trkpt lat="44.19389" lon="6.27529">
        <ele>777</ele>
        <time>2021-09-18T14:09:47.526Z</time>
      </trkpt>
      <trkpt lat="44.19389" lon="6.27532">
        <ele>776.1</ele>
        <time>2021-09-18T14:09:48.052Z</time>
      </trkpt>
      <trkpt lat="44.19391" lon="6.27537">
        <ele>774.3</ele>
        <time>2021-09-18T14:09:49.055Z</time>
      </trkpt>
      <trkpt lat="44.19394" lon="6.27539">
        <ele>773.5</ele>
        <time>2021-09-18T14:09:49.868Z</time>
      </trkpt>
      <trkpt lat="44.19399" lon="6.27543">
        <ele>772</ele>
        <time>2021-09-18T14:09:51.276Z</time>
      </trkpt>
      <trkpt lat="44.19402" lon="6.27547">
        <ele>770.5</ele>
        <time>2021-09-18T14:09:52.291Z</time>
      </trkpt>
      <trkpt lat="44.19401" lon="6.27551">
        <ele>769.3</ele>
        <time>2021-09-18T14:09:53.033Z</time>
      </trkpt>
      <trkpt lat="44.194" lon="6.27553">
        <ele>768.8</ele>
        <time>2021-09-18T14:09:53.460Z</time>
      </trkpt>
      <trkpt lat="44.19395" lon="6.27556">
        <ele>768.1</ele>
        <time>2021-09-18T14:09:54.790Z</time>
      </trkpt>
      <trkpt lat="44.19394" lon="6.2756">
        <ele>766.9</ele>
        <time>2021-09-18T14:09:55.533Z</time>
      </trkpt>
      <trkpt lat="44.19392" lon="6.27563">
        <ele>766.1</ele>
        <time>2021-09-18T14:09:56.251Z</time>
      </trkpt>
      <trkpt lat="44.19391" lon="6.27565">
        <ele>765.4</ele>
        <time>2021-09-18T14:09:56.678Z</time>
      </trkpt>
      <trkpt lat="44.19393" lon="6.2757">
        <ele>763.8</ele>
        <time>2021-09-18T14:09:57.681Z</time>
      </trkpt>
      <trkpt lat="44.19397" lon="6.27582">
        <ele>760</ele>
        <time>2021-09-18T14:10:00.000Z</time>
      </trkpt>
    </trkseg>
  </trk>
</gpx>